# Wetter Temperatur Luftdruck Luftfeuchtigkeit Sichtweite Windgeschwindigkeit Windrichtung Zeit
1 Clouds 35 1008 41 10000 5.7 200 11:37 08.04.2020
2 Clouds 35 1008 44 10000 6.2 200 11:19 08.04.2020
3 Clouds 35 1008 50 10000 5.7 200 10:55 08.04.2020
4 Clouds 35 1008 50 10000 5.7 200 10:37 08.04.2020
5 Clouds 35 1009 50 10000 6.2 190 10:18 08.04.2020
6 Clouds 35 1009 50 10000 6.2 200 09:42 08.04.2020
7 Clouds 35 1009 50 10000 6.2 200 09:20 08.04.2020
8 Clouds 35 1010 53 10000 5.1 190 08:59 08.04.2020
9 Clouds 35 1010 53 10000 5.1 190 08:40 08.04.2020
10 Clouds 35 1010 53 10000 5.1 190 08:21 08.04.2020
11 Clouds 35 1011 56 10000 5.7 180 07:43 08.04.2020
12 Clouds 35 1011 56 10000 4.6 180 07:22 08.04.2020
13 Clouds 34 1011 59 10000 5.1 180 06:41 08.04.2020
14 Clouds 33 1012 66 10000 4.1 150 05:30 08.04.2020
15 Clouds 30 1011 83 10000 4.1 120 03:20 08.04.2020
16 Clouds 29 1010 88 10000 3.1 110 02:38 08.04.2020
17 Clouds 29 1010 88 10000 3.1 110 02:18 08.04.2020
18 Clouds 29 1009 88 10000 2.6 120 01:28 08.04.2020
19 Clouds 29 1009 83 10000 2.1 120 00:50 08.04.2020
20 Clouds 29 1009 83 10000 2.1 120 00:32 08.04.2020
21 Clouds 29 1009 79 10000 1.5 140 23:57 07.04.2020
22 Clouds 29 1008 79 10000 2.6 150 23:38 07.04.2020
23 Clouds 29 1008 79 10000 2.6 150 23:19 07.04.2020
24 Clouds 29 1008 79 10000 2.6 150 23:19 07.04.2020
25 Clouds 29 1008 79 10000 2.1 160 22:56 07.04.2020
26 Clouds 29 1008 79 10000 2.6 170 22:38 07.04.2020
27 Clouds 29 1008 79 10000 2.6 170 22:18 07.04.2020
28 Clouds 29 1009 79 10000 2.1 170 21:43 07.04.2020
29 Clouds 29 1009 79 10000 2.1 170 21:22 07.04.2020
30 Clouds 30 1009 79 10000 3.6 190 20:59 07.04.2020
31 Clouds 30 1009 79 10000 3.6 190 20:41 07.04.2020
32 Clouds 29 1009 79 10000 3.6 190 20:21 07.04.2020
33 Clouds 29 1010 79 10000 3.6 180 19:58 07.04.2020
34 Clouds 30 1010 79 10000 4.1 180 19:38 07.04.2020
35 Clouds 30 1010 79 10000 4.1 180 19:20 07.04.2020
36 Clouds 29 1010 79 10000 4.1 180 18:59 07.04.2020
37 Clouds 29 1010 74 10000 5.1 180 18:40 07.04.2020
38 Clouds 30 1010 74 10000 5.1 180 18:21 07.04.2020
39 Clouds 30 1009 74 10000 3.6 180 17:47 07.04.2020
40 Clouds 30 1009 74 10000 3.6 180 17:47 07.04.2020
41 Clouds 30 1009 74 10000 3.6 180 17:25 07.04.2020
42 Clouds 30 1009 74 10000 5.7 200 16:58 07.04.2020
43 Clouds 31 1008 74 10000 5.7 200 16:40 07.04.2020
44 Clouds 31 1008 74 10000 5.7 200 16:22 07.04.2020
45 Clouds 31 1008 74 10000 5.7 200 15:43 07.04.2020
46 Clouds 32 1007 66 10000 4.6 180 15:24 07.04.2020
47 Clouds 32 1007 66 10000 4.6 180 14:55 07.04.2020
48 Clouds 32 1007 66 10000 5.1 180 14:36 07.04.2020
49 Clouds 32 1006 59 10000 5.7 180 14:18 07.04.2020
50 Clouds 33 1006 62 10000 4.1 180 13:41 07.04.2020
51 Clouds 33 1006 55 10000 4.6 190 13:19 07.04.2020
52 Clouds 33 1006 55 10000 4.6 190 12:56 07.04.2020
53 Clouds 33 1006 55 10000 4.6 200 12:37 07.04.2020
54 Clouds 34 1006 59 10000 5.1 200 12:19 07.04.2020
55 Clouds 34 1007 56 10000 5.1 190 11:46 07.04.2020
56 Clouds 34 1007 56 10000 5.1 190 11:27 07.04.2020
57 Clouds 34 1007 59 10000 5.1 190 10:59 07.04.2020
58 Clouds 34 1007 56 10000 4.6 190 10:39 07.04.2020
59 Clouds 34 1007 56 10000 4.6 190 10:39 07.04.2020
60 Clouds 34 1007 56 10000 4.6 190 10:20 07.04.2020
61 Clouds 34 1008 53 10000 6.2 210 09:46 07.04.2020
62 Clouds 35 1008 53 10000 6.2 210 09:20 07.04.2020
63 Clouds 35 1009 53 10000 5.7 190 08:59 07.04.2020
64 Clouds 35 1009 50 10000 5.1 200 08:39 07.04.2020
65 Clouds 34 1009 50 10000 5.1 200 08:20 07.04.2020
66 Clouds 35 1010 53 10000 4.1 190 07:44 07.04.2020
67 Clouds 34 1010 53 10000 4.1 190 07:26 07.04.2020
68 Clouds 34 1011 53 10000 3.6 200 06:52 07.04.2020
69 Clouds 33 1011 53 10000 3.6 190 06:25 07.04.2020
70 Clouds 33 1011 59 10000 3.6 210 05:50 07.04.2020
71 Clouds 33 1012 59 10000 3.1 170 05:24 07.04.2020
72 Clouds 31 1011 70 10000 4.1 190 03:34 07.04.2020
73 Clouds 30 1010 74 10000 1.5 180 02:59 07.04.2020
74 Clouds 30 1010 79 10000 2.1 170 02:35 07.04.2020
75 Clouds 29 1009 79 10000 2.1 170 01:34 07.04.2020
76 Clouds 29 1009 79 10000 2.1 170 00:52 07.04.2020
77 Clouds 30 1008 79 10000 3.6 190 00:25 07.04.2020
78 Clouds 30 1009 79 10000 4.1 190 23:40 06.04.2020
79 Clouds 30 1009 79 10000 4.1 190 23:21 06.04.2020
80 Clouds 30 1009 79 10000 4.1 180 22:42 06.04.2020
81 Clouds 30 1009 79 10000 4.1 180 22:23 06.04.2020
82 Clouds 30 1009 79 10000 4.1 190 21:59 06.04.2020
83 Clouds 30 1009 79 10000 4.1 190 21:41 06.04.2020
84 Clouds 30 1009 79 10000 4.1 190 21:19 06.04.2020
85 Clouds 30 1010 74 10000 4.6 190 20:56 06.04.2020
86 Clouds 30 1010 74 10000 4.1 190 20:38 06.04.2020
87 Clouds 30 1010 74 10000 5.1 190 20:20 06.04.2020
88 Clouds 30 1010 74 10000 5.1 190 19:56 06.04.2020
89 Clouds 30 1011 74 10000 5.7 190 19:38 06.04.2020
90 Clouds 30 1011 74 10000 4.1 180 19:19 06.04.2020
91 Clouds 30 1011 74 10000 4.1 180 19:19 06.04.2020
92 Clouds 30 1011 74 10000 5.1 190 18:42 06.04.2020
93 Clouds 31 1011 74 10000 5.7 200 18:23 06.04.2020
94 Clouds 31 1011 74 10000 5.7 200 17:57 06.04.2020
95 Clouds 31 1010 74 10000 5.1 200 17:38 06.04.2020
96 Clouds 31 1010 74 10000 6.2 190 17:18 06.04.2020
97 Clouds 31 1009 70 10000 5.7 180 16:47 06.04.2020
98 Clouds 31 1009 70 10000 5.7 180 16:29 06.04.2020
99 Clouds 31 1009 66 10000 6.7 200 14:46 06.04.2020
100 Clouds 31 1009 66 10000 6.7 200 14:46 06.04.2020
101 Clouds 31 1009 66 10000 6.7 200 14:46 06.04.2020
102 Clouds 31 1009 66 10000 6.7 200 14:46 06.04.2020
103 Clouds 31 1009 66 10000 6.7 200 14:46 06.04.2020
104 Clouds 32 1007 59 10000 6.2 190 13:44 06.04.2020
105 Clouds 33 1007 59 10000 5.1 190 13:21 06.04.2020
106 Clouds 34 1007 55 10000 6.2 190 12:44 06.04.2020
107 Clouds 34 1007 55 10000 6.2 190 12:44 06.04.2020
108 Clouds 34 1007 55 10000 6.2 190 12:43 06.04.2020
109 Clouds 34 1007 56 10000 7.2 210 12:19 06.04.2020
110 Clouds 34 1007 56 10000 7.2 210 12:19 06.04.2020
111 Clouds 34 1007 56 10000 7.2 210 12:19 06.04.2020
112 Clouds 35 1006 50 10000 6.7 200 11:40 06.04.2020
113 Clouds 35 1007 47 10000 5.1 180 10:55 06.04.2020
114 Clouds 35 1007 47 10000 4.6 180 10:37 06.04.2020
115 Clouds 35 1007 47 10000 4.6 180 10:19 06.04.2020
116 Clouds 35 1007 47 10000 4.6 180 10:19 06.04.2020
117 Clouds 35 1007 47 10000 4.6 180 10:19 06.04.2020
118 Clouds 36 1008 47 10000 5.1 200 09:38 06.04.2020
119 Clouds 36 1008 47 10000 5.1 200 09:38 06.04.2020
120 Clouds 36 1008 47 10000 5.1 200 09:38 06.04.2020
121 Clouds 36 1008 47 10000 5.1 200 09:38 06.04.2020
122 Clouds 36 1008 47 10000 4.6 180 09:19 06.04.2020
123 Clouds 36 1009 47 10000 4.6 180 08:43 06.04.2020
124 Clouds 36 1009 47 10000 4.6 180 08:43 06.04.2020
125 Clouds 36 1009 47 10000 4.6 180 08:43 06.04.2020
126 Clouds 36 1009 47 10000 4.6 180 08:43 06.04.2020
127 Clouds 36 1009 47 10000 4.6 180 08:43 06.04.2020
128 Clouds 36 1010 50 10000 4.6 170 07:59 06.04.2020
129 Clouds 36 1010 50 10000 4.6 170 07:59 06.04.2020
130 Clouds 35 1011 47 10000 5.1 200 07:20 06.04.2020
131 Clouds 34 1012 53 10000 4.1 200 06:26 06.04.2020
132 Clouds 34 1012 59 10000 4.6 180 05:43 06.04.2020
133 Clouds 31 1012 70 10000 3.6 190 03:33 06.04.2020
134 Clouds 30 1011 79 10000 3.1 190 02:49 06.04.2020
135 Clouds 29 1011 83 10000 1 170 01:53 06.04.2020
136 Clouds 29 1010 83 10000 2.6 160 00:52 06.04.2020
137 Clouds 29 1010 83 10000 1.5 170 00:27 06.04.2020
138 Clouds 30 1010 83 10000 2.6 180 23:50 05.04.2020
139 Clouds 30 1010 83 10000 3.6 200 23:32 05.04.2020
140 Clouds 30 1010 83 10000 3.6 200 23:32 05.04.2020
141 Clouds 30 1010 83 10000 3.6 200 23:32 05.04.2020
142 Clouds 30 1010 83 10000 3.1 190 22:57 05.04.2020
143 Clouds 30 1010 83 10000 3.1 190 22:38 05.04.2020
144 Clouds 30 1011 79 10000 3.6 190 22:19 05.04.2020
145 Clouds 30 1011 83 10000 3.1 180 21:58 05.04.2020
146 Clouds 30 1011 83 10000 3.1 180 21:39 05.04.2020
147 Clouds 30 1011 83 10000 3.1 180 21:39 05.04.2020
148 Clouds 30 1011 79 10000 4.1 210 21:21 05.04.2020
149 Clouds 30 1012 79 10000 4.1 190 20:21 05.04.2020
150 Clouds 31 1012 79 10000 3.6 190 19:41 05.04.2020
151 Clouds 31 1012 79 10000 4.6 200 19:22 05.04.2020
152 Clouds 31 1012 74 10000 7.2 200 18:47 05.04.2020
153 Clouds 31 1013 79 10000 5.1 180 17:59 05.04.2020
154 Clouds 31 1013 74 10000 4.6 190 17:40 05.04.2020
155 Clouds 31 1013 74 10000 4.6 190 17:40 05.04.2020
156 Clouds 31 1013 74 10000 4.6 190 17:40 05.04.2020
157 Clouds 31 1013 74 10000 4.6 190 17:40 05.04.2020
158 Clouds 31 1013 74 10000 4.6 190 17:40 05.04.2020
159 Clouds 31 1013 74 10000 4.6 190 17:20 05.04.2020
160 Clouds 31 1013 74 10000 4.6 190 17:20 05.04.2020
161 Clouds 31 1013 74 10000 4.6 190 16:46 05.04.2020
162 Clouds 31 1013 74 10000 4.6 190 16:46 05.04.2020
163 Clouds 31 1013 74 10000 4.6 190 16:46 05.04.2020
164 Clouds 31 1013 74 10000 4.6 190 16:46 05.04.2020
165 Clouds 31 1013 74 10000 4.6 190 16:46 05.04.2020
166 Clouds 31 1012 74 10000 5.7 190 16:18 05.04.2020
167 Clouds 32 1011 74 10000 4.6 190 15:44 05.04.2020
168 Clouds 32 1010 70 10000 6.2 190 15:25 05.04.2020
169 Clouds 32 1010 70 10000 6.2 190 15:25 05.04.2020
170 Clouds 32 1009 70 10000 6.2 190 14:48 05.04.2020
171 Clouds 32 1009 70 10000 6.2 190 14:48 05.04.2020
172 Clouds 32 1009 70 10000 6.2 190 14:48 05.04.2020
173 Clouds 32 1009 70 10000 6.2 190 14:47 05.04.2020
174 Clouds 32 1009 70 10000 6.2 190 14:47 05.04.2020
175 Clouds 33 1009 62 10000 6.2 190 13:45 05.04.2020
176 Clouds 34 1008 56 10000 6.2 200 12:57 05.04.2020
177 Clouds 34 1008 56 10000 6.2 200 12:57 05.04.2020
178 Clouds 34 1008 53 10000 5.1 200 11:58 05.04.2020
179 Clouds 34 1008 53 10000 5.1 200 11:58 05.04.2020
180 Clouds 34 1008 53 10000 5.1 200 11:58 05.04.2020
181 Clouds 35 1008 47 10000 5.7 210 11:38 05.04.2020
182 Clouds 35 1008 47 10000 5.7 210 11:19 05.04.2020
183 Clouds 35 1008 50 10000 5.1 190 10:44 05.04.2020
184 Clouds 35 1009 47 10000 5.7 210 10:19 05.04.2020
185 Clouds 36 1009 47 10000 5.1 190 09:52 05.04.2020
186 Clouds 36 1009 47 10000 5.1 190 09:52 05.04.2020
187 Clouds 36 1009 47 10000 5.1 190 09:52 05.04.2020
188 Clouds 36 1009 47 10000 5.1 190 09:52 05.04.2020
189 Clouds 36 1009 47 10000 5.1 190 09:52 05.04.2020
190 Clouds 35 1009 47 10000 4.1 180 09:25 05.04.2020
191 Clouds 35 1009 47 10000 4.1 180 09:25 05.04.2020
192 Clouds 35 1009 47 10000 4.1 180 09:25 05.04.2020
193 Clouds 35 1009 47 10000 4.1 180 09:25 05.04.2020
194 Clouds 35 1009 47 10000 4.1 180 09:25 05.04.2020
195 Clouds 35 1011 50 10000 4.6 190 07:57 05.04.2020
196 Clouds 35 1011 50 10000 4.6 190 07:57 05.04.2020
197 Clear 33 1013 70 10000 2.6 150 04:52 05.04.2020
198 Clear 33 1013 70 10000 2.6 150 04:52 05.04.2020
199 Clear 31 1012 78 10000 2.6 110 03:35 05.04.2020
200 Clear 31 1012 78 10000 2.6 110 03:35 05.04.2020
201 Clear 31 1012 78 10000 2.6 110 03:35 05.04.2020
202 Clouds 30 1012 83 10000 4.1 100 02:52 05.04.2020
203 Clear 29 1011 88 10000 3.39 197 01:51 05.04.2020
204 Clouds 29 1011 83 10000 3.1 110 01:32 05.04.2020
205 Clouds 29 1010 83 10000 3.1 110 00:47 05.04.2020
206 Clouds 29 1010 83 10000 3.1 110 00:22 05.04.2020
207 Clouds 29 1010 78 10000 3.1 110 23:57 04.04.2020
208 Clouds 29 1010 79 10000 1.5 140 23:38 04.04.2020
209 Clouds 30 1010 79 10000 1.5 140 23:19 04.04.2020
210 Clouds 30 1010 83 10000 2.1 170 22:55 04.04.2020
211 Clouds 29 1010 83 10000 2.6 170 22:37 04.04.2020
212 Clouds 29 1010 83 10000 2.6 170 22:19 04.04.2020
213 Clouds 30 1010 83 10000 2.6 200 21:54 04.04.2020
214 Clouds 30 1010 79 10000 3.6 190 21:36 04.04.2020
215 Clouds 30 1010 79 10000 3.6 190 21:18 04.04.2020
216 Clouds 30 1010 79 10000 3.6 180 20:42 04.04.2020
217 Clouds 30 1011 79 10000 4.6 190 20:23 04.04.2020
218 Clouds 30 1011 79 10000 4.6 190 19:58 04.04.2020
219 Clouds 30 1011 79 10000 5.7 190 19:37 04.04.2020
220 Clouds 30 1011 79 10000 5.7 190 19:19 04.04.2020
221 Clouds 30 1011 79 10000 5.7 190 18:57 04.04.2020
222 Clouds 30 1011 79 10000 5.7 190 18:57 04.04.2020
223 Clouds 31 1011 79 10000 5.7 190 18:38 04.04.2020
224 Clouds 31 1011 79 10000 5.7 190 18:38 04.04.2020
225 Clouds 31 1011 79 10000 5.7 190 18:19 04.04.2020
226 Clouds 31 1011 74 10000 5.7 200 17:56 04.04.2020
227 Clouds 31 1011 70 10000 5.1 190 17:38 04.04.2020
228 Clouds 31 1011 70 10000 5.1 190 17:38 04.04.2020
229 Clouds 31 1011 70 10000 5.1 190 17:18 04.04.2020
230 Clouds 31 1011 66 10000 6.2 180 16:42 04.04.2020
231 Clouds 31 1011 66 10000 6.2 180 16:22 04.04.2020
232 Clouds 32 1010 66 10000 4.1 180 15:56 04.04.2020
233 Clouds 32 1010 66 10000 4.6 190 15:38 04.04.2020
234 Clouds 32 1010 66 10000 4.6 190 15:18 04.04.2020
235 Clouds 32 1009 70 10000 4.6 200 14:43 04.04.2020
236 Clouds 32 1009 62 10000 5.7 180 14:23 04.04.2020
237 Clouds 32 1008 59 10000 5.1 190 13:56 04.04.2020
238 Clouds 33 1008 52 10000 5.7 190 13:38 04.04.2020
239 Clouds 33 1008 52 10000 5.7 190 13:19 04.04.2020
240 Clouds 33 1008 52 10000 5.7 190 13:19 04.04.2020
241 Clouds 34 1008 47 10000 5.7 190 12:45 04.04.2020
242 Clouds 34 1008 56 10000 7.7 200 12:26 04.04.2020
243 Clouds 35 1008 39 10000 4.1 200 11:59 04.04.2020
244 Clouds 35 1008 39 10000 4.1 200 11:59 04.04.2020
245 Clouds 36 1007 39 10000 4.1 200 11:38 04.04.2020
246 Clouds 37 1007 39 10000 4.1 200 11:20 04.04.2020
247 Clouds 37 1007 39 10000 4.1 200 11:20 04.04.2020
248 Clouds 36 1008 39 10000 5.1 210 10:56 04.04.2020
249 Clouds 36 1008 44 10000 5.1 200 10:38 04.04.2020
250 Clouds 36 1008 44 10000 5.1 200 10:19 04.04.2020
251 Clouds 36 1008 47 10000 4.6 190 09:54 04.04.2020
252 Clouds 36 1009 47 10000 4.6 170 09:36 04.04.2020
253 Clouds 37 1009 47 10000 4.6 170 09:18 04.04.2020
254 Clouds 37 1009 44 10000 5.1 180 08:41 04.04.2020
255 Clouds 37 1010 44 10000 3.6 220 08:21 04.04.2020
256 Clouds 37 1010 44 10000 3.1 190 07:46 04.04.2020
257 Clouds 36 1011 44 10000 3.6 240 07:26 04.04.2020
258 Clouds 36 1011 50 10000 2.6 150 06:53 04.04.2020
259 Clouds 35 1011 50 10000 3.1 210 06:20 04.04.2020
260 Clouds 34 1012 56 10000 3.1 190 05:43 04.04.2020
261 Clouds 34 1012 56 10000 3.1 180 05:24 04.04.2020
262 Clouds 33 1012 70 10000 3.6 160 04:31 04.04.2020
263 Clouds 32 1012 74 10000 3.6 180 03:51 04.04.2020
264 Clouds 30 1011 79 10000 3.2 219 02:52 04.04.2020
265 Clouds 30 1011 83 10000 3.2 219 02:33 04.04.2020
266 Clouds 29 1010 83 10000 1.5 150 01:55 04.04.2020
267 Clouds 29 1010 88 10000 1.5 130 01:25 04.04.2020
268 Clouds 29 1010 83 10000 1.5 140 00:49 04.04.2020
269 Clouds 29 1010 83 10000 1.5 170 00:30 04.04.2020
270 Clouds 30 1010 83 10000 2.1 170 23:40 03.04.2020
271 Clouds 30 1009 83 10000 2.6 160 23:21 03.04.2020
272 Clouds 30 1009 83 10000 2.6 160 23:21 03.04.2020
273 Clouds 30 1010 83 10000 1 0 22:58 03.04.2020
274 Clouds 30 1010 83 10000 1 0 22:39 03.04.2020
275 Clouds 30 1010 83 10000 1.5 190 22:18 03.04.2020
276 Clouds 30 1010 83 10000 2.1 200 21:44 03.04.2020
277 Clouds 30 1010 79 10000 3.6 200 21:25 03.04.2020
278 Clouds 30 1010 79 10000 3.6 210 20:57 03.04.2020
279 Clouds 30 1011 83 10000 4.1 210 20:38 03.04.2020
280 Clouds 30 1011 83 10000 4.1 210 20:19 03.04.2020
281 Clouds 30 1011 83 10000 4.1 210 19:57 03.04.2020
282 Clouds 30 1011 79 10000 3.6 200 19:39 03.04.2020
283 Clouds 30 1011 79 10000 3.6 200 19:21 03.04.2020
284 Clouds 30 1011 79 10000 4.6 200 18:59 03.04.2020
285 Clouds 30 1011 79 10000 6.2 190 18:41 03.04.2020
286 Clouds 31 1011 79 10000 6.2 190 18:22 03.04.2020
287 Clouds 31 1011 74 10000 4.6 200 17:55 03.04.2020
288 Clouds 31 1011 66 10000 5.1 190 17:37 03.04.2020
289 Clouds 32 1011 66 10000 5.1 190 17:18 03.04.2020
290 Clouds 32 1011 66 10000 5.1 190 16:44 03.04.2020
291 Clouds 32 1010 70 10000 5.1 180 16:22 03.04.2020
292 Clouds 32 1010 70 10000 4.1 180 15:58 03.04.2020
293 Clouds 32 1010 70 10000 4.1 180 15:39 03.04.2020
294 Clouds 32 1009 70 10000 4.1 180 15:20 03.04.2020
295 Clouds 32 1010 60 0 6.97 175 14:56 03.04.2020
296 Clouds 32 1010 60 0 6.97 175 14:37 03.04.2020
297 Clouds 32 1008 59 10000 5.7 170 14:19 03.04.2020
298 Clouds 33 1008 59 10000 5.7 170 13:43 03.04.2020
299 Clouds 33 1008 59 10000 5.7 170 13:25 03.04.2020
300 Clouds 33 1008 59 10000 6.7 180 12:55 03.04.2020
301 Clouds 34 1008 56 10000 7.2 200 12:37 03.04.2020
302 Clouds 34 1008 56 10000 7.2 200 12:18 03.04.2020
303 Clouds 34 1008 52 10000 6.2 200 11:41 03.04.2020
304 Clouds 34 1008 50 10000 6.7 200 11:23 03.04.2020
305 Clouds 35 1008 47 10000 5.7 180 10:59 03.04.2020
306 Clouds 35 1008 50 10000 5.7 180 10:39 03.04.2020
307 Clouds 36 1008 50 10000 5.7 180 10:20 03.04.2020
308 Clouds 36 1009 47 10000 5.7 210 09:59 03.04.2020
309 Clouds 35 1009 47 10000 5.1 190 09:40 03.04.2020
310 Clouds 35 1009 47 10000 5.1 190 09:22 03.04.2020
311 Clouds 35 1010 47 10000 5.1 200 08:56 03.04.2020
312 Clouds 35 1011 50 10000 5.1 190 08:38 03.04.2020
313 Clouds 36 1011 50 10000 5.1 190 08:20 03.04.2020
314 Clouds 35 1011 53 10000 5.7 200 07:46 03.04.2020
315 Clouds 35 1012 53 10000 5.1 200 07:28 03.04.2020
316 Clouds 35 1012 53 10000 4.6 180 06:41 03.04.2020
317 Clouds 34 1012 53 10000 4.6 180 06:22 03.04.2020
318 Clouds 33 1012 63 10000 4.6 170 05:39 03.04.2020
319 Clouds 31 1012 74 10000 3.1 140 03:42 03.04.2020
320 Clouds 29 1011 78 10000 3.1 110 02:56 03.04.2020
321 Clouds 29 1011 83 10000 3.1 110 02:18 03.04.2020
322 Clouds 29 1010 83 10000 2.6 110 01:22 03.04.2020
323 Clouds 29 1010 79 10000 1.5 160 00:34 03.04.2020
324 Clouds 29 1009 79 10000 1.5 170 23:58 02.04.2020
325 Clouds 29 1009 79 10000 1.5 170 23:39 02.04.2020
326 Clouds 29 1009 79 10000 1.5 180 23:21 02.04.2020
327 Clouds 29 1009 83 10000 2.1 180 22:57 02.04.2020
328 Clouds 30 1009 83 10000 2.6 190 22:37 02.04.2020
329 Clouds 30 1009 83 10000 2.6 190 22:18 02.04.2020
330 Clouds 30 1009 79 10000 2.6 170 21:38 02.04.2020
331 Clouds 30 1009 79 10000 2.6 170 21:19 02.04.2020
332 Clouds 30 1010 74 10000 4.1 180 20:57 02.04.2020
333 Clouds 30 1010 74 10000 3.1 190 20:39 02.04.2020
334 Clouds 30 1010 74 10000 3.1 190 20:19 02.04.2020
335 Clouds 30 1010 79 10000 4.1 170 19:43 02.04.2020
336 Clouds 30 1010 79 10000 4.6 160 19:21 02.04.2020
337 Clouds 30 1010 79 10000 4.6 160 19:21 02.04.2020
338 Clouds 30 1010 79 10000 5.7 170 18:58 02.04.2020
339 Clouds 30 1010 79 10000 4.6 170 18:39 02.04.2020
340 Clouds 31 1010 79 10000 4.6 170 18:20 02.04.2020
341 Clouds 31 1011 79 10000 5.1 180 17:55 02.04.2020
342 Clouds 31 1010 70 10000 5.7 180 17:37 02.04.2020
343 Clouds 31 1010 70 10000 5.7 180 17:18 02.04.2020
344 Clouds 31 1010 66 10000 6.7 180 16:55 02.04.2020
345 Clouds 31 1010 66 10000 6.2 180 16:36 02.04.2020
346 Clouds 31 1010 66 10000 6.2 180 16:36 02.04.2020
347 Clouds 31 1010 66 10000 6.2 180 16:18 02.04.2020
348 -273 0 0 0 0 0 15:43 02.04.2020
349 Clouds 31 1009 66 10000 5.1 190 15:43 02.04.2020
350 Clouds 31 1009 66 10000 3.6 180 15:20 02.04.2020
351 Clouds 32 1009 59 10000 5.7 190 14:58 02.04.2020
352 Clouds 32 1009 59 10000 5.7 190 14:58 02.04.2020
353 Clouds 32 1009 59 10000 5.7 190 14:39 02.04.2020
354 Clouds 32 1008 52 10000 5.1 190 14:19 02.04.2020
355 Clouds 33 1008 46 10000 4.1 200 13:56 02.04.2020
356 Clouds 33 1007 44 10000 5.7 200 13:38 02.04.2020
357 Clouds 33 1007 44 10000 5.7 200 13:19 02.04.2020
358 Clouds 34 1007 41 10000 5.7 190 12:46 02.04.2020
359 Clouds 35 1007 34 10000 5.7 200 12:20 02.04.2020
360 Clouds 35 1007 34 10000 5.7 200 12:20 02.04.2020
361 Clouds 35 1007 32 10000 6.7 210 11:58 02.04.2020
362 Clouds 35 1007 34 10000 5.7 200 11:39 02.04.2020
363 Clouds 35 1007 34 10000 5.7 200 11:39 02.04.2020
364 Clouds 35 1007 34 10000 5.7 200 11:39 02.04.2020
365 Clouds 35 1007 34 10000 5.7 200 11:21 02.04.2020
366 Clouds 35 1007 39 10000 5.7 190 10:57 02.04.2020
367 Clouds 35 1008 44 10000 6.2 200 10:39 02.04.2020
368 Clouds 36 1008 44 10000 6.2 200 10:21 02.04.2020
369 Clouds 36 1008 47 10000 6.2 170 09:59 02.04.2020
370 Clouds 36 1008 47 10000 6.2 170 09:41 02.04.2020
371 Clouds 35 1008 53 10000 5.7 200 09:22 02.04.2020
372 Clouds 36 1009 50 10000 4.6 190 08:48 02.04.2020
373 Clouds 36 1009 53 10000 4.6 200 08:29 02.04.2020
374 Clouds 35 1010 56 10000 4.6 190 07:59 02.04.2020
375 Clouds 35 1011 56 10000 4.6 210 07:40 02.04.2020
376 Clouds 35 1011 56 10000 4.6 210 07:19 02.04.2020
377 Clouds 34 1011 59 10000 4.6 170 06:25 02.04.2020
378 Clouds 33 1011 63 10000 4.6 170 05:46 02.04.2020
379 Clouds 33 1011 66 10000 4.6 180 05:18 02.04.2020
380 Clouds 29 1010 83 10000 3.1 140 02:26 02.04.2020
381 Clouds 29 1009 83 10000 2.1 160 01:27 02.04.2020
382 Clouds 29 1009 83 10000 2.1 160 00:41 02.04.2020
383 Clouds 29 1009 83 10000 2.1 160 00:20 02.04.2020
384 Clouds 29 1008 83 10000 3.1 160 23:40 01.04.2020
385 Clouds 29 1008 83 10000 2.6 160 23:19 01.04.2020
386 Clouds 29 1008 83 10000 3.6 160 22:57 01.04.2020
387 Clouds 29 1008 83 10000 3.6 160 22:57 01.04.2020
388 Clouds 29 1008 83 10000 3.6 160 22:57 01.04.2020
389 Clouds 29 1008 83 10000 3.6 160 22:38 01.04.2020
390 Clouds 30 1008 83 10000 3.1 170 22:19 01.04.2020
391 Clouds 30 1008 83 10000 3.1 170 22:19 01.04.2020
392 Clouds 30 1008 83 10000 3.6 170 21:41 01.04.2020
393 Clear 30 1008 79 10000 2.1 170 21:19 01.04.2020
394 Clear 30 1008 79 10000 3.1 190 20:56 01.04.2020
395 Clear 30 1008 79 10000 3.1 190 20:38 01.04.2020
396 Clear 30 1009 79 10000 5.1 180 20:19 01.04.2020
397 Clear 30 1009 79 10000 6.7 200 19:58 01.04.2020
398 Clear 30 1009 79 10000 6.7 200 19:38 01.04.2020
399 Clear 30 1009 79 10000 6.7 200 19:19 01.04.2020
400 Clear 30 1009 74 10000 3.6 210 18:42 01.04.2020
401 Clear 30 1009 74 10000 3.6 210 18:23 01.04.2020
402 Clear 31 1009 66 10000 4.6 190 17:57 01.04.2020
403 Clear 31 1009 66 10000 5.1 190 17:38 01.04.2020
404 Clear 31 1009 66 10000 5.1 190 17:19 01.04.2020
405 Clouds 31 1009 62 10000 4.6 180 16:57 01.04.2020
406 Clouds 31 1009 62 10000 4.6 190 16:39 01.04.2020
407 Clouds 32 1009 62 10000 4.6 190 16:20 01.04.2020
408 Clouds 32 1008 62 10000 3.6 190 15:56 01.04.2020
409 Clouds 32 1008 62 10000 4.6 190 15:37 01.04.2020
410 Clouds 32 1008 62 10000 4.6 190 15:18 01.04.2020
411 Clouds 32 1007 52 10000 4.6 180 14:40 01.04.2020
412 Clouds 32 1007 49 10000 4.1 180 14:22 01.04.2020
413 Clouds 32 1006 46 10000 4.1 190 13:59 01.04.2020
414 Clouds 33 1006 46 10000 3.6 180 13:39 01.04.2020
415 Clouds 33 1006 46 10000 3.6 180 13:20 01.04.2020
416 Clouds 34 1006 44 10000 5.1 200 12:58 01.04.2020
417 Clouds 34 1006 39 10000 5.7 200 12:40 01.04.2020
418 Clouds 34 1006 39 10000 5.7 200 12:21 01.04.2020
419 Clouds 34 1006 39 10000 5.7 180 11:56 01.04.2020
420 Clouds 35 1006 41 10000 5.7 190 11:37 01.04.2020
421 Clouds 36 1006 41 10000 5.7 190 11:18 01.04.2020
422 Clouds 36 1006 39 10000 5.1 190 10:39 01.04.2020
423 Clouds 36 1006 42 10000 5.1 200 10:21 01.04.2020
424 Clouds 36 1007 44 10000 6.2 210 09:59 01.04.2020
425 Clouds 36 1007 44 10000 6.2 210 09:59 01.04.2020
426 Clouds 36 1007 44 10000 6.2 210 09:40 01.04.2020
427 Clouds 36 1007 53 10000 6.2 180 09:20 01.04.2020
428 Clouds 36 1008 53 10000 5.7 180 08:44 01.04.2020
429 Clouds 36 1008 53 10000 5.7 180 08:44 01.04.2020
430 Clouds 35 1009 56 10000 5.7 200 08:20 01.04.2020
431 Clouds 35 1009 50 10000 4.6 210 07:58 01.04.2020
432 Clouds 35 1010 56 10000 5.1 200 07:40 01.04.2020
433 Clouds 35 1010 56 10000 5.1 200 07:19 01.04.2020
434 Clouds 35 1011 59 10000 4.1 180 06:41 01.04.2020
435 Clouds 34 1011 59 10000 4.1 180 06:20 01.04.2020
436 Clouds 33 1011 66 10000 4.6 160 05:24 01.04.2020
437 Clouds 31 1011 79 10000 2.6 130 03:39 01.04.2020
438 Clouds 30 1011 88 10000 2.6 80 02:59 01.04.2020
439 Clouds 29 1010 83 10000 2.1 130 02:31 01.04.2020
440 Clouds 29 1010 83 10000 2.6 150 01:49 01.04.2020
441 Clouds 29 1009 83 10000 2.6 170 01:24 01.04.2020
442 Clouds 29 1009 83 10000 3.1 160 00:47 01.04.2020
443 Clouds 29 1008 83 10000 3.1 150 00:21 01.04.2020
444 Clouds 29 1008 83 10000 2.1 150 23:54 31.03.2020
445 Clouds 29 1008 83 10000 2.1 160 23:36 31.03.2020
446 Clouds 29 1008 83 10000 2.1 160 23:18 31.03.2020
447 Clouds 30 1008 83 10000 2.1 180 22:40 31.03.2020
448 Clouds 30 1008 83 10000 2.1 180 22:40 31.03.2020
449 Clouds 30 1008 83 10000 3.1 180 22:20 31.03.2020
450 Clouds 30 1008 83 10000 3.1 180 21:58 31.03.2020
451 Clouds 30 1008 79 10000 2.6 160 21:39 31.03.2020
452 Clouds 30 1008 79 10000 2.6 160 21:21 31.03.2020
453 Clouds 30 1008 79 10000 4.1 190 20:56 31.03.2020
454 Clouds 30 1008 79 10000 4.1 190 20:37 31.03.2020
455 Clouds 30 1008 79 10000 4.6 190 20:18 31.03.2020
456 Clouds 30 1008 79 10000 4.6 190 19:55 31.03.2020
457 Clouds 30 1008 74 10000 5.1 190 19:37 31.03.2020
458 Clouds 30 1009 79 10000 5.1 190 19:18 31.03.2020
459 Clouds 30 1009 79 10000 5.1 190 18:41 31.03.2020
460 Clouds 30 1009 74 10000 4.6 190 18:20 31.03.2020
461 Clouds 31 1009 74 10000 4.6 190 17:56 31.03.2020
462 Clouds 31 1009 74 10000 4.6 190 17:56 31.03.2020
463 Clouds 31 1009 74 10000 4.6 190 17:56 31.03.2020
464 Clouds 31 1009 70 10000 5.7 190 17:38 31.03.2020
465 Clouds 31 1009 70 10000 5.7 190 17:20 31.03.2020
466 Clouds 31 1008 62 10000 3.6 190 16:42 31.03.2020
467 Clouds 32 1008 58 10000 4.1 190 16:20 31.03.2020
468 Clouds 31 1008 55 10000 3.6 200 15:59 31.03.2020
469 Clouds 31 1008 55 10000 3.6 200 15:41 31.03.2020
470 Clouds 32 1007 49 10000 4.1 190 15:23 31.03.2020
471 Clouds 32 1007 49 10000 5.1 190 14:59 31.03.2020
472 Clouds 32 1007 49 10000 5.1 190 14:40 31.03.2020
473 Clouds 32 1007 52 10000 4.6 200 14:21 31.03.2020
474 Clouds 33 1006 46 10000 4.6 200 13:54 31.03.2020
475 Clouds 33 1006 39 10000 5.1 190 13:36 31.03.2020
476 Clouds 33 1006 39 10000 5.1 190 13:18 31.03.2020
477 Clouds 34 1006 36 10000 5.7 210 12:42 31.03.2020
478 Clouds 35 1006 34 10000 6.2 210 12:20 31.03.2020
479 Clouds 35 1006 34 10000 5.7 190 11:55 31.03.2020
480 Clouds 36 1006 37 10000 5.1 190 11:36 31.03.2020
481 Clouds 36 1006 37 10000 5.1 190 11:18 31.03.2020
482 Clouds 35 1006 41 10000 5.1 180 10:54 31.03.2020
483 Clouds 36 1007 42 10000 5.1 200 10:36 31.03.2020
484 Clouds 36 1007 42 10000 5.1 200 10:18 31.03.2020
485 Clouds 36 1007 44 10000 4.1 180 09:42 31.03.2020
486 Clouds 36 1008 50 10000 4.6 200 09:24 31.03.2020
487 Clouds 36 1009 53 10000 4.1 190 08:57 31.03.2020
488 Clouds 36 1009 53 10000 4.1 190 08:39 31.03.2020
489 Clouds 36 1010 50 10000 4.6 210 08:19 31.03.2020
490 Clouds 35 1010 56 10000 4.1 190 07:56 31.03.2020
491 Clouds 35 1011 56 10000 4.1 210 07:38 31.03.2020
492 Clouds 35 1011 56 10000 4.1 210 07:19 31.03.2020
493 Clouds 35 1011 56 10000 4.6 200 06:46 31.03.2020
494 Clouds 34 1011 56 10000 4.1 200 06:22 31.03.2020
495 Clouds 33 1011 66 10000 4.6 190 05:39 31.03.2020
496 Clouds 31 1011 79 10000 4.1 170 03:34 31.03.2020
497 Clouds 29 1010 83 10000 2.6 160 02:18 31.03.2020
498 Clouds 29 1009 83 10000 3.1 160 01:45 31.03.2020
499 Clouds 29 1009 83 10000 3.1 170 00:49 31.03.2020
500 Clouds 29 1008 83 10000 3.6 170 00:25 31.03.2020
501 Clouds 29 1008 83 10000 4.1 160 23:57 30.03.2020
502 Clouds 29 1008 83 10000 2.6 170 23:37 30.03.2020
503 Clouds 29 1008 83 10000 2.6 170 23:18 30.03.2020
504 Clouds 29 1008 83 10000 3.1 170 22:55 30.03.2020
505 Clouds 29 1008 83 10000 3.6 180 22:36 30.03.2020
506 Clouds 30 1008 83 10000 3.6 180 22:18 30.03.2020
507 Clouds 30 1008 83 10000 4.1 180 21:54 30.03.2020
508 Clouds 30 1008 83 10000 3.1 170 21:36 30.03.2020
509 Clouds 30 1008 83 10000 3.1 170 21:36 30.03.2020
510 Clouds 30 1008 83 10000 3.1 170 21:18 30.03.2020
511 Clouds 30 1009 79 10000 3.6 190 20:40 30.03.2020
512 Clouds 30 1009 79 10000 4.1 200 20:22 30.03.2020
513 Clouds 30 1009 79 10000 4.6 190 19:59 30.03.2020
514 Clouds 30 1010 79 10000 4.1 190 19:39 30.03.2020
515 Clouds 30 1010 79 10000 4.1 190 19:21 30.03.2020
516 Clouds 30 1010 74 10000 4.6 190 18:56 30.03.2020
517 Clouds 30 1010 74 10000 4.1 190 18:37 30.03.2020
518 Clouds 30 1010 74 10000 4.1 190 18:19 30.03.2020
519 Clouds 30 1009 74 10000 4.6 190 17:55 30.03.2020
520 Clouds 30 1009 74 10000 5.7 190 17:36 30.03.2020
521 Clouds 31 1009 74 10000 5.7 190 17:18 30.03.2020
522 Clouds 31 1009 70 10000 5.1 190 16:41 30.03.2020
523 Clouds 31 1008 74 10000 5.1 190 16:22 30.03.2020
524 Clouds 31 1008 70 10000 5.1 190 15:57 30.03.2020
525 Clouds 31 1008 70 10000 5.1 190 15:39 30.03.2020
526 Clouds 31 1008 66 10000 5.7 200 15:21 30.03.2020
527 Clouds 31 1008 62 10000 5.7 190 14:58 30.03.2020
528 Clouds 31 1007 58 10000 5.7 200 14:38 30.03.2020
529 Clouds 31 1007 58 10000 5.7 200 14:19 30.03.2020
530 Clouds 32 1007 59 10000 4.6 190 13:58 30.03.2020
531 Clouds 32 1007 59 10000 4.6 190 13:39 30.03.2020
532 Clouds 33 1006 52 10000 5.1 170 13:20 30.03.2020
533 Clouds 34 1006 49 10000 5.1 180 12:45 30.03.2020
534 Clouds 34 1006 50 10000 5.1 170 12:22 30.03.2020
535 Clouds 34 1006 50 10000 5.1 180 11:59 30.03.2020
536 Clouds 34 1006 50 10000 5.1 180 11:59 30.03.2020
537 Clouds 34 1006 50 10000 5.1 180 11:41 30.03.2020
538 Clouds 35 1007 44 10000 5.7 200 11:22 30.03.2020
539 Clouds 35 1007 47 10000 5.1 200 10:55 30.03.2020
540 Clouds 35 1007 47 10000 5.7 210 10:37 30.03.2020
541 Clouds 36 1007 47 10000 5.7 210 10:18 30.03.2020
542 Clouds 35 1008 50 10000 4.6 190 09:40 30.03.2020
543 Clouds 35 1008 53 10000 5.1 180 09:19 30.03.2020
544 Clouds 35 1008 53 10000 5.1 180 09:19 30.03.2020
545 Clouds 35 1009 53 10000 4.6 170 08:56 30.03.2020
546 Clouds 35 1009 50 10000 5.1 200 08:36 30.03.2020
547 Clouds 35 1009 50 10000 5.1 200 08:18 30.03.2020
548 Clouds 35 1010 56 10000 5.1 190 07:42 30.03.2020
549 Clouds 34 1010 56 10000 5.1 190 07:20 30.03.2020
550 Clouds 34 1011 59 10000 4.1 200 06:42 30.03.2020
551 Clouds 33 1011 59 10000 4.1 200 06:23 30.03.2020
552 Clouds 33 1011 59 10000 4.1 190 05:39 30.03.2020
553 Clouds 32 1011 70 10000 4.1 180 04:29 30.03.2020
554 Clouds 31 1011 74 10000 4.1 200 03:53 30.03.2020
555 Clouds 30 1010 79 10000 2.1 160 02:44 30.03.2020
556 Clouds 29 1009 83 10000 2.1 160 01:54 30.03.2020
557 Clouds 29 1008 83 10000 1.5 160 00:57 30.03.2020
558 Clouds 29 1008 79 10000 2.6 170 00:26 30.03.2020
559 Clouds 29 1008 79 10000 3.1 180 23:55 29.03.2020
560 Clouds 29 1007 79 10000 3.1 180 23:36 29.03.2020
561 Clouds 29 1007 79 10000 3.1 180 23:18 29.03.2020
562 Clouds 29 1007 83 10000 2.6 190 22:39 29.03.2020
563 Clouds 29 1007 83 10000 1 180 22:20 29.03.2020
564 Clouds 29 1007 83 10000 2.1 160 21:59 29.03.2020
565 Clouds 29 1007 79 10000 2.1 180 21:37 29.03.2020
566 Clouds 29 1007 79 10000 2.1 180 21:19 29.03.2020
567 Clouds 29 1007 79 10000 2.1 170 20:55 29.03.2020
568 Clouds 29 1008 79 10000 4.1 190 20:37 29.03.2020
569 Clouds 29 1008 79 10000 4.1 190 20:18 29.03.2020
570 Clouds 29 1008 79 10000 4.1 190 19:55 29.03.2020
571 Clouds 29 1008 79 10000 4.1 190 19:55 29.03.2020
572 Clouds 30 1008 79 10000 4.1 190 19:37 29.03.2020
573 Clouds 30 1008 79 10000 3.1 200 19:18 29.03.2020
574 Clouds 30 1008 79 10000 3.1 200 18:54 29.03.2020
575 Clouds 30 1008 79 10000 5.1 200 18:36 29.03.2020
576 Clouds 30 1008 74 10000 4.1 190 18:18 29.03.2020
577 Clouds 30 1008 74 10000 4.1 190 18:18 29.03.2020
578 Clouds 30 1008 70 10000 3.1 170 17:42 29.03.2020
579 Clouds 30 1008 70 10000 3.1 170 17:22 29.03.2020
580 Clouds 31 1007 66 10000 4.1 200 16:59 29.03.2020
581 Clouds 31 1007 66 10000 4.1 200 16:40 29.03.2020
582 Clouds 31 1007 66 10000 4.1 200 16:21 29.03.2020
583 Clouds 31 1007 66 10000 3.6 190 15:58 29.03.2020
584 Clouds 31 1007 62 10000 4.6 200 15:39 29.03.2020
585 Clouds 32 1007 62 10000 4.6 200 15:19 29.03.2020
586 Clouds 32 1007 62 10000 4.6 190 14:56 29.03.2020
587 Clouds 32 1006 55 10000 4.1 180 14:37 29.03.2020
588 Clouds 33 1006 55 10000 4.1 180 14:18 29.03.2020
589 Clouds 33 1006 52 10000 3.6 180 13:55 29.03.2020
590 Clouds 33 1006 46 10000 4.1 180 13:36 29.03.2020
591 Clouds 33 1006 46 10000 4.6 200 13:18 29.03.2020
592 Clouds 34 1006 47 10000 5.1 200 12:54 29.03.2020
593 Clouds 34 1006 47 10000 5.1 200 12:36 29.03.2020
594 Clouds 34 1006 47 10000 5.1 180 12:18 29.03.2020
595 Clouds 34 1006 44 10000 4.6 190 11:38 29.03.2020
596 Clouds 35 1006 44 10000 4.6 190 11:19 29.03.2020
597 Clouds 35 1007 50 10000 4.1 180 10:39 29.03.2020
598 Clouds 35 1007 50 10000 4.1 180 10:39 29.03.2020
599 Clouds 36 1007 50 10000 4.1 180 10:21 29.03.2020
600 Clouds 35 1007 50 10000 5.1 200 09:56 29.03.2020
601 Clouds 36 1007 50 10000 4.1 210 09:38 29.03.2020
602 Clouds 36 1007 50 10000 4.1 210 09:18 29.03.2020
603 Clouds 35 1008 53 10000 4.6 180 08:43 29.03.2020
604 Clouds 35 1009 50 10000 4.6 200 08:25 29.03.2020
605 Clouds 35 1009 50 10000 4.1 220 07:47 29.03.2020
606 Clouds 35 1009 50 10000 4.1 220 07:23 29.03.2020
607 Clouds 35 1010 56 10000 4.6 200 06:34 29.03.2020
608 Clouds 33 1011 66 10000 3.6 200 04:56 29.03.2020
609 Clouds 31 1010 79 10000 3.1 150 03:41 29.03.2020
610 Clouds 30 1010 83 10000 2.6 130 03:20 29.03.2020
611 Clouds 30 1009 83 10000 2.6 120 01:40 29.03.2020
612 Clouds 29 1009 88 10000 2.6 110 01:21 29.03.2020
613 Clouds 28 1008 88 10000 2.1 120 00:40 29.03.2020
614 Clouds 28 1008 88 10000 2.1 110 00:19 29.03.2020
615 Clouds 29 1007 83 10000 1.5 140 23:41 28.03.2020
616 Clouds 29 1007 83 10000 1.5 140 23:22 28.03.2020
617 Clouds 28 1007 83 10000 2.6 160 22:44 28.03.2020
618 Clouds 28 1007 83 10000 2.1 160 22:22 28.03.2020
619 Clouds 29 1007 83 10000 2.1 160 21:57 28.03.2020
620 Clouds 29 1007 83 10000 2.1 160 21:39 28.03.2020
621 Clouds 28 1007 83 10000 1.5 160 21:19 28.03.2020
622 Clouds 29 1007 83 10000 3.1 170 20:56 28.03.2020
623 Clouds 29 1007 83 10000 2.1 160 20:37 28.03.2020
624 Clouds 29 1007 83 10000 2.1 160 20:19 28.03.2020
625 Clouds 29 1008 79 10000 3.1 170 19:55 28.03.2020
626 Clouds 29 1008 78 10000 1.5 150 19:36 28.03.2020
627 Clouds 29 1008 78 10000 1.5 150 19:18 28.03.2020
628 Clouds 29 1008 78 10000 2.6 210 18:39 28.03.2020
629 Clouds 29 1008 78 10000 2.6 210 18:20 28.03.2020
630 Clouds 30 1008 79 10000 3.1 210 17:42 28.03.2020
631 Clouds 30 1008 79 10000 3.1 210 17:22 28.03.2020
632 Clouds 30 1008 83 10000 4.6 200 16:59 28.03.2020
633 Clouds 30 1008 83 10000 4.1 190 16:38 28.03.2020
634 Clouds 30 1008 83 10000 4.1 190 16:18 28.03.2020
635 Clouds 30 1008 83 10000 4.1 190 15:40 28.03.2020
636 Clouds 30 1008 74 10000 4.6 180 15:20 28.03.2020
637 Clouds 31 1007 74 10000 4.6 190 14:58 28.03.2020
638 Clouds 31 1007 74 10000 4.6 190 14:40 28.03.2020
639 Clouds 31 1007 62 10000 5.1 190 14:21 28.03.2020
640 Clouds 32 1006 62 10000 4.6 200 13:43 28.03.2020
641 Clouds 32 1006 62 10000 4.6 200 13:23 28.03.2020
642 Clouds 32 1006 59 10000 4.6 200 12:41 28.03.2020
643 Clouds 33 1006 59 10000 4.6 200 12:22 28.03.2020
644 Clouds 34 1006 56 10000 4.1 180 11:44 28.03.2020
645 Clouds 33 1006 56 10000 4.1 180 11:25 28.03.2020
646 Clouds 34 1006 56 10000 4.6 190 10:58 28.03.2020
647 Clouds 35 1006 53 10000 5.7 210 10:38 28.03.2020
648 Clouds 35 1006 53 10000 5.7 210 10:19 28.03.2020
649 Clouds 35 1006 50 10000 5.1 200 09:43 28.03.2020
650 Clouds 35 1006 50 10000 4.1 180 09:24 28.03.2020
651 Clouds 35 1007 47 10000 3.6 190 08:57 28.03.2020
652 Clouds 35 1007 37 10000 5.7 240 08:39 28.03.2020
653 Clouds 35 1007 37 10000 5.7 240 08:39 28.03.2020
654 Clouds 35 1007 37 10000 5.7 240 08:20 28.03.2020
655 Clouds 34 1008 44 10000 3.1 250 07:44 28.03.2020
656 Clouds 34 1009 44 10000 4.6 210 06:59 28.03.2020
657 Clouds 35 1010 47 10000 4.1 210 06:35 28.03.2020
658 Clouds 34 1011 56 10000 3.1 180 05:43 28.03.2020
659 Clouds 34 1011 56 10000 3.1 180 05:21 28.03.2020
660 Clouds 33 1011 63 10000 3.6 210 04:41 28.03.2020
661 Clouds 32 1011 66 10000 4.1 200 03:42 28.03.2020
662 Clouds 30 1010 83 10000 2.6 160 01:57 28.03.2020
663 Clouds 30 1010 83 10000 2.1 170 01:26 28.03.2020
664 Clouds 29 1010 83 10000 2.1 170 00:57 28.03.2020
665 Clouds 29 1009 83 10000 2.1 160 00:36 28.03.2020
666 Clouds 29 1009 83 10000 1.5 170 23:55 27.03.2020
667 Clouds 29 1009 83 10000 2.1 180 23:37 27.03.2020
668 Clouds 29 1009 83 10000 2.1 180 23:37 27.03.2020
669 Clouds 29 1009 83 10000 2.1 170 23:18 27.03.2020
670 Clouds 29 1009 83 10000 2.1 170 22:55 27.03.2020
671 Clouds 29 1008 83 10000 2.6 160 22:37 27.03.2020
672 Clouds 29 1008 83 10000 2.6 160 22:18 27.03.2020
673 Clouds 29 1008 83 10000 2.6 160 22:18 27.03.2020
674 Clouds 29 1008 83 10000 1.5 190 21:42 27.03.2020
675 Clear 29 1008 79 10000 2.1 180 21:24 27.03.2020
676 Clear 29 1009 79 10000 4.1 190 20:58 27.03.2020
677 Clear 29 1009 79 10000 4.1 190 20:58 27.03.2020
678 Clear 29 1009 79 10000 4.6 190 20:39 27.03.2020
679 Clear 30 1009 79 10000 4.6 190 20:20 27.03.2020
680 Clear 30 1009 79 10000 3.6 180 19:56 27.03.2020
681 Clear 30 1009 79 10000 4.1 190 19:38 27.03.2020
682 Clear 30 1009 79 10000 4.1 190 19:19 27.03.2020
683 Clear 30 1010 79 10000 5.1 190 18:43 27.03.2020
684 Clear 30 1010 79 10000 5.1 190 18:23 27.03.2020
685 Clear 30 1010 79 10000 4.1 200 17:55 27.03.2020
686 Clear 30 1010 79 10000 5.7 200 17:37 27.03.2020
687 Clear 30 1010 79 10000 5.7 200 17:19 27.03.2020
688 Clear 30 1009 70 10000 6.2 190 16:44 27.03.2020
689 Clear 30 1009 70 10000 6.2 190 16:25 27.03.2020
690 Clear 30 1009 70 10000 6.2 190 16:25 27.03.2020
691 Clear 31 1009 74 10000 5.7 190 15:45 27.03.2020
692 Clear 31 1010 60 0 7.97 188 15:26 27.03.2020
693 Clear 31 1008 69 0 0.45 307 14:56 27.03.2020
694 Clear 32 1008 70 0 7.97 188 14:37 27.03.2020
695 Clouds 33 1007 68 0 0.45 238 14:18 27.03.2020
696 Clouds 33 1009 57 0 7.04 175 13:43 27.03.2020
697 Clouds 34 1009 57 0 6.5 174 13:22 27.03.2020
698 Clouds 34 1008 54 0 6.5 174 12:59 27.03.2020
699 Clouds 34 1008 54 0 6.5 174 12:39 27.03.2020
700 Clouds 34 1007 45 0 6.5 174 12:19 27.03.2020
701 Clouds 34 1008 45 0 6.5 174 11:42 27.03.2020
702 Clouds 34 1008 44 0 6.5 174 11:24 27.03.2020
703 Clouds 34 1006 43 0 6.02 172 10:56 27.03.2020
704 Clouds 34 1006 63 0 0.45 159 10:38 27.03.2020
705 Clouds 35 1006 77 0 0.45 183 10:20 27.03.2020
706 Clouds 35 1007 41 0 6.02 172 09:58 27.03.2020
707 Clouds 35 1006 74 0 0.89 290 09:38 27.03.2020
708 Clouds 35 1007 48 0 6.02 172 09:20 27.03.2020
709 Clouds 35 1008 49 0 6.02 172 08:57 27.03.2020
710 Clouds 36 1007 71 0 0.45 267 08:38 27.03.2020
711 Clouds 35 1008 51 0 6.02 172 08:20 27.03.2020
712 Clouds 35 1008 45 0 0.89 239 07:52 27.03.2020
713 Clouds 34 1009 52 0 4.48 178 07:26 27.03.2020
714 Clouds 34 1011 56 0 4.48 178 06:55 27.03.2020
715 Clouds 35 1010 48 0 4.48 178 06:37 27.03.2020
716 Clouds 33 1011 53 0 4.48 178 05:28 27.03.2020
717 Clouds 31 1011 99 0 0.45 136 02:47 27.03.2020
718 Clouds 29 1009 76 0 5.31 185 01:23 27.03.2020
719 Clouds 29 1009 76 0 5.27 184 00:53 27.03.2020
720 Clouds 28 1009 77 0 5.27 184 00:32 27.03.2020
721 Clouds 28 1009 76 0 5.27 184 23:44 26.03.2020
722 Clouds 28 1008 76 0 5.27 184 23:23 26.03.2020
723 Clouds 28 1008 76 0 0.45 107 22:59 26.03.2020
724 Clouds 28 1008 76 0 5.01 182 22:39 26.03.2020
725 Clouds 28 1008 75 0 5.01 182 22:20 26.03.2020
726 Clouds 28 1008 75 0 5.01 182 22:20 26.03.2020
727 Clouds 29 1008 75 0 0.45 194 21:57 26.03.2020
728 Clouds 29 1008 75 0 5.01 182 21:38 26.03.2020
729 Clouds 29 1008 74 0 5.01 182 21:20 26.03.2020
730 Clouds 29 1008 74 0 5.01 182 20:57 26.03.2020
731 Clouds 29 1008 74 0 5.01 182 20:38 26.03.2020
732 Clouds 29 1009 74 0 6.2 192 20:20 26.03.2020
733 Clouds 29 1009 74 0 0.45 125 19:54 26.03.2020
734 Clouds 29 1009 74 0 0.45 106 19:36 26.03.2020
735 Clouds 29 1009 73 0 0.89 116 19:18 26.03.2020
736 Clouds 31 1011 63 0 6.42 196 18:41 26.03.2020
737 Clouds 31 1010 73 0 0.45 102 18:23 26.03.2020
738 Clouds 31 1011 62 0 6.42 196 17:56 26.03.2020
739 Clouds 31 1012 61 0 6.42 196 17:37 26.03.2020
740 Clouds 31 1012 62 0 7.55 184 17:18 26.03.2020
741 Clouds 31 1010 71 0 0.45 118 16:40 26.03.2020
742 Clouds 30 1010 71 0 0.89 276 16:21 26.03.2020
743 Clouds 30 1009 70 0 0.45 67 15:57 26.03.2020
744 Clouds 30 1009 70 0 0.45 67 15:57 26.03.2020
745 Clouds 30 1009 70 0 0.45 235 15:39 26.03.2020
746 Clouds 31 1011 62 0 7.55 184 15:20 26.03.2020
747 Clouds 31 1009 70 0 0.45 242 14:55 26.03.2020
748 Clouds 31 1008 69 0 0.45 308 14:36 26.03.2020
749 Clouds 32 1010 61 0 6.27 159 14:18 26.03.2020
750 Clouds 32 1008 66 0 0.45 257 13:40 26.03.2020
751 Clouds 32 1008 66 0 0.45 295 13:22 26.03.2020
752 Clouds 33 1007 64 0 0.45 231 12:54 26.03.2020
753 Clouds 33 1009 56 0 6.68 159 12:36 26.03.2020
754 Clouds 33 1009 56 0 6.68 159 12:18 26.03.2020
755 Clouds 34 1007 48 0 6.68 159 11:43 26.03.2020
756 Clouds 34 1008 53 0 6.12 174 11:19 26.03.2020
757 Clouds 34 1006 55 0 0.45 174 10:42 26.03.2020
758 Clouds 34 1007 48 0 6.12 174 10:42 26.03.2020
759 Clouds 34 1008 52 0 6.12 174 10:20 26.03.2020
760 Clouds 34 1008 52 0 6.12 174 10:20 26.03.2020
761 Clouds 34 1007 49 0 6.12 174 09:55 26.03.2020
762 Clouds 34 1008 50 0 6.12 174 09:55 26.03.2020
763 Clouds 34 1007 52 0 1.34 225 09:37 26.03.2020
764 Clouds 35 1008 48 0 6.12 174 09:19 26.03.2020
765 Clouds 35 1007 51 0 0.89 192 08:42 26.03.2020
766 Clouds 35 1008 51 0 0.89 267 08:24 26.03.2020
767 Clouds 34 1008 50 0 0.45 147 07:57 26.03.2020
768 Clouds 35 1009 46 0 5 183 07:38 26.03.2020
769 Clouds 35 1009 46 0 5 183 07:38 26.03.2020
770 Clouds 34 1009 47 0 5 183 07:19 26.03.2020
771 Clouds 35 1010 45 0 5 183 06:33 26.03.2020
772 Clouds 33 1011 44 0 5 183 05:47 26.03.2020
773 Clouds 32 1011 56 0 4.56 197 03:46 26.03.2020
774 Clouds 31 1011 58 0 0.45 286 02:58 26.03.2020
775 Clouds 30 1010 65 0 4.41 189 01:51 26.03.2020
776 Clouds 30 1011 65 0 4.41 189 01:18 26.03.2020
777 Clouds 29 1010 64 0 4.33 190 00:30 26.03.2020
778 Clouds 29 1010 63 0 4.33 190 23:42 25.03.2020
779 Clouds 29 1008 73 0 4.33 190 23:24 25.03.2020
780 Clouds 29 1009 63 0 5.38 186 22:42 25.03.2020
781 Clouds 29 1008 73 0 5.38 186 22:22 25.03.2020
782 Clouds 29 1009 62 0 5.38 186 21:59 25.03.2020
783 Clouds 29 1009 62 0 5.38 186 21:40 25.03.2020
784 Clouds 29 1009 62 0 5.38 186 21:22 25.03.2020
785 Clouds 29 1009 60 0 5.38 186 20:57 25.03.2020
786 Clouds 29 1009 61 0 5.38 186 20:37 25.03.2020
787 Clear 30 1008 71 0 6.48 185 20:18 25.03.2020
788 Clear 30 1008 70 0 6.23 187 19:43 25.03.2020
789 Clear 30 1009 60 0 6.23 187 19:24 25.03.2020
790 Clear 30 1010 61 0 6.54 192 18:59 25.03.2020
791 Clear 30 1010 61 0 6.23 187 18:41 25.03.2020
792 Clear 30 1008 70 0 0.45 215 18:22 25.03.2020
793 Clear 30 1008 71 0 0.89 344 17:57 25.03.2020
794 Clear 30 1010 60 0 6.23 187 17:39 25.03.2020
795 Clear 30 1008 70 0 0.89 295 17:21 25.03.2020
796 Clear 30 1009 70 0 0.89 325 16:55 25.03.2020
797 Clear 30 1010 60 0 6.6 181 16:36 25.03.2020
798 Clear 31 1010 60 0 6.6 181 16:18 25.03.2020
799 Clouds 31 1008 70 0 6.72 181 15:41 25.03.2020
800 Clouds 31 1009 61 0 6.72 181 15:20 25.03.2020
801 Clear 31 1008 70 0 6.6 181 14:55 25.03.2020
802 Clouds 31 1007 69 0 0.45 32 14:37 25.03.2020
803 Clouds 31 1009 62 0 6.61 166 14:18 25.03.2020
804 Clouds 32 1007 69 0 6.61 166 13:42 25.03.2020
805 Clouds 32 1008 60 0 6.61 166 13:22 25.03.2020
806 Clouds 32 1008 58 0 6.67 167 12:38 25.03.2020
807 Clouds 32 1006 56 0 6.67 167 12:19 25.03.2020
808 Clouds 32 1008 56 0 6.67 167 11:56 25.03.2020
809 Clouds 32 1008 56 0 6.67 167 11:37 25.03.2020
810 Clouds 33 1006 55 0 6.64 179 11:19 25.03.2020
811 Clouds 33 1006 52 0 6.64 179 10:56 25.03.2020
812 Clouds 33 1007 54 0 6.64 179 10:38 25.03.2020
813 Clouds 33 1007 54 0 6.64 179 10:18 25.03.2020
814 Clouds 33 1006 54 0 0.45 279 09:42 25.03.2020
815 Clouds 33 1005 53 0 1.34 259 09:24 25.03.2020
816 Clouds 33 1006 55 0 1.34 284 08:56 25.03.2020
817 Clouds 34 1008 54 0 6.64 179 08:38 25.03.2020
818 Clouds 33 1008 54 0 6.62 181 08:19 25.03.2020
819 Clouds 34 1008 41 0 6.62 181 07:41 25.03.2020
820 Clouds 34 1008 45 0 6.62 181 07:22 25.03.2020
821 Clouds 33 1009 53 0 6.62 181 06:48 25.03.2020
822 Clouds 33 1009 53 0 6.62 181 06:28 25.03.2020
823 Clouds 33 1011 59 0 6.62 181 05:56 25.03.2020
824 Clouds 33 1011 60 0 6.62 181 05:30 25.03.2020
825 Clear 32 1010 55 0 5.55 186 04:39 25.03.2020
826 Clear 32 1010 56 0 5.55 186 03:36 25.03.2020
827 Clear 30 1009 64 0 5.55 186 02:31 25.03.2020
828 Clear 30 1010 65 0 4.69 189 01:21 25.03.2020
829 Clear 29 1010 65 0 4.69 189 00:48 25.03.2020
830 Clear 29 1007 73 0 0.45 338 00:23 25.03.2020
831 Clear 29 1007 73 0 4.69 189 23:45 24.03.2020
832 Clear 29 1007 73 0 4.69 189 23:26 24.03.2020
833 Clear 29 1008 65 0 4.26 204 22:56 24.03.2020
834 Clear 29 1008 65 0 4.26 204 22:37 24.03.2020
835 Clear 29 1008 65 0 4.26 204 22:19 24.03.2020
836 Clear 29 1008 65 0 4.26 204 22:19 24.03.2020
837 Clear 29 1006 73 0 0.45 133 21:56 24.03.2020
838 Clear 29 1008 65 0 4.26 204 21:37 24.03.2020
839 Clear 29 1008 65 0 4.26 204 21:18 24.03.2020
840 Clear 30 1008 64 0 4.26 204 20:43 24.03.2020
841 Clear 30 1006 72 0 4.26 204 20:24 24.03.2020
842 Clear 30 1008 63 0 6.66 185 19:59 24.03.2020
843 Clear 30 1008 63 0 6.66 185 19:41 24.03.2020
844 Clear 30 1008 62 0 6.66 185 19:19 24.03.2020
845 Clear 30 1008 62 0 6.66 185 18:55 24.03.2020
846 Clear 30 1007 71 0 0.45 118 18:36 24.03.2020
847 Clear 30 1007 71 0 0.45 118 18:36 24.03.2020
848 Clear 30 1009 61 0 6.66 185 18:18 24.03.2020
849 Clear 30 1007 69 0 0.89 128 17:42 24.03.2020
850 Clear 30 1009 61 0 6.66 185 17:22 24.03.2020
851 Clouds 30 1009 74 10000 5.1 190 16:58 24.03.2020
852 Clouds 30 1008 74 10000 5.7 190 16:39 24.03.2020
853 Clouds 30 1008 74 10000 5.7 190 16:21 24.03.2020
854 Clouds 30 1008 74 10000 5.7 200 15:57 24.03.2020
855 Clouds 30 1008 70 10000 4.6 190 15:37 24.03.2020
856 Clouds 30 1008 70 10000 4.6 190 15:19 24.03.2020
857 Clouds 30 1007 66 10000 5.7 180 14:42 24.03.2020
858 Clear 32 1008 58 0 7.12 172 14:19 24.03.2020
859 Clear 32 1006 62 0 7.12 172 13:42 24.03.2020
860 Clouds 32 1007 57 0 7.11 170 13:24 24.03.2020
861 Clouds 33 1007 56 0 7.11 170 12:54 24.03.2020
862 Clouds 33 1005 60 0 0.45 263 12:36 24.03.2020
863 Clouds 33 1006 53 0 7.11 170 12:18 24.03.2020
864 Clouds 33 1006 53 0 7.11 170 12:18 24.03.2020
865 Clouds 33 1005 58 0 0.45 0 11:39 24.03.2020
866 Clouds 33 1006 46 10000 6.2 190 11:19 24.03.2020
867 Clouds 34 1006 47 10000 5.7 200 10:43 24.03.2020
868 Clouds 34 1006 47 10000 5.7 200 10:43 24.03.2020
869 Clouds 34 1006 47 10000 5.7 200 10:20 24.03.2020
870 Clouds 34 1006 44 10000 5.1 200 09:58 24.03.2020
871 Clouds 35 1007 44 10000 5.1 170 09:39 24.03.2020
872 Clouds 35 1007 44 10000 5.1 170 09:21 24.03.2020
873 Clouds 35 1008 41 10000 5.1 200 08:38 24.03.2020
874 Clear 35 1008 41 10000 5.1 200 08:20 24.03.2020
875 Clear 35 1008 44 10000 5.7 190 07:48 24.03.2020
876 Clear 35 1009 41 10000 4.1 200 07:24 24.03.2020
877 Clear 34 1010 41 10000 4.6 190 06:53 24.03.2020
878 Clear 34 1010 41 10000 5.1 210 06:27 24.03.2020
879 Clouds 33 1011 49 10000 4.1 190 04:57 24.03.2020
880 Clouds 32 1012 62 10000 4.1 180 03:48 24.03.2020
881 Clouds 31 1012 70 10000 2.6 140 03:18 24.03.2020
882 Clouds 29 1011 88 10000 2.6 110 01:45 24.03.2020
883 Clouds 28 1010 94 10000 2.6 110 00:46 24.03.2020
884 Clouds 28 1010 88 10000 2.1 120 00:24 24.03.2020
885 Clouds 28 1009 83 10000 1.5 140 23:44 23.03.2020
886 Clouds 28 1009 83 10000 1.5 140 23:26 23.03.2020
887 Clouds 28 1009 83 10000 2.1 160 22:55 23.03.2020
888 Clouds 28 1009 83 10000 2.1 160 22:55 23.03.2020
889 Clouds 28 1009 83 10000 2.1 170 22:37 23.03.2020
890 Clouds 28 1009 83 10000 2.1 170 22:19 23.03.2020
891 Clouds 28 1009 83 10000 2.6 170 21:43 23.03.2020
892 Clouds 28 1009 83 10000 3.1 170 21:20 23.03.2020
893 Clouds 28 1009 83 10000 2.1 180 20:57 23.03.2020
894 Clouds 28 1009 83 10000 3.1 190 20:39 23.03.2020
895 Clouds 29 1009 83 10000 3.1 190 20:19 23.03.2020
896 Clouds 29 1010 79 10000 4.1 190 19:45 23.03.2020
897 Clouds 29 1010 79 10000 4.1 190 19:45 23.03.2020
898 Clouds 29 1010 79 10000 3.1 190 19:27 23.03.2020
899 Clouds 29 1010 79 10000 4.1 190 18:59 23.03.2020
900 Clouds 29 1010 79 10000 3.6 180 18:40 23.03.2020
901 Clouds 29 1010 79 10000 3.6 190 18:21 23.03.2020
902 Clouds 29 1010 79 10000 3.6 190 17:43 23.03.2020
903 Clouds 29 1010 79 10000 4.6 190 17:21 23.03.2020
904 Clouds 29 1010 79 10000 4.6 190 16:59 23.03.2020
905 Clouds 30 1010 79 10000 4.6 190 16:39 23.03.2020
906 Clouds 30 1010 79 10000 4.6 190 16:20 23.03.2020
907 Clouds 30 1010 79 10000 5.7 200 15:42 23.03.2020
908 Clouds 30 1010 79 10000 5.7 200 15:42 23.03.2020
909 Clouds 30 1009 79 10000 4.6 200 15:20 23.03.2020
910 Clouds 30 1009 70 10000 5.7 200 14:55 23.03.2020
911 Clouds 30 1008 66 10000 4.1 200 14:36 23.03.2020
912 Clouds 30 1008 66 10000 4.1 200 14:18 23.03.2020
913 Clouds 31 1007 55 10000 4.6 180 13:40 23.03.2020
914 Clouds 32 1007 55 10000 4.6 180 13:21 23.03.2020
915 Clouds 32 1007 52 10000 5.1 180 12:45 23.03.2020
916 Clouds 32 1007 52 10000 5.1 180 12:45 23.03.2020
917 Clouds 32 1007 49 10000 4.1 180 12:26 23.03.2020
918 Clouds 32 1007 46 10000 5.1 180 11:59 23.03.2020
919 Clouds 32 1007 46 10000 5.1 180 11:59 23.03.2020
920 Clouds 33 1007 41 10000 5.1 180 11:40 23.03.2020
921 Clouds 34 1007 41 10000 4.6 200 11:20 23.03.2020
922 Clouds 34 1007 41 10000 4.6 200 11:20 23.03.2020
923 Clouds 34 1007 41 10000 4.6 200 10:58 23.03.2020
924 Clouds 34 1007 39 10000 4.6 180 10:38 23.03.2020
925 Clouds 34 1007 39 10000 4.6 180 10:38 23.03.2020
926 Clouds 35 1007 39 10000 4.6 180 10:20 23.03.2020
927 Clouds 35 1007 39 10000 5.1 200 09:44 23.03.2020
928 Clouds 36 1008 39 10000 7.7 210 09:21 23.03.2020
929 Clouds 36 1008 39 10000 5.7 210 08:57 23.03.2020
930 Clouds 36 1009 41 10000 5.7 200 08:36 23.03.2020
931 Clouds 36 1009 41 10000 5.7 200 08:18 23.03.2020
932 Clouds 36 1010 42 10000 5.1 200 07:45 23.03.2020
933 Clouds 35 1010 37 10000 5.1 210 07:27 23.03.2020
934 Clouds 35 1010 39 10000 5.7 210 06:51 23.03.2020
935 Clouds 34 1012 52 10000 4.6 190 05:54 23.03.2020
936 Clouds 34 1012 52 10000 4.6 190 05:29 23.03.2020
937 Clouds 31 1012 66 10000 4.1 180 03:29 23.03.2020
938 Clouds 29 1011 79 10000 2.6 160 01:51 23.03.2020
939 Clouds 29 1011 83 10000 2.1 150 01:33 23.03.2020
940 Clouds 28 1010 83 10000 2.6 160 00:39 23.03.2020
941 Clouds 28 1010 83 10000 2.6 160 23:48 22.03.2020
942 Clouds 28 1010 83 10000 2.6 160 23:26 22.03.2020
943 Clouds 28 1009 83 10000 2.6 170 22:45 22.03.2020
944 Clouds 28 1009 83 10000 2.6 170 22:26 22.03.2020
945 Clouds 29 1009 83 10000 3.1 190 21:56 22.03.2020
946 Clouds 29 1009 83 10000 2.6 180 21:37 22.03.2020
947 Clouds 29 1009 83 10000 2.6 180 21:19 22.03.2020
948 Clouds 29 1010 83 10000 3.1 200 20:46 22.03.2020
949 Clouds 29 1010 83 10000 3.6 200 20:25 22.03.2020
950 Clouds 29 1010 83 10000 4.1 210 19:58 22.03.2020
951 Clouds 29 1010 83 10000 4.1 210 19:40 22.03.2020
952 Clouds 29 1010 83 10000 4.6 210 19:20 22.03.2020
953 Clouds 29 1010 83 10000 3.6 200 18:59 22.03.2020
954 Clouds 29 1010 79 10000 5.1 210 18:41 22.03.2020
955 Clouds 29 1010 79 10000 5.1 210 18:22 22.03.2020
956 Clouds 29 1011 79 10000 5.7 210 17:59 22.03.2020
957 Clouds 30 1010 79 10000 4.6 200 17:39 22.03.2020
958 Clouds 29 1010 79 10000 4.6 200 17:21 22.03.2020
959 Clouds 30 1010 79 10000 4.1 190 16:58 22.03.2020
960 Clouds 30 1010 79 10000 4.1 200 16:40 22.03.2020
961 Clouds 30 1010 79 10000 4.1 200 16:21 22.03.2020
962 Clouds 30 1010 79 10000 4.1 180 15:56 22.03.2020
963 Clouds 29 1010 79 10000 4.1 190 15:38 22.03.2020
964 Clouds 30 1009 79 10000 4.1 190 14:47 22.03.2020
965 Clouds 31 1009 70 10000 4.6 190 14:19 22.03.2020
966 Clouds 31 1009 70 10000 4.6 190 13:56 22.03.2020
967 Clouds 31 1008 55 10000 4.6 210 13:37 22.03.2020
968 Clouds 32 1008 55 10000 4.6 210 13:19 22.03.2020
969 Clouds 33 1008 49 10000 4.1 200 12:43 22.03.2020
970 Clouds 32 1008 49 10000 4.1 200 12:20 22.03.2020
971 Clouds 33 1007 46 10000 3.6 190 11:56 22.03.2020
972 Clouds 33 1008 41 10000 3.1 200 11:37 22.03.2020
973 Clouds 34 1008 41 10000 3.1 200 11:19 22.03.2020
974 Clouds 34 1008 41 10000 4.1 210 10:43 22.03.2020
975 Clouds 34 1008 41 10000 4.1 210 10:23 22.03.2020
976 Clouds 34 1008 41 10000 4.1 210 10:23 22.03.2020
977 Clouds 35 1008 39 10000 4.6 210 09:47 22.03.2020
978 Clouds 35 1009 41 10000 4.1 160 09:28 22.03.2020
979 Clouds 35 1009 41 10000 4.6 190 08:53 22.03.2020
980 Clouds 35 1009 41 10000 4.6 190 08:53 22.03.2020
981 Clouds 35 1010 44 10000 4.6 180 08:33 22.03.2020
982 Clouds 35 1010 41 10000 5.1 200 07:59 22.03.2020
983 Clouds 34 1010 41 10000 5.1 200 07:41 22.03.2020
984 Clouds 35 1011 47 10000 4.1 190 07:18 22.03.2020
985 Clear 33 1013 44 10000 5.1 170 05:54 22.03.2020
986 Clear 32 1013 59 10000 4.1 190 04:39 22.03.2020
987 Clouds 30 1012 74 10000 3.6 160 02:34 22.03.2020
988 Clouds 28 1012 78 10000 2.1 140 01:19 22.03.2020
989 Clouds 28 1011 78 10000 2.1 180 00:34 22.03.2020
990 Clouds 28 1011 78 10000 2.6 160 23:47 21.03.2020
991 Clouds 28 1010 78 10000 3.1 160 23:23 21.03.2020
992 Clouds 28 1010 78 10000 1.5 160 22:59 21.03.2020
993 Clouds 28 1010 83 10000 2.6 170 22:38 21.03.2020
994 Clouds 28 1010 83 10000 2.6 170 22:20 21.03.2020
995 Clouds 28 1010 83 10000 2.1 180 21:59 21.03.2020
996 Clouds 28 1010 83 10000 3.1 180 21:39 21.03.2020
997 Clouds 28 1010 83 10000 3.1 180 21:20 21.03.2020
998 Clouds 28 1010 83 10000 3.1 180 21:20 21.03.2020
999 Clouds 28 1010 78 10000 3.1 180 20:44 21.03.2020
1000 Clouds 28 1011 78 10000 3.6 190 20:22 21.03.2020
1001 Clouds 28 1011 83 10000 3.6 190 19:57 21.03.2020
1002 Clouds 29 1011 83 10000 3.1 190 19:38 21.03.2020
1003 Clouds 29 1011 83 10000 3.1 190 19:19 21.03.2020
1004 Clouds 29 1012 79 10000 4.6 200 18:54 21.03.2020
1005 Clouds 29 1012 83 10000 4.6 210 18:36 21.03.2020
1006 Clouds 29 1012 83 10000 4.6 210 18:18 21.03.2020
1007 Clouds 29 1012 79 10000 4.1 200 17:42 21.03.2020
1008 Clouds 29 1012 79 10000 4.1 200 17:23 21.03.2020
1009 Clouds 30 1012 79 10000 4.1 200 16:43 21.03.2020
1010 Clouds 30 1012 79 10000 4.1 200 16:24 21.03.2020
1011 Clouds 30 1012 79 10000 4.1 200 16:24 21.03.2020
1012 Clouds 30 1011 79 10000 4.1 200 15:59 21.03.2020
1013 Clouds 30 1011 79 10000 4.1 200 15:41 21.03.2020
1014 Clouds 30 1011 79 10000 4.6 210 15:23 21.03.2020
1015 Clouds 30 1011 79 10000 4.1 200 14:57 21.03.2020
1016 Clouds 30 1010 74 10000 4.6 180 14:39 21.03.2020
1017 Clouds 30 1010 74 10000 4.6 180 14:20 21.03.2020
1018 Clouds 31 1010 70 10000 4.6 190 13:58 21.03.2020
1019 Clouds 31 1010 70 10000 4.6 190 13:58 21.03.2020
1020 Clouds 31 1009 62 10000 4.1 180 13:39 21.03.2020
1021 Clouds 30 1009 62 10000 4.1 180 13:21 21.03.2020
1022 Clouds 31 1009 62 10000 4.6 180 12:57 21.03.2020
1023 Clouds 31 1009 59 10000 5.1 170 12:37 21.03.2020
1024 Clouds 32 1009 52 10000 5.7 180 12:19 21.03.2020
1025 Clouds 32 1009 52 10000 5.7 180 11:55 21.03.2020
1026 Clouds 32 1009 52 10000 6.2 200 11:37 21.03.2020
1027 Clouds 33 1009 49 10000 6.2 200 11:18 21.03.2020
1028 Clouds 33 1009 49 10000 6.2 200 10:56 21.03.2020
1029 Clouds 33 1009 46 10000 5.1 190 10:38 21.03.2020
1030 Clouds 34 1009 46 10000 5.1 190 10:18 21.03.2020
1031 Clouds 34 1009 50 10000 6.2 190 09:40 21.03.2020
1032 Clouds 34 1009 50 10000 6.2 190 09:21 21.03.2020
1033 Clouds 34 1010 49 10000 4.1 180 08:59 21.03.2020
1034 Clouds 34 1010 49 10000 4.1 180 08:41 21.03.2020
1035 Clouds 34 1010 47 10000 4.6 190 08:22 21.03.2020
1036 Clouds 34 1011 47 10000 5.1 180 07:42 21.03.2020
1037 Clouds 34 1011 47 10000 5.1 200 07:23 21.03.2020
1038 Clouds 33 1013 50 10000 5.7 200 06:45 21.03.2020
1039 Clouds 33 1013 52 10000 6.7 180 06:26 21.03.2020
1040 Clouds 33 1014 52 10000 5.1 180 05:41 21.03.2020
1041 Clouds 32 1014 62 10000 5.1 200 04:37 21.03.2020
1042 Clouds 30 1013 74 10000 3.6 180 02:39 21.03.2020
1043 Clouds 29 1013 79 10000 2.6 160 01:57 21.03.2020
1044 Clouds 29 1012 83 10000 1.5 150 01:29 21.03.2020
1045 Clouds 28 1012 83 10000 2.1 170 00:47 21.03.2020
1046 Clouds 28 1011 83 10000 2.6 180 00:24 21.03.2020
1047 Clouds 28 1011 79 10000 3.6 170 23:46 20.03.2020
1048 Clouds 28 1011 79 10000 3.6 170 23:24 20.03.2020
1049 Clouds 28 1011 79 10000 2.6 170 22:44 20.03.2020
1050 Clouds 28 1011 79 10000 2.6 170 22:25 20.03.2020
1051 Clouds 28 1011 79 10000 3.1 180 21:59 20.03.2020
1052 Clouds 28 1011 79 10000 2.6 190 21:41 20.03.2020
1053 Clouds 29 1011 79 10000 2.6 190 21:20 20.03.2020
1054 Clouds 28 1011 83 10000 3.1 200 20:59 20.03.2020
1055 Clouds 29 1011 79 10000 4.1 190 20:41 20.03.2020
1056 Clouds 29 1011 79 10000 4.1 190 20:20 20.03.2020
1057 Clouds 29 1011 79 10000 4.6 200 19:49 20.03.2020
1058 Clouds 29 1011 79 10000 4.1 200 19:22 20.03.2020
1059 Clouds 29 1011 79 10000 4.6 190 18:59 20.03.2020
1060 Clouds 29 1011 79 10000 5.1 180 18:39 20.03.2020
1061 Clouds 29 1011 79 10000 5.1 180 18:20 20.03.2020
1062 Clouds 29 1011 79 10000 5.7 180 17:56 20.03.2020
1063 Clouds 29 1011 79 10000 5.1 180 17:38 20.03.2020
1064 Clouds 29 1012 79 10000 5.7 180 17:19 20.03.2020
1065 Clouds 29 1011 79 10000 5.7 180 16:42 20.03.2020
1066 Clouds 29 1011 79 10000 5.7 180 16:21 20.03.2020
1067 Clouds 30 1011 79 10000 5.1 190 15:56 20.03.2020
1068 Clouds 29 1011 79 10000 6.2 190 15:37 20.03.2020
1069 Clouds 29 1011 79 10000 6.2 190 15:19 20.03.2020
1070 Clouds 30 1010 79 10000 5.1 190 14:42 20.03.2020
1071 Clouds 29 1010 79 10000 7.2 200 14:21 20.03.2020
1072 Clouds 30 1009 74 10000 5.7 200 13:50 20.03.2020
1073 Clouds 30 1009 74 10000 5.7 200 13:50 20.03.2020
1074 Clouds 30 1009 70 10000 5.1 180 13:26 20.03.2020
1075 Clouds 31 1009 66 10000 5.7 180 12:59 20.03.2020
1076 Clouds 31 1009 62 10000 5.7 170 12:38 20.03.2020
1077 Clouds 31 1009 62 10000 5.7 170 12:20 20.03.2020
1078 Clouds 32 1008 49 10000 6.2 200 11:40 20.03.2020
1079 Clouds 33 1008 49 10000 5.1 190 11:21 20.03.2020
1080 Clouds 33 1008 49 10000 5.1 190 10:57 20.03.2020
1081 Clouds 33 1008 46 10000 6.2 200 10:38 20.03.2020
1082 Clouds 34 1008 46 10000 6.2 200 10:18 20.03.2020
1083 Clouds 34 1008 44 10000 5.1 190 09:46 20.03.2020
1084 Clouds 34 1009 46 10000 5.1 180 09:21 20.03.2020
1085 Clouds 34 1009 44 10000 5.7 200 08:58 20.03.2020
1086 Clouds 34 1010 49 10000 5.7 180 08:39 20.03.2020
1087 Clouds 34 1010 49 10000 5.7 180 08:19 20.03.2020
1088 Clouds 34 1011 56 10000 5.7 190 07:41 20.03.2020
1089 Clouds 34 1011 56 10000 5.7 190 07:23 20.03.2020
1090 Clouds 34 1012 59 10000 5.1 190 06:42 20.03.2020
1091 Clouds 33 1012 59 10000 5.1 190 06:22 20.03.2020
1092 Clouds 32 1013 66 10000 5.7 200 04:39 20.03.2020
1093 Clouds 30 1012 79 10000 2.6 110 02:54 20.03.2020
1094 Clouds 28 1011 88 10000 2.6 110 01:50 20.03.2020
1095 Clouds 28 1010 83 10000 2.6 140 00:45 20.03.2020
1096 Clouds 28 1010 83 10000 2.6 140 00:24 20.03.2020
1097 Clouds 28 1009 83 10000 2.6 150 23:42 19.03.2020
1098 Clouds 28 1009 83 10000 1.5 160 23:23 19.03.2020
1099 Clouds 28 1009 83 10000 1.5 160 22:54 19.03.2020
1100 Clouds 28 1009 83 10000 2.6 160 22:36 19.03.2020
1101 Clouds 28 1009 83 10000 2.6 160 22:18 19.03.2020
1102 Clouds 28 1009 83 10000 3.1 170 21:39 19.03.2020
1103 Clouds 28 1009 83 10000 3.1 170 21:20 19.03.2020
1104 Clouds 29 1010 83 10000 3.1 170 20:54 19.03.2020
1105 Clouds 29 1010 79 10000 2.6 180 20:36 19.03.2020
1106 Clouds 29 1010 79 10000 2.6 180 20:36 19.03.2020
1107 Clouds 29 1010 79 10000 2.6 180 20:18 19.03.2020
1108 Clouds 29 1011 79 10000 3.1 190 19:39 19.03.2020
1109 Clouds 29 1011 79 10000 3.1 190 19:21 19.03.2020
1110 Clouds 29 1011 79 10000 4.1 190 18:59 19.03.2020
1111 Clouds 29 1011 79 10000 3.6 190 18:41 19.03.2020
1112 Clouds 29 1011 79 10000 3.6 190 18:22 19.03.2020
1113 Clouds 30 1011 79 10000 4.6 180 17:55 19.03.2020
1114 Clouds 30 1011 79 10000 4.6 180 17:37 19.03.2020
1115 Clouds 30 1011 79 10000 5.1 190 17:18 19.03.2020
1116 Clouds 30 1011 79 10000 6.2 190 16:42 19.03.2020
1117 Clouds 30 1011 79 10000 6.2 190 16:21 19.03.2020
1118 Clouds 30 1011 79 10000 4.6 180 15:44 19.03.2020
1119 Clouds 30 1010 79 10000 5.7 190 15:24 19.03.2020
1120 Clouds 30 1010 79 10000 5.7 200 14:43 19.03.2020
1121 Clouds 30 1010 70 10000 5.1 190 14:23 19.03.2020
1122 Clear 30 1009 70 10000 4.6 180 13:59 19.03.2020
1123 Clear 31 1009 66 10000 4.6 170 13:37 19.03.2020
1124 Clear 31 1008 62 10000 5.1 190 13:18 19.03.2020
1125 Clear 31 1008 59 10000 5.7 200 12:41 19.03.2020
1126 Clear 32 1007 55 10000 5.1 200 12:23 19.03.2020
1127 Clear 32 1007 55 10000 5.1 200 11:58 19.03.2020
1128 Clear 32 1007 52 10000 5.7 190 11:40 19.03.2020
1129 Clear 32 1007 52 10000 6.2 190 11:22 19.03.2020
1130 Clouds 33 1007 49 10000 6.2 180 10:42 19.03.2020
1131 Clouds 33 1007 49 10000 6.2 180 10:21 19.03.2020
1132 Clouds 34 1007 47 10000 6.2 200 09:58 19.03.2020
1133 Clouds 34 1008 49 10000 6.7 200 09:38 19.03.2020
1134 Clouds 34 1008 49 10000 6.7 200 09:19 19.03.2020
1135 Clouds 35 1008 50 10000 7.2 200 08:45 19.03.2020
1136 Clouds 34 1009 52 10000 6.7 210 08:21 19.03.2020
1137 Clouds 34 1010 56 10000 6.7 210 07:47 19.03.2020
1138 Clouds 34 1010 56 10000 7.7 190 07:28 19.03.2020
1139 Clouds 34 1011 59 10000 6.7 190 06:49 19.03.2020
1140 Clouds 34 1012 63 10000 6.2 190 05:52 19.03.2020
1141 Clouds 32 1012 66 10000 5.7 180 05:19 19.03.2020
1142 Clouds 32 1012 66 10000 4.6 180 04:40 19.03.2020
1143 Clouds 30 1012 74 10000 5.1 180 03:20 19.03.2020
1144 Clouds 29 1010 79 10000 3.6 170 01:27 19.03.2020
1145 Clouds 28 1009 83 10000 3.1 170 00:35 19.03.2020
1146 Clouds 28 1009 83 10000 2.1 180 23:57 18.03.2020
1147 Clouds 29 1009 79 10000 2.6 180 23:31 18.03.2020
1148 Clouds 29 1009 79 10000 3.6 180 22:58 18.03.2020
1149 Clouds 29 1009 79 10000 4.1 180 22:40 18.03.2020
1150 Clouds 29 1009 79 10000 4.1 180 22:21 18.03.2020
1151 Clouds 29 1009 79 10000 4.1 180 21:43 18.03.2020
1152 Clouds 29 1009 79 10000 4.1 180 21:43 18.03.2020
1153 Clouds 29 1009 79 10000 3.6 180 21:22 18.03.2020
1154 Clouds 29 1009 79 10000 4.1 180 20:59 18.03.2020
1155 Clouds 29 1009 79 10000 4.1 180 20:41 18.03.2020
1156 Clouds 29 1009 79 10000 3.6 180 20:20 18.03.2020
1157 Clouds 29 1010 79 10000 3.1 180 19:58 18.03.2020
1158 Clouds 29 1010 79 10000 5.1 180 19:39 18.03.2020
1159 Clouds 29 1010 79 10000 5.1 180 19:20 18.03.2020
1160 Clouds 29 1011 83 10000 4.1 190 18:42 18.03.2020
1161 Clouds 29 1011 83 10000 4.6 190 18:21 18.03.2020
1162 Clouds 29 1011 83 10000 4.6 190 17:59 18.03.2020
1163 Clouds 29 1011 83 10000 4.6 190 17:59 18.03.2020
1164 Clouds 29 1011 79 10000 4.6 200 17:41 18.03.2020
1165 Clouds 30 1011 79 10000 5.7 200 17:22 18.03.2020
1166 Clouds 30 1011 79 10000 5.7 200 16:58 18.03.2020
1167 Clouds 30 1011 79 10000 5.7 190 16:40 18.03.2020
1168 Clouds 30 1011 79 10000 5.7 190 16:20 18.03.2020
1169 Clouds 30 1011 79 10000 5.7 190 16:20 18.03.2020
1170 Clouds 30 1010 79 10000 5.1 190 15:45 18.03.2020
1171 Clouds 30 1010 79 10000 6.2 200 15:23 18.03.2020
1172 Clouds 30 1010 74 10000 7.2 190 14:57 18.03.2020
1173 Clouds 30 1009 74 10000 6.2 190 14:39 18.03.2020
1174 Clouds 30 1009 74 10000 6.2 190 14:20 18.03.2020
1175 Clouds 30 1008 70 10000 5.7 200 13:39 18.03.2020
1176 Clouds 30 1008 66 10000 4.6 210 13:19 18.03.2020
1177 Clouds 31 1008 59 10000 5.1 190 12:42 18.03.2020
1178 Clouds 31 1008 59 10000 4.6 170 12:20 18.03.2020
1179 Clouds 32 1007 55 10000 5.1 170 11:41 18.03.2020
1180 Clouds 33 1007 56 10000 4.6 190 11:22 18.03.2020
1181 Clouds 33 1007 56 10000 4.6 190 10:59 18.03.2020
1182 Clouds 33 1007 56 10000 4.6 190 10:59 18.03.2020
1183 Clouds 33 1007 52 10000 4.6 190 10:39 18.03.2020
1184 Clouds 34 1007 52 10000 4.6 190 10:20 18.03.2020
1185 Clouds 34 1007 52 10000 4.1 180 09:59 18.03.2020
1186 Clouds 34 1008 53 10000 5.1 190 09:39 18.03.2020
1187 Clouds 34 1008 53 10000 5.1 190 09:21 18.03.2020
1188 Clouds 35 1009 53 10000 5.7 190 08:40 18.03.2020
1189 Clouds 35 1009 53 10000 5.7 190 08:21 18.03.2020
1190 Clouds 35 1010 53 10000 5.1 180 07:49 18.03.2020
1191 Clouds 35 1010 53 10000 4.6 190 07:31 18.03.2020
1192 Clouds 34 1011 53 10000 4.6 190 06:50 18.03.2020
1193 Clouds 34 1012 59 10000 4.1 190 06:31 18.03.2020
1194 Clouds 33 1012 56 10000 4.6 190 05:36 18.03.2020
1195 Clouds 32 1013 66 10000 5.1 180 04:29 18.03.2020
1196 Clouds 30 1013 74 10000 4.1 190 02:51 18.03.2020
1197 Clouds 29 1013 79 10000 2.1 180 02:23 18.03.2020
1198 Clouds 28 1011 78 10000 2.1 170 01:31 18.03.2020
1199 Clouds 28 1011 78 10000 2.6 170 00:26 18.03.2020
1200 Clouds 28 1011 83 10000 3.1 160 23:59 17.03.2020
1201 Clouds 28 1011 83 10000 3.1 160 23:40 17.03.2020
1202 Clouds 28 1010 83 10000 2.1 170 23:19 17.03.2020
1203 Clouds 28 1011 83 10000 2.1 170 22:42 17.03.2020
1204 Clouds 28 1011 83 10000 2.1 170 22:23 17.03.2020
1205 Clouds 28 1011 83 10000 3.1 180 21:42 17.03.2020
1206 Clouds 28 1011 83 10000 3.6 180 21:22 17.03.2020
1207 Clouds 28 1011 83 10000 3.1 180 20:56 17.03.2020
1208 Clouds 28 1011 83 10000 2.6 180 20:37 17.03.2020
1209 Clouds 28 1011 83 10000 2.6 180 20:18 17.03.2020
1210 Clouds 28 1012 83 10000 3.6 210 19:41 17.03.2020
1211 Clouds 28 1012 79 10000 4.1 200 19:18 17.03.2020
1212 Clouds 28 1012 79 10000 4.1 200 18:56 17.03.2020
1213 Clouds 29 1013 79 10000 3.6 190 18:38 17.03.2020
1214 Clouds 29 1013 79 10000 3.6 190 18:38 17.03.2020
1215 Clouds 29 1013 79 10000 3.1 200 18:20 17.03.2020
1216 Clouds 29 1013 79 10000 5.1 200 17:41 17.03.2020
1217 Clouds 29 1013 79 10000 5.1 200 17:22 17.03.2020
1218 Clouds 29 1013 79 10000 4.1 190 16:56 17.03.2020
1219 Clouds 30 1013 79 10000 5.1 190 16:38 17.03.2020
1220 Clouds 30 1013 79 10000 5.1 190 16:18 17.03.2020
1221 Clouds 30 1012 79 10000 4.6 190 15:43 17.03.2020
1222 Clouds 30 1012 79 10000 6.2 200 15:21 17.03.2020
1223 Clouds 30 1012 79 10000 4.6 200 14:44 17.03.2020
1224 Clouds 29 1012 79 10000 5.1 200 14:21 17.03.2020
1225 Clouds 30 1012 74 10000 4.1 180 13:46 17.03.2020
1226 Clouds 30 1011 74 10000 4.1 170 13:28 17.03.2020
1227 Clouds 31 1011 74 10000 4.1 190 12:59 17.03.2020
1228 Clouds 31 1010 66 10000 5.1 200 12:40 17.03.2020
1229 Clouds 31 1010 66 10000 5.7 200 12:22 17.03.2020
1230 Clouds 32 1010 62 10000 6.2 200 11:47 17.03.2020
1231 Clouds 32 1010 62 10000 6.2 200 11:29 17.03.2020
1232 Clouds 33 1010 59 10000 6.2 200 10:58 17.03.2020
1233 Clouds 33 1010 56 10000 5.1 200 10:38 17.03.2020
1234 Clouds 33 1010 56 10000 5.1 200 10:20 17.03.2020
1235 Clouds 33 1010 59 10000 4.6 190 09:59 17.03.2020
1236 Clouds 34 1010 56 10000 5.1 200 09:39 17.03.2020
1237 Clouds 34 1010 56 10000 5.1 200 09:19 17.03.2020
1238 Clouds 34 1011 59 10000 5.7 190 08:47 17.03.2020
1239 Clouds 34 1011 56 10000 4.6 200 08:22 17.03.2020
1240 Clouds 34 1011 56 10000 4.1 210 07:50 17.03.2020
1241 Clouds 34 1012 53 10000 4.6 180 07:26 17.03.2020
1242 Clouds 34 1013 56 10000 2.1 180 06:58 17.03.2020
1243 Clouds 34 1013 66 10000 5.7 180 06:33 17.03.2020
1244 Clouds 33 1014 63 10000 3.1 190 05:46 17.03.2020
1245 Clouds 31 1015 70 10000 3.1 200 03:40 17.03.2020
1246 Clouds 30 1014 83 10000 5.22 183 02:45 17.03.2020
1247 Clouds 28 1013 88 10000 2.1 120 01:42 17.03.2020
1248 Clouds 28 1013 88 10000 2.1 120 01:24 17.03.2020
1249 Clouds 28 1012 88 10000 3.59 176 00:25 17.03.2020
1250 Clouds 28 1012 88 10000 3.59 176 23:45 16.03.2020
1251 Clouds 28 1012 88 10000 3.59 176 23:25 16.03.2020
1252 Clouds 28 1011 83 10000 2.6 170 22:40 16.03.2020
1253 Clouds 28 1011 83 10000 2.6 170 22:22 16.03.2020
1254 Clouds 28 1012 83 10000 2.6 190 21:55 16.03.2020
1255 Clouds 28 1012 83 10000 1.5 190 21:36 16.03.2020
1256 Clouds 28 1012 83 10000 1.5 190 21:18 16.03.2020
1257 Clouds 28 1012 83 10000 2.6 180 20:43 16.03.2020
1258 Clouds 28 1012 83 10000 2.6 190 20:24 16.03.2020
1259 Rain 28 1012 83 10000 3.1 200 19:56 16.03.2020
1260 Rain 29 1013 83 10000 3.1 210 19:37 16.03.2020
1261 Rain 29 1013 83 10000 3.1 210 19:18 16.03.2020
1262 Rain 29 1013 88 10000 3.6 210 18:41 16.03.2020
1263 Rain 29 1013 83 10000 2.1 210 18:20 16.03.2020
1264 Rain 29 1013 79 10000 2.6 180 17:46 16.03.2020
1265 Rain 29 1013 79 10000 2.6 180 17:26 16.03.2020
1266 Clouds 29 1013 79 10000 2.6 200 16:58 16.03.2020
1267 Clouds 30 1013 74 10000 3.6 200 16:40 16.03.2020
1268 Clouds 30 1013 74 10000 3.6 200 16:22 16.03.2020
1269 Clouds 30 1013 74 10000 3.1 210 15:43 16.03.2020
1270 Clouds 30 1013 70 10000 4.1 190 15:25 16.03.2020
1271 Clouds 30 1012 66 10000 3.6 190 14:48 16.03.2020
1272 Clouds 30 1012 62 9000 4.1 190 14:25 16.03.2020
1273 Clouds 30 1012 66 8000 3.1 180 13:53 16.03.2020
1274 Clouds 31 1011 62 8000 3.6 190 13:30 16.03.2020
1275 Clouds 31 1011 62 8000 3.6 180 12:58 16.03.2020
1276 Clouds 31 1011 59 8000 3.6 200 12:40 16.03.2020
1277 Clouds 32 1011 59 8000 3.6 200 12:20 16.03.2020
1278 Clouds 32 1011 59 8000 3.6 200 12:20 16.03.2020
1279 Clouds 33 1010 59 7000 1 0 11:44 16.03.2020
1280 Clouds 33 1010 59 7000 1 0 11:26 16.03.2020
1281 Clouds 33 1010 55 7000 2.6 0 10:45 16.03.2020
1282 Clouds 33 1010 56 7000 2.1 200 10:25 16.03.2020
1283 Clouds 33 1010 56 7000 1.5 0 09:59 16.03.2020
1284 Clouds 34 1011 59 8000 2.6 270 09:38 16.03.2020
1285 Clouds 34 1011 59 8000 2.6 270 09:19 16.03.2020
1286 Clouds 34 1011 56 8000 2.1 250 08:43 16.03.2020
1287 Clouds 33 1012 59 8000 1 0 08:23 16.03.2020
1288 Clouds 33 1012 59 8000 1.5 0 07:44 16.03.2020
1289 Clouds 32 1013 62 8000 1.5 280 07:21 16.03.2020
1290 Clouds 32 1013 62 8000 1.5 280 07:21 16.03.2020
1291 Clouds 33 1014 66 8000 1.5 0 06:41 16.03.2020
1292 Clouds 32 1014 66 8000 1.5 0 06:22 16.03.2020
1293 Rain 30 1015 74 6000 1 0 04:26 16.03.2020
1294 Mist 25 1013 94 3000 0.5 70 01:46 16.03.2020
1295 Mist 25 1012 94 4000 1 70 00:45 16.03.2020
1296 Mist 25 1011 94 5000 3.75 170 00:26 16.03.2020
1297 Mist 25 1011 94 5000 1 360 23:40 15.03.2020
1298 Mist 25 1011 94 5000 1 360 23:19 15.03.2020
1299 Clouds 25 1011 94 6000 2.1 350 22:42 15.03.2020
1300 Clouds 25 1011 94 7000 1.5 30 22:21 15.03.2020
1301 Clouds 25 1011 94 7000 0.5 50 21:39 15.03.2020
1302 Clouds 25 1011 94 7000 1 30 21:21 15.03.2020
1303 Clouds 25 1011 94 7000 1 350 20:58 15.03.2020
1304 Clouds 25 1012 94 7000 2.65 192 20:40 15.03.2020
1305 Clouds 25 1012 94 7000 4.59 181 20:19 15.03.2020
1306 Clouds 26 1012 94 8000 0.5 330 19:55 15.03.2020
1307 Clouds 26 1012 88 8000 2.1 310 19:37 15.03.2020
1308 Clouds 26 1012 88 8000 2.1 310 19:18 15.03.2020
1309 Clouds 26 1013 88 8000 1 230 18:42 15.03.2020
1310 Clouds 26 1013 88 8000 1 230 18:24 15.03.2020
1311 Clouds 26 1013 94 8000 1 180 17:58 15.03.2020
1312 Clouds 26 1013 94 8000 4.92 191 17:39 15.03.2020
1313 Clouds 27 1013 88 8000 4.66 196 17:20 15.03.2020
1314 Clouds 27 1013 88 8000 4.66 196 16:55 15.03.2020
1315 Clouds 27 1013 88 8000 1.5 210 16:36 15.03.2020
1316 Clouds 27 1013 88 8000 1.5 210 16:18 15.03.2020
1317 Clouds 27 1013 88 8000 1 200 15:41 15.03.2020
1318 Clouds 27 1012 88 8000 1.5 270 15:20 15.03.2020
1319 Clouds 28 1012 88 10000 2.1 310 14:47 15.03.2020
1320 Clouds 28 1012 88 10000 4.66 196 14:26 15.03.2020
1321 Clouds 28 1012 88 10000 2.1 50 13:59 15.03.2020
1322 Clouds 28 1012 88 10000 3.6 30 13:39 15.03.2020
1323 Clouds 29 1012 88 10000 3.6 30 13:21 15.03.2020
1324 Clouds 29 1012 94 10000 4.1 340 12:44 15.03.2020
1325 Clouds 28 1011 88 10000 5.1 340 12:26 15.03.2020
1326 Clouds 28 1010 83 10000 2.1 190 11:57 15.03.2020
1327 Clouds 28 1010 83 10000 3.1 200 11:39 15.03.2020
1328 Clouds 29 1011 88 10000 3.6 200 11:20 15.03.2020
1329 Clouds 29 1011 88 10000 3.6 200 10:56 15.03.2020
1330 Clouds 30 1011 83 10000 2.1 230 10:36 15.03.2020
1331 Clouds 29 1011 83 10000 2.1 230 10:18 15.03.2020
1332 Rain 29 1012 88 10000 3.6 260 09:40 15.03.2020
1333 Rain 28 1012 88 10000 3.6 260 09:21 15.03.2020
1334 Rain 28 1012 88 10000 2.1 280 08:42 15.03.2020
1335 Rain 28 1013 88 10000 1 0 08:20 15.03.2020
1336 Rain 28 1014 83 10000 1.5 310 07:51 15.03.2020
1337 Clouds 27 1014 94 10000 1.5 220 07:29 15.03.2020
1338 Clouds 29 1014 94 10000 2.6 170 06:52 15.03.2020
1339 Rain 26 1015 94 10000 4.6 50 05:50 15.03.2020
1340 Thunderstorm 29 1016 83 5000 9.3 50 05:18 15.03.2020
1341 Thunderstorm 30 1016 83 5000 9.3 50 04:43 15.03.2020
1342 Clouds 31 1014 74 10000 1.5 70 04:24 15.03.2020
1343 Clouds 31 1013 79 10000 2.1 160 03:38 15.03.2020
1344 Clouds 30 1012 79 10000 3.1 190 02:37 15.03.2020
1345 Clouds 30 1011 83 10000 3.1 180 01:34 15.03.2020
1346 Clouds 29 1011 83 10000 1.5 150 00:45 15.03.2020
1347 Clouds 29 1011 83 10000 1.5 150 00:22 15.03.2020
1348 Clouds 29 1010 83 10000 2.6 180 23:42 14.03.2020
1349 Clouds 29 1010 83 10000 2.6 180 23:22 14.03.2020
1350 Clouds 29 1010 83 10000 2.6 180 22:58 14.03.2020
1351 Clouds 29 1010 83 10000 3.6 190 22:40 14.03.2020
1352 Clouds 29 1010 83 10000 3.6 190 22:22 14.03.2020
1353 Clouds 29 1009 83 10000 2.6 180 21:56 14.03.2020
1354 Clouds 29 1010 79 10000 2.6 200 21:36 14.03.2020
1355 Clouds 29 1010 79 10000 2.6 200 21:18 14.03.2020
1356 Clouds 29 1010 79 10000 2.6 200 21:18 14.03.2020
1357 Clouds 29 1010 83 10000 4.6 200 20:58 14.03.2020
1358 Clouds 29 1010 79 10000 5.1 200 20:39 14.03.2020
1359 Clouds 30 1010 79 10000 5.1 200 20:19 14.03.2020
1360 Clouds 30 1010 79 10000 4.6 180 19:42 14.03.2020
1361 Clouds 30 1010 79 10000 4.6 190 19:24 14.03.2020
1362 Clouds 30 1011 79 10000 4.6 200 18:41 14.03.2020
1363 Clouds 30 1011 79 10000 5.7 190 18:22 14.03.2020
1364 Clouds 30 1011 79 10000 4.6 200 17:56 14.03.2020
1365 Clouds 30 1011 79 10000 4.6 200 17:37 14.03.2020
1366 Clouds 31 1011 79 10000 6.2 190 17:19 14.03.2020
1367 Clouds 31 1010 79 10000 5.1 200 16:40 14.03.2020
1368 Clouds 31 1010 79 10000 5.1 200 16:22 14.03.2020
1369 Clouds 31 1010 79 10000 4.6 190 15:54 14.03.2020
1370 Clouds 31 1010 74 10000 3.6 170 15:26 14.03.2020
1371 Clouds 30 1010 74 10000 4.6 200 14:47 14.03.2020
1372 Clouds 31 1009 74 10000 3.6 190 14:24 14.03.2020
1373 Clouds 31 1008 74 10000 4.1 190 13:58 14.03.2020
1374 Clouds 31 1009 70 10000 3.6 120 13:39 14.03.2020
1375 Clouds 33 1009 70 10000 3.6 120 13:20 14.03.2020
1376 Clouds 32 1008 63 10000 5.1 190 12:46 14.03.2020
1377 Clouds 32 1008 63 10000 5.1 190 12:27 14.03.2020
1378 Clouds 34 1008 63 10000 5.1 180 11:56 14.03.2020
1379 Clouds 34 1008 63 10000 5.1 180 11:38 14.03.2020
1380 Clouds 34 1007 50 10000 5.1 210 11:19 14.03.2020
1381 Clouds 34 1007 50 10000 6.7 200 10:42 14.03.2020
1382 Clouds 34 1007 50 10000 6.7 200 10:42 14.03.2020
1383 Clouds 36 1007 50 10000 6.7 200 10:23 14.03.2020
1384 Clouds 36 1008 47 10000 5.1 220 09:47 14.03.2020
1385 Clouds 36 1007 47 10000 5.7 210 09:24 14.03.2020
1386 Clouds 36 1008 47 10000 4.1 210 08:54 14.03.2020
1387 Clouds 35 1009 50 10000 2.6 190 08:35 14.03.2020
1388 Clouds 35 1009 50 10000 4.1 200 07:56 14.03.2020
1389 Clouds 36 1010 47 10000 3.6 220 07:38 14.03.2020
1390 Clouds 35 1010 47 10000 3.6 220 07:19 14.03.2020
1391 Clouds 34 1011 56 10000 3.6 160 06:40 14.03.2020
1392 Clouds 34 1012 59 10000 3.1 180 05:43 14.03.2020
1393 Clouds 32 1013 66 10000 4.6 170 03:49 14.03.2020
1394 Clouds 32 1012 70 10000 3.6 160 03:24 14.03.2020
1395 Clouds 30 1012 79 10000 4.1 170 02:23 14.03.2020
1396 Clouds 29 1011 79 10000 2.1 170 00:49 14.03.2020
1397 Clouds 29 1010 79 10000 2.1 190 23:50 13.03.2020
1398 Clouds 29 1010 79 10000 2.1 190 23:30 13.03.2020
1399 Clouds 29 1010 79 10000 2.6 180 22:52 13.03.2020
1400 Clouds 29 1010 83 10000 2.6 180 22:26 13.03.2020
1401 Clouds 29 1010 83 10000 2.6 190 21:44 13.03.2020
1402 Clouds 29 1010 83 10000 3.6 190 21:22 13.03.2020
1403 Clouds 29 1010 83 10000 3.1 200 20:59 13.03.2020
1404 Clouds 29 1010 83 10000 3.6 190 20:40 13.03.2020
1405 Clouds 30 1010 83 10000 3.6 190 20:20 13.03.2020
1406 Clouds 30 1010 83 10000 4.6 180 19:48 13.03.2020
1407 Clouds 30 1011 83 10000 5.1 190 19:30 13.03.2020
1408 Clouds 30 1011 83 10000 3.6 180 18:49 13.03.2020
1409 Clouds 30 1011 83 10000 4.6 190 18:31 13.03.2020
1410 Clouds 30 1011 83 10000 4.6 190 17:57 13.03.2020
1411 Clouds 30 1012 83 10000 4.1 190 17:38 13.03.2020
1412 Clouds 30 1012 84 10000 4.1 200 17:20 13.03.2020
1413 Clouds 30 1011 79 10000 3.6 190 16:42 13.03.2020
1414 Clouds 30 1011 79 10000 3.6 190 16:24 13.03.2020
1415 Clouds 30 1011 79 10000 4.1 190 15:56 13.03.2020
1416 Clouds 30 1011 79 10000 4.1 190 15:37 13.03.2020
1417 Clouds 30 1011 79 10000 4.1 190 15:19 13.03.2020
1418 Clouds 31 1010 74 10000 3.6 190 14:41 13.03.2020
1419 Clouds 31 1010 74 10000 3.6 190 14:22 13.03.2020
1420 Clouds 32 1010 70 10000 3.6 190 13:57 13.03.2020
1421 Clouds 31 1009 66 10000 4.1 190 13:38 13.03.2020
1422 Clouds 32 1009 66 10000 4.1 190 13:19 13.03.2020
1423 Clouds 33 1009 47 10000 4.1 200 12:40 13.03.2020
1424 Clouds 33 1009 44 10000 4.1 200 12:22 13.03.2020
1425 Clouds 34 1009 44 10000 4.1 200 11:59 13.03.2020
1426 Clouds 34 1009 44 10000 4.1 200 11:41 13.03.2020
1427 Clouds 34 1009 44 10000 4.1 200 11:41 13.03.2020
1428 Clouds 34 1008 47 10000 4.6 210 11:22 13.03.2020
1429 Clouds 36 1008 47 10000 4.6 210 10:48 13.03.2020
1430 Clouds 36 1008 47 10000 4.6 190 10:28 13.03.2020
1431 Clouds 36 1008 47 10000 4.6 190 10:28 13.03.2020
1432 Clouds 37 1009 44 10000 4.1 200 09:59 13.03.2020
1433 Clouds 37 1009 44 10000 5.1 210 09:41 13.03.2020
1434 Clouds 37 1009 44 10000 5.1 210 09:22 13.03.2020
1435 Clouds 37 1010 44 10000 5.1 200 08:45 13.03.2020
1436 Clouds 37 1010 42 10000 3.1 150 08:23 13.03.2020
1437 Clouds 36 1011 42 10000 3.6 150 07:50 13.03.2020
1438 Clouds 36 1012 44 10000 4.1 210 07:28 13.03.2020
1439 Clouds 35 1012 47 10000 3.6 170 06:53 13.03.2020
1440 Clouds 35 1013 47 10000 3.1 200 06:32 13.03.2020
1441 Clouds 34 1013 50 10000 3.6 240 05:54 13.03.2020
1442 Clouds 33 1014 52 10000 4.6 200 05:22 13.03.2020
1443 Clouds 33 1014 59 10000 4.1 170 04:37 13.03.2020
1444 Clouds 32 1014 66 10000 4.6 160 03:37 13.03.2020
1445 Clouds 29 1013 79 10000 2.1 150 01:46 13.03.2020
1446 Clouds 29 1013 83 10000 2.6 150 01:19 13.03.2020
1447 Clouds 28 1013 83 10000 2.6 150 00:53 13.03.2020
1448 Clouds 28 1012 83 10000 2.1 140 00:24 13.03.2020
1449 Clouds 28 1012 88 10000 2.6 160 23:50 12.03.2020
1450 Clouds 28 1012 88 10000 2.6 160 23:27 12.03.2020
1451 Clouds 28 1011 83 10000 2.6 160 22:56 12.03.2020
1452 Clouds 28 1011 83 10000 1.5 160 22:38 12.03.2020
1453 Clouds 28 1011 83 10000 1.5 160 22:20 12.03.2020
1454 Clouds 28 1011 83 10000 3.1 170 21:43 12.03.2020
1455 Clouds 28 1011 83 10000 3.1 180 21:25 12.03.2020
1456 Clouds 28 1011 83 10000 3.6 190 20:57 12.03.2020
1457 Clouds 29 1012 79 10000 4.1 190 20:37 12.03.2020
1458 Clouds 29 1012 79 10000 4.1 190 20:37 12.03.2020
1459 Clouds 29 1012 79 10000 4.1 190 20:18 12.03.2020
1460 Clouds 29 1012 79 10000 4.6 200 19:39 12.03.2020
1461 Clouds 29 1012 79 10000 4.6 200 19:20 12.03.2020
1462 Clouds 29 1013 79 10000 4.6 190 18:43 12.03.2020
1463 Clouds 29 1013 79 10000 4.6 190 18:24 12.03.2020
1464 Clouds 30 1012 79 10000 4.6 200 17:57 12.03.2020
1465 Clouds 30 1012 79 10000 4.6 200 17:38 12.03.2020
1466 Clouds 30 1012 74 10000 5.1 190 17:19 12.03.2020
1467 Clouds 30 1012 74 10000 5.1 190 16:54 12.03.2020
1468 Clouds 30 1012 74 10000 4.6 200 16:36 12.03.2020
1469 Clouds 30 1012 74 10000 4.6 200 16:18 12.03.2020
1470 Clouds 30 1012 70 10000 5.1 200 15:43 12.03.2020
1471 Clouds 30 1011 70 10000 5.7 190 15:24 12.03.2020
1472 Clouds 30 1011 66 10000 4.6 190 14:39 12.03.2020
1473 Clouds 30 1011 66 10000 4.6 190 14:19 12.03.2020
1474 Clouds 31 1010 59 10000 4.1 190 13:41 12.03.2020
1475 Clouds 31 1010 59 10000 4.1 190 13:22 12.03.2020
1476 Clouds 32 1010 52 10000 4.6 190 12:56 12.03.2020
1477 Clouds 33 1009 47 10000 4.1 190 12:38 12.03.2020
1478 Clouds 33 1009 47 10000 4.1 190 12:19 12.03.2020
1479 Clouds 33 1009 47 10000 4.1 190 11:56 12.03.2020
1480 Clouds 33 1009 47 10000 4.6 190 11:37 12.03.2020
1481 Clouds 34 1009 44 10000 5.1 210 11:19 12.03.2020
1482 Clouds 34 1009 44 10000 5.1 210 11:19 12.03.2020
1483 Clouds 35 1009 44 10000 5.1 210 10:57 12.03.2020
1484 Clouds 35 1009 44 10000 5.1 210 10:57 12.03.2020
1485 Clouds 35 1009 47 10000 5.1 200 10:39 12.03.2020
1486 Clouds 35 1009 47 10000 5.1 200 10:21 12.03.2020
1487 Clouds 35 1009 50 10000 5.1 170 09:43 12.03.2020
1488 Clouds 35 1009 50 10000 5.1 170 09:43 12.03.2020
1489 Clouds 35 1010 47 10000 4.1 180 09:25 12.03.2020
1490 Clouds 35 1010 47 10000 4.6 220 08:41 12.03.2020
1491 Clouds 34 1011 53 10000 4.1 180 08:20 12.03.2020
1492 Clouds 35 1011 50 10000 4.6 180 07:53 12.03.2020
1493 Clouds 35 1012 50 10000 3.6 200 07:23 12.03.2020
1494 Clouds 34 1012 53 10000 4.6 200 06:52 12.03.2020
1495 Clouds 33 1013 59 10000 5.1 180 05:41 12.03.2020
1496 Clouds 32 1013 63 10000 5.1 160 04:29 12.03.2020
1497 Clouds 30 1012 79 9000 3.1 150 02:36 12.03.2020
1498 Clouds 28 1012 88 8000 1.5 110 01:30 12.03.2020
1499 Clear 27 1011 83 10000 2.1 160 00:43 12.03.2020
1500 Clear 28 1011 83 10000 2.1 160 00:24 12.03.2020
1501 Clear 28 1010 83 10000 2.1 170 23:42 11.03.2020
1502 Clear 28 1010 83 10000 3.1 170 23:23 11.03.2020
1503 Clear 28 1010 83 10000 3.1 160 22:45 11.03.2020
1504 Clear 28 1010 83 10000 3.1 160 22:27 11.03.2020
1505 Clear 29 1010 83 10000 3.1 170 21:59 11.03.2020
1506 Clear 29 1010 83 10000 2.6 180 21:41 11.03.2020
1507 Clear 29 1010 83 10000 2.6 180 21:41 11.03.2020
1508 Clear 28 1010 83 10000 2.6 180 21:22 11.03.2020
1509 Clear 28 1010 88 10000 3.6 190 20:58 11.03.2020
1510 Clear 29 1010 83 10000 2.6 180 20:39 11.03.2020
1511 Clear 29 1010 83 10000 2.6 180 20:19 11.03.2020
1512 Clear 29 1010 88 10000 3.1 200 19:43 11.03.2020
1513 Clear 29 1010 83 10000 4.1 200 19:25 11.03.2020
1514 Clear 29 1011 83 10000 4.6 200 18:58 11.03.2020
1515 Clear 30 1011 83 10000 4.1 200 18:38 11.03.2020
1516 Clear 30 1011 83 10000 4.1 200 18:20 11.03.2020
1517 Clear 30 1011 74 10000 4.1 190 17:56 11.03.2020
1518 Clear 30 1011 74 10000 3.6 200 17:37 11.03.2020
1519 Clear 30 1011 74 10000 3.1 210 17:19 11.03.2020
1520 Clear 30 1011 74 10000 3.1 210 16:45 11.03.2020
1521 Clear 30 1011 70 10000 2.6 200 16:20 11.03.2020
1522 Clear 30 1010 66 10000 2.6 170 15:44 11.03.2020
1523 Clear 31 1010 66 10000 3.1 190 15:23 11.03.2020
1524 Clear 31 1009 66 10000 3.1 170 14:56 11.03.2020
1525 Clear 30 1009 62 10000 3.1 170 14:38 11.03.2020
1526 Clouds 31 1009 62 10000 3.1 170 14:19 11.03.2020
1527 Clouds 32 1008 59 10000 4.6 160 13:44 11.03.2020
1528 Clouds 32 1008 46 10000 4.1 170 13:25 11.03.2020
1529 Clouds 33 1008 44 10000 4.6 190 12:57 11.03.2020
1530 Clouds 33 1007 32 10000 4.1 170 12:39 11.03.2020
1531 Clouds 34 1007 32 10000 4.1 170 12:19 11.03.2020
1532 Clouds 35 1007 29 10000 4.1 190 11:41 11.03.2020
1533 Clouds 36 1007 29 10000 4.1 190 11:22 11.03.2020
1534 Clouds 36 1007 35 10000 3.6 200 10:49 11.03.2020
1535 Clouds 37 1007 35 10000 5.1 210 10:21 11.03.2020
1536 Clouds 37 1007 37 10000 4.6 190 10:00 11.03.2020
1537 Clouds 36 1007 37 10000 4.6 190 09:41 11.03.2020
1538 Clouds 36 1008 39 10000 4.1 190 09:22 11.03.2020
1539 Clouds 36 1008 39 10000 4.1 190 09:22 11.03.2020
1540 Clouds 37 1008 35 10000 3.6 210 08:44 11.03.2020
1541 Clouds 36 1008 39 10000 4.1 190 08:26 11.03.2020
1542 Clear 36 1009 42 9000 3.1 170 07:48 11.03.2020
1543 Clear 36 1010 39 9000 3.1 190 07:22 11.03.2020
1544 Clear 36 1010 42 9000 2.1 160 06:53 11.03.2020
1545 Clear 35 1011 47 9000 1 0 06:33 11.03.2020
1546 Clear 34 1012 59 9000 2.1 180 05:33 11.03.2020
1547 Clear 30 1012 79 8000 2.6 120 03:26 11.03.2020
1548 Clear 30 1012 79 8000 2.6 120 03:26 11.03.2020
1549 Clear 30 1012 79 8000 2.6 120 03:26 11.03.2020
1550 Mist 27 1011 88 5000 2.1 110 01:54 11.03.2020
1551 Mist 27 1010 94 5000 1.5 110 01:24 11.03.2020
1552 Clouds 27 1009 88 7000 2.1 110 00:40 11.03.2020
1553 Clouds 27 1008 88 10000 1.5 120 23:50 10.03.2020
1554 Clouds 27 1008 88 10000 1.5 120 23:28 10.03.2020
1555 Clouds 27 1008 88 10000 1.5 130 22:58 10.03.2020
1556 Clouds 27 1008 88 10000 1.5 120 22:37 10.03.2020
1557 Clouds 27 1008 88 10000 1.5 120 22:19 10.03.2020
1558 Clouds 27 1008 88 10000 1.5 170 21:56 10.03.2020
1559 Clouds 27 1008 83 10000 1.5 150 21:38 10.03.2020
1560 Clouds 27 1008 83 10000 1.5 150 21:19 10.03.2020
1561 Clouds 28 1008 83 10000 2.6 160 20:43 10.03.2020
1562 Clouds 28 1008 83 10000 2.6 170 20:21 10.03.2020
1563 Clear 28 1009 83 10000 3.1 180 19:59 10.03.2020
1564 Clear 28 1009 83 10000 3.6 190 19:41 10.03.2020
1565 Clear 28 1009 83 10000 3.6 190 19:23 10.03.2020
1566 Clear 28 1009 74 10000 3.1 170 18:58 10.03.2020
1567 Clear 28 1009 74 10000 3.1 190 18:40 10.03.2020
1568 Clear 28 1009 74 10000 3.1 190 18:21 10.03.2020
1569 Clear 29 1009 74 10000 4.6 200 17:55 10.03.2020
1570 Clear 29 1009 70 10000 4.1 200 17:37 10.03.2020
1571 Clear 29 1009 70 10000 4.6 200 17:18 10.03.2020
1572 Clear 29 1009 70 10000 5.1 210 16:37 10.03.2020
1573 Clear 30 1009 70 10000 5.1 210 16:18 10.03.2020
1574 Clear 30 1008 66 10000 5.1 190 15:42 10.03.2020
1575 Clear 30 1008 66 10000 5.1 190 15:20 10.03.2020
1576 Clear 30 1007 70 10000 4.6 200 14:58 10.03.2020
1577 Clear 30 1007 70 10000 4.6 200 14:40 10.03.2020
1578 Clear 31 1007 62 10000 4.1 180 14:19 10.03.2020
1579 Clear 31 1006 62 10000 4.6 170 13:44 10.03.2020
1580 Clear 31 1006 55 10000 4.1 170 13:25 10.03.2020
1581 Clear 32 1006 52 10000 3.6 180 12:55 10.03.2020
1582 Clear 32 1006 49 10000 3.6 170 12:37 10.03.2020
1583 Clear 33 1006 47 10000 4.1 160 12:18 10.03.2020
1584 Clear 34 1005 50 10000 4.1 170 11:42 10.03.2020
1585 Clear 34 1005 50 10000 4.1 170 11:24 10.03.2020
1586 Clear 34 1005 50 10000 4.1 170 11:24 10.03.2020
1587 Clear 36 1005 47 10000 4.1 190 10:56 10.03.2020
1588 Clear 36 1005 47 10000 4.6 210 10:38 10.03.2020
1589 Clear 36 1005 47 10000 4.6 210 10:19 10.03.2020
1590 Clear 36 1006 44 10000 4.1 220 09:45 10.03.2020
1591 Clear 36 1006 44 10000 3.6 180 09:20 10.03.2020
1592 Clear 36 1006 42 10000 3.1 180 08:56 10.03.2020
1593 Clear 37 1007 29 10000 4.1 260 08:36 10.03.2020
1594 Clear 36 1007 29 10000 4.1 260 08:18 10.03.2020
1595 Clear 35 1008 35 10000 3.1 200 07:40 10.03.2020
1596 Clear 34 1008 35 10000 3.1 200 07:21 10.03.2020
1597 Clear 34 1008 35 10000 3.1 200 07:21 10.03.2020
1598 Clear 34 1009 34 10000 3.1 230 06:38 10.03.2020
1599 Clear 34 1010 47 10000 3.6 230 05:42 10.03.2020
1600 Clear 33 1010 56 10000 3.1 180 05:19 10.03.2020
1601 Clear 32 1010 70 10000 2.6 130 04:30 10.03.2020
1602 Clear 30 1010 88 8000 2.6 110 02:58 10.03.2020
1603 Clouds 27 1008 88 7000 2.6 110 01:32 10.03.2020
1604 Clouds 26 1007 88 8000 2.1 110 00:50 10.03.2020
1605 Clouds 26 1007 94 9000 2.1 110 00:28 10.03.2020
1606 Clouds 27 1006 94 10000 1.5 110 23:42 09.03.2020
1607 Clouds 27 1006 94 10000 1.5 110 23:22 09.03.2020
1608 Clouds 27 1006 94 10000 1.5 110 23:22 09.03.2020
1609 Clouds 27 1006 88 10000 2.1 140 22:57 09.03.2020
1610 Clouds 27 1006 88 10000 2.1 150 22:38 09.03.2020
1611 Clouds 27 1006 88 10000 2.1 150 22:38 09.03.2020
1612 Clouds 27 1006 88 10000 2.1 150 22:19 09.03.2020
1613 Clouds 27 1006 83 10000 2.1 150 21:43 09.03.2020
1614 Clouds 27 1006 83 10000 2.1 150 21:22 09.03.2020
1615 Clouds 27 1006 78 10000 1.5 120 20:58 09.03.2020
1616 Clouds 28 1007 78 10000 1.5 160 20:40 09.03.2020
1617 Clouds 28 1007 78 10000 1.5 160 20:20 09.03.2020
1618 Clouds 28 1007 74 10000 3.6 180 19:45 09.03.2020
1619 Clouds 28 1007 74 10000 4.1 180 19:26 09.03.2020
1620 Clouds 29 1007 74 10000 3.6 190 18:59 09.03.2020
1621 Clouds 29 1008 79 10000 4.1 190 18:40 09.03.2020
1622 Clouds 29 1008 79 10000 4.1 190 18:21 09.03.2020
1623 Clouds 29 1008 74 10000 4.6 190 17:58 09.03.2020
1624 Clouds 29 1008 74 10000 4.6 190 17:38 09.03.2020
1625 Clouds 29 1008 74 10000 4.1 190 17:20 09.03.2020
1626 Clouds 29 1008 74 10000 4.1 190 16:59 09.03.2020
1627 Clouds 29 1007 66 10000 4.6 190 16:41 09.03.2020
1628 Clouds 30 1007 66 10000 4.6 190 16:22 09.03.2020
1629 Clouds 30 1007 66 10000 4.6 190 15:58 09.03.2020
1630 Clouds 30 1007 66 10000 5.1 190 15:39 09.03.2020
1631 Clouds 30 1007 66 10000 5.1 190 15:21 09.03.2020
1632 Clouds 30 1007 66 10000 5.1 190 15:21 09.03.2020
1633 Clouds 31 1006 58 10000 5.1 190 14:57 09.03.2020
1634 Clouds 30 1006 58 10000 5.1 190 14:38 09.03.2020
1635 Clouds 31 1006 58 10000 5.1 190 14:19 09.03.2020
1636 Clouds 31 1005 48 10000 5.1 200 13:57 09.03.2020
1637 Clouds 31 1005 46 10000 3.6 190 13:38 09.03.2020
1638 Clouds 32 1005 46 10000 3.6 190 13:18 09.03.2020
1639 Clouds 33 1005 36 10000 4.6 180 12:43 09.03.2020
1640 Clouds 33 1004 39 10000 5.1 180 12:22 09.03.2020
1641 Clouds 34 1004 34 10000 4.6 190 11:54 09.03.2020
1642 Clouds 35 1004 27 10000 4.6 210 11:36 09.03.2020
1643 Clouds 36 1004 27 10000 4.6 210 11:18 09.03.2020
1644 Clouds 37 1004 27 10000 4.6 190 10:54 09.03.2020
1645 Clouds 37 1004 24 10000 2.6 200 10:36 09.03.2020
1646 Clouds 38 1004 24 10000 2.6 200 10:18 09.03.2020
1647 Clouds 37 1005 20 10000 3.1 190 09:38 09.03.2020
1648 Clouds 38 1005 20 10000 3.1 190 09:19 09.03.2020
1649 Clouds 37 1006 21 10000 3.1 220 08:44 09.03.2020
1650 Clouds 37 1006 22 10000 3.1 250 08:25 09.03.2020
1651 Clouds 36 1008 23 10000 3.1 0 07:42 09.03.2020
1652 Clouds 36 1008 23 10000 3.1 0 07:22 09.03.2020
1653 Clouds 35 1008 25 10000 3.1 0 06:46 09.03.2020
1654 Clouds 36 1009 28 10000 2.1 0 06:26 09.03.2020
1655 Clouds 34 1010 28 10000 1.5 0 05:57 09.03.2020
1656 Clouds 34 1010 30 10000 2.1 270 05:39 09.03.2020
1657 Clouds 33 1010 32 10000 2.6 210 04:43 09.03.2020
1658 Clouds 32 1010 35 10000 2.1 260 04:22 09.03.2020
1659 Clouds 30 1010 40 10000 2.6 230 03:21 09.03.2020
1660 Clouds 28 1009 66 10000 3.6 240 01:49 09.03.2020
1661 Clouds 27 1008 94 10000 3.66 190 00:39 09.03.2020
1662 Clouds 28 1008 94 10000 3.66 190 00:20 09.03.2020
1663 Clouds 28 1007 94 10000 1.5 180 23:51 08.03.2020
1664 Clouds 28 1007 94 10000 1.5 180 23:23 08.03.2020
1665 Clouds 28 1007 88 10000 2.1 170 22:57 08.03.2020
1666 Clouds 28 1007 88 10000 2.1 170 22:57 08.03.2020
1667 Clouds 28 1007 88 10000 2.1 180 22:38 08.03.2020
1668 Clouds 28 1007 88 10000 2.1 180 22:20 08.03.2020
1669 Clouds 28 1007 88 10000 2.1 180 21:54 08.03.2020
1670 Clouds 28 1007 88 10000 2.1 180 21:54 08.03.2020
1671 Clouds 28 1007 88 10000 2.1 180 21:36 08.03.2020
1672 Clouds 28 1007 88 10000 2.1 180 21:36 08.03.2020
1673 Clouds 28 1007 88 10000 2.1 180 21:18 08.03.2020
1674 Clouds 28 1007 83 10000 2.1 190 20:39 08.03.2020
1675 Clouds 29 1007 83 10000 2.1 190 20:21 08.03.2020
1676 Clouds 29 1007 83 10000 2.1 190 20:21 08.03.2020
1677 Clouds 29 1008 83 10000 2.6 190 19:56 08.03.2020
1678 Clouds 29 1008 83 10000 2.6 190 19:37 08.03.2020
1679 Clouds 29 1008 83 10000 3.6 200 19:18 08.03.2020
1680 Clouds 29 1009 83 10000 3.6 200 18:41 08.03.2020
1681 Clouds 29 1009 83 10000 3.6 200 18:23 08.03.2020
1682 Clouds 29 1009 74 10000 4.1 210 17:56 08.03.2020
1683 Clouds 29 1009 74 10000 4.1 210 17:38 08.03.2020
1684 Clouds 29 1009 74 10000 4.1 210 17:18 08.03.2020
1685 Clouds 29 1009 74 10000 4.1 210 16:45 08.03.2020
1686 Clouds 29 1008 74 10000 3.6 210 16:27 08.03.2020
1687 Clouds 29 1007 74 10000 3.6 200 15:56 08.03.2020
1688 Clouds 29 1007 74 10000 3.6 200 15:38 08.03.2020
1689 Clouds 29 1007 74 10000 3.6 200 15:19 08.03.2020
1690 Clouds 29 1007 70 10000 3.1 170 14:40 08.03.2020
1691 Clouds 31 1007 66 10000 3.6 160 14:21 08.03.2020
1692 Clouds 31 1006 62 10000 3.6 160 13:57 08.03.2020
1693 Clouds 31 1006 62 10000 3.6 160 13:38 08.03.2020
1694 Clouds 31 1006 55 10000 3.6 160 13:19 08.03.2020
1695 Clouds 33 1006 55 10000 4.1 180 12:41 08.03.2020
1696 Clouds 34 1006 50 10000 4.1 200 12:21 08.03.2020
1697 Clouds 34 1006 44 10000 4.6 210 11:54 08.03.2020
1698 Clouds 34 1006 53 10000 4.1 200 11:36 08.03.2020
1699 Clouds 35 1006 53 10000 4.1 200 11:18 08.03.2020
1700 Clouds 35 1006 53 10000 4.1 200 10:41 08.03.2020
1701 Clouds 35 1006 50 10000 2.1 190 10:23 08.03.2020
1702 Clouds 35 1006 50 10000 4.1 220 09:43 08.03.2020
1703 Clouds 36 1007 44 10000 1.5 0 09:24 08.03.2020
1704 Clouds 36 1008 44 10000 3.6 170 08:50 08.03.2020
1705 Clouds 35 1008 44 10000 3.6 170 08:28 08.03.2020
1706 Clouds 35 1009 47 10000 2.6 160 07:56 08.03.2020
1707 Clouds 35 1009 47 10000 2.6 160 07:37 08.03.2020
1708 Clouds 34 1011 50 10000 2.1 0 07:18 08.03.2020
1709 Clouds 34 1011 53 10000 1.5 0 06:40 08.03.2020
1710 Clouds 34 1012 53 10000 1.5 0 06:22 08.03.2020
1711 Clouds 32 1013 63 10000 3.6 210 05:19 08.03.2020
1712 Clouds 31 1013 70 10000 3.6 200 03:51 08.03.2020
1713 Clouds 29 1012 83 10000 2.1 140 02:28 08.03.2020
1714 Clouds 28 1011 83 10000 1.5 160 01:23 08.03.2020
1715 Clouds 28 1011 83 10000 2.1 170 00:44 08.03.2020
1716 Clouds 28 1010 83 10000 2.1 170 00:25 08.03.2020
1717 Clouds 28 1010 83 10000 2.1 170 23:44 07.03.2020
1718 Clouds 28 1010 88 10000 2.1 160 23:23 07.03.2020
1719 Clouds 28 1010 83 10000 3.1 180 22:40 07.03.2020
1720 Clouds 28 1010 83 10000 3.1 180 22:21 07.03.2020
1721 Clouds 28 1010 83 10000 3.1 180 21:49 07.03.2020
1722 Clouds 28 1010 83 10000 3.1 180 21:25 07.03.2020
1723 Clouds 29 1010 83 10000 3.6 190 20:42 07.03.2020
1724 Clouds 29 1010 83 10000 2.6 180 20:24 07.03.2020
1725 Clouds 29 1010 83 10000 2.6 180 20:24 07.03.2020
1726 Clouds 29 1010 83 10000 3.6 200 19:59 07.03.2020
1727 Clouds 29 1011 78 10000 3.6 210 19:40 07.03.2020
1728 Clouds 29 1011 78 10000 3.6 210 19:20 07.03.2020
1729 Clouds 29 1011 83 10000 3.1 200 18:42 07.03.2020
1730 Clouds 29 1012 74 10000 4.6 200 18:24 07.03.2020
1731 Clouds 30 1012 74 10000 3.6 190 17:56 07.03.2020
1732 Clouds 30 1012 74 10000 3.1 200 17:38 07.03.2020
1733 Clouds 30 1012 74 10000 3.1 200 17:18 07.03.2020
1734 Clouds 30 1012 74 10000 3.6 190 16:42 07.03.2020
1735 Clouds 30 1012 74 10000 3.6 190 16:23 07.03.2020
1736 Clouds 30 1011 70 10000 4.6 200 15:58 07.03.2020
1737 Clouds 30 1011 70 10000 4.6 190 15:39 07.03.2020
1738 Clouds 30 1011 70 10000 4.6 190 15:39 07.03.2020
1739 Clouds 30 1011 70 10000 4.6 190 15:21 07.03.2020
1740 Clouds 30 1011 66 10000 5.1 200 14:57 07.03.2020
1741 Clouds 30 1010 66 10000 4.1 200 14:38 07.03.2020
1742 Clouds 31 1010 66 10000 4.1 200 14:19 07.03.2020
1743 Clouds 31 1010 58 10000 3.6 170 13:40 07.03.2020
1744 Clouds 31 1010 58 10000 3.6 170 13:20 07.03.2020
1745 Clouds 32 1009 55 10000 4.1 180 12:43 07.03.2020
1746 Clouds 32 1009 52 10000 4.1 170 12:21 07.03.2020
1747 Clouds 33 1009 52 10000 4.1 170 11:58 07.03.2020
1748 Clouds 34 1009 49 10000 4.1 200 11:39 07.03.2020
1749 Clouds 34 1009 49 10000 4.1 200 11:21 07.03.2020
1750 Clouds 35 1009 52 10000 4.6 200 10:42 07.03.2020
1751 Clouds 35 1009 52 10000 4.6 200 10:21 07.03.2020
1752 Clouds 35 1010 50 10000 4.6 200 09:58 07.03.2020
1753 Clouds 35 1010 52 10000 5.1 220 09:39 07.03.2020
1754 Clouds 35 1010 52 10000 5.1 220 09:18 07.03.2020
1755 Clouds 34 1010 52 10000 3.6 200 08:44 07.03.2020
1756 Clouds 34 1011 53 10000 4.6 210 08:21 07.03.2020
1757 Clouds 34 1012 56 10000 4.1 190 07:51 07.03.2020
1758 Clouds 35 1012 76 0 5.43 178 07:23 07.03.2020
1759 Clouds 34 1012 76 0 5.43 178 06:57 07.03.2020
1760 Clouds 33 1013 77 0 5.43 178 06:33 07.03.2020
1761 Clouds 33 1015 70 9000 3.6 130 05:53 07.03.2020
1762 Clouds 31 1015 70 9000 3.6 130 04:47 07.03.2020
1763 Clouds 29 1014 88 9000 2.6 110 02:57 07.03.2020
1764 Clouds 28 1014 88 9000 2.6 110 02:33 07.03.2020
1765 Clouds 27 1013 88 9000 3.1 110 01:45 07.03.2020
1766 Clouds 26 1013 88 10000 2.6 100 00:40 07.03.2020
1767 Clouds 27 1013 88 10000 2.6 100 00:21 07.03.2020
1768 Clouds 27 1012 88 10000 3.1 110 23:49 06.03.2020
1769 Clouds 27 1012 88 10000 2.6 120 23:26 06.03.2020
1770 Clouds 27 1012 88 10000 3.1 110 22:48 06.03.2020
1771 Clouds 27 1012 88 10000 2.6 110 22:23 06.03.2020
1772 Clouds 27 1012 83 10000 2.6 110 21:59 06.03.2020
1773 Clouds 27 1011 83 10000 2.1 110 21:41 06.03.2020
1774 Clouds 27 1011 83 10000 2.1 110 21:18 06.03.2020
1775 Clouds 27 1012 88 10000 2.1 110 20:39 06.03.2020
1776 Clouds 28 1012 88 10000 2.1 110 20:20 06.03.2020
1777 Clouds 28 1012 83 10000 2.1 150 19:51 06.03.2020
1778 Clouds 28 1013 83 10000 1.5 150 19:33 06.03.2020
1779 Clouds 28 1013 83 10000 2.6 160 18:58 06.03.2020
1780 Clouds 28 1013 83 10000 2.6 160 18:39 06.03.2020
1781 Clouds 29 1013 78 10000 4.1 180 18:19 06.03.2020
1782 Clouds 29 1013 79 10000 3.1 170 17:42 06.03.2020
1783 Clouds 29 1013 79 10000 3.1 170 17:42 06.03.2020
1784 Clouds 29 1013 74 10000 3.1 170 17:23 06.03.2020
1785 Clouds 29 1013 74 10000 3.1 170 16:59 06.03.2020
1786 Clouds 29 1013 74 10000 3.1 170 16:40 06.03.2020
1787 Clouds 30 1013 74 10000 3.1 160 16:20 06.03.2020
1788 Clouds 29 1013 74 10000 3.1 160 15:45 06.03.2020
1789 Clouds 30 1012 74 10000 3.1 180 15:24 06.03.2020
1790 Clouds 29 1012 66 10000 4.1 170 14:47 06.03.2020
1791 Clouds 29 1011 66 10000 6.2 170 14:25 06.03.2020
1792 Clouds 31 1011 66 10000 4.6 160 13:59 06.03.2020
1793 Clouds 31 1011 66 10000 4.1 170 13:41 06.03.2020
1794 Clouds 31 1011 66 10000 4.1 170 13:21 06.03.2020
1795 Clouds 31 1010 58 10000 4.6 170 12:56 06.03.2020
1796 Clouds 32 1010 52 10000 6.2 200 12:37 06.03.2020
1797 Clouds 32 1010 52 10000 6.2 200 12:18 06.03.2020
1798 Clouds 32 1010 49 10000 5.7 170 11:56 06.03.2020
1799 Clouds 33 1010 52 10000 6.2 190 11:37 06.03.2020
1800 Clouds 33 1010 52 10000 6.2 190 11:19 06.03.2020
1801 Clouds 34 1009 47 10000 5.7 190 10:37 06.03.2020
1802 Clouds 35 1009 47 10000 5.7 190 10:19 06.03.2020
1803 Clouds 35 1010 44 10000 6.2 210 09:43 06.03.2020
1804 Clouds 35 1010 44 10000 5.1 200 09:24 06.03.2020
1805 Clouds 35 1011 47 10000 5.7 240 08:58 06.03.2020
1806 Clouds 35 1011 47 10000 5.7 240 08:58 06.03.2020
1807 Clouds 35 1011 47 10000 5.7 200 08:40 06.03.2020
1808 Clouds 35 1011 47 10000 5.7 200 08:22 06.03.2020
1809 Clouds 35 1012 47 10000 5.1 210 07:47 06.03.2020
1810 Clouds 34 1012 50 10000 5.1 200 07:26 06.03.2020
1811 Clouds 34 1013 49 10000 5.7 230 06:51 06.03.2020
1812 Clouds 33 1014 52 10000 4.6 230 06:33 06.03.2020
1813 Clouds 33 1015 59 10000 3.6 200 05:41 06.03.2020
1814 Clouds 32 1015 59 10000 3.6 200 05:20 06.03.2020
1815 Clouds 32 1015 59 10000 4.1 200 04:44 06.03.2020
1816 Clouds 28 1013 88 10000 3.1 210 01:45 06.03.2020
1817 Clouds 28 1013 88 10000 3.1 210 01:27 06.03.2020
1818 Clouds 28 1012 83 10000 3.6 210 00:59 06.03.2020
1819 Clouds 28 1012 83 10000 3.1 210 00:31 06.03.2020
1820 Clouds 28 1012 83 10000 3.1 210 00:31 06.03.2020
1821 Clouds 28 1011 83 10000 3.6 200 23:44 05.03.2020
1822 Clouds 28 1011 78 10000 3.1 190 23:25 05.03.2020
1823 Clouds 28 1011 83 10000 2.6 190 22:56 05.03.2020
1824 Clouds 28 1011 78 10000 3.6 190 22:37 05.03.2020
1825 Clouds 28 1011 78 10000 3.6 190 22:18 05.03.2020
1826 Clouds 28 1011 83 10000 3.1 190 21:56 05.03.2020
1827 Clouds 28 1011 78 10000 4.6 190 21:37 05.03.2020
1828 Clouds 29 1011 78 10000 4.6 190 21:19 05.03.2020
1829 Clouds 29 1011 78 10000 4.1 190 20:43 05.03.2020
1830 Clouds 29 1011 78 10000 4.6 190 20:21 05.03.2020
1831 Clouds 29 1012 74 10000 4.1 190 19:59 05.03.2020
1832 Clouds 29 1012 74 10000 4.1 180 19:40 05.03.2020
1833 Clouds 29 1012 74 10000 4.1 180 19:22 05.03.2020
1834 Clouds 29 1012 74 10000 4.6 190 18:59 05.03.2020
1835 Clouds 29 1012 79 10000 5.1 190 18:38 05.03.2020
1836 Clouds 29 1012 79 10000 5.1 190 18:19 05.03.2020
1837 Clouds 29 1012 79 10000 4.6 200 17:57 05.03.2020
1838 Clear 29 1012 79 9000 4.6 190 17:39 05.03.2020
1839 Clear 30 1012 79 9000 4.6 190 17:21 05.03.2020
1840 Clear 29 1012 79 9000 4.1 190 16:42 05.03.2020
1841 Clear 29 1012 74 9000 5.1 180 16:24 05.03.2020
1842 Clear 29 1011 74 9000 4.6 190 15:58 05.03.2020
1843 Clear 30 1011 70 9000 5.1 180 15:38 05.03.2020
1844 Clear 29 1011 70 9000 5.1 180 15:20 05.03.2020
1845 Clear 30 1010 70 9000 3.6 180 14:43 05.03.2020
1846 Clear 29 1010 70 9000 5.1 180 14:23 05.03.2020
1847 Clouds 30 1009 70 10000 4.6 190 13:59 05.03.2020
1848 Clouds 30 1009 66 10000 4.1 180 13:40 05.03.2020
1849 Clouds 31 1009 66 10000 4.1 180 13:21 05.03.2020
1850 Clouds 31 1008 62 10000 5.1 180 12:56 05.03.2020
1851 Clouds 32 1008 59 10000 6.2 200 12:38 05.03.2020
1852 Clouds 32 1008 59 10000 6.2 200 12:38 05.03.2020
1853 Clouds 32 1008 59 10000 6.2 200 12:18 05.03.2020
1854 Clouds 32 1008 52 10000 5.1 200 11:56 05.03.2020
1855 Clouds 33 1008 49 10000 5.1 190 11:37 05.03.2020
1856 Clouds 33 1008 49 10000 5.1 190 11:18 05.03.2020
1857 Clouds 34 1008 52 10000 5.1 190 10:55 05.03.2020
1858 Clouds 34 1008 47 10000 4.6 180 10:37 05.03.2020
1859 Clouds 35 1008 47 10000 4.6 180 10:19 05.03.2020
1860 Clouds 34 1008 47 10000 4.1 180 09:41 05.03.2020
1861 Clouds 34 1008 47 10000 4.1 180 09:23 05.03.2020
1862 Clouds 34 1009 50 10000 3.6 180 08:43 05.03.2020
1863 Clouds 34 1009 47 10000 4.1 190 08:25 05.03.2020
1864 Clouds 34 1009 47 10000 4.1 190 08:25 05.03.2020
1865 Clouds 34 1010 49 10000 4.1 170 07:46 05.03.2020
1866 Clouds 34 1011 49 10000 4.6 170 07:22 05.03.2020
1867 Clouds 34 1011 47 10000 3.6 210 06:46 05.03.2020
1868 Clouds 33 1012 52 10000 4.6 190 06:21 05.03.2020
1869 Clouds 33 1013 55 10000 3.6 170 05:39 05.03.2020
1870 Clouds 32 1013 55 10000 4.1 200 04:26 05.03.2020
1871 Clouds 31 1013 66 10000 2.6 160 03:59 05.03.2020
1872 Clouds 30 1013 74 10000 1.5 130 03:19 05.03.2020
1873 Clouds 28 1012 88 10000 3.1 100 01:29 05.03.2020
1874 Clouds 27 1011 88 10000 2.6 110 00:58 05.03.2020
1875 Clouds 27 1010 88 10000 2.6 100 00:23 05.03.2020
1876 Clouds 28 1010 78 10000 1.5 140 23:41 04.03.2020
1877 Clouds 28 1010 78 10000 1.5 140 23:22 04.03.2020
1878 Clouds 27 1010 78 10000 2.1 160 22:57 04.03.2020
1879 Clouds 28 1010 78 10000 1.5 140 22:38 04.03.2020
1880 Clouds 28 1010 78 10000 1.5 140 22:19 04.03.2020
1881 Clouds 28 1010 78 10000 2.1 190 21:56 04.03.2020
1882 Clouds 28 1010 78 10000 3.1 170 21:38 04.03.2020
1883 Clouds 28 1010 78 10000 3.1 170 21:18 04.03.2020
1884 Clouds 28 1010 78 10000 3.1 180 20:40 04.03.2020
1885 Clouds 28 1010 78 10000 3.1 180 20:22 04.03.2020
1886 Clouds 29 1010 83 10000 3.6 180 19:58 04.03.2020
1887 Clouds 29 1011 83 10000 3.1 180 19:40 04.03.2020
1888 Clouds 29 1011 83 10000 3.1 180 19:22 04.03.2020
1889 Clouds 28 1011 78 10000 4.1 180 18:42 04.03.2020
1890 Clouds 29 1011 78 10000 3.1 180 18:24 04.03.2020
1891 Clouds 29 1011 78 10000 5.7 190 17:59 04.03.2020
1892 Clouds 28 1011 78 10000 5.1 200 17:39 04.03.2020
1893 Clouds 28 1011 78 10000 5.1 200 17:20 04.03.2020
1894 Clouds 28 1011 74 10000 5.1 200 16:56 04.03.2020
1895 Clouds 29 1011 74 10000 5.1 200 16:37 04.03.2020
1896 Clouds 29 1011 74 10000 5.1 200 16:19 04.03.2020
1897 Clouds 29 1011 74 10000 5.7 200 15:45 04.03.2020
1898 Clouds 29 1010 74 10000 4.1 190 15:26 04.03.2020
1899 Clouds 29 1010 74 10000 5.7 190 14:59 04.03.2020
1900 Clouds 29 1010 74 10000 5.1 190 14:40 04.03.2020
1901 Clear 30 1010 74 10000 5.1 190 14:20 04.03.2020
1902 Clear 30 1009 74 10000 5.7 190 13:58 04.03.2020
1903 Clear 31 1009 70 10000 5.7 200 13:39 04.03.2020
1904 Clear 30 1009 70 10000 5.7 200 13:20 04.03.2020
1905 Clear 30 1008 62 10000 4.6 180 12:55 04.03.2020
1906 Clear 30 1008 62 10000 4.6 180 12:55 04.03.2020
1907 Clear 31 1008 59 10000 5.1 190 12:37 04.03.2020
1908 Clear 32 1008 59 10000 5.1 190 12:19 04.03.2020
1909 Clouds 33 1008 55 10000 4.6 160 11:42 04.03.2020
1910 Clouds 33 1008 55 10000 4.6 160 11:42 04.03.2020
1911 Clouds 33 1008 55 10000 4.6 160 11:42 04.03.2020
1912 Clouds 33 1008 52 10000 4.6 180 11:23 04.03.2020
1913 Clouds 33 1008 49 10000 4.6 190 10:58 04.03.2020
1914 Clouds 34 1008 46 10000 5.1 230 10:40 04.03.2020
1915 Clouds 34 1008 46 10000 5.1 230 10:21 04.03.2020
1916 Clouds 34 1008 47 10000 5.7 210 09:43 04.03.2020
1917 Clouds 34 1009 44 10000 6.2 220 09:21 04.03.2020
1918 Clouds 34 1009 44 10000 5.7 230 08:49 04.03.2020
1919 Clouds 34 1009 44 10000 5.1 230 08:28 04.03.2020
1920 Clouds 35 1010 47 10000 5.1 220 07:57 04.03.2020
1921 Clouds 34 1011 46 10000 5.1 210 07:39 04.03.2020
1922 Clouds 34 1011 46 10000 5.1 210 07:20 04.03.2020
1923 Clouds 34 1011 46 10000 5.7 250 06:44 04.03.2020
1924 Clouds 34 1012 46 10000 4.6 200 06:23 04.03.2020
1925 Clouds 33 1012 46 10000 5.1 220 05:50 04.03.2020
1926 Clouds 32 1013 55 10000 4.1 210 04:30 04.03.2020
1927 Clouds 32 1013 59 10000 4.6 190 03:44 04.03.2020
1928 Clouds 31 1013 59 10000 3.6 200 03:25 04.03.2020
1929 Clouds 31 1013 62 10000 4.1 210 02:55 04.03.2020
1930 Clouds 29 1012 74 10000 3.6 210 02:21 04.03.2020
1931 Clouds 29 1012 78 10000 2.6 200 01:54 04.03.2020
1932 Clouds 28 1011 83 10000 2.6 210 00:52 04.03.2020
1933 Clouds 28 1011 83 10000 2.6 210 00:25 04.03.2020
1934 Clouds 28 1010 78 10000 3.1 200 23:46 03.03.2020
1935 Clouds 28 1010 78 10000 2.6 200 23:28 03.03.2020
1936 Clouds 28 1010 78 10000 3.6 180 22:58 03.03.2020
1937 Clouds 28 1010 78 10000 3.1 190 22:40 03.03.2020
1938 Clouds 28 1010 78 10000 3.1 190 22:20 03.03.2020
1939 Clouds 28 1010 78 10000 3.6 190 21:57 03.03.2020
1940 Clouds 28 1010 78 10000 3.6 190 21:38 03.03.2020
1941 Clouds 28 1010 78 10000 3.6 190 21:19 03.03.2020
1942 Clouds 28 1010 78 10000 3.6 190 20:55 03.03.2020
1943 Clouds 28 1010 78 10000 4.1 190 20:36 03.03.2020
1944 Clouds 28 1010 78 10000 4.1 190 20:18 03.03.2020
1945 Clouds 28 1010 78 10000 5.1 190 19:54 03.03.2020
1946 Clouds 28 1010 78 10000 5.1 190 19:36 03.03.2020
1947 Clouds 28 1010 78 10000 5.1 190 19:18 03.03.2020
1948 Clouds 28 1010 78 10000 5.1 190 19:18 03.03.2020
1949 Clouds 28 1010 78 10000 5.7 190 18:42 03.03.2020
1950 Clouds 28 1010 74 10000 6.2 190 18:22 03.03.2020
1951 Clouds 28 1011 74 10000 5.7 190 17:59 03.03.2020
1952 Clouds 28 1011 74 10000 5.7 190 17:59 03.03.2020
1953 Clouds 28 1011 74 10000 5.7 200 17:40 03.03.2020
1954 Clouds 28 1011 74 10000 5.7 200 17:21 03.03.2020
1955 Clouds 29 1011 74 10000 5.7 190 16:57 03.03.2020
1956 Clouds 29 1011 74 10000 4.6 200 16:38 03.03.2020
1957 Clouds 28 1011 74 10000 4.6 200 16:19 03.03.2020
1958 Clouds 28 1010 74 10000 4.6 190 15:45 03.03.2020
1959 Clouds 29 1010 74 10000 6.2 170 15:23 03.03.2020
1960 Clouds 29 1009 74 10000 6.7 180 14:58 03.03.2020
1961 Clouds 29 1009 74 10000 6.7 180 14:58 03.03.2020
1962 Clouds 29 1009 74 10000 6.2 190 14:40 03.03.2020
1963 Clear 29 1009 74 10000 6.2 190 14:19 03.03.2020
1964 Clear 29 1009 74 10000 6.2 190 14:19 03.03.2020
1965 Clear 29 1009 74 10000 6.2 190 13:57 03.03.2020
1966 Clear 30 1009 66 10000 5.7 190 13:38 03.03.2020
1967 Clear 30 1009 66 10000 5.7 190 13:19 03.03.2020
1968 Clear 30 1008 66 10000 6.7 200 12:43 03.03.2020
1969 Clear 31 1008 62 10000 6.7 200 12:24 03.03.2020
1970 Clouds 32 1008 59 10000 6.2 180 11:56 03.03.2020
1971 Clouds 32 1007 52 10000 5.7 180 11:37 03.03.2020
1972 Clouds 33 1007 52 10000 5.7 180 11:18 03.03.2020
1973 Clouds 33 1007 49 10000 6.2 200 10:55 03.03.2020
1974 Clouds 34 1007 46 10000 5.1 180 10:37 03.03.2020
1975 Clouds 34 1007 46 10000 5.1 180 10:18 03.03.2020
1976 Clouds 34 1007 46 10000 5.1 180 10:18 03.03.2020
1977 Clouds 34 1007 44 10000 5.7 190 09:43 03.03.2020
1978 Clouds 34 1007 47 10000 6.2 210 09:22 03.03.2020
1979 Clouds 34 1008 47 10000 5.7 180 08:43 03.03.2020
1980 Clouds 34 1009 47 10000 5.7 180 08:24 03.03.2020
1981 Clouds 33 1009 49 10000 5.1 160 07:58 03.03.2020
1982 Clouds 33 1010 50 10000 5.7 180 07:39 03.03.2020
1983 Clouds 34 1010 50 10000 5.7 180 07:19 03.03.2020
1984 Clouds 34 1011 47 10000 6.2 210 06:40 03.03.2020
1985 Clouds 34 1011 47 10000 6.2 210 06:21 03.03.2020
1986 Clouds 33 1012 52 10000 5.1 190 05:46 03.03.2020
1987 Clouds 32 1013 55 10000 5.1 170 04:56 03.03.2020
1988 Clouds 30 1013 74 10000 4.6 170 03:26 03.03.2020
1989 Clouds 28 1012 83 10000 3.6 160 01:35 03.03.2020
1990 Clouds 28 1011 83 10000 3.1 160 00:46 03.03.2020
1991 Clouds 27 1011 83 10000 2.6 170 00:24 03.03.2020
1992 Clouds 28 1010 83 10000 3.1 160 23:51 02.03.2020
1993 Clouds 28 1010 83 10000 2.6 160 23:23 02.03.2020
1994 Clouds 28 1010 83 10000 3.6 180 22:58 02.03.2020
1995 Clouds 28 1010 83 10000 4.1 190 22:39 02.03.2020
1996 Clouds 28 1010 83 10000 4.1 190 22:20 02.03.2020
1997 Clouds 28 1010 83 10000 1.5 190 21:56 02.03.2020
1998 Clouds 28 1010 83 10000 3.1 180 21:38 02.03.2020
1999 Clouds 28 1010 83 10000 3.1 180 21:20 02.03.2020
2000 Clouds 28 1010 83 10000 2.6 170 20:56 02.03.2020
2001 Clouds 28 1010 83 10000 2.6 180 20:38 02.03.2020
2002 Clouds 28 1010 83 10000 2.6 180 20:19 02.03.2020
2003 Clouds 28 1010 83 10000 5.1 190 19:54 02.03.2020
2004 Clouds 28 1010 83 10000 5.1 190 19:54 02.03.2020
2005 Clouds 28 1011 83 10000 4.1 190 19:36 02.03.2020
2006 Clouds 28 1011 83 10000 4.1 190 19:18 02.03.2020
2007 Clouds 28 1011 83 10000 3.1 180 18:43 02.03.2020
2008 Clouds 29 1011 78 10000 4.6 190 18:19 02.03.2020
2009 Clouds 29 1011 83 10000 4.1 190 17:57 02.03.2020
2010 Clouds 29 1011 83 10000 4.6 190 17:39 02.03.2020
2011 Clouds 29 1011 83 10000 4.6 190 17:20 02.03.2020
2012 Clouds 29 1011 83 10000 5.1 200 16:45 02.03.2020
2013 Clouds 29 1011 74 10000 4.1 190 16:27 02.03.2020
2014 Clouds 29 1011 79 10000 5.1 200 15:59 02.03.2020
2015 Clouds 29 1010 74 10000 4.1 190 15:41 02.03.2020
2016 Clouds 29 1010 74 10000 4.1 190 15:19 02.03.2020
2017 Clouds 29 1009 74 10000 6.2 200 14:40 02.03.2020
2018 Clouds 29 1009 74 10000 6.2 200 14:20 02.03.2020
2019 Clouds 29 1009 70 10000 5.1 200 13:57 02.03.2020
2020 Clouds 29 1008 66 10000 4.1 180 13:38 02.03.2020
2021 Clouds 30 1008 66 10000 4.1 180 13:18 02.03.2020
2022 Clouds 30 1008 62 10000 5.7 190 12:43 02.03.2020
2023 Clouds 31 1008 62 10000 6.2 180 12:19 02.03.2020
2024 Clouds 31 1008 62 10000 6.2 180 12:19 02.03.2020
2025 Clouds 32 1008 52 10000 5.1 180 11:40 02.03.2020
2026 Clouds 32 1008 52 10000 5.1 180 11:22 02.03.2020
2027 Clouds 33 1008 55 10000 5.7 200 10:59 02.03.2020
2028 Clouds 33 1008 52 10000 6.2 210 10:41 02.03.2020
2029 Clouds 34 1008 52 10000 6.2 210 10:20 02.03.2020
2030 Clouds 34 1008 52 10000 6.2 200 09:55 02.03.2020
2031 Clouds 34 1008 50 10000 4.6 190 09:37 02.03.2020
2032 Clouds 34 1008 50 10000 4.6 190 09:18 02.03.2020
2033 Clouds 34 1009 52 10000 5.1 190 08:40 02.03.2020
2034 Clouds 34 1009 52 10000 5.1 190 08:19 02.03.2020
2035 Clouds 34 1010 52 10000 4.6 180 07:40 02.03.2020
2036 Clouds 34 1010 50 10000 5.7 200 06:57 02.03.2020
2037 Clouds 34 1011 52 10000 5.1 200 06:35 02.03.2020
2038 Clouds 32 1012 59 10000 4.1 190 05:29 02.03.2020
2039 Clouds 31 1012 66 10000 4.6 170 03:59 02.03.2020
2040 Clouds 31 1012 70 10000 4.1 180 03:19 02.03.2020
2041 Clouds 29 1011 79 10000 2.6 160 02:36 02.03.2020
2042 Clouds 28 1011 83 10000 1.5 160 01:41 02.03.2020
2043 Clouds 28 1011 83 10000 1.5 160 01:22 02.03.2020
2044 Clouds 28 1010 78 10000 2.1 170 00:23 02.03.2020
2045 Clouds 28 1010 78 10000 2.1 190 23:56 01.03.2020
2046 Clouds 28 1010 78 10000 2.1 190 23:56 01.03.2020
2047 Clouds 28 1010 83 10000 2.1 190 23:37 01.03.2020
2048 Clouds 28 1010 83 10000 2.1 190 23:18 01.03.2020
2049 Clouds 28 1010 83 10000 2.6 190 22:38 01.03.2020
2050 Clouds 28 1010 83 10000 2.6 190 22:19 01.03.2020
2051 Clouds 28 1010 83 10000 3.1 180 21:43 01.03.2020
2052 Clouds 28 1010 83 10000 3.6 190 21:25 01.03.2020
2053 Clouds 28 1010 83 10000 3.1 190 20:59 01.03.2020
2054 Clouds 28 1010 83 10000 4.1 200 20:41 01.03.2020
2055 Clouds 28 1010 83 10000 4.1 200 20:22 01.03.2020
2056 Clouds 29 1010 83 10000 4.1 190 19:42 01.03.2020
2057 Clouds 29 1010 83 10000 4.6 190 19:23 01.03.2020
2058 Clouds 28 1010 83 10000 3.6 190 18:58 01.03.2020
2059 Clouds 28 1010 83 10000 4.1 190 18:39 01.03.2020
2060 Clouds 29 1010 83 10000 4.1 190 18:19 01.03.2020
2061 Clouds 28 1010 83 10000 4.6 190 17:57 01.03.2020
2062 Clouds 29 1010 79 10000 4.1 180 17:38 01.03.2020
2063 Clouds 29 1010 79 10000 4.1 180 17:20 01.03.2020
2064 Clouds 29 1010 74 10000 3.6 190 16:55 01.03.2020
2065 Clouds 29 1010 74 10000 4.1 190 16:37 01.03.2020
2066 Clouds 29 1010 74 10000 4.1 190 16:18 01.03.2020
2067 Clouds 29 1010 74 10000 4.6 200 15:56 01.03.2020
2068 Clouds 29 1010 74 10000 5.7 200 15:37 01.03.2020
2069 Clouds 29 1010 74 10000 5.7 200 15:37 01.03.2020
2070 Clouds 29 1010 74 10000 5.7 200 15:18 01.03.2020
2071 Clouds 29 1009 70 10000 5.1 200 14:55 01.03.2020
2072 Clouds 29 1009 66 10000 3.6 190 14:36 01.03.2020
2073 Clouds 30 1009 66 10000 3.6 190 14:18 01.03.2020
2074 Clouds 30 1008 66 10000 4.1 180 13:44 01.03.2020
2075 Clouds 30 1008 62 10000 4.1 180 13:21 01.03.2020
2076 Clouds 30 1008 62 10000 5.1 190 12:59 01.03.2020
2077 Clouds 31 1008 59 10000 4.1 180 12:40 01.03.2020
2078 Clouds 32 1008 59 10000 4.1 180 12:20 01.03.2020
2079 Clouds 32 1008 59 10000 4.1 180 12:20 01.03.2020
2080 Clouds 33 1008 49 10000 4.1 190 11:41 01.03.2020
2081 Clouds 33 1008 49 10000 4.1 190 11:22 01.03.2020
2082 Clouds 34 1008 49 10000 4.6 200 10:57 01.03.2020
2083 Clouds 34 1008 47 10000 3.6 200 10:38 01.03.2020
2084 Clouds 34 1008 47 10000 3.6 200 10:19 01.03.2020
2085 Clouds 34 1008 52 10000 4.6 180 09:46 01.03.2020
2086 Clouds 34 1008 47 10000 4.1 200 09:27 01.03.2020
2087 Clouds 34 1009 49 10000 4.1 180 08:57 01.03.2020
2088 Clouds 34 1009 52 10000 4.1 190 08:38 01.03.2020
2089 Clouds 34 1009 52 10000 4.1 190 08:18 01.03.2020
2090 Clouds 34 1010 50 10000 4.1 190 07:41 01.03.2020
2091 Clouds 34 1010 50 10000 4.1 190 07:23 01.03.2020
2092 Clouds 34 1011 52 10000 3.6 160 06:47 01.03.2020
2093 Clouds 34 1011 52 10000 3.1 180 06:28 01.03.2020
2094 Clouds 31 1013 70 10000 2.6 160 03:54 01.03.2020
2095 Clouds 28 1012 88 10000 1.5 130 02:23 01.03.2020
2096 Clouds 28 1012 88 10000 2.1 120 01:48 01.03.2020
2097 Clouds 27 1012 88 10000 3.94 203 01:20 01.03.2020
2098 Clouds 27 1011 83 10000 1.5 160 00:41 01.03.2020
2099 Clouds 27 1011 83 10000 1.5 160 00:21 01.03.2020
2100 Clouds 27 1010 83 10000 1.5 170 23:45 29.02.2020
2101 Clouds 27 1010 83 10000 1.5 130 23:26 29.02.2020
2102 Clouds 27 1010 83 10000 5.13 204 22:42 29.02.2020
2103 Clouds 27 1010 83 10000 1.5 200 22:22 29.02.2020
2104 Clouds 27 1010 83 10000 1.5 210 21:42 29.02.2020
2105 Clouds 27 1010 83 10000 1.5 190 21:22 29.02.2020
2106 Clouds 27 1010 83 10000 2.1 190 20:43 29.02.2020
2107 Clouds 28 1011 83 10000 1.5 200 20:21 29.02.2020
2108 Clouds 28 1011 78 10000 2.6 200 19:56 29.02.2020
2109 Clouds 28 1011 78 10000 3.1 200 19:37 29.02.2020
2110 Clouds 28 1011 78 10000 3.1 200 19:19 29.02.2020
2111 Clouds 28 1011 78 10000 3.1 210 18:42 29.02.2020
2112 Clouds 28 1011 78 10000 5.1 210 18:23 29.02.2020
2113 Clouds 28 1011 78 10000 4.6 210 17:57 29.02.2020
2114 Clouds 28 1011 78 10000 3.1 210 17:39 29.02.2020
2115 Clouds 29 1011 78 10000 3.1 210 17:20 29.02.2020
2116 Clouds 29 1011 78 10000 4.6 210 16:45 29.02.2020
2117 Clouds 29 1011 78 10000 3.6 200 16:21 29.02.2020
2118 Clouds 29 1010 78 10000 3.6 200 15:58 29.02.2020
2119 Clouds 28 1010 78 10000 3.6 190 15:39 29.02.2020
2120 Clouds 29 1010 78 10000 3.6 190 15:21 29.02.2020
2121 Clouds 28 1010 74 10000 4.6 190 14:41 29.02.2020
2122 Clouds 29 1010 74 10000 4.6 190 14:22 29.02.2020
2123 Clouds 30 1009 74 10000 4.1 200 13:46 29.02.2020
2124 Clouds 30 1009 70 10000 5.1 190 13:28 29.02.2020
2125 Clouds 30 1008 66 10000 5.1 190 12:58 29.02.2020
2126 Clouds 30 1008 62 9000 5.1 190 12:39 29.02.2020
2127 Clouds 32 1008 62 9000 5.1 190 12:20 29.02.2020
2128 Clouds 32 1008 59 9000 5.7 190 11:46 29.02.2020
2129 Clouds 32 1008 55 9000 5.1 190 11:27 29.02.2020
2130 Clouds 33 1008 55 9000 4.1 200 10:55 29.02.2020
2131 Clouds 33 1008 49 9000 3.6 220 10:37 29.02.2020
2132 Clouds 34 1008 49 9000 3.6 220 10:19 29.02.2020
2133 Clouds 34 1008 52 9000 3.6 180 09:47 29.02.2020
2134 Clouds 34 1008 49 10000 4.1 210 09:23 29.02.2020
2135 Clouds 34 1009 52 10000 4.1 200 08:41 29.02.2020
2136 Clouds 33 1009 52 10000 4.1 200 08:21 29.02.2020
2137 Clouds 33 1010 52 10000 3.6 0 07:53 29.02.2020
2138 Clouds 33 1010 52 10000 3.1 190 07:33 29.02.2020
2139 Clouds 33 1011 52 10000 2.6 190 06:57 29.02.2020
2140 Clouds 33 1011 52 10000 2.1 160 06:30 29.02.2020
2141 Clouds 32 1012 59 10000 2.6 0 05:54 29.02.2020
2142 Clouds 32 1012 59 10000 2.1 190 05:33 29.02.2020
2143 Clouds 31 1012 70 10000 1.5 160 04:25 29.02.2020
2144 Clouds 30 1012 74 10000 2.6 120 03:37 29.02.2020
2145 Clouds 30 1012 74 10000 2.6 120 03:18 29.02.2020
2146 Clouds 27 1011 83 8000 1.5 110 02:26 29.02.2020
2147 Clouds 26 1010 88 8000 2.6 110 00:52 29.02.2020
2148 Clouds 26 1010 83 8000 2.6 100 00:28 29.02.2020
2149 Clouds 26 1009 83 9000 2.6 90 23:42 28.02.2020
2150 Clouds 26 1009 83 9000 2.6 90 23:24 28.02.2020
2151 Clouds 26 1009 83 9000 2.1 110 22:43 28.02.2020
2152 Clouds 26 1009 83 9000 2.1 120 22:23 28.02.2020
2153 Clouds 26 1010 83 9000 3.57 215 21:56 28.02.2020
2154 Clouds 26 1010 83 9000 0.5 130 21:38 28.02.2020
2155 Clouds 26 1010 83 9000 0.5 130 21:19 28.02.2020
2156 Clouds 26 1010 83 9000 0.5 170 20:39 28.02.2020
2157 Clouds 26 1010 83 9000 0.5 170 20:21 28.02.2020
2158 Clouds 27 1011 78 9000 2.1 170 19:57 28.02.2020
2159 Clouds 27 1011 78 9000 2.1 170 19:39 28.02.2020
2160 Clouds 27 1011 78 9000 2.1 170 19:39 28.02.2020
2161 Clouds 27 1011 78 9000 2.1 170 19:39 28.02.2020
2162 Clouds 27 1011 78 9000 2.1 170 19:20 28.02.2020
2163 Clouds 27 1011 78 9000 4.1 190 18:47 28.02.2020
2164 Clouds 27 1011 78 9000 4.1 190 18:47 28.02.2020
2165 Clouds 27 1012 78 9000 3.1 170 18:28 28.02.2020
2166 Clouds 27 1012 78 9000 2.6 170 17:58 28.02.2020
2167 Clouds 27 1011 78 9000 4.1 190 17:39 28.02.2020
2168 Clouds 27 1011 78 9000 4.1 190 17:39 28.02.2020
2169 Clouds 27 1011 78 9000 4.1 190 17:20 28.02.2020
2170 Clouds 27 1011 83 9000 4.1 190 16:43 28.02.2020
2171 Clouds 27 1011 83 9000 4.1 190 16:20 28.02.2020
2172 Clouds 27 1011 78 9000 5.1 190 15:57 28.02.2020
2173 Clouds 28 1010 78 9000 4.6 180 15:39 28.02.2020
2174 Clouds 28 1010 78 9000 4.6 180 15:19 28.02.2020
2175 Clouds 28 1010 78 9000 5.1 180 14:55 28.02.2020
2176 Clouds 28 1010 78 9000 6.7 190 14:37 28.02.2020
2177 Clouds 28 1010 78 9000 6.7 190 14:18 28.02.2020
2178 Clouds 28 1009 78 9000 7.7 190 13:41 28.02.2020
2179 Clouds 28 1009 78 9000 7.7 190 13:20 28.02.2020
2180 Clouds 28 1009 78 9000 7.7 190 13:20 28.02.2020
2181 Clouds 29 1009 74 9000 6.2 190 12:47 28.02.2020
2182 Clouds 30 1009 70 9000 6.7 200 12:28 28.02.2020
2183 Clouds 31 1009 66 9000 5.1 190 11:59 28.02.2020
2184 Clouds 32 1009 66 9000 4.6 220 11:40 28.02.2020
2185 Clouds 31 1009 66 9000 4.6 220 11:21 28.02.2020
2186 Clouds 32 1009 59 8000 5.1 240 10:43 28.02.2020
2187 Clouds 32 1008 55 8000 4.1 240 10:24 28.02.2020
2188 Clouds 33 1008 52 8000 2.6 220 09:59 28.02.2020
2189 Clouds 33 1009 49 8000 2.6 160 09:40 28.02.2020
2190 Clouds 33 1009 49 8000 2.6 160 09:18 28.02.2020
2191 Clouds 32 1009 49 8000 3.1 150 08:42 28.02.2020
2192 Clouds 32 1009 49 8000 3.6 140 08:20 28.02.2020
2193 Clouds 32 1010 49 8000 3.1 80 07:45 28.02.2020
2194 Clouds 33 1010 49 8000 2.6 80 07:25 28.02.2020
2195 Clouds 33 1011 46 8000 2.6 80 06:51 28.02.2020
2196 Clouds 33 1011 52 10000 2.1 80 06:30 28.02.2020
2197 Clouds 32 1012 59 10000 1.5 0 05:29 28.02.2020
2198 Clouds 31 1012 66 10000 1 0 04:31 28.02.2020
2199 Clouds 29 1012 83 9000 1.5 100 02:48 28.02.2020
2200 Clouds 29 1012 88 8000 2.1 110 02:28 28.02.2020
2201 Clouds 28 1011 88 8000 1.5 120 01:46 28.02.2020
2202 Clouds 27 1010 88 8000 1.5 160 00:31 28.02.2020
2203 Clouds 27 1010 88 8000 2.1 170 23:45 27.02.2020
2204 Clouds 27 1010 88 8000 2.1 140 23:22 27.02.2020
2205 Clouds 27 1010 88 8000 1.5 140 22:56 27.02.2020
2206 Clouds 27 1010 88 8000 3.19 231 22:37 27.02.2020
2207 Clouds 27 1010 88 8000 3.19 231 22:19 27.02.2020
2208 Clouds 27 1010 83 8000 2.1 120 21:41 27.02.2020
2209 Clouds 27 1010 83 8000 2.1 120 21:22 27.02.2020
2210 Clouds 27 1010 83 8000 1.5 160 20:59 27.02.2020
2211 Clouds 27 1010 88 8000 2.1 180 20:40 27.02.2020
2212 Clouds 27 1010 88 8000 2.1 180 20:21 27.02.2020
2213 Clouds 27 1010 88 8000 2.1 180 20:21 27.02.2020
2214 Clouds 27 1011 88 8000 1 170 19:56 27.02.2020
2215 Clouds 27 1011 88 8000 2.1 180 19:38 27.02.2020
2216 Clouds 27 1011 88 8000 2.1 180 19:19 27.02.2020
2217 Clouds 28 1011 83 8000 3.6 180 18:42 27.02.2020
2218 Clouds 28 1012 83 8000 4.1 190 18:24 27.02.2020
2219 Clouds 28 1012 83 8000 3.6 200 17:58 27.02.2020
2220 Clouds 28 1012 83 8000 2.6 200 17:40 27.02.2020
2221 Clouds 28 1012 83 8000 2.6 200 17:19 27.02.2020
2222 Clouds 28 1012 79 8000 3.6 190 16:58 27.02.2020
2223 Clouds 28 1012 79 8000 4.6 200 16:39 27.02.2020
2224 Clouds 28 1012 79 8000 4.6 200 16:19 27.02.2020
2225 Clouds 29 1011 74 8000 3.1 190 15:57 27.02.2020
2226 Clouds 28 1011 74 8000 2.1 210 15:37 27.02.2020
2227 Clouds 28 1011 74 8000 2.1 210 15:18 27.02.2020
2228 Clouds 29 1010 66 8000 1 220 14:55 27.02.2020
2229 Clouds 29 1010 70 8000 1.5 210 14:36 27.02.2020
2230 Clouds 30 1010 70 8000 1.5 210 14:18 27.02.2020
2231 Clouds 30 1009 55 8000 5.23 209 13:41 27.02.2020
2232 Clouds 31 1009 55 8000 5.23 209 13:21 27.02.2020
2233 Clouds 31 1009 55 8000 1.5 260 12:47 27.02.2020
2234 Clouds 31 1009 52 8000 2.6 280 12:25 27.02.2020
2235 Clouds 32 1009 55 8000 2.6 290 11:59 27.02.2020
2236 Clouds 31 1009 58 8000 3.1 280 11:39 27.02.2020
2237 Clouds 32 1009 58 8000 3.1 280 11:21 27.02.2020
2238 Clouds 32 1009 58 8000 3.1 280 11:21 27.02.2020
2239 Clouds 33 1009 62 8000 4.1 260 10:43 27.02.2020
2240 Clouds 33 1009 62 8000 4.6 260 10:22 27.02.2020
2241 Rain 33 1009 66 7000 5.1 230 09:48 27.02.2020
2242 Clouds 33 1010 58 6000 5.1 240 09:29 27.02.2020
2243 Clouds 33 1010 59 8000 5.7 270 08:57 27.02.2020
2244 Clouds 33 1010 49 8000 2.1 0 08:39 27.02.2020
2245 Clouds 32 1010 49 8000 2.1 0 08:19 27.02.2020
2246 Rain 33 1011 55 8000 3.1 330 07:43 27.02.2020
2247 Rain 33 1011 55 8000 3.1 330 07:24 27.02.2020
2248 Clouds 33 1012 66 7000 3.1 340 06:42 27.02.2020
2249 Clouds 31 1014 74 7000 3.1 350 05:27 27.02.2020
2250 Clouds 31 1013 78 6000 1 0 03:33 27.02.2020
2251 Mist 27 1013 88 5000 4.63 182 02:19 27.02.2020
2252 Mist 26 1011 94 5000 1.5 110 00:43 27.02.2020
2253 Clouds 26 1011 88 6000 2.6 110 00:22 27.02.2020
2254 Clouds 26 1010 83 7000 1.5 110 23:38 26.02.2020
2255 Clouds 27 1010 83 7000 1.5 110 23:18 26.02.2020
2256 Clouds 27 1010 83 8000 1 130 22:55 26.02.2020
2257 Clouds 27 1010 83 8000 2.1 180 22:37 26.02.2020
2258 Clouds 27 1010 83 8000 2.1 180 22:19 26.02.2020
2259 Clouds 27 1010 83 9000 2.6 180 21:39 26.02.2020
2260 Clouds 27 1010 83 9000 2.6 180 21:20 26.02.2020
2261 Clouds 27 1010 88 9000 3.1 180 20:56 26.02.2020
2262 Clouds 27 1011 83 9000 3.1 180 20:38 26.02.2020
2263 Clouds 28 1011 83 9000 3.1 180 20:19 26.02.2020
2264 Clouds 28 1011 78 9000 2.6 170 19:56 26.02.2020
2265 Clouds 28 1011 83 9000 2.1 180 19:37 26.02.2020
2266 Clouds 28 1011 83 9000 2.1 180 19:19 26.02.2020
2267 Clouds 28 1012 78 9000 2.1 160 18:56 26.02.2020
2268 Clouds 28 1012 78 9000 3.1 180 18:37 26.02.2020
2269 Clouds 28 1012 78 9000 3.1 180 18:19 26.02.2020
2270 Clouds 28 1012 74 9000 2.6 180 17:41 26.02.2020
2271 Clouds 28 1012 74 9000 2.6 180 17:19 26.02.2020
2272 Clouds 28 1012 74 9000 2.1 180 16:56 26.02.2020
2273 Clouds 28 1012 74 9000 2.1 180 16:56 26.02.2020
2274 Clouds 28 1012 78 9000 2.6 200 16:38 26.02.2020
2275 Clouds 28 1012 78 9000 2.6 200 16:20 26.02.2020
2276 Clouds 28 1012 78 9000 3.1 210 15:44 26.02.2020
2277 Clouds 28 1012 78 9000 3.1 210 15:44 26.02.2020
2278 Clouds 28 1012 78 9000 3.1 210 15:26 26.02.2020
2279 Clouds 28 1011 78 8000 4.1 210 14:43 26.02.2020
2280 Clouds 29 1011 74 8000 4.1 210 14:24 26.02.2020
2281 Clouds 30 1010 70 8000 4.6 210 13:57 26.02.2020
2282 Clouds 31 1010 66 8000 4.1 220 13:39 26.02.2020
2283 Clouds 31 1010 66 8000 4.1 220 13:18 26.02.2020
2284 Clouds 32 1010 59 8000 5.1 230 12:38 26.02.2020
2285 Clouds 32 1010 59 8000 5.1 230 12:19 26.02.2020
2286 Clouds 33 1009 36 8000 1.5 180 11:55 26.02.2020
2287 Clouds 34 1009 34 8000 2.6 60 11:36 26.02.2020
2288 Clouds 34 1009 34 8000 2.6 60 11:18 26.02.2020
2289 Clouds 35 1009 36 8000 1.5 110 10:41 26.02.2020
2290 Clouds 35 1009 36 8000 1.5 110 10:22 26.02.2020
2291 Clouds 35 1010 36 8000 1.5 180 09:46 26.02.2020
2292 Clouds 35 1010 37 8000 4.6 170 09:25 26.02.2020
2293 Clouds 35 1011 39 8000 3.6 110 08:59 26.02.2020
2294 Clouds 34 1011 44 8000 3.1 150 08:38 26.02.2020
2295 Clouds 35 1011 44 8000 3.1 150 08:19 26.02.2020
2296 Clouds 34 1012 46 8000 4.1 70 07:43 26.02.2020
2297 Clouds 34 1012 52 8000 2.1 30 07:25 26.02.2020
2298 Clouds 34 1013 52 10000 3.1 100 06:52 26.02.2020
2299 Clouds 33 1013 52 8000 2.6 0 06:34 26.02.2020
2300 Clouds 33 1013 59 8000 1 0 05:53 26.02.2020
2301 Clouds 33 1013 59 8000 1 0 05:53 26.02.2020
2302 Clouds 32 1014 62 7000 1.5 160 05:24 26.02.2020
2303 Clouds 31 1014 74 6000 1 0 04:23 26.02.2020
2304 Mist 28 1014 88 4000 3.1 120 02:28 26.02.2020
2305 Mist 26 1014 94 4000 3.1 110 01:45 26.02.2020
2306 Mist 25 1013 88 5000 2.1 120 00:48 26.02.2020
2307 Clouds 25 1013 94 6000 2.1 120 00:24 26.02.2020
2308 Clouds 25 1013 94 6000 2.1 120 00:24 26.02.2020
2309 Clouds 25 1012 94 6000 1.5 110 23:45 25.02.2020
2310 Clouds 26 1012 94 7000 1.5 90 23:27 25.02.2020
2311 Clouds 26 1012 94 8000 1.5 80 22:59 25.02.2020
2312 Clouds 26 1011 88 9000 1 120 22:41 25.02.2020
2313 Clouds 26 1011 88 9000 1 120 22:19 25.02.2020
2314 Clouds 26 1011 83 9000 2.6 160 21:40 25.02.2020
2315 Clouds 26 1011 83 9000 2.6 160 21:21 25.02.2020
2316 Clouds 26 1011 83 9000 2.6 160 21:21 25.02.2020
2317 Clouds 27 1012 83 9000 2.6 170 20:58 25.02.2020
2318 Clouds 27 1012 83 9000 3.1 170 20:39 25.02.2020
2319 Clouds 27 1012 83 9000 3.1 170 20:20 25.02.2020
2320 Clouds 27 1012 78 9000 3.6 180 19:59 25.02.2020
2321 Clouds 27 1012 83 9000 3.6 190 19:40 25.02.2020
2322 Clouds 27 1012 83 9000 3.6 190 19:19 25.02.2020
2323 Clouds 27 1013 78 9000 3.1 180 18:42 25.02.2020
2324 Clouds 27 1013 78 9000 3.1 180 18:21 25.02.2020
2325 Clouds 27 1013 83 9000 3.1 190 17:58 25.02.2020
2326 Clouds 28 1012 83 9000 3.6 200 17:38 25.02.2020
2327 Clouds 28 1012 83 9000 3.6 200 17:19 25.02.2020
2328 Clouds 28 1013 83 9000 3.6 210 16:58 25.02.2020
2329 Clouds 28 1012 78 9000 4.1 210 16:39 25.02.2020
2330 Clouds 28 1012 78 9000 4.1 210 16:21 25.02.2020
2331 Clouds 28 1012 83 9000 3.6 210 15:56 25.02.2020
2332 Clouds 28 1012 83 9000 3.6 210 15:56 25.02.2020
2333 Clouds 28 1012 83 9000 3.6 210 15:37 25.02.2020
2334 Clouds 28 1012 83 9000 3.6 210 15:18 25.02.2020
2335 Clouds 28 1011 78 9000 4.1 210 14:54 25.02.2020
2336 Clouds 28 1011 78 8000 4.6 220 14:36 25.02.2020
2337 Clouds 29 1011 78 8000 4.6 220 14:18 25.02.2020
2338 Clouds 29 1010 74 8000 4.6 220 13:54 25.02.2020
2339 Clouds 30 1010 70 8000 5.1 210 13:36 25.02.2020
2340 Clouds 29 1010 70 8000 5.1 210 13:18 25.02.2020
2341 Clouds 31 1009 28 8000 1.5 120 12:39 25.02.2020
2342 Clouds 32 1009 28 8000 1.5 120 12:20 25.02.2020
2343 Clouds 32 1009 30 8000 1.5 130 11:56 25.02.2020
2344 Clouds 32 1009 30 8000 2.6 110 11:38 25.02.2020
2345 Clouds 34 1009 30 8000 2.6 110 11:18 25.02.2020
2346 Clouds 34 1009 30 8000 3.1 140 10:56 25.02.2020
2347 Clouds 34 1009 32 8000 3.6 150 10:38 25.02.2020
2348 Clouds 35 1009 32 8000 3.6 150 10:19 25.02.2020
2349 Clouds 34 1010 34 8000 1.5 80 09:40 25.02.2020
2350 Clouds 34 1010 34 8000 1.5 80 09:19 25.02.2020
2351 Clouds 34 1010 32 8000 4.1 110 08:43 25.02.2020
2352 Clouds 34 1011 34 8000 4.1 150 08:25 25.02.2020
2353 Clouds 34 1011 36 8000 4.1 120 07:50 25.02.2020
2354 Clouds 34 1012 38 8000 4.6 140 07:25 25.02.2020
2355 Clouds 34 1012 36 8000 4.1 120 06:57 25.02.2020
2356 Clouds 34 1013 34 7000 4.6 100 06:26 25.02.2020
2357 Clouds 32 1014 49 6000 3.6 110 05:23 25.02.2020
2358 Mist 28 1013 83 2000 1 40 02:38 25.02.2020
2359 Mist 26 1012 88 3000 2.1 130 00:59 25.02.2020
2360 Mist 25 1012 88 5000 3.1 140 00:34 25.02.2020
2361 Clouds 25 1011 88 8000 2.6 150 23:56 24.02.2020
2362 Clouds 25 1011 83 8000 2.86 184 23:37 24.02.2020
2363 Clouds 26 1011 83 8000 4.04 181 23:18 24.02.2020
2364 Clouds 25 1011 83 8000 4.04 181 22:37 24.02.2020
2365 Clouds 25 1011 83 8000 4.04 181 22:19 24.02.2020
2366 Clouds 25 1011 78 8000 4.04 181 21:55 24.02.2020
2367 Clouds 25 1011 78 8000 4.04 181 21:37 24.02.2020
2368 Clouds 25 1011 78 8000 4.04 181 21:18 24.02.2020
2369 Clouds 26 1011 78 8000 1 120 20:54 24.02.2020
2370 Clouds 27 1011 69 8000 1 110 20:36 24.02.2020
2371 Clouds 26 1011 69 8000 1 110 20:18 24.02.2020
2372 Clouds 26 1012 65 8000 1.5 70 19:55 24.02.2020
2373 Clouds 26 1012 65 8000 1.5 70 19:55 24.02.2020
2374 Clouds 26 1012 65 8000 1 90 19:36 24.02.2020
2375 Clouds 26 1012 65 8000 1 90 19:18 24.02.2020
2376 Clouds 27 1013 57 8000 1 60 18:41 24.02.2020
2377 Clouds 27 1013 57 8000 1 60 18:22 24.02.2020
2378 Clouds 27 1013 51 8000 2.1 150 17:55 24.02.2020
2379 Clouds 28 1013 48 9000 1.5 180 17:36 24.02.2020
2380 Clouds 27 1013 48 9000 1.5 180 17:18 24.02.2020
2381 Clouds 27 1013 48 9000 4.64 191 16:55 24.02.2020
2382 Clouds 28 1013 42 9000 2.1 190 16:36 24.02.2020
2383 Clouds 28 1013 42 9000 2.1 190 16:18 24.02.2020
2384 Clouds 28 1013 42 9000 2.1 190 16:18 24.02.2020
2385 Clouds 28 1012 40 9000 1 340 15:55 24.02.2020
2386 Clouds 29 1012 38 9000 2.1 350 15:37 24.02.2020
2387 Clouds 29 1012 38 9000 2.1 350 15:18 24.02.2020
2388 Clouds 29 1011 33 10000 1.5 110 14:40 24.02.2020
2389 Clouds 31 1011 33 10000 1.5 110 14:22 24.02.2020
2390 Clouds 30 1011 35 10000 1.5 60 13:58 24.02.2020
2391 Clouds 30 1011 35 10000 1.5 60 13:58 24.02.2020
2392 Clouds 31 1010 31 10000 2.1 70 13:39 24.02.2020
2393 Clouds 31 1010 31 10000 2.1 70 13:21 24.02.2020
2394 Clouds 31 1010 29 10000 2.6 70 12:57 24.02.2020
2395 Clouds 33 1010 26 10000 1 0 12:38 24.02.2020
2396 Clouds 33 1010 26 10000 1 0 12:20 24.02.2020
2397 Clouds 34 1010 24 10000 1.5 110 11:46 24.02.2020
2398 Clouds 34 1010 23 10000 2.1 120 11:28 24.02.2020
2399 Clouds 35 1010 26 10000 1.5 0 10:47 24.02.2020
2400 Clouds 35 1010 28 10000 3.6 130 10:29 24.02.2020
2401 Clouds 35 1010 28 9000 4.1 90 09:54 24.02.2020
2402 Clouds 34 1011 32 9000 4.6 80 09:36 24.02.2020
2403 Clouds 34 1011 32 9000 4.6 80 09:18 24.02.2020
2404 Clouds 34 1011 32 9000 3.6 100 08:46 24.02.2020
2405 Clouds 34 1012 32 9000 4.1 110 08:27 24.02.2020
2406 Clear 34 1013 30 9000 4.6 110 07:46 24.02.2020
2407 Clear 34 1013 36 9000 5.1 80 07:27 24.02.2020
2408 Clear 34 1015 35 9000 5.1 100 06:37 24.02.2020
2409 Clear 33 1015 35 9000 5.1 100 06:18 24.02.2020
2410 Clear 32 1016 38 9000 6.2 90 05:29 24.02.2020
2411 Clear 30 1016 48 8000 6.7 110 03:54 24.02.2020
2412 Clear 29 1016 54 8000 3.6 110 02:54 24.02.2020
2413 Clouds 25 1014 61 7000 2.1 110 01:43 24.02.2020
2414 Clouds 24 1014 61 8000 1.5 130 00:57 24.02.2020
2415 Clouds 24 1014 61 8000 2.6 140 00:27 24.02.2020
2416 Clouds 25 1014 61 8000 2.1 150 23:59 23.02.2020
2417 Clouds 25 1013 61 8000 2.1 150 23:40 23.02.2020
2418 Clouds 25 1013 61 8000 2.1 150 23:18 23.02.2020
2419 Clouds 24 1013 61 8000 1.5 140 22:54 23.02.2020
2420 Clouds 24 1013 61 8000 1.5 150 22:36 23.02.2020
2421 Clouds 24 1013 61 8000 1.5 150 22:18 23.02.2020
2422 Clouds 26 1013 57 8000 1.5 140 21:43 23.02.2020
2423 Clouds 26 1013 57 8000 1.5 140 21:43 23.02.2020
2424 Clouds 26 1013 57 8000 1.5 140 21:43 23.02.2020
2425 Clouds 26 1014 57 10000 1.5 150 21:19 23.02.2020
2426 Clouds 26 1014 54 10000 2.1 130 20:56 23.02.2020
2427 Clouds 26 1014 54 10000 2.1 130 20:56 23.02.2020
2428 Clouds 28 1014 57 10000 1.5 130 20:38 23.02.2020
2429 Clouds 27 1014 57 10000 1.5 130 20:19 23.02.2020
2430 Clouds 27 1014 54 10000 2.1 130 19:56 23.02.2020
2431 Clouds 28 1015 51 10000 2.6 120 19:37 23.02.2020
2432 Clouds 29 1015 51 10000 2.6 120 19:18 23.02.2020
2433 Clouds 29 1015 51 10000 2.6 120 19:18 23.02.2020
2434 Clouds 29 1015 51 10000 2.6 120 19:18 23.02.2020
2435 Clouds 28 1015 51 10000 2.6 120 18:42 23.02.2020
2436 Clouds 28 1015 51 10000 2.1 130 18:22 23.02.2020
2437 Clouds 29 1015 51 10000 2.1 120 17:59 23.02.2020
2438 Clouds 29 1015 48 10000 2.6 170 17:41 23.02.2020
2439 Clouds 30 1015 48 10000 2.6 170 17:22 23.02.2020
2440 Clouds 29 1015 45 10000 2.1 150 16:58 23.02.2020
2441 Clouds 29 1015 45 10000 2.1 150 16:58 23.02.2020
2442 Clouds 29 1014 48 10000 3.1 310 16:40 23.02.2020
2443 Clouds 30 1014 48 10000 3.1 310 16:21 23.02.2020
2444 Clouds 29 1014 45 10000 3.1 310 15:55 23.02.2020
2445 Clouds 30 1014 43 10000 2.6 310 15:37 23.02.2020
2446 Clouds 30 1014 43 10000 2.6 310 15:19 23.02.2020
2447 Clouds 30 1014 43 10000 2.6 300 14:55 23.02.2020
2448 Clear 30 1013 43 9000 3.1 310 14:37 23.02.2020
2449 Clear 31 1013 43 9000 3.1 310 14:19 23.02.2020
2450 Clear 31 1013 40 9000 2.6 330 13:55 23.02.2020
2451 Clear 31 1013 40 9000 2.6 330 13:36 23.02.2020
2452 Clear 31 1013 40 9000 2.6 330 13:18 23.02.2020
2453 Clear 32 1012 38 9000 1.5 50 12:40 23.02.2020
2454 Clear 32 1012 38 9000 1.5 50 12:20 23.02.2020
2455 Clear 33 1012 38 9000 3.6 320 11:39 23.02.2020
2456 Clear 33 1012 38 9000 3.6 320 11:20 23.02.2020
2457 Clear 33 1012 38 9000 3.6 320 11:20 23.02.2020
2458 Clear 33 1012 38 9000 3.1 20 10:58 23.02.2020
2459 Clear 33 1013 34 9000 3.1 60 10:40 23.02.2020
2460 Clear 33 1013 34 9000 3.1 60 10:22 23.02.2020
2461 Clear 33 1013 36 9000 3.6 100 09:56 23.02.2020
2462 Clear 34 1013 34 9000 3.6 90 09:38 23.02.2020
2463 Clear 33 1013 34 9000 3.6 90 09:18 23.02.2020
2464 Clear 33 1013 34 9000 3.6 90 09:18 23.02.2020
2465 Clear 33 1014 34 9000 4.6 80 08:45 23.02.2020
2466 Clear 34 1015 36 9000 4.6 50 08:25 23.02.2020
2467 Clear 33 1015 36 9000 4.1 90 07:45 23.02.2020
2468 Clear 33 1016 36 9000 5.7 80 07:27 23.02.2020
2469 Clear 34 1018 38 9000 5.1 90 06:24 23.02.2020
2470 Clear 31 1019 40 9000 6.7 80 05:19 23.02.2020
2471 Clear 30 1019 45 9000 7.2 80 04:23 23.02.2020
2472 Clear 27 1018 57 10000 3.6 100 02:49 23.02.2020
2473 Clear 25 1017 64 7000 3.6 100 01:39 23.02.2020
2474 Clear 25 1017 64 7000 3.6 100 01:20 23.02.2020
2475 Clear 24 1017 64 7000 3.6 120 00:43 23.02.2020
2476 Clear 25 1016 61 7000 1.5 120 00:20 23.02.2020
2477 Clear 25 1016 64 7000 1.5 140 23:43 22.02.2020
2478 Clear 25 1016 64 7000 1.5 140 23:43 22.02.2020
2479 Clear 25 1015 64 7000 1 140 23:22 22.02.2020
2480 Clear 25 1015 60 7000 1 110 22:45 22.02.2020
2481 Clear 25 1015 57 8000 1.5 80 22:20 22.02.2020
2482 Clear 25 1015 57 8000 1.5 70 21:43 22.02.2020
2483 Clear 25 1015 57 8000 2.6 70 21:25 22.02.2020
2484 Clear 26 1015 57 8000 2.6 30 20:58 22.02.2020
2485 Clear 26 1015 57 8000 2.6 40 20:39 22.02.2020
2486 Clear 27 1015 57 8000 2.6 40 20:21 22.02.2020
2487 Clear 27 1016 54 8000 2.6 20 19:42 22.02.2020
2488 Clear 27 1016 54 8000 2.6 20 19:24 22.02.2020
2489 Clear 28 1016 51 8000 2.6 30 18:57 22.02.2020
2490 Clear 27 1016 51 8000 3.1 40 18:37 22.02.2020
2491 Clear 27 1016 51 8000 3.1 40 18:19 22.02.2020
2492 Clear 28 1016 54 8000 2.1 60 17:44 22.02.2020
2493 Clear 28 1016 48 8000 3.1 70 17:26 22.02.2020
2494 Clear 29 1016 48 8000 3.1 70 16:59 22.02.2020
2495 Clear 29 1016 48 8000 2.1 60 16:40 22.02.2020
2496 Clear 30 1016 48 8000 2.1 60 16:20 22.02.2020
2497 Clear 30 1016 48 8000 2.6 60 15:46 22.02.2020
2498 Clear 31 1016 42 8000 2.6 70 15:27 22.02.2020
2499 Clear 30 1016 42 8000 2.6 80 14:59 22.02.2020
2500 Clouds 30 1015 40 8000 1.5 40 14:40 22.02.2020
2501 Clouds 30 1015 40 8000 1.5 40 14:40 22.02.2020
2502 Clouds 30 1015 40 8000 1.5 40 14:20 22.02.2020
2503 Clouds 31 1015 38 8000 1.5 30 13:43 22.02.2020
2504 Clouds 31 1014 38 8000 1.5 60 13:20 22.02.2020
2505 Clouds 32 1014 35 8000 4.1 50 12:58 22.02.2020
2506 Clouds 32 1014 33 10000 5.1 30 12:39 22.02.2020
2507 Clouds 32 1014 33 10000 5.1 30 12:20 22.02.2020
2508 Clouds 33 1013 32 10000 3.1 70 11:42 22.02.2020
2509 Clouds 33 1013 32 10000 3.1 70 11:23 22.02.2020
2510 Clouds 34 1013 34 10000 4.6 60 10:42 22.02.2020
2511 Clouds 34 1013 34 10000 4.6 60 10:21 22.02.2020
2512 Clouds 34 1014 34 10000 4.6 90 09:59 22.02.2020
2513 Clouds 34 1014 36 10000 4.6 70 09:40 22.02.2020
2514 Clouds 33 1014 36 10000 4.6 70 09:22 22.02.2020
2515 Clouds 33 1015 36 10000 5.7 70 08:51 22.02.2020
2516 Clouds 33 1015 38 10000 6.2 80 08:28 22.02.2020
2517 Clouds 33 1016 36 10000 6.7 90 07:54 22.02.2020
2518 Clouds 33 1017 36 10000 6.7 90 07:20 22.02.2020
2519 Clouds 33 1017 40 10000 7.2 80 06:53 22.02.2020
2520 Clouds 33 1018 40 10000 8.7 90 06:34 22.02.2020
2521 Clouds 30 1019 42 10000 8.2 70 04:42 22.02.2020
2522 Clouds 29 1019 48 10000 5.7 80 03:45 22.02.2020
2523 Clouds 27 1019 53 10000 4.6 90 02:34 22.02.2020
2524 Clouds 26 1018 57 10000 4.1 100 01:47 22.02.2020
2525 Clouds 25 1018 53 10000 4.1 100 01:27 22.02.2020
2526 Clouds 25 1017 53 10000 2.6 110 00:46 22.02.2020
2527 Clouds 25 1017 53 10000 2.6 90 00:28 22.02.2020
2528 Clouds 25 1016 53 10000 3.6 40 23:48 21.02.2020
2529 Clouds 25 1016 53 10000 3.6 50 23:24 21.02.2020
2530 Clear 25 1016 53 10000 4.1 40 22:57 21.02.2020
2531 Clear 26 1016 53 10000 3.6 30 22:39 21.02.2020
2532 Clear 26 1016 53 10000 3.6 30 22:20 21.02.2020
2533 Clear 26 1016 53 10000 3.6 40 21:42 21.02.2020
2534 Clear 26 1016 53 10000 3.6 40 21:42 21.02.2020
2535 Clear 27 1016 47 10000 4.1 40 21:24 21.02.2020
2536 Clear 26 1016 44 10000 4.6 20 20:50 21.02.2020
2537 Clear 26 1016 42 10000 4.6 20 20:31 21.02.2020
2538 Clear 27 1016 44 10000 4.6 20 19:59 21.02.2020
2539 Clear 27 1016 44 10000 4.6 20 19:59 21.02.2020
2540 Clear 28 1017 44 10000 4.6 30 19:38 21.02.2020
2541 Clear 28 1017 44 10000 4.6 30 19:18 21.02.2020
2542 Clear 28 1017 42 10000 4.6 50 18:40 21.02.2020
2543 Clear 28 1017 42 10000 4.6 50 18:22 21.02.2020
2544 Clear 29 1017 45 10000 3.6 40 17:42 21.02.2020
2545 Clear 30 1017 45 10000 3.6 40 17:24 21.02.2020
2546 Clear 30 1018 51 10000 3.1 50 16:58 21.02.2020
2547 Clear 30 1018 54 10000 3.1 30 16:40 21.02.2020
2548 Clear 30 1018 54 10000 3.1 30 16:21 21.02.2020
2549 Clear 30 1017 51 10000 2.6 40 15:56 21.02.2020
2550 Clear 30 1017 42 10000 1.5 80 15:38 21.02.2020
2551 Clear 31 1017 42 10000 1.5 80 15:18 21.02.2020
2552 Clear 30 1016 40 10000 1.5 40 14:42 21.02.2020
2553 Clear 32 1016 40 10000 1.5 40 14:19 21.02.2020
2554 Clear 31 1015 40 10000 1.5 30 13:44 21.02.2020
2555 Clear 31 1015 38 10000 2.1 30 13:24 21.02.2020
2556 Clear 32 1014 38 10000 1.5 60 12:55 21.02.2020
2557 Clear 32 1014 35 10000 2.6 80 12:37 21.02.2020
2558 Clear 33 1014 35 10000 2.6 80 12:18 21.02.2020
2559 Clear 33 1014 36 10000 3.1 70 11:42 21.02.2020
2560 Clear 33 1014 36 10000 2.1 40 11:22 21.02.2020
2561 Clear 34 1014 33 10000 2.1 70 10:57 21.02.2020
2562 Clear 34 1014 36 10000 3.1 80 10:39 21.02.2020
2563 Clear 34 1014 36 10000 3.1 80 10:19 21.02.2020
2564 Clear 34 1014 36 10000 3.6 90 09:57 21.02.2020
2565 Clear 34 1014 36 10000 3.6 90 09:57 21.02.2020
2566 Clear 33 1015 36 10000 6.7 70 09:38 21.02.2020
2567 Clear 33 1015 36 10000 6.7 70 09:37 21.02.2020
2568 Clear 34 1015 36 10000 6.7 70 09:19 21.02.2020
2569 Clear 33 1015 34 10000 4.6 40 08:42 21.02.2020
2570 Clear 33 1016 34 10000 6.2 80 08:22 21.02.2020
2571 Clear 33 1016 36 10000 6.2 70 07:59 21.02.2020
2572 Clear 33 1017 36 10000 6.7 100 07:40 21.02.2020
2573 Clear 33 1017 36 10000 6.7 100 07:19 21.02.2020
2574 Clear 33 1018 36 10000 6.2 90 06:50 21.02.2020
2575 Clear 33 1018 40 10000 7.2 100 06:30 21.02.2020
2576 Clear 32 1019 40 10000 7.2 100 05:43 21.02.2020
2577 Clouds 30 1020 45 10000 6.7 90 04:36 21.02.2020
2578 Clouds 30 1020 45 10000 6.7 90 04:18 21.02.2020
2579 Clouds 30 1020 45 10000 6.7 90 04:18 21.02.2020
2580 Clouds 29 1019 51 10000 4.6 90 03:31 21.02.2020
2581 Clear 25 1017 69 8000 2.1 50 01:51 21.02.2020
2582 Clear 25 1016 60 8000 7.91 75 01:24 21.02.2020
2583 Clear 24 1016 64 9000 2.1 90 00:45 21.02.2020
2584 Clear 24 1015 57 7000 3.1 90 00:23 21.02.2020
2585 Clear 24 1015 57 7000 3.1 90 00:23 21.02.2020
2586 Clear 25 1015 60 9000 2.1 100 23:44 20.02.2020
2587 Clear 25 1014 60 9000 2.6 70 23:25 20.02.2020
2588 Clear 25 1014 57 9000 2.6 70 22:56 20.02.2020
2589 Clear 25 1014 60 9000 2.6 60 22:37 20.02.2020
2590 Clear 25 1014 60 9000 2.6 60 22:19 20.02.2020
2591 Clear 26 1014 60 9000 2.6 60 21:55 20.02.2020
2592 Clear 26 1014 57 9000 2.6 70 21:37 20.02.2020
2593 Clear 26 1014 57 9000 2.6 70 21:19 20.02.2020
2594 Clear 26 1014 57 9000 2.6 60 20:54 20.02.2020
2595 Clear 27 1015 54 9000 2.6 60 20:36 20.02.2020
2596 Clear 26 1015 54 9000 2.6 60 20:18 20.02.2020
2597 Clear 26 1015 54 9000 2.6 60 20:18 20.02.2020
2598 Clear 27 1015 51 9000 3.6 60 19:42 20.02.2020
2599 Clear 28 1015 51 9000 2.6 70 19:24 20.02.2020
2600 Clear 28 1015 51 9000 3.1 50 18:59 20.02.2020
2601 Clear 28 1015 51 9000 3.1 60 18:39 20.02.2020
2602 Clear 28 1015 51 9000 3.1 60 18:19 20.02.2020
2603 Clear 28 1015 48 9000 3.6 50 17:41 20.02.2020
2604 Clear 29 1015 51 9000 2.6 50 17:22 20.02.2020
2605 Clear 29 1015 51 9000 2.6 50 16:59 20.02.2020
2606 Clear 30 1015 51 9000 2.6 40 16:40 20.02.2020
2607 Clear 30 1015 51 9000 2.6 40 16:21 20.02.2020
2608 Clear 30 1015 45 9000 4.6 50 15:59 20.02.2020
2609 Clear 30 1014 40 9000 4.1 80 15:41 20.02.2020
2610 Clear 30 1014 40 9000 4.1 80 15:20 20.02.2020
2611 Clear 31 1014 35 9000 3.6 100 14:55 20.02.2020
2612 Clear 31 1013 40 9000 2.1 100 14:36 20.02.2020
2613 Clear 32 1013 40 9000 2.1 100 14:18 20.02.2020
2614 Clear 32 1013 40 9000 2.1 100 14:18 20.02.2020
2615 Clear 32 1013 43 9000 1.5 90 13:44 20.02.2020
2616 Clear 32 1012 38 9000 1.5 110 13:19 20.02.2020
2617 Clear 32 1012 36 9000 2.6 110 12:56 20.02.2020
2618 Clear 32 1012 36 9000 3.6 90 12:37 20.02.2020
2619 Clear 32 1012 36 9000 3.6 90 12:18 20.02.2020
2620 Clouds 33 1011 34 9000 3.1 80 11:42 20.02.2020
2621 Clouds 33 1011 34 9000 3.1 80 11:22 20.02.2020
2622 Clouds 33 1011 34 9000 3.1 80 11:22 20.02.2020
2623 Clouds 34 1011 34 9000 3.6 70 10:57 20.02.2020
2624 Clouds 34 1012 34 9000 4.6 70 10:39 20.02.2020
2625 Clouds 34 1012 34 9000 4.6 70 10:21 20.02.2020
2626 Clouds 34 1012 34 9000 5.1 80 09:46 20.02.2020
2627 Clear 34 1012 34 9000 3.6 90 09:25 20.02.2020
2628 Clear 34 1013 32 9000 4.6 80 08:59 20.02.2020
2629 Clear 34 1013 34 9000 5.1 90 08:38 20.02.2020
2630 Clear 34 1013 34 9000 5.1 90 08:20 20.02.2020
2631 Clear 33 1014 38 9000 5.1 100 07:45 20.02.2020
2632 Clear 33 1015 38 9000 5.7 80 07:21 20.02.2020
2633 Clear 33 1015 40 9000 6.2 100 06:52 20.02.2020
2634 Clear 33 1016 40 9000 6.7 80 06:26 20.02.2020
2635 Clear 33 1017 38 9000 6.2 90 05:45 20.02.2020
2636 Clouds 31 1018 48 9000 5.7 110 04:51 20.02.2020
2637 Clouds 30 1017 51 9000 5.7 110 03:58 20.02.2020
2638 Clouds 31 1017 51 8000 4.1 110 03:28 20.02.2020
2639 Mist 27 1016 74 4000 2.1 140 02:23 20.02.2020
2640 Mist 25 1014 83 4000 1.56 93 00:58 20.02.2020
2641 Mist 26 1014 83 4000 1 0 00:31 20.02.2020
2642 Mist 26 1014 83 5000 1.56 93 23:49 19.02.2020
2643 Clouds 26 1013 83 6000 1.56 93 23:22 19.02.2020
2644 Clouds 26 1013 88 10000 1.52 125 22:46 19.02.2020
2645 Clouds 26 1013 83 10000 1.52 125 22:28 19.02.2020
2646 Clouds 27 1013 78 10000 1.5 120 21:59 19.02.2020
2647 Clouds 26 1014 78 10000 1.5 120 21:41 19.02.2020
2648 Clouds 26 1014 78 10000 1.5 120 21:19 19.02.2020
2649 Clouds 27 1014 74 10000 1.5 120 20:58 19.02.2020
2650 Clouds 27 1014 74 10000 1.5 120 20:58 19.02.2020
2651 Clouds 27 1014 69 10000 1.5 130 20:39 19.02.2020
2652 Clouds 27 1014 69 10000 1.5 130 20:20 19.02.2020
2653 Clouds 27 1014 69 10000 2.1 130 19:58 19.02.2020
2654 Clouds 27 1015 69 10000 2.6 150 19:38 19.02.2020
2655 Clouds 27 1015 69 10000 2.6 150 19:38 19.02.2020
2656 Clouds 27 1015 69 10000 2.6 150 19:20 19.02.2020
2657 Clouds 28 1015 54 10000 2.6 140 18:58 19.02.2020
2658 Clouds 27 1015 54 10000 3.6 140 18:40 19.02.2020
2659 Clouds 28 1015 54 10000 3.6 140 18:22 19.02.2020
2660 Clouds 29 1015 51 10000 1.5 70 17:57 19.02.2020
2661 Clouds 29 1015 45 10000 1.5 360 17:39 19.02.2020
2662 Clouds 30 1015 45 10000 1.5 360 17:18 19.02.2020
2663 Clouds 30 1015 45 10000 2.1 350 16:43 19.02.2020
2664 Clouds 30 1015 45 10000 2.6 350 16:19 19.02.2020
2665 Clouds 30 1014 48 10000 2.6 340 15:56 19.02.2020
2666 Clouds 30 1014 48 10000 2.6 360 15:37 19.02.2020
2667 Clouds 30 1014 48 10000 2.6 360 15:19 19.02.2020
2668 Clouds 30 1013 45 10000 1.5 20 14:41 19.02.2020
2669 Clouds 31 1013 45 10000 1.5 20 14:22 19.02.2020
2670 Clouds 31 1013 43 10000 2.1 360 13:43 19.02.2020
2671 Clouds 31 1013 43 10000 1.5 350 13:23 19.02.2020
2672 Clouds 32 1012 40 10000 1.5 60 12:58 19.02.2020
2673 Clouds 32 1012 40 10000 2.1 120 12:37 19.02.2020
2674 Clouds 32 1012 40 10000 2.1 120 12:18 19.02.2020
2675 Clouds 32 1012 38 10000 2.1 100 11:39 19.02.2020
2676 Clouds 32 1012 38 10000 2.1 100 11:20 19.02.2020
2677 Clouds 33 1012 38 10000 3.1 60 10:59 19.02.2020
2678 Clouds 33 1012 36 10000 3.6 110 10:39 19.02.2020
2679 Clouds 33 1012 36 10000 3.6 110 10:20 19.02.2020
2680 Clouds 33 1012 36 10000 4.1 60 09:59 19.02.2020
2681 Clouds 33 1013 38 10000 3.1 70 09:39 19.02.2020
2682 Clouds 34 1013 38 10000 3.1 70 09:20 19.02.2020
2683 Clouds 34 1013 38 10000 4.6 80 08:48 19.02.2020
2684 Clouds 34 1013 38 10000 4.6 80 08:48 19.02.2020
2685 Clouds 34 1014 38 10000 4.1 70 08:24 19.02.2020
2686 Clouds 32 1014 40 10000 4.6 80 07:54 19.02.2020
2687 Clouds 32 1015 36 10000 5.7 80 07:36 19.02.2020
2688 Clouds 32 1015 36 10000 5.7 80 07:18 19.02.2020
2689 Clouds 32 1016 40 10000 6.2 100 06:36 19.02.2020
2690 Clouds 30 1018 45 10000 3.6 70 04:59 19.02.2020
2691 Clouds 29 1018 51 10000 4.6 110 03:50 19.02.2020
2692 Clouds 27 1017 57 10000 3.6 110 02:35 19.02.2020
2693 Clouds 25 1016 60 10000 2.1 120 01:33 19.02.2020
2694 Clouds 24 1015 64 10000 1.5 130 00:59 19.02.2020
2695 Clouds 24 1015 64 10000 5.1 75 00:36 19.02.2020
2696 Clouds 24 1015 60 10000 5.1 75 23:57 18.02.2020
2697 Clouds 25 1014 61 10000 1 0 23:39 18.02.2020
2698 Clouds 25 1014 61 10000 1 0 23:19 18.02.2020
2699 Clouds 25 1014 61 10000 1 0 23:19 18.02.2020
2700 Clouds 26 1014 57 10000 1.5 60 22:54 18.02.2020
2701 Clouds 25 1014 64 10000 1.5 70 22:36 18.02.2020
2702 Clouds 25 1014 64 10000 1.5 70 22:18 18.02.2020
2703 Clouds 26 1014 54 10000 1.5 110 21:38 18.02.2020
2704 Clouds 26 1014 54 10000 1.5 110 21:20 18.02.2020
2705 Clouds 26 1015 57 10000 1 130 20:59 18.02.2020
2706 Clouds 26 1015 54 10000 1.5 130 20:39 18.02.2020
2707 Clouds 26 1015 54 10000 1.5 130 20:21 18.02.2020
2708 Clouds 26 1015 54 10000 1.5 130 20:21 18.02.2020
2709 Clouds 27 1015 54 10000 1.5 140 19:56 18.02.2020
2710 Clouds 27 1015 54 10000 1.5 130 19:38 18.02.2020
2711 Clouds 27 1015 54 10000 1.5 130 19:18 18.02.2020
2712 Clouds 27 1016 51 10000 2.1 140 18:42 18.02.2020
2713 Clouds 27 1016 51 10000 2.1 140 18:21 18.02.2020
2714 Clouds 27 1016 51 10000 2.6 130 17:57 18.02.2020
2715 Clouds 28 1016 51 10000 3.1 120 17:38 18.02.2020
2716 Clouds 28 1016 51 10000 3.1 120 17:19 18.02.2020
2717 Clouds 29 1016 51 9000 3.6 90 16:40 18.02.2020
2718 Clouds 28 1016 51 9000 3.6 90 16:21 18.02.2020
2719 Clouds 29 1016 51 9000 3.1 90 15:42 18.02.2020
2720 Clouds 30 1015 48 9000 2.6 90 15:21 18.02.2020
2721 Clouds 29 1015 48 9000 3.1 80 14:58 18.02.2020
2722 Clouds 29 1015 48 9000 3.1 80 14:58 18.02.2020
2723 Clouds 29 1014 48 9000 2.6 60 14:40 18.02.2020
2724 Clouds 30 1014 48 9000 2.6 60 14:21 18.02.2020
2725 Clouds 30 1014 48 9000 2.6 80 13:57 18.02.2020
2726 Clouds 30 1014 45 9000 3.1 80 13:38 18.02.2020
2727 Clouds 30 1014 45 9000 3.1 80 13:20 18.02.2020
2728 Clouds 30 1013 45 9000 3.1 90 12:43 18.02.2020
2729 Clouds 31 1013 45 9000 3.1 80 12:24 18.02.2020
2730 Clouds 31 1013 45 9000 3.6 80 11:56 18.02.2020
2731 Clouds 31 1012 45 9000 3.1 100 11:38 18.02.2020
2732 Clouds 32 1012 45 9000 3.1 100 11:19 18.02.2020
2733 Clouds 32 1012 43 9000 4.1 90 10:44 18.02.2020
2734 Clouds 32 1012 43 9000 4.1 90 10:44 18.02.2020
2735 Clouds 32 1013 45 9000 3.6 80 10:22 18.02.2020
2736 Clouds 32 1013 45 9000 3.6 80 09:56 18.02.2020
2737 Clouds 32 1013 45 9000 3.6 80 09:56 18.02.2020
2738 Clouds 32 1013 45 9000 4.1 70 09:38 18.02.2020
2739 Clouds 32 1013 45 9000 4.1 70 09:19 18.02.2020
2740 Clouds 32 1013 40 9000 3.6 90 08:54 18.02.2020
2741 Clouds 32 1014 40 9000 5.7 110 08:36 18.02.2020
2742 Clouds 32 1014 40 9000 5.7 110 08:18 18.02.2020
2743 Clouds 32 1014 45 9000 6.2 100 07:42 18.02.2020
2744 Clouds 32 1014 43 9000 7.2 80 07:23 18.02.2020
2745 Clouds 32 1015 43 9000 6.2 110 06:48 18.02.2020
2746 Clouds 31 1015 43 8000 7.2 70 06:27 18.02.2020
2747 Clouds 31 1016 43 8000 6.2 80 05:47 18.02.2020
2748 Clouds 30 1017 45 8000 6.2 100 04:52 18.02.2020
2749 Clouds 29 1016 54 9000 5.7 90 03:38 18.02.2020
2750 Clouds 27 1016 61 10000 5.1 90 02:54 18.02.2020
2751 Clouds 26 1015 74 10000 3.6 120 01:25 18.02.2020
2752 Clouds 26 1014 74 10000 2.6 120 00:22 18.02.2020
2753 Clouds 26 1014 78 10000 2.1 140 23:58 17.02.2020
2754 Clouds 26 1013 83 10000 2.1 180 23:38 17.02.2020
2755 Clouds 27 1013 83 10000 2.1 180 23:19 17.02.2020
2756 Clouds 26 1013 83 10000 2.6 140 22:56 17.02.2020
2757 Clouds 26 1013 83 10000 2.6 130 22:38 17.02.2020
2758 Clouds 26 1013 83 10000 2.6 130 22:18 17.02.2020
2759 Rain 27 1014 88 10000 3.6 110 21:39 17.02.2020
2760 Rain 27 1014 88 10000 3.6 110 21:18 17.02.2020
2761 Clouds 28 1014 78 10000 2.1 90 20:43 17.02.2020
2762 Clouds 28 1014 78 10000 2.75 187 20:22 17.02.2020
2763 Clouds 28 1014 83 10000 2.1 140 19:59 17.02.2020
2764 Clouds 28 1015 78 10000 1.5 120 19:41 17.02.2020
2765 Clouds 29 1015 78 10000 1.5 120 19:20 17.02.2020
2766 Clouds 29 1014 78 10000 3.6 170 18:39 17.02.2020
2767 Clouds 29 1014 78 10000 3.6 170 18:39 17.02.2020
2768 Clouds 29 1014 78 10000 3.6 170 18:20 17.02.2020
2769 Clouds 29 1014 78 10000 2.6 190 17:59 17.02.2020
2770 Clouds 29 1014 74 10000 2.6 170 17:38 17.02.2020
2771 Clouds 29 1014 74 10000 2.6 170 17:19 17.02.2020
2772 Clouds 29 1014 74 10000 3.6 180 16:58 17.02.2020
2773 Clouds 29 1014 74 10000 4.1 190 16:40 17.02.2020
2774 Clouds 29 1014 74 10000 4.1 190 16:21 17.02.2020
2775 Clouds 29 1014 74 10000 3.1 180 15:45 17.02.2020
2776 Clouds 29 1013 74 10000 3.6 190 15:45 17.02.2020
2777 Clouds 29 1013 74 10000 3.6 190 15:26 17.02.2020
2778 Clouds 29 1013 70 10000 3.1 210 14:56 17.02.2020
2779 Clouds 29 1013 70 10000 3.1 210 14:56 17.02.2020
2780 Clouds 29 1013 66 10000 4.1 210 14:38 17.02.2020
2781 Clouds 29 1013 66 10000 4.1 210 14:19 17.02.2020
2782 Clouds 30 1012 62 10000 4.1 210 13:41 17.02.2020
2783 Clouds 30 1012 62 10000 4.1 210 13:21 17.02.2020
2784 Clouds 31 1011 49 10000 1.5 220 12:59 17.02.2020
2785 Clouds 32 1011 41 10000 2.1 120 12:41 17.02.2020
2786 Clouds 32 1011 41 10000 2.1 120 12:22 17.02.2020
2787 Clouds 33 1011 39 10000 1.5 120 11:47 17.02.2020
2788 Clouds 34 1010 39 10000 3.1 120 11:27 17.02.2020
2789 Clouds 34 1010 41 10000 2.6 100 10:58 17.02.2020
2790 Clouds 34 1010 39 10000 3.1 140 10:40 17.02.2020
2791 Clouds 35 1010 39 10000 3.1 140 10:21 17.02.2020
2792 Clouds 34 1011 41 10000 2.6 120 09:58 17.02.2020
2793 Clouds 35 1011 39 10000 3.1 140 09:39 17.02.2020
2794 Clouds 35 1011 39 10000 3.1 140 09:19 17.02.2020
2795 Clouds 35 1011 39 10000 3.1 150 08:55 17.02.2020
2796 Clouds 33 1012 44 10000 2.1 110 08:37 17.02.2020
2797 Clouds 35 1012 44 10000 2.1 110 08:19 17.02.2020
2798 Clouds 35 1013 49 10000 4.1 80 07:39 17.02.2020
2799 Clouds 35 1013 49 10000 4.1 80 07:21 17.02.2020
2800 Clouds 34 1014 52 10000 2.1 360 06:46 17.02.2020
2801 Clouds 34 1014 55 10000 2.6 40 06:27 17.02.2020
2802 Clouds 32 1015 59 10000 3.1 110 05:40 17.02.2020
2803 Clouds 30 1016 70 9000 3.1 100 04:39 17.02.2020
2804 Clear 28 1015 78 9000 1.5 130 02:59 17.02.2020
2805 Clouds 25 1014 88 8000 1.5 100 01:23 17.02.2020
2806 Clear 25 1013 88 10000 1.5 100 00:39 17.02.2020
2807 Clear 25 1013 88 10000 1.5 100 00:19 17.02.2020
2808 Clear 25 1013 88 10000 2.1 90 23:52 16.02.2020
2809 Clear 25 1012 88 10000 2.97 174 23:27 16.02.2020
2810 Clear 25 1012 88 10000 2.1 110 22:56 16.02.2020
2811 Clear 25 1013 83 10000 2.6 110 22:38 16.02.2020
2812 Clear 25 1013 83 10000 2.6 110 22:38 16.02.2020
2813 Clear 25 1013 83 10000 2.6 110 22:19 16.02.2020
2814 Clear 25 1013 88 10000 2.6 110 21:55 16.02.2020
2815 Clear 26 1012 88 10000 2.1 110 21:36 16.02.2020
2816 Clear 25 1012 88 10000 2.1 110 21:18 16.02.2020
2817 Clear 26 1012 83 10000 1.5 110 20:54 16.02.2020
2818 Clear 26 1013 83 10000 1 110 20:36 16.02.2020
2819 Clear 26 1013 83 10000 1 110 20:18 16.02.2020
2820 Clear 26 1013 83 10000 1 110 20:18 16.02.2020
2821 Clear 26 1013 78 10000 2.1 200 19:54 16.02.2020
2822 Clear 26 1013 78 10000 2.1 210 19:36 16.02.2020
2823 Clear 26 1013 78 10000 2.1 210 19:18 16.02.2020
2824 Clear 26 1013 74 10000 1.5 150 18:41 16.02.2020
2825 Clear 27 1013 74 10000 1.5 150 18:23 16.02.2020
2826 Clear 27 1013 74 10000 1.5 150 18:23 16.02.2020
2827 Clear 27 1013 78 10000 4.6 210 17:45 16.02.2020
2828 Clear 27 1013 74 10000 4.1 200 17:21 16.02.2020
2829 Clear 27 1013 74 10000 4.1 190 16:57 16.02.2020
2830 Clear 27 1013 74 10000 4.1 190 16:57 16.02.2020
2831 Clear 27 1013 65 10000 3.6 200 16:39 16.02.2020
2832 Clear 27 1013 65 10000 3.6 200 16:21 16.02.2020
2833 Clear 28 1013 58 10000 3.6 190 15:56 16.02.2020
2834 Clear 28 1012 42 10000 3.1 180 15:37 16.02.2020
2835 Clear 28 1012 42 10000 3.1 180 15:18 16.02.2020
2836 Clear 28 1012 39 10000 2.1 170 14:39 16.02.2020
2837 Clear 28 1012 39 10000 2.1 170 14:21 16.02.2020
2838 Clear 29 1011 39 10000 1.5 180 13:47 16.02.2020
2839 Clear 30 1011 37 10000 2.1 180 13:24 16.02.2020
2840 Clear 30 1011 37 10000 2.1 180 13:24 16.02.2020
2841 Clear 30 1011 33 10000 3.1 200 12:56 16.02.2020
2842 Clear 31 1010 36 10000 3.1 190 12:38 16.02.2020
2843 Clear 31 1010 36 10000 3.1 190 12:19 16.02.2020
2844 Clear 32 1010 26 10000 3.6 160 11:39 16.02.2020
2845 Clear 34 1010 26 10000 3.6 160 11:18 16.02.2020
2846 Clear 35 1010 21 10000 3.1 170 10:56 16.02.2020
2847 Clear 34 1010 23 10000 3.1 180 10:38 16.02.2020
2848 Clear 35 1010 23 10000 3.1 180 10:20 16.02.2020
2849 Clear 34 1010 28 10000 3.1 180 09:55 16.02.2020
2850 Clear 34 1010 30 10000 3.6 160 09:36 16.02.2020
2851 Clear 34 1010 30 10000 3.6 160 09:18 16.02.2020
2852 Clear 34 1011 30 10000 5.1 220 08:45 16.02.2020
2853 Clouds 34 1011 34 10000 4.6 200 08:21 16.02.2020
2854 Clouds 34 1012 38 10000 6.2 190 07:54 16.02.2020
2855 Clouds 33 1012 36 10000 3.6 170 07:34 16.02.2020
2856 Clouds 34 1013 41 10000 3.1 140 06:33 16.02.2020
2857 Clouds 31 1015 46 10000 3.1 170 04:44 16.02.2020
2858 Clouds 29 1014 78 10000 1.5 80 03:31 16.02.2020
2859 Clouds 29 1014 83 9000 3.93 207 02:32 16.02.2020
2860 Clouds 27 1013 100 9000 1 0 01:43 16.02.2020
2861 Clouds 25 1013 100 9000 1 0 01:23 16.02.2020
2862 Clouds 25 1013 94 9000 1.5 50 00:53 16.02.2020
2863 Clouds 25 1012 94 10000 2.1 100 00:33 16.02.2020
2864 Clouds 26 1012 88 10000 2.1 110 23:58 15.02.2020
2865 Clouds 26 1011 88 10000 1 0 23:40 15.02.2020
2866 Clouds 26 1011 88 10000 1 0 23:40 15.02.2020
2867 Clouds 26 1011 88 10000 1 0 23:21 15.02.2020
2868 Clouds 26 1011 83 10000 2.1 180 22:41 15.02.2020
2869 Clouds 26 1011 83 10000 2.1 180 22:22 15.02.2020
2870 Clouds 26 1011 83 10000 2.6 180 21:59 15.02.2020
2871 Clouds 26 1011 83 8000 2.6 170 21:41 15.02.2020
2872 Clouds 26 1011 83 8000 2.6 170 21:21 15.02.2020
2873 Clouds 27 1011 78 8000 3.6 190 20:41 15.02.2020
2874 Clouds 27 1011 78 8000 3.6 190 20:21 15.02.2020
2875 Clouds 27 1011 78 8000 4.6 190 19:44 15.02.2020
2876 Clouds 27 1011 78 8000 2.6 190 19:24 15.02.2020
2877 Clouds 28 1012 78 8000 3.6 180 18:55 15.02.2020
2878 Clear 28 1012 78 10000 4.1 180 18:37 15.02.2020
2879 Clear 28 1012 78 10000 4.1 180 18:18 15.02.2020
2880 Clear 28 1012 78 10000 4.1 180 17:43 15.02.2020
2881 Clear 28 1012 78 10000 4.1 180 17:22 15.02.2020
2882 Clear 28 1012 78 10000 5.1 180 16:59 15.02.2020
2883 Clear 28 1011 74 10000 5.1 180 16:39 15.02.2020
2884 Clear 28 1011 74 10000 5.1 180 16:19 15.02.2020
2885 Clear 29 1011 70 10000 5.7 180 15:43 15.02.2020
2886 Clear 29 1011 70 10000 4.1 190 15:24 15.02.2020
2887 Clear 29 1011 70 10000 5.1 190 14:45 15.02.2020
2888 Clear 29 1010 66 10000 5.1 190 14:24 15.02.2020
2889 Clear 29 1010 58 10000 5.1 190 13:58 15.02.2020
2890 Clear 30 1010 54 10000 4.1 200 13:39 15.02.2020
2891 Clear 30 1010 54 10000 4.1 200 13:20 15.02.2020
2892 Clear 30 1009 33 10000 4.1 190 12:44 15.02.2020
2893 Clear 31 1009 33 10000 4.1 190 12:25 15.02.2020
2894 Clear 32 1009 31 10000 4.6 190 11:55 15.02.2020
2895 Clear 33 1008 26 10000 5.7 180 11:36 15.02.2020
2896 Clear 33 1008 26 10000 5.7 180 11:18 15.02.2020
2897 Clear 34 1008 19 10000 4.6 200 10:39 15.02.2020
2898 Clear 34 1008 19 10000 4.6 200 10:21 15.02.2020
2899 Clear 34 1008 17 10000 5.1 190 09:44 15.02.2020
2900 Clear 34 1009 17 10000 5.7 180 09:25 15.02.2020
2901 Clear 34 1009 21 10000 5.1 190 08:58 15.02.2020
2902 Clear 34 1009 24 10000 4.1 190 08:39 15.02.2020
2903 Clear 34 1009 24 10000 4.1 190 08:19 15.02.2020
2904 Clear 34 1011 32 10000 3.1 220 07:40 15.02.2020
2905 Clear 34 1011 32 10000 3.1 220 07:22 15.02.2020
2906 Clear 33 1012 36 10000 4.1 230 06:38 15.02.2020
2907 Clear 33 1012 36 10000 4.1 230 06:18 15.02.2020
2908 Clear 30 1014 42 10000 3.6 260 04:51 15.02.2020
2909 Clear 30 1014 42 10000 4.1 260 04:24 15.02.2020
2910 Clear 30 1013 54 10000 4.1 260 02:59 15.02.2020
2911 Clear 28 1013 61 10000 3.1 250 02:26 15.02.2020
2912 Clear 26 1012 65 10000 3.1 250 01:50 15.02.2020
2913 Clear 26 1012 69 10000 3.1 250 01:31 15.02.2020
2914 Clouds 26 1011 65 10000 2.6 260 00:29 15.02.2020
2915 Clouds 26 1010 69 10000 3.1 250 23:47 14.02.2020
2916 Clouds 26 1010 74 10000 3.1 250 23:21 14.02.2020
2917 Clouds 26 1010 78 10000 2.6 250 22:56 14.02.2020
2918 Clouds 26 1010 78 10000 2.6 250 22:56 14.02.2020
2919 Clouds 27 1010 78 10000 3.1 260 22:37 14.02.2020
2920 Clouds 27 1010 78 10000 3.1 260 22:19 14.02.2020
2921 Clouds 27 1010 78 10000 4.1 240 21:49 14.02.2020
2922 Clouds 28 1010 78 10000 4.6 230 21:30 14.02.2020
2923 Clouds 27 1010 88 10000 4.1 210 20:48 14.02.2020
2924 Clouds 27 1010 88 10000 4.1 210 20:21 14.02.2020
2925 Clouds 28 1010 88 10000 3.6 210 19:59 14.02.2020
2926 Clouds 28 1011 83 10000 5.1 210 19:40 14.02.2020
2927 Clouds 28 1011 83 10000 5.1 210 19:22 14.02.2020
2928 Clouds 28 1011 78 10000 4.6 200 18:56 14.02.2020
2929 Clouds 28 1011 78 10000 5.7 200 18:38 14.02.2020
2930 Clouds 28 1011 78 10000 5.7 200 18:19 14.02.2020
2931 Clouds 28 1011 78 10000 5.1 200 17:43 14.02.2020
2932 Clouds 28 1011 78 10000 5.1 190 17:21 14.02.2020
2933 Clouds 28 1011 78 10000 6.2 190 16:58 14.02.2020
2934 Clouds 28 1011 78 10000 6.2 190 16:58 14.02.2020
2935 Clouds 28 1011 78 10000 5.7 200 16:39 14.02.2020
2936 Clouds 28 1011 78 10000 5.7 200 16:21 14.02.2020
2937 Clouds 29 1010 74 10000 6.2 200 15:56 14.02.2020
2938 Clouds 29 1010 74 10000 6.2 200 15:37 14.02.2020
2939 Clouds 29 1010 74 10000 6.2 200 15:37 14.02.2020
2940 Clouds 29 1010 74 10000 6.2 200 15:37 14.02.2020
2941 Clouds 29 1010 74 10000 6.2 200 15:37 14.02.2020
2942 Clouds 29 1010 74 10000 6.2 200 15:19 14.02.2020
2943 Clouds 29 1010 70 10000 5.7 200 14:57 14.02.2020
2944 Clouds 29 1009 70 10000 6.2 200 14:38 14.02.2020
2945 Clouds 29 1009 70 10000 6.2 200 14:20 14.02.2020
2946 Clouds 30 1008 62 10000 5.7 190 13:40 14.02.2020
2947 Clouds 30 1008 62 10000 5.7 190 13:21 14.02.2020
2948 Clouds 30 1008 58 10000 5.7 180 12:58 14.02.2020
2949 Clouds 30 1008 58 10000 6.2 190 12:40 14.02.2020
2950 Clouds 31 1008 58 10000 6.2 190 12:21 14.02.2020
2951 Clouds 31 1007 52 10000 6.2 180 11:58 14.02.2020
2952 Clouds 32 1007 49 10000 6.2 180 11:40 14.02.2020
2953 Clouds 33 1007 49 10000 6.2 180 11:20 14.02.2020
2954 Clouds 33 1007 49 10000 5.1 180 10:55 14.02.2020
2955 Clouds 33 1007 49 10000 6.2 170 10:37 14.02.2020
2956 Clouds 33 1008 46 10000 6.7 190 10:19 14.02.2020
2957 Clouds 34 1008 46 10000 7.7 180 09:40 14.02.2020
2958 Clouds 34 1008 46 10000 7.7 180 09:20 14.02.2020
2959 Clouds 33 1008 46 10000 6.7 180 08:43 14.02.2020
2960 Clouds 33 1009 46 10000 6.7 200 08:25 14.02.2020
2961 Clouds 33 1009 46 10000 6.2 180 07:56 14.02.2020
2962 Clouds 33 1010 46 10000 5.7 200 07:38 14.02.2020
2963 Clouds 33 1010 46 10000 5.7 200 07:18 14.02.2020
2964 Clouds 33 1011 55 10000 6.2 180 06:29 14.02.2020
2965 Clouds 32 1012 55 10000 6.2 210 05:47 14.02.2020
2966 Clouds 31 1012 70 10000 5.1 200 04:28 14.02.2020
2967 Clouds 30 1012 74 10000 4.6 200 03:29 14.02.2020
2968 Clouds 29 1011 83 10000 3.1 180 02:29 14.02.2020
2969 Clouds 27 1010 88 10000 2.6 170 01:25 14.02.2020
2970 Clouds 27 1010 88 10000 2.6 170 00:42 14.02.2020
2971 Clouds 27 1010 88 10000 2.6 170 00:21 14.02.2020
2972 Clouds 27 1009 88 10000 2.6 170 23:43 13.02.2020
2973 Clouds 27 1009 88 10000 2.6 170 23:43 13.02.2020
2974 Clouds 27 1009 88 10000 3.1 180 23:20 13.02.2020
2975 Clouds 27 1009 88 10000 3.1 170 22:43 13.02.2020
2976 Clouds 27 1009 83 10000 3.1 180 22:20 13.02.2020
2977 Clouds 27 1009 83 10000 3.1 180 21:59 13.02.2020
2978 Clouds 27 1009 83 10000 3.6 180 21:40 13.02.2020
2979 Clouds 28 1009 83 10000 3.6 180 21:22 13.02.2020
2980 Clouds 28 1009 83 10000 2.6 180 20:56 13.02.2020
2981 Clouds 28 1010 83 10000 2.6 170 20:38 13.02.2020
2982 Clouds 28 1010 83 10000 2.6 170 20:19 13.02.2020
2983 Clouds 28 1010 78 10000 3.6 190 19:55 13.02.2020
2984 Clouds 28 1010 78 10000 4.1 210 19:36 13.02.2020
2985 Clouds 28 1010 78 10000 4.1 210 19:18 13.02.2020
2986 Clouds 28 1010 78 10000 4.1 210 19:18 13.02.2020
2987 Clouds 28 1011 78 10000 4.6 200 18:42 13.02.2020
2988 Clouds 28 1011 78 10000 4.6 200 18:23 13.02.2020
2989 Clouds 28 1011 83 10000 4.1 200 17:58 13.02.2020
2990 Clouds 28 1011 83 10000 5.1 200 17:39 13.02.2020
2991 Clouds 28 1011 83 10000 5.1 200 17:20 13.02.2020
2992 Clouds 28 1011 83 10000 5.1 200 17:20 13.02.2020
2993 Clouds 28 1011 78 10000 4.6 200 16:57 13.02.2020
2994 Clouds 28 1011 78 10000 6.2 200 16:36 13.02.2020
2995 Clouds 29 1011 78 10000 6.2 200 16:18 13.02.2020
2996 Clouds 29 1011 78 10000 5.1 190 15:55 13.02.2020
2997 Clouds 29 1010 78 10000 5.7 200 15:37 13.02.2020
2998 Clouds 28 1010 78 10000 5.7 200 15:18 13.02.2020
2999 Clouds 29 1010 74 10000 5.7 200 14:55 13.02.2020
3000 Clouds 29 1010 74 10000 6.2 190 14:37 13.02.2020
3001 Clouds 29 1010 74 10000 6.2 190 14:18 13.02.2020
3002 Clouds 29 1010 70 10000 5.1 190 13:41 13.02.2020
3003 Clouds 30 1010 70 10000 5.1 190 13:18 13.02.2020
3004 Clouds 30 1010 66 10000 5.1 200 12:49 13.02.2020
3005 Clouds 30 1010 58 10000 5.1 180 12:30 13.02.2020
3006 Clouds 32 1009 55 10000 5.7 190 11:59 13.02.2020
3007 Clouds 32 1009 52 10000 5.7 190 11:41 13.02.2020
3008 Clouds 33 1009 52 10000 5.7 190 11:19 13.02.2020
3009 Clouds 33 1009 55 10000 5.7 190 10:44 13.02.2020
3010 Clouds 33 1009 55 10000 5.7 190 10:44 13.02.2020
3011 Clouds 33 1009 52 10000 5.1 200 10:26 13.02.2020
3012 Clouds 33 1010 52 10000 5.1 190 09:50 13.02.2020
3013 Clouds 33 1010 52 10000 4.6 200 09:26 13.02.2020
3014 Clouds 34 1010 50 10000 5.1 210 08:52 13.02.2020
3015 Clouds 34 1011 47 10000 4.6 190 08:21 13.02.2020
3016 Clouds 34 1011 49 10000 4.6 200 07:57 13.02.2020
3017 Clouds 34 1012 49 10000 4.1 190 07:38 13.02.2020
3018 Clouds 33 1012 49 10000 4.1 190 07:20 13.02.2020
3019 Clouds 34 1013 46 10000 5.1 200 06:44 13.02.2020
3020 Clouds 34 1013 46 10000 5.1 190 06:18 13.02.2020
3021 Clouds 32 1014 49 10000 5.1 180 05:25 13.02.2020
3022 Clouds 31 1015 55 10000 4.6 190 04:25 13.02.2020
3023 Clouds 31 1014 62 10000 4.1 180 03:47 13.02.2020
3024 Clouds 30 1014 66 10000 4.6 180 03:18 13.02.2020
3025 Rain 30 1014 70 10000 4.1 180 02:45 13.02.2020
3026 Rain 29 1014 78 10000 3.6 180 02:19 13.02.2020
3027 Clouds 27 1013 83 10000 3.1 180 01:28 13.02.2020
3028 Clouds 27 1013 83 10000 3.1 200 00:32 13.02.2020
3029 Clouds 27 1012 83 10000 4.1 200 23:58 12.02.2020
3030 Clouds 27 1012 83 10000 3.6 200 23:38 12.02.2020
3031 Clouds 27 1012 83 10000 3.6 200 23:19 12.02.2020
3032 Clouds 27 1012 83 10000 4.6 210 22:44 12.02.2020
3033 Clouds 28 1012 78 10000 3.1 200 22:24 12.02.2020
3034 Clouds 27 1012 78 10000 3.6 190 21:58 12.02.2020
3035 Clouds 27 1012 78 10000 4.1 190 21:39 12.02.2020
3036 Clouds 28 1012 78 10000 4.1 190 21:19 12.02.2020
3037 Clouds 27 1012 83 10000 4.1 190 20:56 12.02.2020
3038 Clouds 28 1012 78 10000 3.1 180 20:37 12.02.2020
3039 Clouds 28 1012 78 10000 3.1 180 20:18 12.02.2020
3040 Clouds 28 1012 78 10000 3.1 180 20:18 12.02.2020
3041 Clouds 28 1013 78 10000 3.6 200 19:43 12.02.2020
3042 Clouds 28 1013 78 10000 3.6 190 19:23 12.02.2020
3043 Clouds 28 1013 78 10000 4.1 200 18:54 12.02.2020
3044 Clouds 28 1013 78 10000 5.1 190 18:36 12.02.2020
3045 Clouds 28 1013 78 10000 5.1 190 18:18 12.02.2020
3046 Clouds 28 1013 83 10000 5.7 190 17:42 12.02.2020
3047 Clouds 28 1013 83 10000 5.7 190 17:20 12.02.2020
3048 Clouds 28 1013 83 10000 5.1 190 16:57 12.02.2020
3049 Clouds 29 1013 79 10000 5.7 190 16:37 12.02.2020
3050 Clouds 29 1013 79 10000 5.7 190 16:18 12.02.2020
3051 Clouds 29 1012 78 10000 4.1 200 15:40 12.02.2020
3052 Clouds 29 1012 78 10000 4.1 200 15:20 12.02.2020
3053 Clouds 29 1012 74 10000 5.1 190 14:54 12.02.2020
3054 Clouds 29 1012 70 10000 4.6 190 14:36 12.02.2020
3055 Clouds 29 1012 70 10000 4.6 190 14:18 12.02.2020
3056 Clouds 29 1011 74 10000 5.1 200 13:55 12.02.2020
3057 Clouds 30 1011 70 10000 4.6 200 13:37 12.02.2020
3058 Clouds 30 1011 70 10000 4.6 200 13:18 12.02.2020
3059 Clouds 30 1011 66 10000 3.6 200 12:55 12.02.2020
3060 Clouds 31 1011 70 10000 5.1 200 12:36 12.02.2020
3061 Clouds 31 1011 70 10000 5.1 200 12:18 12.02.2020
3062 Clouds 32 1011 66 10000 5.7 200 11:42 12.02.2020
3063 Clouds 33 1011 62 10000 5.7 180 11:21 12.02.2020
3064 Clouds 33 1011 62 10000 6.2 180 10:59 12.02.2020
3065 Clouds 33 1011 59 10000 6.2 200 10:40 12.02.2020
3066 Clouds 33 1011 59 10000 6.2 200 10:21 12.02.2020
3067 Clouds 33 1011 55 10000 5.7 190 09:56 12.02.2020
3068 Clouds 33 1011 55 10000 5.7 190 09:56 12.02.2020
3069 Clouds 34 1011 52 10000 5.1 200 09:38 12.02.2020
3070 Clouds 33 1011 52 10000 5.1 200 09:19 12.02.2020
3071 Clouds 34 1011 49 10000 4.6 190 08:55 12.02.2020
3072 Clouds 34 1012 52 10000 4.1 180 08:36 12.02.2020
3073 Clouds 34 1012 52 10000 4.1 180 08:18 12.02.2020
3074 Clouds 33 1013 52 10000 4.1 200 07:41 12.02.2020
3075 Clouds 34 1013 52 10000 4.1 200 07:21 12.02.2020
3076 Clouds 34 1014 56 10000 5.1 200 06:52 12.02.2020
3077 Clouds 33 1014 55 10000 5.1 210 06:20 12.02.2020
3078 Clouds 33 1015 55 10000 4.1 190 05:33 12.02.2020
3079 Clouds 31 1015 59 10000 4.1 170 04:43 12.02.2020
3080 Clear 31 1016 79 8000 1.5 130 03:59 12.02.2020
3081 Clear 30 1015 83 7000 2.1 110 03:30 12.02.2020
3082 Clear 30 1015 78 7000 2.6 110 02:46 12.02.2020
3083 Clear 29 1015 88 7000 2.1 100 02:27 12.02.2020
3084 Rain 27 1014 88 6000 4.22 195 01:34 12.02.2020
3085 Clouds 27 1013 83 9000 1 160 00:41 12.02.2020
3086 Clouds 27 1013 83 9000 1 160 00:23 12.02.2020
3087 Clouds 27 1013 83 9000 1.5 170 23:52 11.02.2020
3088 Clouds 27 1013 83 9000 1.5 170 23:33 11.02.2020
3089 Clouds 27 1013 83 9000 1 0 22:58 11.02.2020
3090 Clouds 27 1013 83 9000 2.1 160 22:40 11.02.2020
3091 Clouds 27 1013 83 9000 2.1 160 22:20 11.02.2020
3092 Clouds 27 1013 83 9000 2.1 160 22:20 11.02.2020
3093 Clouds 27 1013 74 9000 1.5 170 21:57 11.02.2020
3094 Clouds 28 1013 74 9000 1.5 160 21:39 11.02.2020
3095 Clouds 27 1013 74 9000 1.5 160 21:19 11.02.2020
3096 Clouds 28 1013 74 9000 1.5 180 20:59 11.02.2020
3097 Clouds 28 1013 69 9000 1.5 170 20:39 11.02.2020
3098 Clouds 28 1013 69 9000 1.5 170 20:19 11.02.2020
3099 Clouds 28 1013 69 9000 2.1 170 19:58 11.02.2020
3100 Clouds 28 1013 66 9000 2.6 170 19:39 11.02.2020
3101 Clouds 28 1013 66 9000 2.6 170 19:39 11.02.2020
3102 Clouds 28 1013 66 9000 2.6 170 19:21 11.02.2020
3103 Clouds 28 1014 66 9000 2.6 190 18:45 11.02.2020
3104 Clouds 28 1014 62 9000 2.6 170 18:27 11.02.2020
3105 Clouds 28 1014 62 9000 2.6 190 17:57 11.02.2020
3106 Clouds 29 1014 66 9000 3.1 200 17:39 11.02.2020
3107 Clouds 29 1014 66 9000 3.1 200 17:19 11.02.2020
3108 Clouds 29 1014 62 9000 2.6 200 16:58 11.02.2020
3109 Clouds 29 1014 62 9000 2.6 200 16:39 11.02.2020
3110 Clouds 29 1014 62 9000 2.6 200 16:21 11.02.2020
3111 Clouds 30 1014 55 9000 3.1 190 15:57 11.02.2020
3112 Clouds 30 1013 52 9000 3.6 180 15:39 11.02.2020
3113 Clouds 30 1013 52 9000 3.6 180 15:20 11.02.2020
3114 Clouds 30 1012 46 9000 1.5 180 14:41 11.02.2020
3115 Clouds 31 1012 46 9000 1.5 180 14:19 11.02.2020
3116 Clouds 31 1012 46 9000 2.1 170 13:55 11.02.2020
3117 Clouds 32 1012 41 9000 2.1 120 13:37 11.02.2020
3118 Clouds 32 1012 41 9000 2.1 120 13:18 11.02.2020
3119 Clouds 32 1011 38 9000 2.6 120 12:41 11.02.2020
3120 Clouds 33 1011 38 9000 2.6 120 12:22 11.02.2020
3121 Clouds 33 1011 38 9000 2.6 130 11:58 11.02.2020
3122 Clouds 33 1011 38 9000 2.6 140 11:40 11.02.2020
3123 Clouds 34 1011 38 9000 2.6 140 11:19 11.02.2020
3124 Clouds 35 1011 39 9000 3.6 110 10:40 11.02.2020
3125 Clouds 35 1011 39 9000 3.6 110 10:21 11.02.2020
3126 Clouds 34 1011 36 9000 3.1 120 09:58 11.02.2020
3127 Clouds 34 1011 36 9000 3.1 120 09:58 11.02.2020
3128 Clouds 34 1012 41 9000 3.1 90 09:40 11.02.2020
3129 Clouds 34 1012 41 9000 3.1 90 09:22 11.02.2020
3130 Clouds 34 1013 41 9000 5.1 70 08:49 11.02.2020
3131 Clouds 34 1013 38 9000 3.6 100 08:25 11.02.2020
3132 Clouds 34 1014 41 9000 3.6 120 07:55 11.02.2020
3133 Clouds 34 1014 43 9000 3.1 90 07:34 11.02.2020
3134 Clouds 33 1015 46 9000 3.1 70 06:58 11.02.2020
3135 Clouds 33 1015 46 8000 3.1 60 06:39 11.02.2020
3136 Clouds 33 1015 46 8000 3.1 60 06:20 11.02.2020
3137 Clouds 33 1016 46 8000 4.1 70 05:44 11.02.2020
3138 Clouds 31 1016 48 8000 3.1 70 05:20 11.02.2020
3139 Clouds 30 1016 51 8000 2.1 80 04:18 11.02.2020
3140 Clouds 29 1014 58 7000 1.5 90 02:38 11.02.2020
3141 Clouds 28 1014 61 7000 1.5 70 01:59 11.02.2020
3142 Clouds 28 1014 65 7000 2.1 50 01:31 11.02.2020
3143 Clouds 27 1013 61 8000 1.5 80 00:26 11.02.2020
3144 Clouds 27 1013 58 9000 1.5 90 23:48 10.02.2020
3145 Clouds 27 1013 58 9000 1 120 23:30 10.02.2020
3146 Clouds 27 1013 58 9000 1.5 120 22:57 10.02.2020
3147 Clouds 27 1013 58 9000 1.78 111 22:37 10.02.2020
3148 Clouds 27 1013 58 9000 1.78 111 22:37 10.02.2020
3149 Clouds 28 1013 58 9000 1.78 111 22:19 10.02.2020
3150 Clouds 28 1013 58 9000 2.1 120 21:41 10.02.2020
3151 Clouds 28 1013 58 9000 2.1 120 21:23 10.02.2020
3152 Clouds 28 1013 54 9000 3.1 120 20:56 10.02.2020
3153 Clouds 29 1013 54 9000 2.6 120 20:38 10.02.2020
3154 Clouds 29 1013 54 9000 2.6 120 20:38 10.02.2020
3155 Clouds 29 1013 54 9000 2.6 120 20:19 10.02.2020
3156 Clouds 29 1014 54 9000 3.1 110 19:58 10.02.2020
3157 Clouds 29 1014 54 9000 2.1 110 19:37 10.02.2020
3158 Clouds 29 1014 54 9000 2.1 110 19:18 10.02.2020
3159 Clouds 29 1014 54 9000 2.1 110 18:58 10.02.2020
3160 Clouds 29 1015 54 9000 2.1 110 18:38 10.02.2020
3161 Clouds 29 1015 54 9000 2.1 110 18:20 10.02.2020
3162 Clouds 29 1015 54 9000 2.1 110 18:20 10.02.2020
3163 Clouds 30 1015 51 9000 3.1 120 17:54 10.02.2020
3164 Clouds 30 1015 51 9000 3.1 120 17:54 10.02.2020
3165 Clouds 30 1015 51 9000 3.1 90 17:36 10.02.2020
3166 Clouds 30 1015 51 9000 3.1 90 17:18 10.02.2020
3167 Clouds 30 1015 48 9000 2.1 70 16:56 10.02.2020
3168 Clouds 30 1015 48 9000 2.1 100 16:37 10.02.2020
3169 Clouds 31 1015 48 9000 2.1 100 16:18 10.02.2020
3170 Clouds 30 1014 48 10000 2.1 70 15:41 10.02.2020
3171 Clouds 30 1014 48 10000 2.1 70 15:22 10.02.2020
3172 Clouds 30 1014 48 10000 1.5 80 14:58 10.02.2020
3173 Clouds 30 1014 48 10000 1 0 14:40 10.02.2020
3174 Clouds 30 1014 48 10000 1 0 14:19 10.02.2020
3175 Clouds 30 1014 48 10000 1 0 14:19 10.02.2020
3176 Clouds 30 1013 48 10000 1.5 60 13:55 10.02.2020
3177 Clouds 30 1013 48 10000 2.1 40 13:37 10.02.2020
3178 Clouds 30 1013 48 10000 2.1 40 13:18 10.02.2020
3179 Clouds 30 1013 45 10000 2.1 110 12:42 10.02.2020
3180 Clouds 31 1012 45 10000 2.6 80 12:24 10.02.2020
3181 Clouds 31 1012 43 10000 2.6 80 11:54 10.02.2020
3182 Clouds 31 1012 43 10000 2.6 80 11:54 10.02.2020
3183 Clouds 31 1012 43 10000 2.6 70 11:36 10.02.2020
3184 Clouds 32 1012 43 10000 2.6 70 11:18 10.02.2020
3185 Clouds 32 1012 41 10000 2.1 0 10:42 10.02.2020
3186 Clouds 32 1012 43 10000 2.1 60 10:23 10.02.2020
3187 Clouds 33 1012 43 10000 3.6 40 09:44 10.02.2020
3188 Clouds 32 1012 43 10000 3.1 70 09:23 10.02.2020
3189 Clouds 33 1013 46 10000 3.6 110 08:41 10.02.2020
3190 Clouds 32 1013 46 10000 3.6 110 08:22 10.02.2020
3191 Clouds 32 1014 43 10000 4.6 60 07:55 10.02.2020
3192 Clouds 32 1015 48 10000 4.1 60 07:35 10.02.2020
3193 Clouds 32 1015 45 10000 4.1 80 06:53 10.02.2020
3194 Clouds 32 1016 51 10000 6.7 90 05:41 10.02.2020
3195 Clouds 28 1016 51 10000 7.2 90 04:23 10.02.2020
3196 Clouds 28 1016 57 9000 4.1 100 03:28 10.02.2020
3197 Clouds 26 1016 61 9000 4.1 110 02:53 10.02.2020
3198 Clouds 25 1015 65 9000 2.1 110 01:34 10.02.2020
3199 Clouds 25 1014 65 9000 2.1 120 00:46 10.02.2020
3200 Clouds 26 1014 61 9000 1.5 130 00:27 10.02.2020
3201 Clouds 25 1013 57 9000 1 110 23:43 09.02.2020
3202 Clouds 25 1013 61 9000 1.5 70 23:24 09.02.2020
3203 Clouds 26 1013 61 9000 1.5 60 22:57 09.02.2020
3204 Clouds 26 1012 61 9000 2.6 20 22:37 09.02.2020
3205 Clouds 26 1012 61 9000 2.6 20 22:19 09.02.2020
3206 Clouds 26 1013 57 9000 1.5 350 21:41 09.02.2020
3207 Clouds 26 1013 57 9000 1.5 350 21:22 09.02.2020
3208 Clouds 26 1013 57 9000 1.5 350 21:22 09.02.2020
3209 Clouds 26 1013 54 9000 2.1 10 20:46 09.02.2020
3210 Clouds 27 1013 48 9000 2.1 10 20:22 09.02.2020
3211 Clouds 26 1013 51 9000 3.1 30 19:57 09.02.2020
3212 Clouds 26 1013 51 9000 3.1 30 19:57 09.02.2020
3213 Clouds 27 1013 54 9000 3.1 30 19:38 09.02.2020
3214 Clouds 27 1013 54 9000 3.1 30 19:20 09.02.2020
3215 Clouds 27 1013 54 9000 3.1 30 18:42 09.02.2020
3216 Clouds 27 1013 57 9000 1.5 40 18:23 09.02.2020
3217 Clouds 27 1013 61 9000 2.1 50 17:59 09.02.2020
3218 Clouds 27 1013 61 9000 2.1 40 17:39 09.02.2020
3219 Clouds 28 1013 61 9000 2.1 40 17:21 09.02.2020
3220 Clouds 28 1013 54 9000 2.6 70 16:41 09.02.2020
3221 Clouds 28 1013 54 9000 2.6 70 16:22 09.02.2020
3222 Clouds 29 1013 51 9000 2.1 20 15:59 09.02.2020
3223 Clouds 29 1013 51 9000 2.1 20 15:59 09.02.2020
3224 Clouds 28 1013 51 9000 2.1 350 15:41 09.02.2020
3225 Clouds 29 1013 51 9000 2.1 350 15:21 09.02.2020
3226 Clouds 29 1013 51 9000 2.6 320 14:57 09.02.2020
3227 Clouds 29 1013 51 9000 2.6 300 14:38 09.02.2020
3228 Clouds 30 1013 51 9000 2.6 300 14:20 09.02.2020
3229 Clouds 30 1012 48 9000 2.6 300 13:43 09.02.2020
3230 Clouds 30 1012 48 9000 3.1 310 13:25 09.02.2020
3231 Clouds 30 1012 52 9000 2.6 330 12:56 09.02.2020
3232 Clouds 31 1012 40 10000 2.1 60 12:37 09.02.2020
3233 Clouds 31 1012 40 10000 2.1 60 12:18 09.02.2020
3234 Clouds 31 1011 38 10000 3.1 50 11:40 09.02.2020
3235 Clouds 32 1011 38 10000 3.1 50 11:20 09.02.2020
3236 Clouds 33 1011 38 10000 3.1 60 10:57 09.02.2020
3237 Clouds 33 1011 38 10000 2.6 60 10:38 09.02.2020
3238 Clouds 33 1011 38 10000 2.6 60 10:19 09.02.2020
3239 Clouds 33 1012 38 10000 3.1 70 09:41 09.02.2020
3240 Clouds 33 1012 38 10000 3.1 70 09:21 09.02.2020
3241 Clouds 33 1013 41 10000 4.1 30 08:44 09.02.2020
3242 Clouds 33 1013 43 9000 4.1 90 08:26 09.02.2020
3243 Clouds 33 1014 46 9000 4.1 90 07:57 09.02.2020
3244 Clouds 32 1015 46 9000 4.1 50 07:34 09.02.2020
3245 Clouds 33 1016 48 9000 1.5 50 06:44 09.02.2020
3246 Clouds 33 1017 48 9000 4.1 70 05:56 09.02.2020
3247 Clouds 32 1017 55 8000 4.1 80 05:35 09.02.2020
3248 Clouds 30 1018 54 7000 5.1 100 04:52 09.02.2020
3249 Mist 30 1017 88 4000 3.6 80 03:30 09.02.2020
3250 Mist 28 1017 88 4000 2.1 30 02:43 09.02.2020
3251 Mist 26 1016 100 3000 1.5 60 01:45 09.02.2020
3252 Mist 26 1015 94 3000 1.5 80 01:27 09.02.2020
3253 Mist 25 1015 94 5000 2.89 104 00:38 09.02.2020
3254 Mist 25 1015 94 5000 2.89 104 00:18 09.02.2020
3255 Clouds 25 1014 94 8000 2.1 70 23:41 08.02.2020
3256 Clouds 26 1014 94 8000 2.1 70 23:19 08.02.2020
3257 Clouds 26 1014 88 8000 1.5 100 22:40 08.02.2020
3258 Clouds 26 1014 88 8000 1.5 100 22:21 08.02.2020
3259 Clouds 26 1014 88 8000 1.5 100 21:54 08.02.2020
3260 Clouds 26 1014 83 8000 3.25 184 21:36 08.02.2020
3261 Clouds 26 1014 83 8000 3.25 184 21:18 08.02.2020
3262 Clouds 26 1014 83 8000 1.5 150 20:54 08.02.2020
3263 Clouds 26 1014 83 8000 1.5 150 20:54 08.02.2020
3264 Clouds 27 1014 83 8000 3.25 184 20:36 08.02.2020
3265 Clouds 27 1014 83 8000 4.64 176 20:18 08.02.2020
3266 Clouds 27 1014 83 8000 1 160 19:40 08.02.2020
3267 Clouds 27 1014 83 8000 1 160 19:20 08.02.2020
3268 Clouds 27 1015 83 8000 1 150 18:58 08.02.2020
3269 Clouds 27 1015 83 8000 2.1 200 18:39 08.02.2020
3270 Clouds 27 1015 83 8000 2.1 200 18:21 08.02.2020
3271 Clouds 27 1015 83 8000 2.1 200 17:42 08.02.2020
3272 Clouds 28 1015 83 8000 2.1 200 17:21 08.02.2020
3273 Clouds 28 1015 78 8000 3.6 200 16:56 08.02.2020
3274 Clouds 28 1015 78 8000 4.1 190 16:37 08.02.2020
3275 Clouds 28 1015 78 8000 4.1 190 16:18 08.02.2020
3276 Clouds 29 1014 66 8000 3.1 180 15:40 08.02.2020
3277 Clouds 29 1014 66 8000 3.1 180 15:18 08.02.2020
3278 Clouds 29 1014 62 8000 3.1 260 14:46 08.02.2020
3279 Clear 29 1013 58 8000 0.5 0 14:24 08.02.2020
3280 Clear 30 1013 55 8000 1.5 30 13:59 08.02.2020
3281 Clear 30 1012 55 7000 2.1 70 13:41 08.02.2020
3282 Clear 30 1012 55 7000 2.1 70 13:23 08.02.2020
3283 Clear 30 1012 52 7000 1.5 110 12:49 08.02.2020
3284 Clear 31 1012 49 8000 1.5 120 12:23 08.02.2020
3285 Clear 31 1012 49 8000 1.5 120 12:23 08.02.2020
3286 Clear 32 1012 49 8000 1 0 11:58 08.02.2020
3287 Clear 32 1011 46 8000 2.1 130 11:40 08.02.2020
3288 Clear 33 1011 46 8000 2.1 130 11:20 08.02.2020
3289 Clear 34 1011 46 9000 1.5 0 10:42 08.02.2020
3290 Clear 34 1012 46 9000 2.6 120 10:22 08.02.2020
3291 Clear 34 1012 46 9000 2.6 120 10:22 08.02.2020
3292 Clear 34 1012 46 9000 2.6 120 10:22 08.02.2020
3293 Clouds 34 1012 46 10000 2.1 0 09:53 08.02.2020
3294 Clouds 34 1012 46 10000 2.1 0 09:29 08.02.2020
3295 Clouds 34 1012 49 10000 3.6 130 08:56 08.02.2020
3296 Clouds 34 1013 49 10000 4.1 100 08:38 08.02.2020
3297 Clouds 33 1013 49 10000 4.1 100 08:20 08.02.2020
3298 Clouds 33 1014 49 10000 3.1 120 07:45 08.02.2020
3299 Clouds 33 1014 52 10000 3.1 110 07:23 08.02.2020
3300 Clouds 33 1015 59 10000 3.6 80 06:30 08.02.2020
3301 Clouds 33 1015 59 10000 3.6 80 06:30 08.02.2020
3302 Clouds 32 1016 70 9000 2.6 120 05:48 08.02.2020
3303 Clouds 32 1016 70 8000 1.5 80 05:30 08.02.2020
3304 Clouds 30 1016 79 8000 1.5 80 04:49 08.02.2020
3305 Clouds 30 1016 83 6000 1.5 110 03:53 08.02.2020
3306 Mist 27 1015 88 4900 2.6 110 02:52 08.02.2020
3307 Mist 26 1014 94 3000 2.6 110 01:55 08.02.2020
3308 Mist 26 1014 94 3000 3.1 110 01:26 08.02.2020
3309 Mist 25 1013 94 4000 2.6 110 00:43 08.02.2020
3310 Mist 26 1013 94 4000 1.5 110 00:22 08.02.2020
3311 Mist 25 1013 94 5000 1.5 100 23:55 07.02.2020
3312 Clouds 26 1012 88 9000 1 110 23:37 07.02.2020
3313 Clouds 26 1012 88 9000 1 110 23:18 07.02.2020
3314 Clouds 26 1012 88 9000 4.15 181 22:39 07.02.2020
3315 Clouds 26 1012 88 9000 4.15 181 22:19 07.02.2020
3316 Clouds 26 1012 94 9000 1.5 130 21:43 07.02.2020
3317 Clouds 26 1012 94 9000 1.5 160 21:22 07.02.2020
3318 Clouds 26 1012 88 9000 1.5 170 20:57 07.02.2020
3319 Clouds 26 1012 88 9000 2.1 170 20:38 07.02.2020
3320 Clouds 27 1012 88 9000 2.1 170 20:18 07.02.2020
3321 Clouds 27 1013 83 9000 2.1 180 19:40 07.02.2020
3322 Clouds 27 1013 83 9000 2.1 180 19:21 07.02.2020
3323 Clouds 27 1013 83 9000 2.1 180 18:56 07.02.2020
3324 Clouds 27 1013 78 9000 2.6 180 18:38 07.02.2020
3325 Clouds 27 1013 78 9000 2.6 180 18:19 07.02.2020
3326 Clouds 28 1013 78 9000 2.6 190 17:43 07.02.2020
3327 Clouds 28 1013 78 9000 2.6 180 17:22 07.02.2020
3328 Clouds 28 1013 74 9000 2.6 180 16:55 07.02.2020
3329 Clouds 27 1013 74 9000 3.1 200 16:37 07.02.2020
3330 Clouds 27 1013 74 9000 3.1 200 16:19 07.02.2020
3331 Clouds 28 1013 70 9000 3.1 200 15:44 07.02.2020
3332 Clouds 28 1013 62 9000 3.1 240 15:21 07.02.2020
3333 Clouds 29 1012 58 9000 3.1 250 14:44 07.02.2020
3334 Clouds 29 1012 58 9000 3.6 240 14:26 07.02.2020
3335 Clouds 29 1012 58 9000 3.6 250 13:58 07.02.2020
3336 Clouds 29 1011 58 9000 3.6 250 13:39 07.02.2020
3337 Clouds 29 1011 58 9000 3.6 250 13:39 07.02.2020
3338 Clouds 29 1011 58 9000 3.6 250 13:21 07.02.2020
3339 Clouds 30 1011 62 9000 2.6 210 12:55 07.02.2020
3340 Clouds 30 1011 62 9000 2.6 210 12:55 07.02.2020
3341 Clouds 31 1011 43 9000 0.5 0 12:36 07.02.2020
3342 Clouds 31 1011 43 9000 0.5 0 12:18 07.02.2020
3343 Clouds 32 1010 41 9000 2.1 160 11:41 07.02.2020
3344 Clouds 33 1010 41 9000 2.1 160 11:20 07.02.2020
3345 Clouds 34 1011 41 9000 2.6 180 10:41 07.02.2020
3346 Clouds 34 1011 41 9000 2.6 180 10:22 07.02.2020
3347 Clouds 33 1011 44 9000 1.5 0 09:56 07.02.2020
3348 Clouds 34 1011 46 9000 1 0 09:37 07.02.2020
3349 Clouds 34 1011 46 9000 1 0 09:19 07.02.2020
3350 Clouds 33 1011 49 9000 1.5 0 08:42 07.02.2020
3351 Clouds 32 1012 52 9000 2.6 0 08:20 07.02.2020
3352 Clouds 33 1013 55 9000 1.5 0 07:44 07.02.2020
3353 Clouds 33 1013 55 9000 2.6 0 07:26 07.02.2020
3354 Clouds 33 1014 62 9000 2.6 60 06:45 07.02.2020
3355 Clouds 33 1015 66 9000 2.1 250 06:25 07.02.2020
3356 Clouds 33 1015 66 9000 1.5 140 05:44 07.02.2020
3357 Clouds 29 1016 74 8000 1 0 04:33 07.02.2020
3358 Mist 27 1015 94 5000 1.5 90 02:33 07.02.2020
3359 Mist 26 1014 94 5000 2.1 80 01:37 07.02.2020
3360 Clouds 26 1014 94 6000 1.5 50 00:45 07.02.2020
3361 Clouds 26 1013 94 7000 1 80 00:18 07.02.2020
3362 Clouds 26 1013 94 8000 1 60 23:37 06.02.2020
3363 Clouds 26 1013 94 8000 1 60 23:18 06.02.2020
3364 Clouds 26 1012 94 8000 1.5 40 22:43 06.02.2020
3365 Clouds 26 1012 94 9000 1 100 22:24 06.02.2020
3366 Clouds 26 1012 83 9000 1.5 150 21:37 06.02.2020
3367 Clouds 27 1012 83 9000 1.5 150 21:19 06.02.2020
3368 Clouds 26 1013 88 9000 1 170 20:57 06.02.2020
3369 Clouds 26 1013 88 9000 1 170 20:57 06.02.2020
3370 Clouds 26 1013 83 9000 3.65 203 20:38 06.02.2020
3371 Clouds 26 1013 83 9000 6.15 209 20:19 06.02.2020
3372 Clouds 27 1013 83 9000 3.1 190 19:58 06.02.2020
3373 Clouds 27 1013 83 9000 4.1 200 19:40 06.02.2020
3374 Clouds 27 1013 83 9000 4.1 200 19:21 06.02.2020
3375 Clouds 27 1013 83 9000 4.6 200 18:58 06.02.2020
3376 Clouds 27 1013 83 9000 3.6 200 18:39 06.02.2020
3377 Clouds 27 1013 83 9000 3.6 200 18:20 06.02.2020
3378 Clouds 28 1013 78 9000 3.6 190 17:42 06.02.2020
3379 Clouds 28 1013 78 9000 3.6 190 17:21 06.02.2020
3380 Clouds 28 1013 78 9000 4.6 190 16:57 06.02.2020
3381 Clouds 28 1013 78 9000 4.6 190 16:39 06.02.2020
3382 Clouds 28 1013 78 9000 4.6 190 16:20 06.02.2020
3383 Clouds 28 1013 74 9000 4.1 190 15:42 06.02.2020
3384 Clouds 28 1013 74 9000 4.1 190 15:21 06.02.2020
3385 Clouds 28 1012 74 9000 3.6 190 14:48 06.02.2020
3386 Clouds 28 1012 74 9000 3.1 180 14:26 06.02.2020
3387 Clouds 29 1012 70 9000 3.1 190 13:55 06.02.2020
3388 Clouds 29 1011 70 9000 4.1 190 13:36 06.02.2020
3389 Clouds 29 1011 70 9000 4.1 190 13:18 06.02.2020
3390 Clouds 29 1011 62 9000 4.1 180 12:43 06.02.2020
3391 Clouds 31 1011 58 10000 4.6 190 12:18 06.02.2020
3392 Clouds 31 1010 52 10000 3.6 200 11:56 06.02.2020
3393 Clouds 31 1010 52 10000 3.6 200 11:56 06.02.2020
3394 Clouds 31 1010 52 10000 3.6 190 11:37 06.02.2020
3395 Clouds 32 1010 52 10000 3.6 190 11:18 06.02.2020
3396 Clouds 32 1010 49 10000 3.1 230 10:41 06.02.2020
3397 Clouds 32 1010 49 10000 3.1 230 10:22 06.02.2020
3398 Clouds 33 1010 44 10000 3.1 160 09:59 06.02.2020
3399 Clouds 33 1010 46 10000 2.6 200 09:41 06.02.2020
3400 Clouds 32 1010 46 10000 2.6 200 09:20 06.02.2020
3401 Clouds 32 1011 49 10000 3.1 210 08:46 06.02.2020
3402 Clouds 32 1011 49 9000 3.1 200 08:24 06.02.2020
3403 Clouds 31 1012 52 8000 3.1 200 07:56 06.02.2020
3404 Clouds 31 1013 58 8000 3.6 200 07:32 06.02.2020
3405 Clouds 32 1013 59 8000 3.6 170 06:53 06.02.2020
3406 Clouds 32 1014 55 8000 2.6 180 06:19 06.02.2020
3407 Clouds 31 1015 62 8000 3.1 210 05:33 06.02.2020
3408 Clouds 28 1015 78 8000 1.5 70 03:49 06.02.2020
3409 Clouds 28 1015 83 8000 1.5 90 03:18 06.02.2020
3410 Clouds 26 1014 94 8000 1.5 80 01:56 06.02.2020
3411 Clouds 26 1013 94 10000 2.6 80 01:24 06.02.2020
3412 Clouds 25 1012 88 10000 3.99 221 00:38 06.02.2020
3413 Clouds 25 1012 88 10000 3.99 221 00:19 06.02.2020
3414 Clouds 26 1011 94 10000 3.99 221 23:40 05.02.2020
3415 Clouds 26 1011 94 10000 3.99 221 23:22 05.02.2020
3416 Clouds 26 1011 83 10000 1 150 22:41 05.02.2020
3417 Clouds 26 1011 83 10000 1 150 22:23 05.02.2020
3418 Clouds 25 1011 88 10000 1 140 21:57 05.02.2020
3419 Clouds 27 1012 78 10000 2.1 160 21:39 05.02.2020
3420 Clouds 27 1012 78 10000 2.1 160 21:39 05.02.2020
3421 Clouds 27 1012 78 10000 2.1 160 21:20 05.02.2020
3422 Clouds 27 1012 83 10000 1.5 140 20:39 05.02.2020
3423 Clouds 27 1012 83 10000 1.5 140 20:39 05.02.2020
3424 Clouds 27 1012 83 10000 1.5 140 20:21 05.02.2020
3425 Clouds 27 1012 83 10000 2.6 180 19:59 05.02.2020
3426 Clouds 27 1012 78 10000 3.1 190 19:40 05.02.2020
3427 Clouds 27 1012 78 10000 3.1 190 19:19 05.02.2020
3428 Clouds 27 1012 78 10000 4.1 200 18:57 05.02.2020
3429 Clouds 27 1012 78 10000 4.1 200 18:57 05.02.2020
3430 Clouds 28 1013 74 10000 4.1 200 18:39 05.02.2020
3431 Clouds 28 1013 74 10000 4.1 200 18:19 05.02.2020
3432 Clouds 27 1013 78 10000 3.1 200 17:39 05.02.2020
3433 Clouds 28 1013 78 10000 3.1 200 17:20 05.02.2020
3434 Clouds 27 1013 78 10000 2.6 190 16:57 05.02.2020
3435 Clouds 28 1013 78 10000 2.6 210 16:39 05.02.2020
3436 Clouds 28 1013 78 10000 2.6 210 16:20 05.02.2020
3437 Clouds 28 1012 74 10000 3.6 200 15:46 05.02.2020
3438 Clouds 28 1012 74 10000 3.6 200 15:20 05.02.2020
3439 Clouds 28 1012 74 10000 3.1 200 14:59 05.02.2020
3440 Clouds 28 1012 74 10000 3.1 200 14:59 05.02.2020
3441 Clouds 28 1011 74 10000 3.6 200 14:40 05.02.2020
3442 Clouds 29 1011 74 10000 3.6 200 14:21 05.02.2020
3443 Clouds 29 1011 70 10000 4.6 190 13:43 05.02.2020
3444 Clouds 29 1011 70 10000 3.6 190 13:23 05.02.2020
3445 Clouds 30 1010 66 10000 5.1 200 12:58 05.02.2020
3446 Clouds 30 1010 58 10000 5.1 190 12:36 05.02.2020
3447 Clouds 30 1010 58 10000 5.1 190 12:18 05.02.2020
3448 Clouds 32 1009 43 10000 3.6 160 11:41 05.02.2020
3449 Clouds 32 1009 43 10000 3.6 160 11:22 05.02.2020
3450 Clouds 33 1009 38 10000 4.1 190 10:57 05.02.2020
3451 Clouds 33 1009 38 10000 3.1 180 10:39 05.02.2020
3452 Clouds 33 1009 38 10000 3.1 180 10:39 05.02.2020
3453 Clouds 33 1009 38 10000 3.1 180 10:18 05.02.2020
3454 Clouds 33 1009 36 10000 4.1 180 09:39 05.02.2020
3455 Clouds 33 1009 36 10000 4.1 180 09:21 05.02.2020
3456 Clouds 33 1010 38 10000 4.1 130 08:48 05.02.2020
3457 Clouds 33 1010 41 10000 4.1 200 08:25 05.02.2020
3458 Clouds 33 1011 38 10000 4.6 190 07:58 05.02.2020
3459 Clouds 32 1012 46 10000 3.6 150 07:39 05.02.2020
3460 Clouds 33 1012 46 10000 3.6 150 07:18 05.02.2020
3461 Clouds 32 1013 46 10000 4.1 170 06:39 05.02.2020
3462 Clouds 32 1013 46 10000 4.1 170 06:20 05.02.2020
3463 Clouds 31 1014 58 9000 3.6 160 05:20 05.02.2020
3464 Clouds 30 1014 66 9000 2.6 180 04:54 05.02.2020
3465 Clouds 29 1014 78 7000 2.6 140 03:58 05.02.2020
3466 Mist 27 1013 88 3000 2.6 120 02:39 05.02.2020
3467 Mist 26 1013 88 3000 2.6 120 02:19 05.02.2020
3468 Mist 26 1012 94 3000 2.6 110 01:25 05.02.2020
3469 Clouds 26 1011 88 8000 2.1 100 00:21 05.02.2020
3470 Clouds 26 1011 83 8000 1 110 23:40 04.02.2020
3471 Clouds 26 1011 83 8000 1 110 23:19 04.02.2020
3472 Clouds 26 1011 83 8000 1 110 23:19 04.02.2020
3473 Clouds 26 1011 83 8000 1 130 22:57 04.02.2020
3474 Clouds 26 1011 83 8000 4.84 196 22:39 04.02.2020
3475 Clouds 26 1011 83 8000 4.84 196 22:20 04.02.2020
3476 Clouds 26 1011 78 8000 1.5 160 21:54 04.02.2020
3477 Clouds 27 1011 78 8000 2.1 160 21:36 04.02.2020
3478 Clouds 27 1011 78 8000 2.1 160 21:18 04.02.2020
3479 Clouds 27 1012 78 9000 3.1 170 20:42 04.02.2020
3480 Clouds 27 1012 78 9000 3.1 170 20:21 04.02.2020
3481 Clouds 27 1012 78 9000 3.1 180 19:59 04.02.2020
3482 Clouds 27 1012 78 9000 3.6 180 19:40 04.02.2020
3483 Clouds 27 1012 78 9000 3.6 180 19:22 04.02.2020
3484 Clouds 27 1012 78 9000 3.1 190 18:56 04.02.2020
3485 Clouds 27 1012 78 9000 3.1 190 18:37 04.02.2020
3486 Clouds 27 1012 78 9000 3.1 190 18:19 04.02.2020
3487 Clouds 27 1013 78 9000 4.1 190 17:43 04.02.2020
3488 Clouds 27 1013 78 9000 4.1 190 17:43 04.02.2020
3489 Clouds 27 1013 78 9000 4.1 190 17:21 04.02.2020
3490 Clouds 28 1013 74 9000 4.1 190 16:56 04.02.2020
3491 Clouds 28 1013 78 9000 3.1 190 16:37 04.02.2020
3492 Clouds 28 1013 78 9000 3.1 190 16:19 04.02.2020
3493 Clouds 28 1012 74 9000 3.6 190 15:56 04.02.2020
3494 Clouds 28 1012 78 9000 4.1 200 15:37 04.02.2020
3495 Clouds 27 1012 78 9000 4.1 200 15:18 04.02.2020
3496 Clouds 28 1012 74 9000 4.1 190 14:42 04.02.2020
3497 Clouds 28 1012 74 9000 4.1 190 14:23 04.02.2020
3498 Clouds 28 1011 74 9000 5.1 190 13:57 04.02.2020
3499 Clouds 29 1011 70 9000 3.6 190 13:39 04.02.2020
3500 Clouds 29 1011 70 9000 3.6 190 13:19 04.02.2020
3501 Clouds 29 1011 66 9000 4.1 200 12:44 04.02.2020
3502 Clouds 30 1010 58 9000 4.1 200 12:25 04.02.2020
3503 Clouds 31 1010 55 9000 3.6 190 11:58 04.02.2020
3504 Clouds 31 1010 52 9000 3.1 210 11:39 04.02.2020
3505 Clouds 32 1010 52 9000 3.1 210 11:20 04.02.2020
3506 Clouds 32 1010 49 9000 3.1 180 10:50 04.02.2020
3507 Clouds 32 1010 49 9000 3.6 200 10:28 04.02.2020
3508 Clouds 32 1010 46 9000 4.1 230 09:58 04.02.2020
3509 Clouds 33 1010 46 9000 3.6 190 09:40 04.02.2020
3510 Clouds 33 1010 46 9000 3.6 190 09:21 04.02.2020
3511 Clouds 32 1010 46 9000 3.1 210 08:49 04.02.2020
3512 Clouds 32 1011 46 9000 3.1 190 08:28 04.02.2020
3513 Clouds 32 1012 49 9000 4.1 210 07:57 04.02.2020
3514 Clouds 32 1012 52 9000 4.6 210 07:37 04.02.2020
3515 Clouds 32 1012 52 9000 4.6 210 07:18 04.02.2020
3516 Clouds 32 1014 58 9000 4.6 200 06:42 04.02.2020
3517 Clouds 31 1014 66 8000 1.5 150 05:37 04.02.2020
3518 Rain 30 1015 70 6000 2.1 120 04:41 04.02.2020
3519 Mist 29 1014 78 5000 2.1 110 03:49 04.02.2020
3520 Mist 29 1014 83 4500 2.1 110 03:30 04.02.2020
3521 Mist 27 1014 88 4000 1.5 110 02:49 04.02.2020
3522 Mist 27 1014 88 3000 1.5 110 02:28 04.02.2020
3523 Mist 26 1013 88 2500 1.5 110 01:47 04.02.2020
3524 Mist 26 1013 88 3000 1.5 90 01:19 04.02.2020
3525 Mist 26 1012 94 4000 2.1 110 00:23 04.02.2020
3526 Mist 26 1012 94 4000 5.82 192 23:55 03.02.2020
3527 Mist 26 1012 94 5000 5.82 192 23:37 03.02.2020
3528 Mist 26 1012 94 5000 5.8 189 23:18 03.02.2020
3529 Clouds 26 1011 94 6000 5.8 189 22:38 03.02.2020
3530 Clouds 26 1011 94 6000 5.8 189 22:19 03.02.2020
3531 Clouds 27 1012 83 9000 1 130 21:42 03.02.2020
3532 Clouds 27 1012 83 9000 1 130 21:20 03.02.2020
3533 Clouds 27 1012 83 9000 1.5 150 20:56 03.02.2020
3534 Clouds 27 1013 88 9000 1.5 210 20:38 03.02.2020
3535 Clouds 27 1013 88 9000 1.5 210 20:18 03.02.2020
3536 Clouds 27 1013 83 9000 2.6 180 19:42 03.02.2020
3537 Clouds 27 1013 83 9000 2.6 180 19:23 03.02.2020
3538 Clouds 27 1013 83 7000 3.1 190 18:59 03.02.2020
3539 Clouds 27 1013 83 7000 3.1 190 18:40 03.02.2020
3540 Clouds 27 1013 83 7000 3.1 190 18:21 03.02.2020
3541 Clouds 26 1013 83 7000 3.1 190 17:57 03.02.2020
3542 Clouds 26 1013 83 7000 3.6 190 17:39 03.02.2020
3543 Clouds 27 1013 83 7000 3.6 190 17:19 03.02.2020
3544 Clouds 27 1013 78 7000 3.1 190 16:40 03.02.2020
3545 Clouds 27 1013 78 7000 3.1 190 16:21 03.02.2020
3546 Clouds 28 1013 74 7000 3.6 190 15:57 03.02.2020
3547 Clouds 27 1012 83 7000 4.1 200 15:39 03.02.2020
3548 Clouds 27 1012 83 7000 4.1 200 15:20 03.02.2020
3549 Clouds 27 1012 83 7000 3.6 200 14:57 03.02.2020
3550 Clouds 28 1012 78 7000 5.1 200 14:38 03.02.2020
3551 Clouds 29 1012 78 7000 5.1 200 14:19 03.02.2020
3552 Clouds 29 1011 70 7000 3.6 190 13:42 03.02.2020
3553 Clouds 29 1011 70 7000 3.6 190 13:21 03.02.2020
3554 Clouds 29 1011 66 7000 4.1 190 12:58 03.02.2020
3555 Clouds 29 1011 58 7000 3.6 190 12:39 03.02.2020
3556 Clouds 30 1011 58 7000 3.6 190 12:21 03.02.2020
3557 Clouds 31 1011 52 7000 3.1 200 11:55 03.02.2020
3558 Clouds 31 1010 52 7000 2.6 200 11:36 03.02.2020
3559 Clouds 31 1010 52 7000 2.6 200 11:36 03.02.2020
3560 Clouds 32 1010 52 7000 2.6 200 11:18 03.02.2020
3561 Clouds 33 1010 49 7000 2.6 180 10:40 03.02.2020
3562 Clouds 32 1010 49 7000 2.6 180 10:21 03.02.2020
3563 Clouds 33 1011 46 7000 1.5 220 09:44 03.02.2020
3564 Clouds 33 1011 44 7000 2.6 160 09:21 03.02.2020
3565 Clouds 33 1012 44 7000 1.5 0 08:42 03.02.2020
3566 Clouds 33 1012 44 7000 1.5 0 08:23 03.02.2020
3567 Clouds 33 1013 46 7000 3.1 150 07:58 03.02.2020
3568 Clouds 33 1013 46 7000 3.1 170 07:39 03.02.2020
3569 Clouds 32 1013 46 7000 3.1 170 07:21 03.02.2020
3570 Clouds 32 1014 55 7000 2.6 190 06:47 03.02.2020
3571 Clouds 32 1014 52 7000 3.6 180 06:27 03.02.2020
3572 Clouds 31 1015 70 6000 1.5 0 05:36 03.02.2020
3573 Mist 30 1016 74 5000 2.1 150 04:56 03.02.2020
3574 Mist 27 1015 83 2000 2.1 120 02:58 03.02.2020
3575 Mist 26 1015 88 2000 2.6 110 02:33 03.02.2020
3576 Mist 25 1014 88 2000 1.5 110 01:25 03.02.2020
3577 Mist 24 1014 94 3000 1.5 110 00:45 03.02.2020
3578 Mist 24 1014 94 3000 2.79 197 00:21 03.02.2020
3579 Mist 24 1013 94 5000 3.1 110 23:37 02.02.2020
3580 Mist 25 1013 94 5000 3.1 110 23:19 02.02.2020
3581 Clear 26 1013 94 6000 2.6 100 22:55 02.02.2020
3582 Clear 26 1013 88 7000 1 110 22:36 02.02.2020
3583 Clear 26 1013 88 7000 1 110 22:36 02.02.2020
3584 Clear 26 1013 88 7000 1 110 22:36 02.02.2020
3585 Clear 25 1013 88 7000 1 110 22:18 02.02.2020
3586 Clear 25 1013 83 8000 3.34 178 21:41 02.02.2020
3587 Clear 25 1013 83 8000 3.34 178 21:22 02.02.2020
3588 Clear 25 1014 88 8000 3.34 178 20:58 02.02.2020
3589 Clear 25 1014 88 8000 1.5 140 20:39 02.02.2020
3590 Clear 25 1014 88 8000 1.5 140 20:20 02.02.2020
3591 Clear 25 1014 83 8000 1.5 140 19:59 02.02.2020
3592 Clear 25 1014 83 8000 1.5 140 19:59 02.02.2020
3593 Clear 26 1014 83 8000 1 190 19:41 02.02.2020
3594 Clear 26 1014 83 8000 1 190 19:22 02.02.2020
3595 Clear 26 1014 83 8000 2.1 200 18:57 02.02.2020
3596 Clouds 26 1014 83 8000 2.1 200 18:37 02.02.2020
3597 Clouds 26 1014 83 8000 2.1 200 18:19 02.02.2020
3598 Clouds 27 1014 78 8000 2.1 180 17:57 02.02.2020
3599 Clouds 27 1014 78 8000 1.5 180 17:37 02.02.2020
3600 Clouds 27 1014 78 8000 1.5 180 17:18 02.02.2020
3601 Clouds 27 1014 78 8000 1.5 170 16:57 02.02.2020
3602 Clouds 27 1014 83 8000 2.1 210 16:38 02.02.2020
3603 Clouds 27 1014 83 8000 2.1 210 16:18 02.02.2020
3604 Clouds 28 1014 74 8000 2.6 190 15:56 02.02.2020
3605 Clouds 28 1014 69 8000 2.6 170 15:37 02.02.2020
3606 Clouds 28 1014 69 8000 2.6 170 15:19 02.02.2020
3607 Clouds 28 1014 61 8000 2.1 190 14:44 02.02.2020
3608 Clouds 29 1013 48 9000 5.24 214 14:19 02.02.2020
3609 Clouds 29 1013 48 9000 5.24 214 13:59 02.02.2020
3610 Clouds 29 1012 45 9000 5.24 214 13:41 02.02.2020
3611 Clouds 30 1012 45 9000 5.65 201 13:21 02.02.2020
3612 Clouds 30 1012 45 9000 5.65 201 13:21 02.02.2020
3613 Clouds 30 1012 40 9000 1.5 110 12:56 02.02.2020
3614 Clouds 30 1012 40 9000 1.5 120 12:38 02.02.2020
3615 Clouds 31 1012 40 9000 1.5 120 12:19 02.02.2020
3616 Clouds 32 1012 38 9000 2.6 110 11:42 02.02.2020
3617 Clouds 32 1012 38 9000 2.6 110 11:19 02.02.2020
3618 Clouds 32 1012 38 9000 2.6 130 10:57 02.02.2020
3619 Clouds 33 1012 38 9000 2.1 140 10:39 02.02.2020
3620 Clouds 33 1012 38 9000 2.1 140 10:21 02.02.2020
3621 Clouds 33 1012 38 9000 3.6 100 09:57 02.02.2020
3622 Clouds 34 1012 40 9000 4.1 140 09:39 02.02.2020
3623 Clouds 34 1012 40 9000 4.1 140 09:39 02.02.2020
3624 Clouds 33 1012 40 9000 4.1 140 09:20 02.02.2020
3625 Clouds 33 1013 46 9000 4.1 110 08:44 02.02.2020
3626 Clouds 33 1013 46 9000 3.6 100 08:26 02.02.2020
3627 Clouds 33 1014 49 9000 4.1 80 07:47 02.02.2020
3628 Clouds 32 1015 49 9000 3.6 80 07:29 02.02.2020
3629 Clouds 32 1015 52 8000 3.1 80 06:46 02.02.2020
3630 Clouds 32 1016 55 8000 2.1 0 06:28 02.02.2020
3631 Clouds 31 1017 58 8000 1.5 0 05:49 02.02.2020
3632 Clouds 30 1017 66 7000 1.5 130 04:52 02.02.2020
3633 Mist 28 1017 69 4000 3.1 100 03:30 02.02.2020
3634 Mist 27 1016 78 3000 2.6 100 02:39 02.02.2020
3635 Mist 25 1016 83 3000 2.1 110 01:56 02.02.2020
3636 Mist 24 1015 88 4000 2.1 110 01:26 02.02.2020
3637 Mist 24 1015 88 4000 2.1 110 00:44 02.02.2020
3638 Mist 24 1014 94 5000 1.5 120 00:23 02.02.2020
3639 Mist 24 1014 94 5000 1 60 23:47 01.02.2020
3640 Mist 24 1014 94 5000 1 60 23:47 01.02.2020
3641 Mist 24 1014 94 5000 1 60 23:47 01.02.2020
3642 Rain 24 1014 88 6000 1.61 215 23:23 01.02.2020
3643 Clouds 25 1013 83 8000 1.5 110 22:59 01.02.2020
3644 Clouds 25 1013 83 9000 3.56 187 22:41 01.02.2020
3645 Clouds 25 1013 83 9000 3.56 187 22:18 01.02.2020
3646 Clouds 25 1013 78 9000 1 60 21:39 01.02.2020
3647 Clouds 25 1013 78 9000 1 60 21:18 01.02.2020
3648 Clouds 25 1013 78 9000 3.56 187 20:41 01.02.2020
3649 Clear 25 1013 78 9000 4.14 183 20:20 01.02.2020
3650 Clear 25 1014 78 9000 4.14 183 19:57 01.02.2020
3651 Clear 25 1014 74 9000 4.14 183 19:39 01.02.2020
3652 Clear 25 1014 74 9000 4.14 183 19:20 01.02.2020
3653 Clear 26 1014 69 9000 4.14 183 18:58 01.02.2020
3654 Clear 26 1014 69 9000 4.14 183 18:40 01.02.2020
3655 Clear 26 1014 69 9000 4.14 183 18:22 01.02.2020
3656 Clear 26 1014 61 9000 4.14 183 17:58 01.02.2020
3657 Clear 26 1014 61 9000 4.14 183 17:39 01.02.2020
3658 Clear 27 1014 61 9000 4.51 193 17:19 01.02.2020
3659 Clear 27 1014 61 9000 4.51 193 16:43 01.02.2020
3660 Clear 27 1014 61 9000 2.6 200 16:24 01.02.2020
3661 Clear 27 1014 61 9000 2.6 200 15:58 01.02.2020
3662 Clear 27 1013 61 9000 3.1 210 15:40 01.02.2020
3663 Clear 27 1013 61 9000 3.1 210 15:20 01.02.2020
3664 Clear 27 1013 57 9000 3.6 210 14:41 01.02.2020
3665 Clear 29 1013 57 9000 3.6 210 14:21 01.02.2020
3666 Clear 29 1012 51 9000 2.6 210 13:58 01.02.2020
3667 Clear 29 1012 45 9000 2.1 80 13:39 01.02.2020
3668 Clear 30 1012 45 9000 2.1 80 13:18 01.02.2020
3669 Clouds 30 1011 43 9000 2.1 80 12:41 01.02.2020
3670 Clouds 30 1011 43 9000 2.1 80 12:22 01.02.2020
3671 Clouds 32 1011 38 9000 2.6 70 11:44 01.02.2020
3672 Clouds 32 1011 40 9000 2.1 80 11:24 01.02.2020
3673 Clouds 33 1010 40 9000 2.6 100 10:59 01.02.2020
3674 Clouds 33 1010 40 9000 4.1 120 10:40 01.02.2020
3675 Clouds 33 1010 40 9000 4.1 120 10:22 01.02.2020
3676 Clouds 33 1011 38 9000 3.1 120 09:59 01.02.2020
3677 Clouds 34 1011 40 9000 3.1 110 09:40 01.02.2020
3678 Clouds 33 1011 40 9000 3.1 110 09:21 01.02.2020
3679 Clouds 33 1011 40 9000 4.1 110 08:49 01.02.2020
3680 Clouds 32 1013 45 9000 3.6 110 07:51 01.02.2020
3681 Clouds 32 1013 43 9000 4.1 100 07:28 01.02.2020
3682 Clouds 32 1013 43 9000 4.1 100 07:28 01.02.2020
3683 Clouds 32 1013 43 9000 4.1 100 07:28 01.02.2020
3684 Clouds 31 1014 48 9000 4.1 100 06:59 01.02.2020
3685 Clouds 31 1014 48 9000 5.1 90 06:40 01.02.2020
3686 Clouds 30 1015 48 9000 5.1 100 05:53 01.02.2020
3687 Rain 28 1016 54 9000 3.6 80 04:22 01.02.2020
3688 Rain 27 1015 57 9000 3.6 110 03:23 01.02.2020
3689 Rain 27 1015 61 8000 3.6 110 02:48 01.02.2020
3690 Rain 27 1015 64 7000 3.6 90 02:30 01.02.2020
3691 Clear 25 1014 64 6000 3.1 80 01:55 01.02.2020
3692 Clear 24 1014 69 6000 3.1 100 01:37 01.02.2020
3693 Clouds 22 1013 69 7000 3.1 90 00:31 01.02.2020
3694 Clouds 22 1013 78 7000 2.6 70 23:59 31.01.2020
3695 Clouds 23 1013 69 7000 2.1 90 23:38 31.01.2020
3696 Clouds 23 1013 69 7000 2.1 90 23:18 31.01.2020
3697 Clouds 24 1012 69 7000 2.1 120 22:41 31.01.2020
3698 Clouds 24 1012 69 7000 2.1 120 22:23 31.01.2020
3699 Clouds 24 1012 69 8000 2.1 120 21:59 31.01.2020
3700 Clouds 24 1013 65 8000 2.1 130 21:39 31.01.2020
3701 Clouds 24 1013 65 8000 2.1 130 21:20 31.01.2020
3702 Clouds 24 1013 65 8000 2.1 130 21:20 31.01.2020
3703 Clouds 24 1013 65 8000 2.1 130 21:20 31.01.2020
3704 Clouds 24 1013 65 8000 2.1 130 21:20 31.01.2020
3705 Clouds 24 1013 65 8000 2.1 130 20:57 31.01.2020
3706 Clouds 24 1013 65 8000 2.1 130 20:57 31.01.2020
3707 Clouds 25 1013 65 8000 2.6 140 20:39 31.01.2020
3708 Clouds 25 1013 65 8000 2.6 120 20:20 31.01.2020
3709 Clouds 25 1013 65 8000 2.6 120 19:56 31.01.2020
3710 Clouds 25 1013 65 8000 3.1 120 19:38 31.01.2020
3711 Clouds 25 1013 65 8000 3.1 120 19:19 31.01.2020
3712 Clouds 26 1014 65 8000 2.1 120 18:45 31.01.2020
3713 Clouds 26 1014 65 8000 3.1 100 18:27 31.01.2020
3714 Clouds 26 1014 65 8000 2.1 100 17:56 31.01.2020
3715 Clouds 26 1014 61 8000 2.1 120 17:38 31.01.2020
3716 Clear 26 1014 61 8000 2.1 120 17:19 31.01.2020
3717 Clear 27 1014 61 9000 2.6 110 16:56 31.01.2020
3718 Clear 27 1014 57 9000 3.1 110 16:37 31.01.2020
3719 Clear 27 1014 57 9000 3.1 110 16:18 31.01.2020
3720 Clear 27 1013 54 9000 2.1 80 15:41 31.01.2020
3721 Clear 28 1013 54 9000 2.1 80 15:22 31.01.2020
3722 Clear 28 1013 54 9000 1.5 70 14:59 31.01.2020
3723 Clear 28 1013 51 9000 2.1 90 14:40 31.01.2020
3724 Clouds 28 1013 51 9000 2.1 90 14:20 31.01.2020
3725 Clouds 29 1012 51 9000 1 120 13:45 31.01.2020
3726 Clouds 29 1012 51 9000 2.1 100 13:27 31.01.2020
3727 Clouds 29 1012 48 9000 2.6 120 12:54 31.01.2020
3728 Clouds 30 1011 48 9000 3.1 120 12:36 31.01.2020
3729 Clouds 30 1011 48 9000 3.1 120 12:18 31.01.2020
3730 Clouds 31 1011 45 9000 3.1 80 11:41 31.01.2020
3731 Clouds 31 1011 45 9000 3.1 80 11:23 31.01.2020
3732 Clouds 32 1011 43 9000 3.1 60 10:58 31.01.2020
3733 Clouds 32 1011 43 9000 2.6 70 10:37 31.01.2020
3734 Clouds 31 1011 43 9000 2.6 70 10:19 31.01.2020
3735 Clouds 31 1011 43 9000 4.6 110 09:43 31.01.2020
3736 Clouds 31 1011 43 9000 4.6 110 09:22 31.01.2020
3737 Clouds 31 1012 43 9000 4.6 70 08:59 31.01.2020
3738 Clouds 31 1012 43 9000 5.1 90 08:41 31.01.2020
3739 Clouds 31 1012 43 9000 5.1 90 08:41 31.01.2020
3740 Clouds 31 1012 43 9000 5.1 90 08:22 31.01.2020
3741 Clouds 31 1012 40 9000 5.7 90 07:51 31.01.2020
3742 Clouds 30 1013 42 9000 6.7 80 07:19 31.01.2020
3743 Clouds 30 1014 45 9000 6.2 100 06:38 31.01.2020
3744 Clouds 30 1015 51 9000 6.2 80 05:57 31.01.2020
3745 Clouds 30 1015 51 9000 6.2 110 05:30 31.01.2020
3746 Clouds 28 1016 54 9000 5.7 110 04:41 31.01.2020
3747 Clouds 28 1016 54 9000 5.7 110 04:41 31.01.2020
3748 Clouds 27 1015 60 9000 3.1 110 02:50 31.01.2020
3749 Clouds 24 1014 64 9000 2.1 110 01:32 31.01.2020
3750 Clouds 23 1013 69 10000 1 0 00:41 31.01.2020
3751 Clouds 23 1013 69 10000 1 0 00:23 31.01.2020
3752 Clouds 23 1012 64 10000 2.6 120 23:42 30.01.2020
3753 Clouds 24 1012 64 10000 2.6 120 23:23 30.01.2020
3754 Clouds 24 1012 64 10000 2.1 130 22:40 30.01.2020
3755 Clouds 24 1012 64 10000 2.1 130 22:21 30.01.2020
3756 Clouds 24 1012 64 10000 2.1 130 22:21 30.01.2020
3757 Clouds 24 1012 64 10000 1.5 140 21:59 30.01.2020
3758 Clouds 24 1012 61 10000 1 0 21:40 30.01.2020
3759 Clouds 25 1012 61 10000 1 0 21:19 30.01.2020
3760 Clouds 25 1012 61 10000 1.5 140 20:57 30.01.2020
3761 Clouds 25 1012 65 10000 1.5 140 20:38 30.01.2020
3762 Clouds 25 1012 65 10000 1.5 140 20:20 30.01.2020
3763 Clouds 26 1012 61 10000 2.1 150 19:44 30.01.2020
3764 Clouds 26 1012 61 10000 2.1 150 19:19 30.01.2020
3765 Clouds 26 1012 61 10000 2.1 150 19:19 30.01.2020
3766 Clouds 26 1012 61 10000 2.1 140 18:59 30.01.2020
3767 Clouds 26 1012 61 10000 1.5 140 18:38 30.01.2020
3768 Clouds 26 1012 61 10000 1.5 140 18:19 30.01.2020
3769 Clouds 27 1013 61 10000 2.1 150 17:54 30.01.2020
3770 Clouds 27 1013 61 10000 2.6 150 17:36 30.01.2020
3771 Clouds 27 1013 61 10000 2.6 150 17:18 30.01.2020
3772 Clouds 27 1012 54 10000 1.5 110 16:40 30.01.2020
3773 Clouds 28 1012 54 10000 1.5 110 16:21 30.01.2020
3774 Clouds 28 1012 51 10000 2.1 90 15:45 30.01.2020
3775 Clouds 28 1012 48 10000 1 0 15:22 30.01.2020
3776 Clouds 28 1012 48 10000 1 0 15:22 30.01.2020
3777 Clouds 28 1012 45 10000 1.5 70 14:58 30.01.2020
3778 Clouds 29 1011 51 10000 1.5 40 14:40 30.01.2020
3779 Clouds 29 1011 51 10000 1.5 40 14:21 30.01.2020
3780 Clouds 29 1011 54 10000 2.1 70 13:42 30.01.2020
3781 Clouds 29 1011 54 10000 2.1 70 13:24 30.01.2020
3782 Clouds 30 1010 54 10000 2.1 70 12:56 30.01.2020
3783 Clouds 30 1010 48 10000 2.6 70 12:38 30.01.2020
3784 Clouds 31 1010 48 10000 2.6 70 12:19 30.01.2020
3785 Clouds 31 1010 45 10000 3.1 120 11:41 30.01.2020
3786 Clouds 31 1010 45 10000 3.1 120 11:22 30.01.2020
3787 Clouds 31 1010 48 10000 3.1 110 10:59 30.01.2020
3788 Clouds 32 1010 46 10000 3.1 100 10:40 30.01.2020
3789 Clouds 32 1010 46 10000 3.1 100 10:20 30.01.2020
3790 Clouds 32 1010 48 10000 3.6 80 09:45 30.01.2020
3791 Clouds 33 1010 52 10000 3.6 80 09:25 30.01.2020
3792 Clouds 32 1011 49 10000 2.6 100 08:43 30.01.2020
3793 Clouds 32 1011 52 10000 3.6 90 08:22 30.01.2020
3794 Clouds 31 1012 52 10000 3.1 110 07:58 30.01.2020
3795 Clouds 31 1013 55 10000 3.6 130 07:39 30.01.2020
3796 Clouds 31 1013 55 10000 3.6 130 07:18 30.01.2020
3797 Clouds 32 1013 52 10000 3.1 100 06:44 30.01.2020
3798 Clouds 32 1014 58 10000 3.1 110 06:25 30.01.2020
3799 Clouds 31 1015 62 10000 3.6 110 05:30 30.01.2020
3800 Rain 30 1015 62 10000 4.1 100 04:57 30.01.2020
3801 Rain 28 1015 69 9000 4.6 110 03:48 30.01.2020
3802 Clouds 28 1014 69 9000 3.1 110 02:59 30.01.2020
3803 Clouds 24 1013 78 10000 3.1 100 01:30 30.01.2020
3804 Clouds 24 1012 78 10000 3.1 110 00:30 30.01.2020
3805 Clouds 24 1012 78 10000 2.1 110 23:58 29.01.2020
3806 Clouds 24 1012 78 10000 2.6 120 23:39 29.01.2020
3807 Clouds 24 1012 78 10000 2.6 120 23:20 29.01.2020
3808 Clouds 24 1012 83 10000 3.86 198 22:55 29.01.2020
3809 Clouds 24 1011 73 10000 3.86 198 22:37 29.01.2020
3810 Clouds 24 1011 73 10000 3.86 198 22:18 29.01.2020
3811 Clouds 24 1011 73 10000 0.5 60 21:54 29.01.2020
3812 Clouds 25 1011 69 10000 2.1 60 21:36 29.01.2020
3813 Clouds 25 1011 69 10000 2.1 60 21:18 29.01.2020
3814 Clouds 25 1012 69 10000 1.5 90 20:41 29.01.2020
3815 Clouds 25 1012 69 10000 1.5 90 20:22 29.01.2020
3816 Clouds 25 1012 61 10000 5.85 196 19:58 29.01.2020
3817 Clouds 26 1012 61 10000 1.5 130 19:38 29.01.2020
3818 Clouds 25 1012 61 10000 1.5 130 19:20 29.01.2020
3819 Clouds 26 1012 61 10000 1 170 18:58 29.01.2020
3820 Clouds 26 1013 54 10000 2.6 200 18:38 29.01.2020
3821 Clouds 26 1013 54 10000 2.6 200 18:18 29.01.2020
3822 Clouds 26 1013 51 10000 2.6 210 17:41 29.01.2020
3823 Clouds 26 1013 51 10000 2.6 210 17:22 29.01.2020
3824 Clouds 26 1013 51 10000 2.6 210 17:22 29.01.2020
3825 Clouds 27 1013 57 10000 2.6 210 16:55 29.01.2020
3826 Clouds 27 1013 54 10000 3.1 230 16:37 29.01.2020
3827 Clouds 27 1013 54 10000 3.1 230 16:19 29.01.2020
3828 Clouds 28 1012 51 10000 4.1 250 15:39 29.01.2020
3829 Clouds 28 1012 51 10000 4.1 250 15:21 29.01.2020
3830 Clouds 28 1012 51 10000 4.1 250 15:21 29.01.2020
3831 Clouds 28 1012 48 10000 3.6 270 14:46 29.01.2020
3832 Clouds 29 1011 48 10000 3.6 270 14:24 29.01.2020
3833 Clouds 29 1011 45 10000 3.1 270 13:57 29.01.2020
3834 Clouds 29 1011 45 10000 3.1 270 13:57 29.01.2020
3835 Clouds 30 1011 45 10000 2.6 280 13:39 29.01.2020
3836 Clouds 30 1011 45 10000 2.6 280 13:21 29.01.2020
3837 Clouds 30 1010 51 10000 3.1 200 12:56 29.01.2020
3838 Clouds 31 1010 40 10000 2.1 150 12:37 29.01.2020
3839 Clouds 31 1010 40 10000 2.1 150 12:19 29.01.2020
3840 Clouds 32 1010 36 10000 2.1 160 11:47 29.01.2020
3841 Clouds 32 1010 38 10000 2.1 120 11:24 29.01.2020
3842 Clouds 33 1010 38 10000 2.6 150 10:54 29.01.2020
3843 Clouds 33 1009 42 0 0.45 258 10:36 29.01.2020
3844 Clouds 33 1009 42 0 0.45 258 10:36 29.01.2020
3845 Clouds 33 1010 41 10000 3.1 160 10:18 29.01.2020
3846 Clouds 33 1010 41 10000 3.1 160 09:40 29.01.2020
3847 Clouds 34 1010 41 10000 3.1 160 09:21 29.01.2020
3848 Clouds 33 1010 41 10000 3.6 130 08:57 29.01.2020
3849 Clouds 34 1011 43 10000 2.1 0 08:38 29.01.2020
3850 Clouds 33 1011 43 10000 2.1 0 08:20 29.01.2020
3851 Clouds 33 1012 41 10000 1.5 0 07:44 29.01.2020
3852 Clouds 32 1012 41 10000 1.5 0 07:24 29.01.2020
3853 Clouds 32 1014 43 10000 2.1 0 06:39 29.01.2020
3854 Clouds 31 1014 43 10000 2.1 0 06:21 29.01.2020
3855 Clouds 31 1014 40 10000 1.5 0 05:59 29.01.2020
3856 Clouds 30 1015 45 10000 3.1 320 05:39 29.01.2020
3857 Clouds 30 1015 45 10000 3.1 320 05:21 29.01.2020
3858 Clouds 29 1015 69 9000 1 0 04:37 29.01.2020
3859 Mist 28 1015 83 5000 1.5 90 02:43 29.01.2020
3860 Clouds 25 1014 94 6000 1.5 50 01:49 29.01.2020
3861 Clouds 24 1012 94 10000 1.5 60 00:42 29.01.2020
3862 Clouds 24 1012 94 10000 1.5 60 00:23 29.01.2020
3863 Clouds 24 1012 94 10000 3.01 231 23:45 28.01.2020
3864 Clouds 25 1012 94 10000 1.5 50 23:21 28.01.2020
3865 Clouds 25 1012 88 10000 1.5 60 22:58 28.01.2020
3866 Clouds 25 1012 88 10000 1 0 22:40 28.01.2020
3867 Clouds 25 1012 88 10000 1 0 22:20 28.01.2020
3868 Clouds 26 1011 83 10000 4.02 193 21:42 28.01.2020
3869 Clouds 25 1012 83 10000 2.1 210 21:20 28.01.2020
3870 Clouds 25 1012 88 10000 1.5 190 20:57 28.01.2020
3871 Clouds 25 1012 83 10000 2.1 190 20:39 28.01.2020
3872 Clouds 26 1012 83 10000 2.1 190 20:21 28.01.2020
3873 Clouds 27 1012 83 10000 2.1 180 19:39 28.01.2020
3874 Clouds 27 1012 83 10000 2.1 180 19:20 28.01.2020
3875 Clouds 26 1012 83 10000 2.6 180 18:58 28.01.2020
3876 Clouds 26 1012 78 10000 2.6 180 18:39 28.01.2020
3877 Clouds 26 1012 78 10000 2.6 180 18:21 28.01.2020
3878 Clouds 27 1012 78 10000 3.1 190 17:56 28.01.2020
3879 Clouds 27 1012 78 10000 2.6 190 17:37 28.01.2020
3880 Clouds 27 1012 78 10000 2.6 190 17:19 28.01.2020
3881 Clouds 27 1012 74 10000 3.6 190 16:46 28.01.2020
3882 Clouds 27 1012 74 10000 3.1 200 16:27 28.01.2020
3883 Clouds 27 1012 74 10000 2.6 190 15:59 28.01.2020
3884 Clouds 27 1011 65 10000 2.6 190 15:40 28.01.2020
3885 Clouds 28 1011 65 10000 2.6 190 15:18 28.01.2020
3886 Clouds 28 1011 65 10000 2.6 190 14:45 28.01.2020
3887 Clouds 29 1011 58 10000 3.1 180 14:20 28.01.2020
3888 Clouds 29 1010 61 10000 4.1 190 13:45 28.01.2020
3889 Clouds 28 1010 61 10000 3.6 210 13:25 28.01.2020
3890 Clouds 28 1009 61 10000 2.6 210 12:58 28.01.2020
3891 Clouds 30 1009 55 10000 3.1 190 12:40 28.01.2020
3892 Clouds 30 1009 55 10000 3.1 190 12:22 28.01.2020
3893 Clouds 31 1009 48 10000 3.6 180 11:42 28.01.2020
3894 Clouds 32 1009 49 10000 4.1 190 11:22 28.01.2020
3895 Clouds 32 1008 49 10000 4.1 190 10:55 28.01.2020
3896 Clouds 32 1008 46 10000 5.7 210 10:37 28.01.2020
3897 Clouds 32 1008 46 10000 5.7 210 10:18 28.01.2020
3898 Clouds 32 1008 43 10000 5.1 200 09:42 28.01.2020
3899 Clouds 33 1008 41 10000 5.7 210 09:20 28.01.2020
3900 Clouds 33 1009 38 10000 4.1 260 08:46 28.01.2020
3901 Clouds 33 1010 38 10000 4.1 240 08:26 28.01.2020
3902 Clouds 32 1010 38 10000 2.1 170 07:57 28.01.2020
3903 Clouds 32 1010 38 10000 2.1 0 07:35 28.01.2020
3904 Clear 31 1011 40 10000 3.1 270 06:48 28.01.2020
3905 Clear 31 1011 40 10000 3.1 270 06:48 28.01.2020
3906 Clear 31 1012 37 10000 2.1 0 06:25 28.01.2020
3907 Clear 30 1012 42 10000 4.1 300 05:40 28.01.2020
3908 Clear 30 1012 42 10000 4.1 300 05:40 28.01.2020
3909 Clear 30 1012 42 10000 4.1 300 05:22 28.01.2020
3910 Clouds 28 1012 44 10000 3.6 280 03:50 28.01.2020
3911 Clouds 27 1012 50 9000 3.6 270 02:49 28.01.2020
3912 Clouds 27 1011 57 9000 3.1 260 02:25 28.01.2020
3913 Clouds 24 1011 57 9000 3.1 260 01:56 28.01.2020
3914 Clouds 23 1011 60 9000 2.6 250 01:22 28.01.2020
3915 Clouds 24 1010 57 9000 2.1 240 00:45 28.01.2020
3916 Clouds 24 1010 57 10000 2.1 250 00:22 28.01.2020
3917 Clouds 24 1010 57 10000 2.6 270 23:44 27.01.2020
3918 Clouds 23 1009 60 10000 2.1 250 23:20 27.01.2020
3919 Clouds 25 1009 57 10000 3.1 270 22:45 27.01.2020
3920 Clouds 25 1009 57 10000 3.1 270 22:20 27.01.2020
3921 Clouds 25 1009 57 10000 3.1 270 22:20 27.01.2020
3922 Clouds 25 1009 57 10000 3.1 270 22:20 27.01.2020
3923 Clouds 25 1009 57 10000 3.1 270 22:20 27.01.2020
3924 Clouds 25 1009 65 10000 3.6 250 21:58 27.01.2020
3925 Clouds 26 1009 65 10000 3.6 260 21:39 27.01.2020
3926 Clouds 26 1009 65 10000 3.6 260 21:19 27.01.2020
3927 Clouds 26 1009 69 10000 3.1 250 20:57 27.01.2020
3928 Clouds 26 1009 74 10000 4.1 260 20:38 27.01.2020
3929 Clouds 27 1009 74 10000 4.1 260 20:19 27.01.2020
3930 Clouds 27 1010 69 10000 4.6 250 19:56 27.01.2020
3931 Clouds 27 1010 69 10000 6.2 240 19:38 27.01.2020
3932 Clouds 28 1010 69 10000 6.2 240 19:19 27.01.2020
3933 Clouds 28 1010 74 10000 5.7 210 18:39 27.01.2020
3934 Clouds 28 1010 74 10000 5.7 210 18:21 27.01.2020
3935 Clouds 28 1010 74 10000 4.1 200 17:58 27.01.2020
3936 Clouds 28 1010 74 10000 4.6 190 17:38 27.01.2020
3937 Clouds 28 1010 74 10000 4.6 190 17:19 27.01.2020
3938 Clouds 28 1010 74 10000 4.6 190 16:55 27.01.2020
3939 Clouds 28 1010 74 10000 4.6 190 16:36 27.01.2020
3940 Clouds 28 1010 74 10000 4.6 190 16:36 27.01.2020
3941 Clouds 28 1010 74 10000 4.6 190 16:18 27.01.2020
3942 Clouds 28 1009 69 10000 5.7 180 15:41 27.01.2020
3943 Clouds 28 1009 69 10000 5.7 180 15:19 27.01.2020
3944 Clouds 28 1009 69 10000 5.1 180 14:56 27.01.2020
3945 Clouds 28 1008 65 10000 4.6 190 14:37 27.01.2020
3946 Clouds 28 1008 65 10000 4.6 190 14:37 27.01.2020
3947 Clouds 28 1008 65 10000 4.6 190 14:19 27.01.2020
3948 Clouds 29 1008 65 10000 3.6 180 13:42 27.01.2020
3949 Clouds 29 1008 58 10000 5.1 200 13:22 27.01.2020
3950 Clouds 30 1008 48 10000 5.1 190 12:56 27.01.2020
3951 Clouds 30 1007 42 10000 5.7 200 12:38 27.01.2020
3952 Clouds 30 1007 42 10000 5.7 200 12:20 27.01.2020
3953 Clouds 32 1007 33 10000 5.7 200 11:42 27.01.2020
3954 Clouds 32 1007 33 10000 5.7 200 11:21 27.01.2020
3955 Clouds 32 1007 33 10000 5.7 200 11:21 27.01.2020
3956 Clouds 32 1007 31 10000 6.2 190 10:55 27.01.2020
3957 Clouds 33 1007 29 10000 5.7 200 10:36 27.01.2020
3958 Clouds 33 1007 29 10000 5.7 200 10:18 27.01.2020
3959 Clouds 32 1007 28 10000 5.7 180 09:39 27.01.2020
3960 Clouds 33 1007 28 10000 5.7 180 09:18 27.01.2020
3961 Clouds 33 1008 26 10000 6.2 210 08:47 27.01.2020
3962 Clouds 33 1008 28 10000 6.2 210 08:23 27.01.2020
3963 Clouds 33 1009 31 10000 5.7 190 07:55 27.01.2020
3964 Clouds 33 1009 31 10000 5.7 190 07:36 27.01.2020
3965 Clouds 33 1010 29 10000 5.7 190 06:55 27.01.2020
3966 Clouds 33 1010 33 10000 5.7 210 06:27 27.01.2020
3967 Clouds 32 1011 33 10000 2.6 230 05:37 27.01.2020
3968 Clouds 30 1012 37 10000 2.6 270 04:20 27.01.2020
3969 Clouds 29 1011 39 10000 2.6 250 03:23 27.01.2020
3970 Clouds 25 1010 47 8000 3.6 250 01:32 27.01.2020
3971 Clouds 24 1010 64 10000 1 0 00:59 27.01.2020
3972 Clouds 24 1009 69 10000 2.1 230 00:37 27.01.2020
3973 Clouds 24 1009 69 10000 2.1 230 00:19 27.01.2020
3974 Clouds 25 1009 78 10000 3.1 240 23:41 26.01.2020
3975 Clouds 26 1009 78 10000 3.1 240 23:19 26.01.2020
3976 Clouds 26 1009 88 10000 2.6 200 22:55 26.01.2020
3977 Clouds 26 1009 88 10000 3.1 240 22:37 26.01.2020
3978 Clouds 26 1009 88 10000 3.1 240 22:18 26.01.2020
3979 Clouds 27 1009 83 10000 3.6 260 21:55 26.01.2020
3980 Clouds 27 1009 83 10000 3.6 280 21:37 26.01.2020
3981 Clouds 27 1009 83 10000 3.6 280 21:19 26.01.2020
3982 Clouds 27 1009 83 10000 3.1 270 20:55 26.01.2020
3983 Clouds 27 1009 83 10000 2.6 270 20:36 26.01.2020
3984 Clouds 27 1009 83 10000 2.6 270 20:18 26.01.2020
3985 Clouds 27 1010 83 10000 3.1 250 19:42 26.01.2020
3986 Clouds 27 1010 83 10000 3.6 220 19:21 26.01.2020
3987 Clouds 27 1010 83 10000 4.6 220 18:59 26.01.2020
3988 Clouds 27 1010 83 10000 3.6 210 18:40 26.01.2020
3989 Clouds 27 1010 83 10000 3.6 210 18:22 26.01.2020
3990 Clouds 27 1010 78 10000 3.6 210 17:58 26.01.2020
3991 Clouds 27 1010 78 10000 3.6 210 17:58 26.01.2020
3992 Clouds 27 1010 78 10000 3.6 210 17:38 26.01.2020
3993 Clouds 27 1010 78 10000 3.6 210 17:18 26.01.2020
3994 Clouds 28 1010 78 10000 3.1 210 16:57 26.01.2020
3995 Clouds 27 1010 78 10000 3.6 210 16:39 26.01.2020
3996 Clouds 27 1010 78 10000 3.6 210 16:20 26.01.2020
3997 Clouds 27 1008 67 0 8.13 193 15:46 26.01.2020
3998 Clouds 27 1008 66 0 8.13 193 15:22 26.01.2020
3999 Clouds 27 1008 66 0 8.13 193 15:22 26.01.2020
4000 Clouds 28 1008 66 0 8.13 193 14:58 26.01.2020
4001 Clouds 28 1014 64 0 8.13 193 14:39 26.01.2020
4002 Clouds 29 1007 65 0 5.33 164 14:19 26.01.2020
4003 Clouds 29 1007 64 0 5.33 164 13:42 26.01.2020
4004 Clouds 29 1007 63 0 5.01 163 13:20 26.01.2020
4005 Clouds 29 1006 61 0 5.01 163 12:57 26.01.2020
4006 Clouds 30 1007 70 0 5.01 163 12:38 26.01.2020
4007 Clouds 31 1007 81 0 5.01 163 12:20 26.01.2020
4008 Clouds 32 1005 52 0 5.01 163 11:57 26.01.2020
4009 Clouds 32 1005 48 0 5.01 163 11:37 26.01.2020
4010 Clouds 33 1006 38 10000 2.6 170 11:18 26.01.2020
4011 Clouds 33 1006 38 10000 2.6 170 10:56 26.01.2020
4012 Clouds 33 1006 38 10000 2.6 170 10:38 26.01.2020
4013 Clouds 33 1006 38 10000 2.6 170 10:19 26.01.2020
4014 Clouds 33 1006 38 10000 2.6 170 10:19 26.01.2020
4015 Clouds 34 1007 38 10000 2.6 150 09:56 26.01.2020
4016 Clouds 34 1007 43 10000 3.1 190 09:37 26.01.2020
4017 Clouds 34 1007 43 10000 3.1 190 09:19 26.01.2020
4018 Clouds 34 1008 38 10000 3.1 230 08:41 26.01.2020
4019 Clouds 33 1008 38 10000 3.1 230 08:22 26.01.2020
4020 Clouds 33 1008 38 10000 3.6 210 07:50 26.01.2020
4021 Clouds 33 1009 44 10000 3.6 180 07:27 26.01.2020
4022 Clouds 33 1010 46 10000 4.1 160 06:51 26.01.2020
4023 Clouds 32 1011 46 10000 3.1 200 06:23 26.01.2020
4024 Clouds 31 1012 52 10000 3.6 180 05:28 26.01.2020
4025 Clouds 30 1012 66 10000 3.6 200 03:31 26.01.2020
4026 Clouds 29 1011 74 10000 1.5 180 02:38 26.01.2020
4027 Clouds 27 1011 83 10000 1.5 170 01:44 26.01.2020
4028 Clouds 26 1011 83 10000 1.5 170 01:22 26.01.2020
4029 Clouds 26 1010 78 10000 2.1 180 00:42 26.01.2020
4030 Clouds 26 1010 78 10000 2.1 180 00:23 26.01.2020
4031 Rain 25 1009 73 0 4.72 221 23:39 25.01.2020
4032 Rain 25 1009 74 0 7.37 205 23:20 25.01.2020
4033 Rain 25 1008 74 0 7.37 205 22:45 25.01.2020
4034 Rain 25 1008 74 0 7.37 205 22:22 25.01.2020
4035 Rain 25 1009 74 0 7.37 205 21:59 25.01.2020
4036 Rain 26 1009 75 0 0.45 108 21:41 25.01.2020
4037 Rain 26 1009 75 0 7.37 205 21:22 25.01.2020
4038 Rain 27 1010 75 0 7.37 205 20:55 25.01.2020
4039 Rain 26 1009 75 0 7.37 205 20:36 25.01.2020
4040 Clouds 27 1011 75 0 8.07 194 20:18 25.01.2020
4041 Clouds 26 1009 74 0 8.07 194 19:42 25.01.2020
4042 Clouds 26 1010 71 0 8.07 194 19:20 25.01.2020
4043 Clouds 26 1009 73 0 8.07 194 19:20 25.01.2020
4044 Clouds 26 1010 73 0 8.15 195 18:57 25.01.2020
4045 Clouds 26 1010 73 0 8.15 195 18:57 25.01.2020
4046 Clouds 26 1010 72 0 8.15 195 18:38 25.01.2020
4047 Clouds 26 1010 71 0 8.07 194 18:20 25.01.2020
4048 Clouds 27 1010 71 0 0.45 333 17:40 25.01.2020
4049 Clouds 28 1010 70 0 9.42 181 17:19 25.01.2020
4050 Clouds 28 1010 70 0 9.42 181 16:57 25.01.2020
4051 Clouds 28 1010 69 0 9.42 181 16:38 25.01.2020
4052 Clouds 29 1010 69 0 9.42 181 16:19 25.01.2020
4053 Clouds 27 1010 68 0 0.45 290 15:46 25.01.2020
4054 Clouds 28 1010 68 0 0.89 302 15:25 25.01.2020
4055 Clouds 28 1009 68 0 0.89 301 14:57 25.01.2020
4056 Clouds 28 1009 67 0 0.45 126 14:39 25.01.2020
4057 Clouds 28 1009 67 0 0.45 124 14:18 25.01.2020
4058 Clouds 28 1008 65 0 0.89 278 13:41 25.01.2020
4059 Clouds 29 1009 65 0 0.45 351 13:22 25.01.2020
4060 Clouds 29 1009 65 0 0.45 351 13:22 25.01.2020
4061 Clouds 29 1009 66 10000 5.7 190 12:43 25.01.2020
4062 Clouds 30 1009 66 10000 5.7 190 12:23 25.01.2020
4063 Clouds 30 1009 66 10000 5.7 190 11:45 25.01.2020
4064 Clouds 31 1008 62 10000 5.1 190 11:22 25.01.2020
4065 Clouds 32 1008 58 10000 6.2 190 10:58 25.01.2020
4066 Clouds 32 1008 59 10000 5.7 190 10:40 25.01.2020
4067 Clouds 32 1008 59 10000 5.7 190 10:20 25.01.2020
4068 Clouds 32 1008 59 10000 5.7 200 09:41 25.01.2020
4069 Clouds 32 1008 59 10000 5.7 200 09:22 25.01.2020
4070 Clouds 32 1009 59 10000 6.7 210 08:44 25.01.2020
4071 Clouds 32 1009 55 10000 6.2 200 08:26 25.01.2020
4072 Clouds 32 1010 62 10000 6.7 210 07:49 25.01.2020
4073 Clouds 32 1011 59 10000 6.2 180 06:52 25.01.2020
4074 Clouds 32 1011 59 10000 6.2 180 06:51 25.01.2020
4075 Clouds 32 1011 55 10000 5.7 200 06:27 25.01.2020
4076 Clouds 32 1012 59 10000 6.7 210 05:46 25.01.2020
4077 Clouds 31 1012 66 10000 5.1 200 04:50 25.01.2020
4078 Clouds 31 1012 74 10000 5.7 200 03:51 25.01.2020
4079 Clouds 29 1012 79 10000 3.6 190 02:57 25.01.2020
4080 Clouds 28 1011 83 9000 2.6 170 02:18 25.01.2020
4081 Clouds 27 1010 83 9000 2.1 160 01:37 25.01.2020
4082 Clouds 26 1010 88 9000 2.6 160 00:44 25.01.2020
4083 Clouds 26 1010 88 9000 2.1 170 00:25 25.01.2020
4084 Clouds 26 1010 83 9000 2.6 160 23:57 24.01.2020
4085 Clouds 27 1010 88 10000 2.1 170 23:38 24.01.2020
4086 Clouds 27 1010 88 10000 2.1 170 23:20 24.01.2020
4087 Clouds 27 1010 88 10000 2.6 170 22:42 24.01.2020
4088 Clouds 27 1010 88 10000 2.6 170 22:24 24.01.2020
4089 Clouds 26 1010 88 10000 2.6 180 21:43 24.01.2020
4090 Clouds 26 1010 88 10000 4.1 190 21:20 24.01.2020
4091 Clouds 26 1010 88 10000 4.1 190 21:20 24.01.2020
4092 Clouds 26 1010 88 10000 3.6 190 20:56 24.01.2020
4093 Clouds 27 1011 83 10000 4.6 200 20:38 24.01.2020
4094 Clouds 28 1011 83 10000 4.6 200 20:19 24.01.2020
4095 Clouds 28 1011 83 10000 4.1 190 19:55 24.01.2020
4096 Clouds 28 1011 83 10000 4.6 200 19:37 24.01.2020
4097 Clouds 28 1011 83 10000 4.6 200 19:19 24.01.2020
4098 Clouds 27 1011 83 10000 3.6 190 18:43 24.01.2020
4099 Clouds 27 1011 83 10000 3.6 190 18:43 24.01.2020
4100 Clouds 27 1012 83 10000 3.6 190 18:23 24.01.2020
4101 Clouds 28 1012 83 10000 4.1 190 17:46 24.01.2020
4102 Clouds 28 1012 83 10000 4.6 200 17:23 24.01.2020
4103 Clouds 28 1012 83 10000 5.1 190 16:58 24.01.2020
4104 Clouds 28 1012 83 10000 5.7 190 16:38 24.01.2020
4105 Clouds 28 1012 83 10000 5.7 190 16:19 24.01.2020
4106 Clouds 28 1012 79 10000 5.1 180 15:42 24.01.2020
4107 Clouds 28 1011 79 10000 5.7 190 15:21 24.01.2020
4108 Clouds 29 1011 74 10000 4.6 200 14:55 24.01.2020
4109 Clouds 29 1011 74 10000 4.6 200 14:55 24.01.2020
4110 Clouds 29 1011 74 10000 3.6 180 14:36 24.01.2020
4111 Clouds 29 1011 74 10000 3.6 180 14:18 24.01.2020
4112 Clouds 30 1010 74 10000 3.6 170 13:41 24.01.2020
4113 Clouds 30 1010 74 10000 3.6 170 13:22 24.01.2020
4114 Clouds 30 1010 70 10000 4.6 190 12:43 24.01.2020
4115 Clouds 31 1010 66 10000 5.7 180 12:21 24.01.2020
4116 Clouds 31 1009 62 10000 4.6 190 11:45 24.01.2020
4117 Clouds 32 1009 59 10000 4.6 180 11:19 24.01.2020
4118 Clouds 32 1009 59 10000 4.6 180 11:19 24.01.2020
4119 Clouds 33 1009 55 10000 4.1 200 10:56 24.01.2020
4120 Clouds 34 1009 52 10000 4.6 180 10:38 24.01.2020
4121 Clouds 33 1009 52 10000 4.6 180 10:18 24.01.2020
4122 Clouds 33 1009 52 10000 4.6 200 09:41 24.01.2020
4123 Clouds 33 1009 52 10000 4.6 200 09:23 24.01.2020
4124 Clouds 33 1010 49 10000 4.1 200 08:41 24.01.2020
4125 Clouds 33 1010 49 10000 4.1 200 08:21 24.01.2020
4126 Clouds 33 1011 52 9000 4.1 200 07:58 24.01.2020
4127 Clouds 33 1011 55 9000 3.6 190 07:37 24.01.2020
4128 Clouds 33 1012 52 9000 4.1 190 06:54 24.01.2020
4129 Clouds 33 1013 55 9000 4.1 170 06:33 24.01.2020
4130 Clouds 32 1013 59 9000 4.1 160 05:59 24.01.2020
4131 Clouds 31 1014 59 9000 4.1 160 05:18 24.01.2020
4132 Clouds 29 1013 83 7000 3.1 140 02:54 24.01.2020
4133 Clouds 28 1013 88 7000 3.1 120 02:27 24.01.2020
4134 Clouds 28 1013 94 7000 2.1 120 01:53 24.01.2020
4135 Clouds 27 1012 94 7000 2.1 120 01:33 24.01.2020
4136 Clouds 27 1012 88 9000 0.5 90 00:31 24.01.2020
4137 Clouds 27 1012 88 9000 4.59 206 23:56 23.01.2020
4138 Clouds 27 1011 88 9000 1 140 23:37 23.01.2020
4139 Clouds 27 1011 88 9000 1 140 23:18 23.01.2020
4140 Clouds 27 1011 88 9000 2.6 200 22:39 23.01.2020
4141 Clouds 27 1011 88 9000 2.6 200 22:19 23.01.2020
4142 Clouds 26 1011 88 9000 3.1 180 21:58 23.01.2020
4143 Clouds 26 1011 88 9000 3.1 180 21:58 23.01.2020
4144 Clouds 27 1012 88 10000 3.6 200 21:39 23.01.2020
4145 Clouds 27 1012 88 10000 3.6 200 21:20 23.01.2020
4146 Clouds 27 1012 88 10000 3.1 190 20:59 23.01.2020
4147 Clouds 28 1012 83 10000 2.6 190 20:39 23.01.2020
4148 Clouds 28 1012 83 10000 2.6 190 20:20 23.01.2020
4149 Clouds 28 1012 83 10000 3.6 180 19:56 23.01.2020
4150 Clouds 28 1012 78 10000 5.1 190 19:38 23.01.2020
4151 Clouds 28 1012 78 10000 5.1 190 19:19 23.01.2020
4152 Clouds 27 1012 83 10000 4.6 190 18:55 23.01.2020
4153 Clouds 27 1013 83 10000 4.6 200 18:37 23.01.2020
4154 Clouds 27 1013 83 10000 4.6 200 18:18 23.01.2020
4155 Clouds 27 1013 83 9000 6.2 200 17:43 23.01.2020
4156 Clouds 28 1013 83 9000 6.2 200 17:20 23.01.2020
4157 Clouds 29 1013 83 9000 5.1 200 16:57 23.01.2020
4158 Clouds 28 1012 83 9000 4.1 200 16:37 23.01.2020
4159 Clouds 28 1012 83 9000 4.1 200 16:18 23.01.2020
4160 Clouds 28 1012 79 9000 3.6 180 15:56 23.01.2020
4161 Clouds 28 1012 79 9000 4.1 190 15:37 23.01.2020
4162 Clouds 29 1012 79 9000 4.1 190 15:18 23.01.2020
4163 Clouds 29 1011 79 9000 4.1 190 14:55 23.01.2020
4164 Clouds 29 1011 79 9000 4.6 170 14:37 23.01.2020
4165 Clouds 30 1011 79 9000 4.6 170 14:19 23.01.2020
4166 Clouds 30 1010 62 10000 4.1 210 13:40 23.01.2020
4167 Clouds 30 1010 62 10000 4.1 210 13:20 23.01.2020
4168 Clouds 31 1010 62 10000 3.1 210 12:47 23.01.2020
4169 Clouds 31 1010 52 10000 3.6 250 12:25 23.01.2020
4170 Clouds 32 1010 52 10000 2.6 200 11:59 23.01.2020
4171 Clouds 33 1009 52 10000 3.6 180 11:39 23.01.2020
4172 Clouds 33 1009 52 10000 3.6 180 11:20 23.01.2020
4173 Clouds 34 1009 52 8000 4.1 200 10:45 23.01.2020
4174 Clouds 34 1009 52 8000 4.1 190 10:23 23.01.2020
4175 Clouds 34 1010 52 8000 4.6 210 09:59 23.01.2020
4176 Clouds 34 1010 52 8000 2.6 0 09:39 23.01.2020
4177 Clouds 34 1010 52 8000 2.6 0 09:20 23.01.2020
4178 Clouds 33 1010 52 8000 2.6 190 08:42 23.01.2020
4179 Clouds 34 1011 56 8000 3.6 200 08:24 23.01.2020
4180 Clouds 34 1011 56 8000 3.6 200 08:24 23.01.2020
4181 Clouds 33 1011 59 8000 3.1 170 07:48 23.01.2020
4182 Clouds 33 1012 52 8000 1.5 0 07:27 23.01.2020
4183 Clouds 33 1013 59 8000 3.6 210 06:54 23.01.2020
4184 Clouds 34 1013 59 8000 3.1 160 06:23 23.01.2020
4185 Clouds 33 1014 59 8000 3.6 210 05:58 23.01.2020
4186 Clouds 33 1014 59 8000 3.6 210 05:58 23.01.2020
4187 Clouds 31 1015 66 8000 2.6 190 04:24 23.01.2020
4188 Mist 29 1013 88 5000 2.1 120 02:35 23.01.2020
4189 Mist 27 1013 94 5000 2.1 110 01:41 23.01.2020
4190 Clouds 27 1012 88 8000 1 0 00:28 23.01.2020
4191 Clouds 27 1012 88 8000 1.5 140 23:48 22.01.2020
4192 Clouds 27 1012 88 8000 2.1 140 23:30 22.01.2020
4193 Clouds 27 1011 88 8000 5.67 180 22:59 22.01.2020
4194 Clouds 27 1011 88 8000 2.6 160 22:41 22.01.2020
4195 Clouds 27 1011 88 8000 2.6 160 22:23 22.01.2020
4196 Clouds 27 1012 88 8000 2.6 170 21:41 22.01.2020
4197 Clouds 27 1012 88 8000 2.6 170 21:22 22.01.2020
4198 Clouds 27 1012 88 8000 1 150 20:58 22.01.2020
4199 Clouds 27 1012 83 8000 2.6 200 20:39 22.01.2020
4200 Clouds 27 1012 83 8000 2.6 200 20:21 22.01.2020
4201 Clouds 27 1013 83 8000 2.6 210 19:57 22.01.2020
4202 Clouds 27 1013 78 8000 2.6 210 19:39 22.01.2020
4203 Clouds 27 1013 78 8000 2.6 210 19:19 22.01.2020
4204 Clouds 27 1013 78 8000 2.6 210 18:57 22.01.2020
4205 Clouds 27 1013 83 8000 2.6 210 18:38 22.01.2020
4206 Clouds 27 1013 83 8000 2.6 210 18:19 22.01.2020
4207 Clouds 27 1013 83 8000 2.6 210 17:54 22.01.2020
4208 Clouds 28 1014 78 8000 2.6 210 17:36 22.01.2020
4209 Clouds 28 1014 78 8000 2.6 210 17:18 22.01.2020
4210 Clouds 28 1014 78 8000 2.6 210 17:18 22.01.2020
4211 Clouds 28 1014 78 8000 2.6 210 16:43 22.01.2020
4212 Clouds 28 1014 78 8000 2.6 200 16:22 22.01.2020
4213 Clouds 29 1013 74 8000 3.1 210 15:58 22.01.2020
4214 Clouds 28 1013 74 8000 2.6 200 15:39 22.01.2020
4215 Clouds 28 1013 74 8000 2.6 200 15:21 22.01.2020
4216 Clouds 28 1013 74 8000 2.6 200 15:21 22.01.2020
4217 Clouds 29 1013 66 8000 3.1 240 14:54 22.01.2020
4218 Clouds 29 1012 66 8000 3.1 240 14:36 22.01.2020
4219 Clouds 29 1012 66 8000 3.1 240 14:36 22.01.2020
4220 Clouds 30 1012 66 8000 3.1 240 14:18 22.01.2020
4221 Clouds 30 1012 66 8000 2.6 260 13:54 22.01.2020
4222 Clouds 30 1012 66 7000 3.6 250 13:36 22.01.2020
4223 Clouds 30 1012 66 7000 3.6 250 13:18 22.01.2020
4224 Clouds 31 1012 62 7000 3.1 240 12:54 22.01.2020
4225 Clouds 31 1011 66 7000 4.1 240 12:36 22.01.2020
4226 Clouds 31 1011 66 7000 4.1 240 12:18 22.01.2020
4227 Clouds 32 1011 55 9000 2.1 280 11:54 22.01.2020
4228 Clouds 33 1011 49 9000 1.5 180 11:36 22.01.2020
4229 Clouds 33 1011 49 9000 1.5 180 11:18 22.01.2020
4230 Clouds 34 1011 49 9000 2.1 120 10:41 22.01.2020
4231 Clouds 33 1011 49 9000 2.1 120 10:19 22.01.2020
4232 Clouds 34 1011 49 8000 1.5 150 09:42 22.01.2020
4233 Clouds 34 1011 49 8000 1.5 130 09:24 22.01.2020
4234 Clouds 34 1012 52 7000 1.5 60 08:57 22.01.2020
4235 Clouds 34 1012 52 7000 2.1 0 08:39 22.01.2020
4236 Clouds 34 1012 52 7000 2.1 0 08:20 22.01.2020
4237 Clouds 33 1014 55 7000 2.1 60 07:46 22.01.2020
4238 Clouds 33 1014 55 7000 2.1 60 07:28 22.01.2020
4239 Clouds 33 1015 55 6000 2.1 0 06:38 22.01.2020
4240 Clouds 32 1015 55 6000 2.1 0 06:20 22.01.2020
4241 Clouds 31 1016 66 6000 1 0 05:21 22.01.2020
4242 Mist 29 1016 94 5000 2.1 40 03:30 22.01.2020
4243 Mist 29 1016 88 5000 2.1 50 02:50 22.01.2020
4244 Clouds 27 1014 94 6000 1.23 172 01:42 22.01.2020
4245 Clouds 27 1014 94 7000 1.65 184 00:44 22.01.2020
4246 Clouds 26 1014 94 8000 1.65 184 00:25 22.01.2020
4247 Clouds 26 1013 94 9000 1.65 184 23:38 21.01.2020
4248 Clouds 26 1013 94 9000 2.75 184 23:20 21.01.2020
4249 Clouds 26 1013 94 9000 2.75 184 22:55 21.01.2020
4250 Clouds 27 1013 88 9000 2.75 184 22:36 21.01.2020
4251 Clouds 27 1013 88 9000 2.75 184 22:36 21.01.2020
4252 Clouds 27 1013 88 9000 2.75 184 22:18 21.01.2020
4253 Clouds 26 1013 88 9000 1 180 21:55 21.01.2020
4254 Clouds 26 1013 88 9000 2.75 184 21:36 21.01.2020
4255 Clouds 27 1013 88 9000 2.75 184 21:18 21.01.2020
4256 Clouds 27 1014 88 9000 0.5 170 20:39 21.01.2020
4257 Clouds 27 1014 88 9000 0.5 170 20:20 21.01.2020
4258 Clouds 27 1014 83 9000 3.76 188 19:58 21.01.2020
4259 Clouds 27 1014 83 9000 1.5 190 19:40 21.01.2020
4260 Clouds 27 1014 83 9000 1.5 190 19:21 21.01.2020
4261 Clouds 27 1015 83 9000 1.5 190 18:57 21.01.2020
4262 Clouds 27 1015 83 9000 2.1 200 18:39 21.01.2020
4263 Clouds 27 1015 83 9000 2.1 200 18:21 21.01.2020
4264 Clouds 27 1015 88 9000 3.76 188 17:57 21.01.2020
4265 Clouds 27 1015 78 9000 3.76 188 17:38 21.01.2020
4266 Clouds 28 1015 78 9000 4.67 211 17:18 21.01.2020
4267 Clouds 28 1015 78 9000 2.6 210 16:38 21.01.2020
4268 Clouds 28 1015 78 9000 2.6 210 16:19 21.01.2020
4269 Clouds 28 1015 78 9000 2.6 220 15:59 21.01.2020
4270 Clouds 28 1015 78 9000 2.6 220 15:38 21.01.2020
4271 Clouds 28 1015 78 9000 2.6 220 15:19 21.01.2020
4272 Clouds 29 1014 74 8000 4.1 210 14:40 21.01.2020
4273 Clouds 29 1014 74 8000 4.1 210 14:21 21.01.2020
4274 Clouds 30 1014 74 8000 3.6 210 13:44 21.01.2020
4275 Clouds 30 1013 70 8000 3.6 220 13:21 21.01.2020
4276 Clouds 31 1013 62 8000 3.6 250 12:59 21.01.2020
4277 Clouds 31 1013 52 8000 5.47 201 12:41 21.01.2020
4278 Clouds 31 1013 52 8000 5.47 201 12:23 21.01.2020
4279 Clouds 32 1013 55 8000 2.1 120 11:56 21.01.2020
4280 Clouds 32 1013 52 8000 2.6 90 11:37 21.01.2020
4281 Clouds 32 1013 52 8000 2.6 90 11:18 21.01.2020
4282 Clouds 33 1012 49 8000 2.6 30 10:42 21.01.2020
4283 Clouds 33 1012 49 8000 2.6 30 10:22 21.01.2020
4284 Clouds 33 1012 49 8000 2.6 30 10:22 21.01.2020
4285 Clouds 33 1013 49 8000 2.1 60 09:55 21.01.2020
4286 Clouds 33 1013 49 8000 2.6 160 09:37 21.01.2020
4287 Clouds 33 1013 49 8000 2.6 160 09:18 21.01.2020
4288 Clouds 33 1014 52 8000 3.1 0 08:41 21.01.2020
4289 Clouds 33 1014 52 8000 3.1 0 08:21 21.01.2020
4290 Clouds 33 1014 52 8000 2.6 0 07:43 21.01.2020
4291 Clouds 33 1015 55 8000 3.1 80 07:23 21.01.2020
4292 Clouds 33 1016 55 8000 3.6 120 06:56 21.01.2020
4293 Clouds 33 1016 52 8000 2.6 100 06:37 21.01.2020
4294 Clouds 33 1016 66 7000 2.6 110 05:53 21.01.2020
4295 Mist 30 1017 79 5000 2.6 120 04:41 21.01.2020
4296 Mist 30 1017 79 5000 2.6 120 04:19 21.01.2020
4297 Mist 27 1016 88 2500 3.1 110 02:26 21.01.2020
4298 Mist 26 1015 100 2500 1.5 50 01:31 21.01.2020
4299 Mist 26 1014 94 5000 2.1 70 00:41 21.01.2020
4300 Mist 26 1014 94 5000 2.1 70 00:21 21.01.2020
4301 Clouds 26 1014 88 7000 1.5 70 23:41 20.01.2020
4302 Clouds 27 1014 88 7000 1.5 70 23:19 20.01.2020
4303 Rain 27 1014 83 7000 3.1 174 22:59 20.01.2020
4304 Rain 26 1014 88 7000 3.1 174 22:39 20.01.2020
4305 Rain 26 1014 88 7000 3.1 174 22:21 20.01.2020
4306 Clouds 27 1013 83 8000 3.1 174 21:58 20.01.2020
4307 Clouds 26 1014 83 8000 1 170 21:38 20.01.2020
4308 Clouds 27 1014 83 8000 1 170 21:19 20.01.2020
4309 Clouds 26 1014 83 8000 2.1 160 20:57 20.01.2020
4310 Clouds 27 1014 88 8000 3.1 174 20:38 20.01.2020
4311 Clouds 27 1014 88 8000 4.09 199 20:19 20.01.2020
4312 Clouds 27 1015 74 8000 4.09 199 19:56 20.01.2020
4313 Clouds 28 1015 74 8000 1.5 170 19:38 20.01.2020
4314 Clouds 28 1015 74 8000 1.5 170 19:18 20.01.2020
4315 Clouds 27 1015 74 8000 1 160 18:44 20.01.2020
4316 Clouds 27 1015 74 8000 1 0 18:23 20.01.2020
4317 Clouds 28 1015 70 8000 1.5 180 17:58 20.01.2020
4318 Clouds 28 1015 70 8000 1.5 180 17:36 20.01.2020
4319 Clouds 28 1015 70 8000 1.5 180 17:36 20.01.2020
4320 Clouds 28 1015 70 8000 1.5 180 17:18 20.01.2020
4321 Clouds 28 1015 70 8000 1.5 230 16:43 20.01.2020
4322 Clouds 28 1015 70 8000 1.5 230 16:25 20.01.2020
4323 Clouds 29 1015 62 8000 1.5 230 15:58 20.01.2020
4324 Clouds 29 1014 62 8000 4.77 200 15:39 20.01.2020
4325 Clouds 29 1014 62 8000 4.77 200 15:21 20.01.2020
4326 Clouds 29 1014 55 8000 4.77 200 14:42 20.01.2020
4327 Clouds 30 1014 55 8000 4.77 200 14:24 20.01.2020
4328 Clouds 30 1013 55 8000 3.26 220 13:59 20.01.2020
4329 Clouds 30 1013 55 8000 1 80 13:40 20.01.2020
4330 Clouds 30 1013 55 8000 1 80 13:22 20.01.2020
4331 Clouds 31 1013 52 7000 1.5 70 12:47 20.01.2020
4332 Clouds 31 1012 55 7000 2.1 70 12:28 20.01.2020
4333 Clouds 31 1012 55 7000 2.1 70 12:28 20.01.2020
4334 Clouds 32 1012 52 7000 1.5 130 11:59 20.01.2020
4335 Clouds 32 1011 52 7000 2.1 70 11:39 20.01.2020
4336 Clouds 32 1011 52 7000 2.1 70 11:21 20.01.2020
4337 Clouds 33 1011 52 7000 1.5 100 10:48 20.01.2020
4338 Clouds 33 1011 52 7000 1.5 100 10:48 20.01.2020
4339 Clouds 33 1011 52 7000 2.1 110 10:22 20.01.2020
4340 Clouds 32 1011 52 8000 1.5 120 09:57 20.01.2020
4341 Clouds 33 1011 55 8000 2.1 100 09:39 20.01.2020
4342 Clouds 33 1011 55 8000 2.1 100 09:20 20.01.2020
4343 Clouds 33 1012 55 8000 2.6 90 08:44 20.01.2020
4344 Clouds 32 1012 55 8000 2.6 100 08:26 20.01.2020
4345 Clouds 32 1014 52 8000 3.6 120 07:45 20.01.2020
4346 Clouds 32 1014 52 8000 3.6 120 07:25 20.01.2020
4347 Clouds 31 1014 62 8000 4.1 90 06:48 20.01.2020
4348 Clouds 32 1014 55 8000 3.6 100 06:27 20.01.2020
4349 Clouds 31 1015 62 8000 4.1 110 05:42 20.01.2020
4350 Clouds 31 1015 70 7000 3.1 100 05:22 20.01.2020
4351 Rain 30 1015 74 5000 2.6 80 04:42 20.01.2020
4352 Mist 29 1015 74 4000 2.1 120 02:57 20.01.2020
4353 Mist 27 1014 88 3000 2.6 100 01:54 20.01.2020
4354 Mist 27 1013 94 1000 1.5 60 01:35 20.01.2020
4355 Mist 27 1013 94 1500 2.1 70 00:44 20.01.2020
4356 Mist 26 1013 94 5000 1.5 50 00:23 20.01.2020
4357 Clouds 27 1013 94 7000 2.1 50 23:39 19.01.2020
4358 Clouds 27 1013 94 7000 2.1 50 23:20 19.01.2020
4359 Clouds 27 1013 94 7000 2.1 50 23:20 19.01.2020
4360 Clouds 27 1012 88 7000 3.81 188 22:57 19.01.2020
4361 Clouds 27 1012 88 7000 3.81 188 22:38 19.01.2020
4362 Clouds 26 1012 88 7000 3.81 188 22:20 19.01.2020
4363 Clouds 26 1012 88 7000 3.81 188 21:56 19.01.2020
4364 Clouds 26 1012 88 8000 2.1 190 21:38 19.01.2020
4365 Clouds 27 1012 88 8000 2.1 190 21:20 19.01.2020
4366 Clouds 28 1012 83 8000 2.1 190 20:57 19.01.2020
4367 Clouds 26 1013 88 8000 2.6 200 20:39 19.01.2020
4368 Clouds 27 1013 88 8000 2.6 200 20:20 19.01.2020
4369 Clouds 27 1013 83 8000 2.1 200 19:57 19.01.2020
4370 Clouds 28 1013 88 8000 1 180 19:39 19.01.2020
4371 Clouds 28 1013 88 8000 1 180 19:20 19.01.2020
4372 Clouds 27 1013 83 8000 1 180 18:56 19.01.2020
4373 Clouds 27 1013 83 8000 1 170 18:37 19.01.2020
4374 Clouds 27 1013 83 8000 1 170 18:19 19.01.2020
4375 Clouds 27 1013 83 8000 1.5 190 17:58 19.01.2020
4376 Clouds 27 1013 83 8000 2.1 180 17:39 19.01.2020
4377 Clouds 28 1013 83 8000 2.1 180 17:20 19.01.2020
4378 Clouds 28 1013 79 8000 2.1 190 16:58 19.01.2020
4379 Clouds 28 1013 79 8000 3.1 170 16:38 19.01.2020
4380 Clouds 29 1013 79 8000 3.1 170 16:19 19.01.2020
4381 Clouds 29 1012 74 8000 2.1 160 15:58 19.01.2020
4382 Clouds 29 1012 66 8000 1.5 170 15:37 19.01.2020
4383 Clouds 29 1012 66 8000 1.5 170 15:19 19.01.2020
4384 Clouds 29 1012 66 8000 1 140 14:57 19.01.2020
4385 Clouds 29 1012 62 8000 5.88 181 14:38 19.01.2020
4386 Clouds 29 1012 62 8000 5.88 181 14:38 19.01.2020
4387 Clouds 30 1012 62 8000 5.91 195 14:18 19.01.2020
4388 Clouds 30 1012 62 8000 5.91 195 14:18 19.01.2020
4389 Clouds 30 1011 58 8000 1.5 110 13:56 19.01.2020
4390 Clouds 30 1011 55 8000 1.5 110 13:37 19.01.2020
4391 Clouds 31 1011 55 8000 1.5 110 13:19 19.01.2020
4392 Clouds 31 1011 58 8000 1.5 110 12:54 19.01.2020
4393 Clouds 31 1011 55 8000 1.5 110 12:36 19.01.2020
4394 Clouds 32 1011 55 8000 1.5 110 12:18 19.01.2020
4395 Clouds 32 1010 52 8000 3.1 120 11:39 19.01.2020
4396 Clouds 33 1010 52 8000 3.1 120 11:20 19.01.2020
4397 Clouds 33 1010 52 8000 2.6 120 10:56 19.01.2020
4398 Clouds 33 1010 52 8000 2.6 120 10:56 19.01.2020
4399 Clouds 33 1010 52 8000 2.6 110 10:37 19.01.2020
4400 Clouds 33 1010 52 8000 2.6 110 10:19 19.01.2020
4401 Clouds 33 1010 52 8000 3.1 120 09:45 19.01.2020
4402 Clouds 33 1010 52 8000 3.1 120 09:45 19.01.2020
4403 Clouds 33 1010 55 8000 3.1 120 09:27 19.01.2020
4404 Clouds 33 1011 52 8000 4.1 100 08:58 19.01.2020
4405 Clouds 32 1011 52 8000 1.5 140 08:39 19.01.2020
4406 Clouds 33 1011 52 8000 1.5 140 08:21 19.01.2020
4407 Clouds 33 1013 59 8000 2.1 0 07:42 19.01.2020
4408 Clouds 33 1013 59 8000 2.1 0 07:22 19.01.2020
4409 Clouds 33 1013 66 8000 1.5 60 06:51 19.01.2020
4410 Clear 32 1014 74 6000 1 0 05:41 19.01.2020
4411 Mist 28 1014 88 3000 2.1 100 02:44 19.01.2020
4412 Mist 27 1013 94 3000 2.1 90 02:21 19.01.2020
4413 Mist 27 1013 94 3000 2.1 110 01:25 19.01.2020
4414 Mist 27 1013 94 3000 2.1 110 01:25 19.01.2020
4415 Clouds 27 1012 94 8000 2.6 110 00:46 19.01.2020
4416 Clouds 27 1012 88 8000 1 170 00:28 19.01.2020
4417 Clouds 26 1012 88 8000 1 170 23:56 18.01.2020
4418 Clouds 27 1012 88 8000 2.1 210 23:38 18.01.2020
4419 Clouds 27 1012 88 8000 2.1 210 23:18 18.01.2020
4420 Clouds 27 1011 88 7000 2.1 200 22:55 18.01.2020
4421 Clouds 26 1011 88 7000 2.6 200 22:36 18.01.2020
4422 Clouds 26 1011 88 7000 2.6 200 22:18 18.01.2020
4423 Clouds 27 1011 88 7000 1.5 180 21:56 18.01.2020
4424 Clouds 27 1011 88 6000 2.1 200 21:36 18.01.2020
4425 Clouds 27 1011 88 6000 2.1 200 21:18 18.01.2020
4426 Clouds 27 1012 88 6000 2.1 190 20:41 18.01.2020
4427 Clouds 27 1012 88 6000 2.1 190 20:20 18.01.2020
4428 Clouds 27 1012 83 7000 2.6 180 19:54 18.01.2020
4429 Clouds 27 1012 83 7000 2.6 190 19:36 18.01.2020
4430 Clouds 27 1012 83 7000 2.6 190 19:18 18.01.2020
4431 Clouds 27 1012 83 7000 2.6 180 18:40 18.01.2020
4432 Clouds 27 1012 83 7000 2.6 180 18:40 18.01.2020
4433 Clouds 27 1012 83 7000 2.6 180 18:21 18.01.2020
4434 Clouds 28 1013 83 6000 2.6 190 17:41 18.01.2020
4435 Clouds 28 1013 83 6000 2.6 190 17:21 18.01.2020
4436 Clouds 28 1013 83 6000 2.1 180 16:57 18.01.2020
4437 Clouds 28 1012 83 6000 2.1 160 16:39 18.01.2020
4438 Clouds 28 1012 83 6000 2.1 160 16:21 18.01.2020
4439 Clouds 28 1012 83 6000 2.1 190 15:56 18.01.2020
4440 Clouds 29 1012 83 6000 3.1 210 15:38 18.01.2020
4441 Clouds 29 1012 83 6000 3.1 210 15:20 18.01.2020
4442 Clouds 29 1011 83 6000 3.1 210 14:41 18.01.2020
4443 Clouds 30 1011 83 6000 3.1 210 14:20 18.01.2020
4444 Mist 30 1011 70 5000 4.1 210 13:58 18.01.2020
4445 Mist 30 1010 66 5000 3.1 260 13:37 18.01.2020
4446 Mist 30 1010 66 5000 3.1 260 13:18 18.01.2020
4447 Haze 31 1010 55 5000 0.5 0 12:43 18.01.2020
4448 Clouds 31 1010 52 6000 1.5 110 12:22 18.01.2020
4449 Clouds 31 1010 52 6000 1.5 110 12:22 18.01.2020
4450 Clouds 32 1009 52 7000 2.1 110 11:58 18.01.2020
4451 Clouds 33 1009 52 8000 2.1 110 11:40 18.01.2020
4452 Clouds 33 1009 52 8000 2.1 110 11:20 18.01.2020
4453 Clouds 33 1009 52 8000 2.6 110 10:43 18.01.2020
4454 Clouds 33 1009 52 8000 2.6 130 10:21 18.01.2020
4455 Clouds 34 1009 49 8000 2.6 150 09:55 18.01.2020
4456 Clouds 33 1009 52 7000 1.5 0 09:37 18.01.2020
4457 Clouds 33 1010 55 7000 1.5 0 08:59 18.01.2020
4458 Clouds 33 1010 55 8000 2.6 100 08:41 18.01.2020
4459 Clouds 33 1010 55 8000 2.6 100 08:20 18.01.2020
4460 Clouds 33 1010 55 8000 2.6 100 08:20 18.01.2020
4461 Clouds 33 1011 52 8000 3.6 120 07:56 18.01.2020
4462 Clouds 33 1011 59 8000 1 90 07:37 18.01.2020
4463 Clouds 33 1012 62 7000 2.6 120 06:48 18.01.2020
4464 Clouds 32 1012 66 7000 2.6 80 06:22 18.01.2020
4465 Clouds 31 1013 66 7000 2.1 140 05:31 18.01.2020
4466 Mist 30 1014 88 3000 2.1 100 03:46 18.01.2020
4467 Mist 27 1013 94 2000 2.6 110 02:21 18.01.2020
4468 Mist 27 1012 94 3000 1.5 120 01:36 18.01.2020
4469 Mist 25 1012 94 4000 1.5 120 00:38 18.01.2020
4470 Mist 25 1012 94 4000 1.5 120 00:19 18.01.2020
4471 Mist 25 1012 94 5000 1.5 110 23:45 17.01.2020
4472 Mist 26 1012 94 5000 1 120 23:21 17.01.2020
4473 Clouds 26 1011 88 6000 3.79 171 22:59 17.01.2020
4474 Clouds 27 1011 88 7000 0.5 130 22:40 17.01.2020
4475 Clouds 27 1011 88 7000 0.5 130 22:19 17.01.2020
4476 Clouds 27 1011 88 7000 3.79 171 21:42 17.01.2020
4477 Clouds 27 1011 88 7000 3.79 171 21:24 17.01.2020
4478 Clouds 27 1012 88 8000 1 190 20:59 17.01.2020
4479 Clouds 26 1012 88 8000 1 170 20:40 17.01.2020
4480 Clouds 27 1012 88 8000 1 170 20:20 17.01.2020
4481 Clouds 27 1012 88 8000 1 170 20:20 17.01.2020
4482 Clouds 27 1012 83 8000 1.5 180 19:57 17.01.2020
4483 Clouds 27 1013 83 8000 1 190 19:38 17.01.2020
4484 Clouds 27 1013 83 8000 1 190 19:19 17.01.2020
4485 Clouds 27 1013 78 8000 2.1 190 18:57 17.01.2020
4486 Clouds 27 1013 78 8000 2.1 180 18:37 17.01.2020
4487 Clouds 27 1013 78 8000 2.1 180 18:19 17.01.2020
4488 Clouds 28 1013 74 7000 2.1 170 17:39 17.01.2020
4489 Clouds 28 1013 74 7000 2.1 170 17:21 17.01.2020
4490 Clouds 28 1013 74 7000 1.5 160 16:44 17.01.2020
4491 Clouds 28 1013 74 7000 2.6 210 16:21 17.01.2020
4492 Clouds 28 1013 74 7000 2.6 200 15:58 17.01.2020
4493 Clouds 28 1013 74 7000 2.6 200 15:58 17.01.2020
4494 Clouds 28 1013 70 7000 2.6 250 15:40 17.01.2020
4495 Clouds 28 1013 70 7000 2.6 250 15:22 17.01.2020
4496 Clouds 29 1012 66 7000 2.6 240 14:43 17.01.2020
4497 Clouds 30 1012 70 7000 3.6 250 14:24 17.01.2020
4498 Clouds 30 1012 66 7000 3.6 260 13:45 17.01.2020
4499 Clouds 30 1011 66 7000 3.6 260 13:23 17.01.2020
4500 Clouds 30 1011 66 7000 3.6 250 12:48 17.01.2020
4501 Clouds 31 1011 46 8000 2.1 120 12:24 17.01.2020
4502 Clouds 32 1011 43 8000 2.1 140 11:56 17.01.2020
4503 Clouds 32 1010 41 8000 2.6 140 11:37 17.01.2020
4504 Clouds 33 1010 41 8000 2.6 140 11:18 17.01.2020
4505 Clouds 34 1010 41 8000 2.6 170 10:41 17.01.2020
4506 Clouds 34 1010 41 8000 2.6 170 10:41 17.01.2020
4507 Clouds 34 1010 41 8000 2.6 170 10:22 17.01.2020
4508 Clouds 34 1010 44 8000 3.1 110 09:56 17.01.2020
4509 Clouds 34 1010 44 8000 3.6 110 09:37 17.01.2020
4510 Clouds 34 1010 44 8000 3.6 110 09:18 17.01.2020
4511 Clouds 34 1011 44 7000 2.6 110 08:42 17.01.2020
4512 Clouds 34 1011 46 7000 3.1 130 08:23 17.01.2020
4513 Clouds 33 1012 52 7000 2.1 180 07:51 17.01.2020
4514 Clouds 33 1013 55 7000 0.5 0 07:31 17.01.2020
4515 Clouds 33 1013 59 7000 1.5 240 06:57 17.01.2020
4516 Clouds 32 1014 66 7000 2.1 210 06:37 17.01.2020
4517 Clouds 32 1015 70 7000 1.5 0 05:27 17.01.2020
4518 Rain 30 1013 71 0 3.06 201 03:38 17.01.2020
4519 Rain 28 1013 75 0 3.06 201 02:44 17.01.2020
4520 Rain 26 1012 78 0 3.35 190 01:46 17.01.2020
4521 Rain 25 1013 91 0 3.35 190 01:27 17.01.2020
4522 Clear 25 1011 79 0 2.91 188 00:43 17.01.2020
4523 Clouds 25 1012 94 9000 2.91 188 00:20 17.01.2020
4524 Clouds 26 1012 94 9000 2.91 188 23:42 16.01.2020
4525 Clouds 25 1012 94 9000 2.91 188 23:24 16.01.2020
4526 Clouds 26 1011 88 9000 1 110 22:43 16.01.2020
4527 Clouds 26 1011 88 9000 1 110 22:22 16.01.2020
4528 Clouds 26 1011 83 9000 1.5 140 21:57 16.01.2020
4529 Clouds 26 1012 83 9000 1.5 160 21:39 16.01.2020
4530 Clouds 26 1012 83 9000 1.5 160 21:19 16.01.2020
4531 Clouds 25 1012 88 9000 2.1 160 20:59 16.01.2020
4532 Clouds 25 1012 88 9000 2.1 170 20:39 16.01.2020
4533 Clouds 27 1012 88 9000 2.1 170 20:20 16.01.2020
4534 Clouds 27 1012 88 9000 2.1 180 19:56 16.01.2020
4535 Clouds 27 1012 88 9000 2.1 180 19:56 16.01.2020
4536 Clouds 27 1013 88 9000 3.1 190 19:38 16.01.2020
4537 Clouds 27 1013 88 9000 3.1 190 19:38 16.01.2020
4538 Clouds 27 1013 88 9000 3.1 190 19:20 16.01.2020
4539 Clouds 26 1013 88 9000 3.6 190 18:55 16.01.2020
4540 Clouds 26 1013 88 9000 3.1 190 18:37 16.01.2020
4541 Clouds 26 1013 88 9000 3.1 190 18:37 16.01.2020
4542 Clouds 26 1013 88 9000 3.1 190 18:18 16.01.2020
4543 Clouds 27 1013 83 8000 3.1 180 17:44 16.01.2020
4544 Clouds 28 1013 78 8000 3.1 190 17:23 16.01.2020
4545 Clouds 28 1013 78 8000 2.6 190 16:57 16.01.2020
4546 Clouds 28 1013 78 8000 2.6 180 16:39 16.01.2020
4547 Clouds 27 1013 78 8000 2.6 180 16:20 16.01.2020
4548 Clouds 27 1013 78 8000 3.6 190 15:44 16.01.2020
4549 Clouds 27 1013 78 8000 3.6 190 15:44 16.01.2020
4550 Clouds 28 1013 78 8000 2.6 190 15:24 16.01.2020
4551 Clouds 28 1013 78 8000 2.6 190 15:24 16.01.2020
4552 Clouds 28 1012 74 8000 3.1 200 14:59 16.01.2020
4553 Clouds 28 1012 70 8000 4.1 200 14:41 16.01.2020
4554 Clouds 29 1012 70 8000 4.1 200 14:22 16.01.2020
4555 Clouds 30 1012 62 8000 3.6 230 13:45 16.01.2020
4556 Clouds 30 1011 58 8000 4.1 250 13:26 16.01.2020
4557 Clouds 30 1011 58 8000 3.1 240 12:48 16.01.2020
4558 Clouds 30 1011 46 8000 1.5 120 12:29 16.01.2020
4559 Clouds 32 1010 43 8000 3.1 120 11:59 16.01.2020
4560 Clouds 32 1010 43 8000 2.6 150 11:41 16.01.2020
4561 Clouds 32 1010 43 8000 2.6 150 11:41 16.01.2020
4562 Clouds 33 1010 43 8000 2.6 150 11:23 16.01.2020
4563 Clouds 33 1010 41 8000 2.6 120 10:55 16.01.2020
4564 Clouds 34 1010 44 8000 2.1 180 10:36 16.01.2020
4565 Clouds 34 1010 44 8000 2.1 180 10:18 16.01.2020
4566 Clouds 34 1010 44 8000 2.6 0 09:42 16.01.2020
4567 Clouds 34 1010 46 8000 2.1 200 09:24 16.01.2020
4568 Clouds 34 1010 49 8000 2.6 120 08:56 16.01.2020
4569 Clouds 34 1011 52 8000 2.6 40 08:36 16.01.2020
4570 Clouds 33 1011 52 8000 2.6 40 08:18 16.01.2020
4571 Clouds 32 1012 55 8000 1.5 190 07:42 16.01.2020
4572 Clouds 32 1012 55 8000 1.5 190 07:23 16.01.2020
4573 Clouds 34 1012 59 8000 2.6 110 06:50 16.01.2020
4574 Clouds 32 1013 66 8000 1.5 140 06:32 16.01.2020
4575 Clouds 32 1013 70 7000 4.31 183 05:47 16.01.2020
4576 Clouds 30 1014 79 6000 1 100 04:46 16.01.2020
4577 Mist 29 1014 88 4500 1.5 70 03:29 16.01.2020
4578 Mist 28 1014 94 5000 1.5 50 02:44 16.01.2020
4579 Mist 26 1012 94 3000 2.1 330 01:28 16.01.2020
4580 Clouds 26 1012 88 8000 1 20 00:41 16.01.2020
4581 Clouds 26 1012 88 8000 1 20 00:19 16.01.2020
4582 Clouds 26 1011 88 8000 1 50 23:40 15.01.2020
4583 Clouds 26 1011 88 8000 1 50 23:20 15.01.2020
4584 Clouds 26 1011 88 8000 1 50 23:19 15.01.2020
4585 Clouds 26 1011 88 8000 5.38 179 22:56 15.01.2020
4586 Clouds 26 1011 88 8000 1.5 190 22:36 15.01.2020
4587 Clouds 26 1011 88 8000 1.5 190 22:18 15.01.2020
4588 Clouds 27 1011 88 8000 2.6 180 21:55 15.01.2020
4589 Clouds 27 1011 88 8000 2.6 170 21:36 15.01.2020
4590 Clouds 27 1011 88 8000 2.6 170 21:18 15.01.2020
4591 Clouds 27 1011 88 8000 2.6 170 21:18 15.01.2020
4592 Clouds 27 1011 83 8000 1.5 170 20:54 15.01.2020
4593 Clouds 27 1011 88 8000 2.6 170 20:36 15.01.2020
4594 Clouds 27 1011 88 8000 2.6 170 20:18 15.01.2020
4595 Clouds 27 1012 88 8000 2.6 190 19:54 15.01.2020
4596 Clouds 27 1012 88 8000 3.1 190 19:36 15.01.2020
4597 Clouds 27 1012 88 8000 3.1 190 19:18 15.01.2020
4598 Clouds 26 1012 88 8000 2.6 180 18:54 15.01.2020
4599 Clouds 26 1012 83 8000 2.6 180 18:36 15.01.2020
4600 Clouds 27 1012 83 8000 2.6 180 18:18 15.01.2020
4601 Clouds 27 1012 78 8000 2.6 170 17:40 15.01.2020
4602 Clouds 28 1012 78 8000 2.6 170 17:21 15.01.2020
4603 Clouds 27 1012 78 8000 1.5 180 16:56 15.01.2020
4604 Clouds 27 1012 78 8000 1.5 180 16:38 15.01.2020
4605 Clouds 27 1012 78 8000 1.5 180 16:20 15.01.2020
4606 Clouds 28 1012 74 8000 2.1 190 15:43 15.01.2020
4607 Clouds 28 1012 66 8000 3.1 240 15:21 15.01.2020
4608 Clouds 28 1011 66 8000 3.1 220 14:55 15.01.2020
4609 Clouds 28 1011 58 8000 2.6 260 14:37 15.01.2020
4610 Clouds 28 1011 58 8000 2.6 260 14:37 15.01.2020
4611 Clouds 30 1011 58 8000 2.6 260 14:18 15.01.2020
4612 Clouds 30 1010 62 8000 2.6 260 13:41 15.01.2020
4613 Clouds 30 1010 62 8000 2.6 260 13:23 15.01.2020
4614 Clouds 30 1010 55 8000 6.22 192 12:55 15.01.2020
4615 Clouds 30 1010 52 8000 2.1 120 12:37 15.01.2020
4616 Clouds 31 1010 52 8000 2.1 120 12:18 15.01.2020
4617 Clouds 32 1010 46 9000 2.6 110 11:38 15.01.2020
4618 Clouds 32 1010 46 9000 2.6 110 11:20 15.01.2020
4619 Clouds 32 1009 43 9000 2.1 140 10:48 15.01.2020
4620 Clouds 33 1009 43 9000 2.6 130 10:29 15.01.2020
4621 Clouds 33 1009 43 9000 3.1 120 09:59 15.01.2020
4622 Clouds 33 1010 43 9000 2.6 90 09:41 15.01.2020
4623 Clouds 33 1010 43 9000 2.6 90 09:21 15.01.2020
4624 Clouds 34 1010 46 9000 3.6 100 08:44 15.01.2020
4625 Clouds 33 1010 49 9000 3.1 110 08:26 15.01.2020
4626 Clouds 32 1011 49 9000 2.6 170 07:54 15.01.2020
4627 Clouds 32 1012 55 9000 2.6 100 07:33 15.01.2020
4628 Clouds 32 1012 58 9000 2.1 0 06:54 15.01.2020
4629 Clouds 32 1013 62 9000 2.1 0 06:28 15.01.2020
4630 Clouds 30 1014 74 9000 0.5 0 04:57 15.01.2020
4631 Mist 28 1014 94 3500 1.5 70 03:20 15.01.2020
4632 Mist 27 1012 100 5000 1 30 01:48 15.01.2020
4633 Clouds 26 1012 94 7000 1.5 40 01:21 15.01.2020
4634 Clouds 26 1011 88 9000 3.08 175 00:37 15.01.2020
4635 Clouds 26 1011 88 9000 3.08 175 00:19 15.01.2020
4636 Clouds 26 1011 88 9000 3.08 175 23:46 14.01.2020
4637 Clouds 26 1010 88 9000 1 170 23:27 14.01.2020
4638 Clouds 26 1010 88 9000 1 170 22:57 14.01.2020
4639 Clouds 26 1010 88 9000 1 160 22:39 14.01.2020
4640 Clouds 26 1010 88 9000 1 160 22:18 14.01.2020
4641 Clouds 27 1010 94 9000 0.5 170 21:56 14.01.2020
4642 Clouds 27 1011 88 9000 1.5 170 21:37 14.01.2020
4643 Clouds 27 1011 88 9000 1.5 170 21:19 14.01.2020
4644 Clouds 27 1011 88 9000 2.1 160 20:42 14.01.2020
4645 Clouds 27 1011 88 9000 2.1 160 20:42 14.01.2020
4646 Clouds 27 1011 88 9000 2.1 160 20:22 14.01.2020
4647 Clouds 27 1011 88 9000 2.1 160 19:57 14.01.2020
4648 Clouds 27 1012 88 9000 2.1 170 19:38 14.01.2020
4649 Clouds 27 1012 88 9000 2.1 170 19:20 14.01.2020
4650 Clouds 27 1012 88 9000 2.1 170 19:20 14.01.2020
4651 Clouds 27 1012 88 9000 2.1 190 18:58 14.01.2020
4652 Clouds 26 1011 88 9000 2.6 180 18:39 14.01.2020
4653 Clouds 26 1011 88 9000 2.6 180 18:19 14.01.2020
4654 Clouds 26 1012 83 9000 2.1 190 17:39 14.01.2020
4655 Clouds 27 1012 83 9000 2.1 190 17:19 14.01.2020
4656 Clouds 27 1012 83 9000 1.5 190 16:57 14.01.2020
4657 Clouds 28 1011 83 9000 1.5 180 16:38 14.01.2020
4658 Clouds 27 1011 83 9000 1.5 180 16:20 14.01.2020
4659 Clouds 27 1011 83 9000 2.1 200 15:54 14.01.2020
4660 Clouds 27 1011 74 9000 2.1 200 15:36 14.01.2020
4661 Clouds 28 1011 74 9000 2.1 200 15:18 14.01.2020
4662 Clouds 28 1010 74 9000 3.1 210 14:41 14.01.2020
4663 Clouds 29 1010 74 9000 3.1 210 14:20 14.01.2020
4664 Clouds 29 1010 70 9000 3.1 210 13:42 14.01.2020
4665 Clouds 29 1009 66 9000 3.1 230 13:20 14.01.2020
4666 Clouds 30 1009 62 9000 2.6 280 12:57 14.01.2020
4667 Clouds 30 1009 62 9000 2.6 310 12:39 14.01.2020
4668 Clouds 30 1009 62 9000 2.6 310 12:20 14.01.2020
4669 Clouds 30 1009 62 9000 2.6 310 12:20 14.01.2020
4670 Clouds 31 1009 59 9000 2.6 270 11:42 14.01.2020
4671 Clouds 31 1009 59 9000 2.6 270 11:22 14.01.2020
4672 Clouds 32 1009 46 8000 2.1 110 10:57 14.01.2020
4673 Clouds 33 1009 46 8000 1 200 10:38 14.01.2020
4674 Clouds 33 1009 46 8000 1 200 10:19 14.01.2020
4675 Clouds 33 1009 49 8000 2.1 140 09:56 14.01.2020
4676 Clouds 33 1009 49 8000 1 100 09:37 14.01.2020
4677 Clouds 33 1009 49 8000 1 100 09:19 14.01.2020
4678 Clouds 33 1010 49 8000 2.1 170 08:41 14.01.2020
4679 Clouds 33 1010 49 8000 2.1 170 08:41 14.01.2020
4680 Clouds 33 1010 49 8000 2.1 170 08:22 14.01.2020
4681 Clouds 33 1010 52 8000 3.1 160 07:53 14.01.2020
4682 Clouds 32 1011 55 8000 1.5 140 07:25 14.01.2020
4683 Clouds 32 1012 59 7000 3.1 160 06:44 14.01.2020
4684 Clouds 32 1013 62 7000 4.25 179 05:59 14.01.2020
4685 Clouds 30 1014 74 7000 2.6 160 04:51 14.01.2020
4686 Clouds 30 1014 78 6000 1.5 150 03:47 14.01.2020
4687 Mist 28 1013 88 4500 3.6 110 02:39 14.01.2020
4688 Mist 26 1012 88 4000 3.6 110 01:21 14.01.2020
4689 Mist 26 1012 94 4500 3.1 90 00:48 14.01.2020
4690 Clouds 26 1011 94 6000 2.6 80 00:22 14.01.2020
4691 Clouds 26 1011 100 7000 2.1 50 23:44 13.01.2020
4692 Clouds 27 1011 94 8000 2.1 70 23:19 13.01.2020
4693 Clouds 26 1011 94 8000 1 110 22:57 13.01.2020
4694 Clouds 26 1010 94 8000 0.5 140 22:39 13.01.2020
4695 Clouds 27 1010 94 8000 0.5 140 22:20 13.01.2020
4696 Clouds 27 1010 88 8000 1.5 130 21:55 13.01.2020
4697 Clouds 27 1010 94 8000 1.5 190 21:37 13.01.2020
4698 Clouds 27 1010 94 8000 1.5 190 21:18 13.01.2020
4699 Clouds 27 1011 88 8000 1.5 180 20:56 13.01.2020
4700 Clouds 27 1011 88 8000 1.5 170 20:38 13.01.2020
4701 Clouds 27 1011 88 8000 1.5 170 20:19 13.01.2020
4702 Clouds 27 1011 88 8000 1.5 200 19:41 13.01.2020
4703 Clouds 27 1011 88 8000 1.5 200 19:21 13.01.2020
4704 Clouds 28 1011 88 8000 1.5 200 18:58 13.01.2020
4705 Clouds 28 1011 83 8000 1.5 180 18:40 13.01.2020
4706 Clouds 27 1011 83 8000 1.5 180 18:19 13.01.2020
4707 Clouds 27 1011 83 8000 1.5 180 18:19 13.01.2020
4708 Clouds 27 1011 83 8000 1.5 180 18:19 13.01.2020
4709 Clouds 27 1011 83 8000 1.5 180 18:19 13.01.2020
4710 Clouds 27 1011 83 8000 1.5 190 17:58 13.01.2020
4711 Clouds 27 1011 83 8000 2.1 200 17:39 13.01.2020
4712 Clouds 27 1011 83 8000 2.1 200 17:21 13.01.2020
4713 Rain 28 1010 74 0 4.32 194 16:43 13.01.2020
4714 Rain 27 1010 73 0 4.32 194 16:24 13.01.2020
4715 Rain 27 1010 72 0 4.32 194 15:59 13.01.2020
4716 Rain 28 1010 72 0 4.32 194 15:41 13.01.2020
4717 Rain 28 1010 71 0 4.32 194 15:21 13.01.2020
4718 Rain 28 1009 71 0 4.32 194 14:54 13.01.2020
4719 Rain 27 1009 71 0 4.32 194 14:36 13.01.2020
4720 Clouds 29 1009 71 0 5.95 200 14:18 13.01.2020
4721 Clouds 29 1008 69 0 5.95 200 13:40 13.01.2020
4722 Clouds 29 1008 68 0 5.95 200 13:22 13.01.2020
4723 Clouds 30 1008 55 9000 1.5 30 12:58 13.01.2020
4724 Clouds 30 1008 55 9000 1.5 30 12:40 13.01.2020
4725 Clouds 31 1008 55 9000 1.5 30 12:21 13.01.2020
4726 Clouds 31 1008 55 9000 2.1 90 11:40 13.01.2020
4727 Clouds 31 1008 55 9000 2.1 90 11:20 13.01.2020
4728 Clouds 31 1008 55 9000 2.1 90 11:20 13.01.2020
4729 Clouds 31 1008 55 9000 2.1 90 11:20 13.01.2020
4730 Clouds 32 1008 55 9000 2.1 110 10:58 13.01.2020
4731 Clouds 33 1008 55 9000 2.6 90 10:39 13.01.2020
4732 Clouds 33 1008 55 9000 2.6 90 10:39 13.01.2020
4733 Clouds 32 1008 55 9000 2.6 90 10:20 13.01.2020
4734 Clouds 33 1008 55 9000 3.1 120 09:59 13.01.2020
4735 Clouds 32 1008 55 9000 3.1 120 09:40 13.01.2020
4736 Clouds 32 1008 55 9000 3.1 120 09:21 13.01.2020
4737 Clouds 32 1009 55 9000 4.1 110 08:41 13.01.2020
4738 Clouds 32 1009 55 9000 4.1 110 08:20 13.01.2020
4739 Clouds 32 1009 58 9000 4.6 110 07:48 13.01.2020
4740 Clouds 31 1010 62 9000 4.6 100 07:27 13.01.2020
4741 Clouds 31 1011 70 9000 4.6 80 06:43 13.01.2020
4742 Clouds 31 1011 70 9000 4.1 100 06:21 13.01.2020
4743 Clouds 31 1012 79 8000 3.1 120 05:27 13.01.2020
4744 Clouds 28 1012 88 8000 4.1 110 03:55 13.01.2020
4745 Clouds 28 1012 88 8000 4.1 100 03:24 13.01.2020
4746 Clouds 27 1012 83 8000 1.5 90 02:45 13.01.2020
4747 Clouds 26 1011 88 9000 2.5 163 02:26 13.01.2020
4748 Clouds 26 1010 88 9000 2.64 209 01:20 13.01.2020
4749 Rain 25 1010 100 8000 2.6 180 00:41 13.01.2020
4750 Rain 25 1010 100 8000 2.6 180 00:22 13.01.2020
4751 Rain 26 1009 94 3000 5.7 90 23:42 12.01.2020
4752 Rain 26 1009 94 3000 5.7 90 23:23 12.01.2020
4753 Clouds 27 1009 83 8000 2.1 70 22:58 12.01.2020
4754 Clouds 27 1009 83 8000 2.1 70 22:58 12.01.2020
4755 Clouds 28 1009 83 8000 1.5 120 22:39 12.01.2020
4756 Clouds 28 1009 83 8000 1.5 120 22:21 12.01.2020
4757 Clouds 28 1009 83 8000 4.14 192 21:56 12.01.2020
4758 Clouds 28 1009 83 9000 2.1 190 21:38 12.01.2020
4759 Clouds 28 1009 83 9000 2.1 190 21:19 12.01.2020
4760 Clouds 28 1009 83 9000 2.6 190 20:56 12.01.2020
4761 Clouds 28 1009 83 9000 2.6 190 20:56 12.01.2020
4762 Clouds 28 1009 83 9000 1.5 180 20:37 12.01.2020
4763 Clouds 28 1009 83 9000 1.5 180 20:19 12.01.2020
4764 Clouds 28 1009 83 9000 1.5 180 19:55 12.01.2020
4765 Clouds 28 1010 83 9000 2.6 180 19:37 12.01.2020
4766 Clouds 29 1010 83 9000 2.6 180 19:18 12.01.2020
4767 Clouds 29 1010 83 9000 2.6 180 19:18 12.01.2020
4768 Clouds 28 1010 83 9000 2.1 180 18:56 12.01.2020
4769 Clouds 29 1010 83 9000 3.1 170 18:38 12.01.2020
4770 Clouds 29 1010 83 9000 3.1 170 18:19 12.01.2020
4771 Clouds 29 1010 79 9000 2.6 170 17:42 12.01.2020
4772 -273 0 0 0 0 0 17:22 12.01.2020
4773 Clouds 28 1010 78 9000 1.5 180 16:58 12.01.2020
4774 Clouds 28 1010 83 9000 2.1 180 16:39 12.01.2020
4775 Clouds 28 1010 83 9000 2.1 180 16:20 12.01.2020
4776 Clouds 28 1010 79 9000 2.6 190 15:55 12.01.2020
4777 Clouds 28 1009 79 9000 2.1 190 15:37 12.01.2020
4778 Clouds 28 1009 79 9000 2.1 190 15:19 12.01.2020
4779 Clouds 28 1009 74 9000 2.6 190 14:42 12.01.2020
4780 Clouds 30 1009 74 9000 2.6 190 14:23 12.01.2020
4781 Clouds 30 1008 70 9000 3.6 210 13:56 12.01.2020
4782 Clouds 30 1008 66 9000 3.6 210 13:38 12.01.2020
4783 Clouds 30 1008 66 9000 3.6 210 13:20 12.01.2020
4784 Clouds 30 1007 62 9000 3.1 200 12:44 12.01.2020
4785 Clouds 31 1007 49 9000 2.1 140 12:21 12.01.2020
4786 Clouds 32 1007 49 9000 2.1 170 11:59 12.01.2020
4787 Clouds 32 1007 49 9000 3.1 130 11:40 12.01.2020
4788 Clouds 32 1007 49 9000 3.1 130 11:22 12.01.2020
4789 Clouds 33 1006 49 9000 4.1 100 10:56 12.01.2020
4790 Clouds 33 1006 52 9000 3.6 80 10:37 12.01.2020
4791 Clouds 34 1006 52 9000 3.6 80 10:18 12.01.2020
4792 Clouds 34 1007 49 9000 2.6 110 09:41 12.01.2020
4793 Clouds 34 1007 49 9000 2.6 110 09:21 12.01.2020
4794 Clouds 34 1007 49 9000 2.6 130 08:47 12.01.2020
4795 Clouds 34 1008 52 9000 3.6 100 08:21 12.01.2020
4796 Clouds 34 1008 52 9000 3.6 100 08:21 12.01.2020
4797 Clouds 34 1008 55 9000 2.6 100 07:45 12.01.2020
4798 Clouds 34 1009 59 9000 3.1 120 07:25 12.01.2020
4799 Clouds 34 1010 55 9000 2.6 110 06:50 12.01.2020
4800 Clouds 33 1011 62 9000 2.6 100 06:32 12.01.2020
4801 Clouds 33 1011 62 9000 2.6 130 05:49 12.01.2020
4802 Clouds 31 1012 70 9000 2.6 150 04:52 12.01.2020
4803 Clouds 30 1012 83 7000 3.1 120 03:29 12.01.2020
4804 Mist 28 1012 88 4900 3.1 110 02:43 12.01.2020
4805 Mist 28 1011 94 3000 3.1 110 02:22 12.01.2020
4806 Mist 27 1011 94 3000 2.1 110 01:30 12.01.2020
4807 Mist 27 1010 94 5000 2.1 120 00:44 12.01.2020
4808 Clouds 27 1010 94 6000 2.6 100 00:21 12.01.2020
4809 Clouds 27 1010 94 7000 1.5 110 23:56 11.01.2020
4810 Clouds 27 1010 88 8000 1.5 110 23:37 11.01.2020
4811 Clouds 27 1010 88 8000 1.5 110 23:18 11.01.2020
4812 Clouds 27 1009 88 8000 1.5 110 22:56 11.01.2020
4813 Clouds 27 1009 88 8000 1.5 120 22:37 11.01.2020
4814 Clouds 27 1009 88 8000 1.5 120 22:18 11.01.2020
4815 Clouds 27 1009 88 8000 1.5 160 21:42 11.01.2020
4816 Clouds 27 1009 88 8000 1.5 160 21:18 11.01.2020
4817 Clouds 27 1009 94 8000 1.5 170 20:55 11.01.2020
4818 Clouds 27 1010 88 8000 2.6 200 20:36 11.01.2020
4819 Clouds 27 1010 88 8000 2.6 200 20:18 11.01.2020
4820 Clouds 28 1010 88 8000 2.1 210 19:54 11.01.2020
4821 Clouds 28 1010 88 8000 2.1 210 19:36 11.01.2020
4822 Clouds 28 1010 88 8000 2.1 210 19:18 11.01.2020
4823 Clouds 28 1010 83 8000 3.6 200 18:39 11.01.2020
4824 Clouds 28 1010 83 8000 3.6 200 18:20 11.01.2020
4825 Clouds 28 1010 83 8000 3.6 200 18:20 11.01.2020
4826 Clouds 28 1010 88 8000 4.1 200 17:58 11.01.2020
4827 Clouds 28 1010 88 8000 4.1 200 17:58 11.01.2020
4828 Clouds 28 1010 83 8000 3.6 190 17:40 11.01.2020
4829 Clouds 28 1010 83 8000 3.6 190 17:20 11.01.2020
4830 Clouds 28 1010 83 8000 2.6 190 16:55 11.01.2020
4831 Clouds 28 1010 83 8000 2.6 190 16:55 11.01.2020
4832 Clouds 28 1010 78 8000 2.6 190 16:36 11.01.2020
4833 Clouds 28 1010 78 8000 2.6 190 16:36 11.01.2020
4834 Clouds 29 1010 78 8000 2.6 190 16:18 11.01.2020
4835 Clouds 29 1010 78 8000 2.6 200 15:41 11.01.2020
4836 Clouds 29 1010 78 8000 2.6 200 15:22 11.01.2020
4837 Clouds 29 1009 70 8000 3.1 200 14:58 11.01.2020
4838 Clouds 29 1009 70 8000 2.6 200 14:39 11.01.2020
4839 Clouds 30 1009 70 8000 2.6 200 14:21 11.01.2020
4840 Clouds 30 1009 62 8000 2.6 170 13:41 11.01.2020
4841 Clouds 30 1009 62 8000 2.6 170 13:21 11.01.2020
4842 Clouds 30 1008 62 7000 2.6 170 12:59 11.01.2020
4843 Clouds 30 1008 62 7000 3.6 190 12:41 11.01.2020
4844 Clouds 30 1008 62 7000 3.6 190 12:41 11.01.2020
4845 Clouds 30 1008 62 7000 3.6 190 12:23 11.01.2020
4846 Clouds 31 1008 52 7000 2.1 140 11:48 11.01.2020
4847 Clouds 32 1008 55 7000 1.5 160 11:26 11.01.2020
4848 Clouds 33 1007 52 7000 2.1 140 10:55 11.01.2020
4849 Clouds 33 1007 52 7000 2.6 130 10:36 11.01.2020
4850 Clouds 34 1007 52 7000 2.6 130 10:18 11.01.2020
4851 Clouds 35 1008 49 8000 1.5 150 09:39 11.01.2020
4852 Clouds 34 1008 49 8000 1.5 150 09:20 11.01.2020
4853 Clouds 34 1008 49 8000 1.5 150 09:20 11.01.2020
4854 Clouds 35 1008 52 8000 1.5 0 08:42 11.01.2020
4855 Clouds 35 1008 52 8000 1.5 0 08:22 11.01.2020
4856 Clouds 33 1009 59 8000 3.6 120 07:44 11.01.2020
4857 Clouds 33 1009 59 8000 3.6 120 07:25 11.01.2020
4858 Clouds 33 1010 59 8000 2.1 160 06:51 11.01.2020
4859 Clouds 32 1011 70 8000 2.1 110 05:48 11.01.2020
4860 Clouds 31 1012 74 6000 2.6 130 04:47 11.01.2020
4861 Mist 31 1012 83 5000 3.1 130 04:28 11.01.2020
4862 Mist 28 1012 88 3500 2.6 110 02:49 11.01.2020
4863 Mist 28 1011 83 3000 2.6 120 02:27 11.01.2020
4864 Mist 26 1011 88 3500 3.6 110 01:43 11.01.2020
4865 Mist 26 1010 88 3500 3.1 100 01:19 11.01.2020
4866 Mist 27 1010 88 5000 2.1 100 00:38 11.01.2020
4867 Clouds 27 1010 94 8000 2.1 100 23:59 10.01.2020
4868 Clouds 27 1010 94 8000 2.1 100 23:40 10.01.2020
4869 Clouds 27 1010 94 8000 2.1 100 23:21 10.01.2020
4870 Clouds 28 1009 83 8000 2.1 110 22:57 10.01.2020
4871 Clouds 28 1009 83 8000 1.5 140 22:39 10.01.2020
4872 Clouds 28 1009 83 8000 1.5 140 22:20 10.01.2020
4873 Clouds 28 1009 83 8000 2.1 150 21:55 10.01.2020
4874 Clouds 28 1009 83 8000 1.5 160 21:36 10.01.2020
4875 Clouds 28 1009 83 8000 1.5 160 21:18 10.01.2020
4876 Clouds 28 1010 83 8000 2.1 170 20:42 10.01.2020
4877 Clouds 28 1010 83 8000 2.1 170 20:24 10.01.2020
4878 Clouds 28 1010 83 8000 2.1 170 20:24 10.01.2020
4879 Clouds 27 1010 88 8000 2.1 210 19:55 10.01.2020
4880 Clouds 28 1010 88 8000 2.1 200 19:37 10.01.2020
4881 Clouds 28 1010 88 8000 2.1 200 19:19 10.01.2020
4882 Clouds 29 1010 79 8000 3.1 190 18:41 10.01.2020
4883 Clouds 29 1010 79 8000 3.1 190 18:19 10.01.2020
4884 Clouds 29 1010 79 8000 3.1 190 18:19 10.01.2020
4885 Clouds 29 1010 74 8000 2.6 180 17:57 10.01.2020
4886 Clouds 28 1010 74 8000 2.1 190 17:38 10.01.2020
4887 Clouds 29 1010 74 8000 2.1 190 17:20 10.01.2020
4888 Clouds 29 1010 74 8000 2.1 190 17:20 10.01.2020
4889 Clouds 30 1010 74 8000 3.1 190 16:55 10.01.2020
4890 Clouds 30 1010 74 8000 3.1 190 16:37 10.01.2020
4891 Clouds 29 1010 74 8000 3.1 190 16:19 10.01.2020
4892 Clouds 29 1010 70 7000 3.1 190 15:55 10.01.2020
4893 Clouds 29 1010 66 7000 2.6 190 15:36 10.01.2020
4894 Clouds 29 1010 66 7000 2.6 190 15:36 10.01.2020
4895 Clouds 29 1010 66 7000 2.6 190 15:18 10.01.2020
4896 Clouds 30 1009 55 7000 2.6 260 14:42 10.01.2020
4897 Clouds 31 1009 55 8000 2.6 280 14:20 10.01.2020
4898 Clouds 31 1009 55 8000 2.6 280 13:59 10.01.2020
4899 Clouds 31 1009 55 8000 2.6 310 13:41 10.01.2020
4900 Clouds 31 1009 55 8000 2.6 310 13:23 10.01.2020
4901 Clouds 31 1008 49 8000 2.6 310 12:58 10.01.2020
4902 Clouds 32 1008 43 8000 4.12 208 12:38 10.01.2020
4903 Clouds 32 1008 43 8000 4.12 208 12:19 10.01.2020
4904 Clouds 33 1008 41 9000 1 0 11:54 10.01.2020
4905 Clouds 32 1008 41 9000 1 0 11:36 10.01.2020
4906 Clouds 33 1008 41 9000 1 0 11:18 10.01.2020
4907 Clouds 33 1007 44 9000 1.5 60 10:42 10.01.2020
4908 Clouds 33 1007 44 9000 1.5 60 10:24 10.01.2020
4909 Clouds 34 1007 39 9000 2.1 100 09:56 10.01.2020
4910 Clouds 34 1007 39 9000 1.5 80 09:37 10.01.2020
4911 Clouds 34 1007 39 9000 1.5 80 09:19 10.01.2020
4912 Clouds 35 1008 41 9000 2.1 140 08:41 10.01.2020
4913 Clouds 34 1008 41 9000 2.1 140 08:22 10.01.2020
4914 Clouds 35 1009 41 8000 4.1 110 07:44 10.01.2020
4915 Clouds 34 1009 46 8000 3.1 60 07:24 10.01.2020
4916 Clouds 34 1010 46 8000 3.6 110 06:45 10.01.2020
4917 Clouds 34 1011 46 8000 2.1 100 06:25 10.01.2020
4918 Clouds 34 1011 46 8000 2.1 0 05:46 10.01.2020
4919 Mist 31 1012 62 5000 3.1 80 03:37 10.01.2020
4920 Mist 30 1012 62 5000 3.1 80 03:18 10.01.2020
4921 Clouds 29 1011 69 6000 2.6 60 02:39 10.01.2020
4922 Clouds 27 1011 74 7000 1.5 360 01:38 10.01.2020
4923 Clouds 27 1011 74 7000 1.5 360 01:19 10.01.2020
4924 Clouds 27 1010 83 9000 1.5 20 00:39 10.01.2020
4925 Clouds 27 1010 78 9000 2.53 280 23:58 09.01.2020
4926 Clouds 27 1010 78 9000 2.53 280 23:38 09.01.2020
4927 Clouds 27 1010 78 9000 2.6 236 23:20 09.01.2020
4928 Clouds 27 1010 78 9000 2.6 236 22:57 09.01.2020
4929 Clouds 27 1010 78 9000 2.6 236 22:38 09.01.2020
4930 Clouds 27 1010 78 9000 2.6 236 22:19 09.01.2020
4931 Clouds 28 1010 74 9000 2.6 140 21:57 09.01.2020
4932 Clouds 28 1010 74 9000 2.6 236 21:37 09.01.2020
4933 Clouds 28 1010 74 9000 2.6 236 21:37 09.01.2020
4934 Clouds 28 1010 74 9000 2.6 236 21:37 09.01.2020
4935 Clouds 28 1010 74 9000 2.6 236 21:37 09.01.2020
4936 Clouds 28 1010 74 9000 2.6 236 21:37 09.01.2020
4937 Clouds 28 1010 74 9000 2.6 236 21:19 09.01.2020
4938 Clouds 27 1010 62 9000 2.6 236 20:56 09.01.2020
4939 Clouds 27 1010 62 9000 2.6 236 20:38 09.01.2020
4940 Clouds 28 1010 65 9000 1.34 223 20:19 09.01.2020
4941 Clouds 29 1010 65 9000 2.1 50 19:56 09.01.2020
4942 Clouds 29 1010 66 9000 1 320 19:37 09.01.2020
4943 Clouds 29 1010 66 9000 1 320 19:18 09.01.2020
4944 Clouds 28 1010 62 9000 1.34 223 18:54 09.01.2020
4945 Clouds 29 1010 58 9000 1.34 223 18:36 09.01.2020
4946 Clouds 29 1010 58 9000 1.34 223 18:18 09.01.2020
4947 Clouds 29 1010 58 9000 1.34 223 17:41 09.01.2020
4948 Clouds 30 1010 69 9000 1 0 17:18 09.01.2020
4949 Clouds 30 1010 58 10000 1.5 260 16:47 09.01.2020
4950 Clouds 30 1010 55 10000 2.1 250 16:23 09.01.2020
4951 Clouds 30 1010 55 10000 2.1 250 16:23 09.01.2020
4952 Clouds 30 1010 55 10000 2.1 250 16:23 09.01.2020
4953 Clouds 30 1010 52 10000 2.1 260 15:56 09.01.2020
4954 Clouds 30 1010 52 10000 2.1 260 15:56 09.01.2020
4955 Clouds 30 1010 52 10000 2.1 260 15:56 09.01.2020
4956 Clouds 29 1010 55 10000 2.1 230 15:38 09.01.2020
4957 Clouds 29 1010 55 10000 2.1 230 15:18 09.01.2020
4958 Clouds 30 1010 55 10000 2.6 220 14:41 09.01.2020
4959 Clouds 31 1010 49 10000 1.5 320 14:21 09.01.2020
4960 Clouds 31 1009 49 10000 1.5 280 13:57 09.01.2020
4961 Clouds 32 1009 49 10000 2.1 310 13:39 09.01.2020
4962 Clouds 31 1009 49 10000 2.1 310 13:20 09.01.2020
4963 Clouds 32 1009 46 10000 2.6 330 12:58 09.01.2020
4964 Clouds 32 1009 46 10000 2.6 330 12:58 09.01.2020
4965 Clouds 31 1008 46 10000 2.1 310 12:38 09.01.2020
4966 Clouds 32 1008 46 10000 2.1 310 12:19 09.01.2020
4967 Clouds 32 1008 41 10000 1.5 100 11:55 09.01.2020
4968 Clouds 33 1009 41 10000 1.5 90 11:37 09.01.2020
4969 Clouds 33 1009 41 10000 1.5 90 11:19 09.01.2020
4970 Clouds 34 1009 39 10000 1 0 10:42 09.01.2020
4971 Clouds 34 1008 41 10000 2.6 10 10:22 09.01.2020
4972 Clouds 35 1008 41 10000 2.1 0 09:49 09.01.2020
4973 Clouds 34 1009 39 10000 4.1 80 09:26 09.01.2020
4974 Clouds 34 1009 41 10000 3.1 70 09:00 09.01.2020
4975 Clouds 34 1009 41 10000 3.1 70 08:40 09.01.2020
4976 Clouds 34 1010 41 10000 4.1 80 08:22 09.01.2020
4977 Clouds 34 1010 44 10000 4.1 80 07:57 09.01.2020
4978 Clouds 34 1011 41 9000 4.1 80 07:38 09.01.2020
4979 Clouds 35 1011 41 9000 4.1 80 07:19 09.01.2020
4980 Clouds 35 1012 44 9000 3.1 70 06:38 09.01.2020
4981 Clouds 35 1012 44 9000 3.1 70 06:18 09.01.2020
4982 Clouds 34 1013 49 9000 3.1 80 05:40 09.01.2020
4983 Clouds 32 1013 62 8000 3.6 20 04:42 09.01.2020
4984 Clouds 32 1013 62 8000 3.6 20 04:42 09.01.2020
4985 Clouds 30 1012 78 6000 2.1 350 03:28 09.01.2020
4986 Clouds 30 1012 78 6000 2.1 350 02:47 09.01.2020
4987 Clouds 27 1012 78 6000 2.6 350 01:56 09.01.2020
4988 Clouds 27 1012 83 6000 2.1 340 01:34 09.01.2020
4989 Clear 27 1012 78 7000 2.1 340 00:40 09.01.2020
4990 Clear 26 1011 83 7000 1.5 320 00:19 09.01.2020
4991 Clear 26 1011 88 6000 1 0 23:41 08.01.2020
4992 Clear 26 1011 88 6000 1 0 23:23 08.01.2020
4993 Clear 26 1011 83 6000 1 0 22:56 08.01.2020
4994 Clear 27 1011 83 6000 1.5 150 22:38 08.01.2020
4995 Clear 27 1011 83 6000 1.5 150 22:19 08.01.2020
4996 Clear 27 1011 83 7000 0.62 286 21:55 08.01.2020
4997 Clear 27 1011 83 8000 0.62 286 21:37 08.01.2020
4998 Clear 27 1011 83 8000 0.62 286 21:18 08.01.2020
4999 Clear 26 1011 78 8000 2.1 120 20:56 08.01.2020
5000 Clear 27 1011 74 8000 1.5 110 20:37 08.01.2020
5001 Clouds 27 1011 74 8000 1.5 110 20:19 08.01.2020
5002 Clouds 28 1012 65 9000 2.1 110 19:39 08.01.2020
5003 Clouds 28 1012 65 9000 2.1 110 19:20 08.01.2020
5004 Clouds 28 1012 65 9000 2.6 130 18:58 08.01.2020
5005 Clouds 28 1012 65 9000 2.6 130 18:58 08.01.2020
5006 Clouds 27 1012 65 9000 2.6 130 18:39 08.01.2020
5007 Clouds 28 1012 62 9000 2.1 130 18:19 08.01.2020
5008 Clouds 28 1012 62 9000 2.1 130 18:19 08.01.2020
5009 Clouds 29 1012 58 9000 2.1 150 17:58 08.01.2020
5010 Clouds 29 1012 58 9000 1.5 350 17:39 08.01.2020
5011 Clouds 29 1012 58 9000 1.5 350 17:20 08.01.2020
5012 Clouds 29 1011 55 9000 2.6 350 16:57 08.01.2020
5013 Clouds 29 1011 55 9000 2.6 350 16:57 08.01.2020
5014 Clouds 29 1011 51 9000 2.6 350 16:38 08.01.2020
5015 Clouds 29 1011 51 9000 2.6 350 16:19 08.01.2020
5016 Clouds 30 1011 52 9000 3.6 350 15:45 08.01.2020
5017 Clouds 30 1011 52 9000 2.1 360 15:22 08.01.2020
5018 Clouds 30 1011 52 9000 3.1 350 14:59 08.01.2020
5019 Clouds 30 1010 48 9000 3.1 350 14:40 08.01.2020
5020 Clouds 30 1010 48 9000 3.1 350 14:21 08.01.2020
5021 Clouds 30 1010 48 9000 2.1 20 13:42 08.01.2020
5022 Clouds 31 1010 46 9000 2.1 360 13:22 08.01.2020
5023 Clouds 30 1010 48 9000 2.1 30 12:55 08.01.2020
5024 Clouds 30 1010 48 9000 2.1 30 12:55 08.01.2020
5025 Clouds 31 1009 46 9000 2.1 70 12:37 08.01.2020
5026 Clouds 32 1009 46 9000 2.1 70 12:18 08.01.2020
5027 Clouds 32 1009 46 9000 2.1 70 12:18 08.01.2020
5028 Clouds 31 1009 43 9000 2.1 90 11:48 08.01.2020
5029 Clouds 33 1009 43 10000 2.6 80 11:19 08.01.2020
5030 Clouds 33 1009 43 10000 3.6 120 10:59 08.01.2020
5031 Clouds 33 1009 43 10000 3.6 120 10:40 08.01.2020
5032 Clouds 33 1009 41 10000 3.1 100 10:21 08.01.2020
5033 Clouds 33 1009 38 10000 4.1 90 09:43 08.01.2020
5034 Clouds 34 1009 38 10000 4.1 100 09:21 08.01.2020
5035 Clouds 35 1009 36 10000 5.1 110 08:59 08.01.2020
5036 Clouds 35 1009 36 10000 5.1 110 08:41 08.01.2020
5037 Clouds 34 1010 38 10000 5.1 90 08:22 08.01.2020
5038 Clouds 33 1010 38 9000 5.7 90 07:58 08.01.2020
5039 Clouds 34 1010 38 9000 5.7 90 07:39 08.01.2020
5040 Clouds 34 1011 41 9000 5.1 80 07:18 08.01.2020
5041 Clouds 34 1012 41 8000 4.6 90 06:41 08.01.2020
5042 Clouds 33 1013 49 7000 6.2 80 05:56 08.01.2020
5043 Clouds 32 1014 52 7000 3.6 90 05:26 08.01.2020
5044 Mist 31 1014 66 5000 2.1 190 04:36 08.01.2020
5045 Mist 28 1014 78 3500 1.5 140 02:46 08.01.2020
5046 Mist 27 1014 88 3000 1.5 120 02:28 08.01.2020
5047 Mist 26 1013 88 2000 2.1 130 01:56 08.01.2020
5048 Mist 25 1013 94 2000 2.1 90 01:30 08.01.2020
5049 Mist 25 1012 88 3000 2.6 110 00:51 08.01.2020
5050 Mist 25 1012 88 4000 2.6 110 00:22 08.01.2020
5051 Mist 25 1012 88 5000 2.6 100 23:46 07.01.2020
5052 Clouds 25 1012 88 7000 2.6 120 23:21 07.01.2020
5053 Clouds 25 1012 88 7000 2.6 120 23:21 07.01.2020
5054 Mist 25 1011 94 4000 1.5 90 22:41 07.01.2020
5055 Clouds 25 1011 83 7000 2.84 194 22:21 07.01.2020
5056 Clouds 25 1011 83 7000 2.84 194 21:59 07.01.2020
5057 Clouds 25 1011 83 7000 2.84 194 21:41 07.01.2020
5058 Clouds 26 1011 78 7000 2.84 194 21:21 07.01.2020
5059 Clouds 26 1012 74 8000 2.84 194 20:57 07.01.2020
5060 Clouds 26 1012 74 8000 2.84 194 20:39 07.01.2020
5061 Clouds 26 1012 74 8000 2.84 194 20:39 07.01.2020
5062 Clouds 26 1012 78 8000 3.36 176 20:21 07.01.2020
5063 Clouds 27 1012 69 8000 1 140 19:56 07.01.2020
5064 Clouds 27 1013 69 9000 1.5 130 19:37 07.01.2020
5065 Clouds 26 1013 69 9000 1.5 130 19:19 07.01.2020
5066 Clouds 26 1013 69 9000 1.5 130 19:19 07.01.2020
5067 Clouds 26 1013 69 9000 1.5 130 19:19 07.01.2020
5068 Clouds 27 1012 69 9000 1.5 130 18:55 07.01.2020
5069 Clouds 27 1012 69 9000 1.5 180 18:37 07.01.2020
5070 Clouds 27 1012 69 9000 1.5 180 18:18 07.01.2020
5071 Clouds 27 1013 69 9000 1.5 200 17:41 07.01.2020
5072 Clouds 27 1013 65 9000 1.5 160 17:23 07.01.2020
5073 Clouds 28 1013 58 9000 2.1 160 16:58 07.01.2020
5074 Clouds 28 1012 61 9000 2.1 200 16:38 07.01.2020
5075 Clouds 28 1012 61 9000 2.1 200 16:19 07.01.2020
5076 Clouds 28 1012 54 9000 2.6 200 15:59 07.01.2020
5077 Clouds 28 1012 54 9000 2.6 200 15:41 07.01.2020
5078 Clouds 28 1012 45 9000 3.1 310 15:23 07.01.2020
5079 Clouds 29 1011 43 9000 2.1 350 14:56 07.01.2020
5080 Clouds 29 1011 40 9000 1.5 20 14:37 07.01.2020
5081 Clouds 30 1011 40 9000 1.5 20 14:19 07.01.2020
5082 Clouds 30 1011 40 9000 1 30 13:40 07.01.2020
5083 Clouds 29 1010 40 9000 1 100 13:19 07.01.2020
5084 Clouds 30 1010 38 9000 2.1 130 12:42 07.01.2020
5085 Clouds 30 1010 36 9000 2.6 120 12:21 07.01.2020
5086 Clouds 31 1010 33 10000 3.1 130 11:58 07.01.2020
5087 Clouds 32 1010 34 10000 2.6 120 11:38 07.01.2020
5088 Clouds 32 1010 34 10000 2.6 120 11:38 07.01.2020
5089 Clouds 33 1010 34 10000 2.6 120 11:20 07.01.2020
5090 Clouds 34 1009 30 9000 2.6 70 10:42 07.01.2020
5091 Clouds 34 1009 30 9000 2.6 70 10:42 07.01.2020
5092 Clouds 35 1009 32 10000 4.1 100 10:24 07.01.2020
5093 Clouds 35 1009 30 10000 4.1 110 09:59 07.01.2020
5094 Clouds 35 1010 28 10000 3.1 130 09:38 07.01.2020
5095 Clouds 36 1010 28 10000 3.1 130 09:20 07.01.2020
5096 Clouds 36 1010 30 10000 3.6 120 08:46 07.01.2020
5097 Clouds 35 1010 34 10000 4.1 110 08:26 07.01.2020
5098 Clouds 35 1010 34 10000 4.1 110 08:26 07.01.2020
5099 Clouds 34 1011 36 9000 4.1 80 07:54 07.01.2020
5100 Clouds 34 1012 41 9000 3.6 60 07:28 07.01.2020
5101 Clouds 34 1013 46 8000 3.6 100 06:54 07.01.2020
5102 Clouds 33 1013 43 8000 2.6 120 06:34 07.01.2020
5103 Clouds 33 1014 46 8000 4.1 110 05:55 07.01.2020
5104 Clear 31 1014 62 7000 1.5 80 04:41 07.01.2020
5105 Mist 30 1015 74 5000 1.5 120 03:29 07.01.2020
5106 Mist 27 1014 78 3500 2.6 110 02:22 07.01.2020
5107 Mist 26 1013 83 2500 1.5 100 01:54 07.01.2020
5108 Mist 25 1013 88 2500 1.5 120 01:30 07.01.2020
5109 Mist 24 1012 94 3000 1 0 00:37 07.01.2020
5110 Mist 24 1012 94 3000 1 0 00:18 07.01.2020
5111 Mist 25 1012 88 4000 1.5 100 23:55 06.01.2020
5112 Mist 25 1012 88 5000 0.5 0 23:36 06.01.2020
5113 Mist 25 1012 88 5000 0.5 0 23:18 06.01.2020
5114 Mist 24 1012 88 5000 1 0 22:42 06.01.2020
5115 Mist 25 1011 83 5000 2.1 120 22:22 06.01.2020
5116 Clear 25 1012 83 7000 1 0 21:56 06.01.2020
5117 Clear 25 1012 83 10000 2.6 120 21:38 06.01.2020
5118 Clear 25 1012 83 10000 2.6 120 21:20 06.01.2020
5119 Clear 25 1012 74 10000 2.6 100 20:56 06.01.2020
5120 Clear 26 1012 74 10000 2.1 110 20:37 06.01.2020
5121 Clear 26 1012 74 10000 2.1 110 20:19 06.01.2020
5122 Clear 26 1012 65 10000 2.1 120 19:55 06.01.2020
5123 Clear 26 1012 65 10000 2.1 110 19:37 06.01.2020
5124 Clear 26 1012 65 10000 2.1 110 19:18 06.01.2020
5125 Clear 26 1012 65 10000 2.1 130 18:45 06.01.2020
5126 Clear 27 1013 69 10000 2.1 140 18:21 06.01.2020
5127 Clear 27 1013 61 10000 1.76 174 17:40 06.01.2020
5128 Clear 27 1013 61 10000 3.22 187 17:20 06.01.2020
5129 Clear 27 1013 61 10000 3.22 187 17:20 06.01.2020
5130 Clear 28 1013 58 10000 1.5 290 16:59 06.01.2020
5131 Clear 28 1013 58 10000 1.5 290 16:41 06.01.2020
5132 Clear 28 1013 55 10000 1.5 290 16:23 06.01.2020
5133 Clear 28 1013 55 10000 3.1 270 15:59 06.01.2020
5134 Clear 28 1012 48 10000 3.1 290 15:37 06.01.2020
5135 Clear 28 1012 48 10000 3.1 290 15:37 06.01.2020
5136 Clear 29 1012 48 10000 3.1 290 15:18 06.01.2020
5137 Clear 29 1012 48 10000 3.1 290 15:18 06.01.2020
5138 Clear 29 1012 45 10000 1.5 330 14:42 06.01.2020
5139 Clear 31 1012 48 10000 3.22 187 14:22 06.01.2020
5140 Clear 30 1012 45 10000 2.1 110 13:59 06.01.2020
5141 Clear 30 1011 48 10000 2.1 120 13:39 06.01.2020
5142 Clear 30 1011 48 10000 2.1 120 13:21 06.01.2020
5143 Clear 30 1011 48 10000 2.1 140 12:56 06.01.2020
5144 Clear 31 1011 46 10000 2.6 130 12:37 06.01.2020
5145 Clear 32 1011 46 10000 2.6 130 12:19 06.01.2020
5146 Clear 32 1011 46 10000 2.6 130 12:19 06.01.2020
5147 Clear 32 1010 43 10000 2.6 130 11:43 06.01.2020
5148 Clear 32 1010 43 10000 2.6 130 11:43 06.01.2020
5149 Clouds 32 1010 41 10000 2.6 130 11:24 06.01.2020
5150 Clouds 33 1010 41 10000 2.6 40 10:59 06.01.2020
5151 Clouds 33 1010 38 10000 3.1 50 10:40 06.01.2020
5152 Clouds 33 1010 38 10000 3.1 50 10:20 06.01.2020
5153 Clouds 34 1010 41 10000 2.1 0 09:39 06.01.2020
5154 Clouds 34 1010 41 10000 2.1 120 09:21 06.01.2020
5155 Clouds 34 1011 41 10000 3.6 40 08:52 06.01.2020
5156 Clouds 35 1011 38 10000 2.6 30 08:34 06.01.2020
5157 Clouds 34 1012 43 10000 3.1 120 07:57 06.01.2020
5158 Clouds 34 1013 43 10000 4.1 120 07:37 06.01.2020
5159 Clouds 34 1014 41 10000 3.6 90 06:47 06.01.2020
5160 Clouds 34 1014 43 9000 5.1 120 06:27 06.01.2020
5161 Clouds 32 1015 43 9000 4.6 120 05:48 06.01.2020
5162 Clouds 32 1016 45 8000 4.6 110 04:53 06.01.2020
5163 Clouds 31 1016 48 8000 4.1 100 04:20 06.01.2020
5164 Clouds 30 1015 65 6000 3.6 120 02:58 06.01.2020
5165 Mist 27 1015 74 5000 2.1 110 02:24 06.01.2020
5166 Mist 25 1015 83 5000 1.5 100 01:45 06.01.2020
5167 Clouds 25 1014 88 7000 0.79 69 01:27 06.01.2020
5168 Clouds 24 1014 83 8000 0.48 41 00:44 06.01.2020
5169 Clouds 24 1013 78 10000 1 60 00:24 06.01.2020
5170 Clouds 24 1013 78 10000 0.48 41 23:43 05.01.2020
5171 Clouds 24 1013 78 10000 0.48 41 23:43 05.01.2020
5172 Clouds 24 1013 78 10000 1.5 50 23:23 05.01.2020
5173 Clouds 24 1013 78 10000 1.5 50 23:23 05.01.2020
5174 Clouds 24 1012 78 10000 1.5 60 22:58 05.01.2020
5175 Clouds 24 1012 78 10000 1.5 70 22:39 05.01.2020
5176 Clouds 24 1012 78 10000 1.5 70 22:20 05.01.2020
5177 Clouds 25 1012 74 10000 1.5 50 21:55 05.01.2020
5178 Clouds 24 1012 78 10000 1.03 114 21:37 05.01.2020
5179 Clouds 25 1012 78 10000 1.03 114 21:19 05.01.2020
5180 Clouds 25 1013 83 10000 1.03 114 20:55 05.01.2020
5181 Clouds 25 1013 74 10000 1.03 114 20:37 05.01.2020
5182 Clouds 25 1013 74 10000 1.04 181 20:19 05.01.2020
5183 Clouds 25 1013 69 10000 1.04 181 19:56 05.01.2020
5184 Clouds 26 1013 69 10000 1.5 40 19:37 05.01.2020
5185 Clouds 26 1013 69 10000 1.5 40 19:19 05.01.2020
5186 Clouds 26 1013 74 10000 1.5 40 18:54 05.01.2020
5187 Clouds 26 1013 74 10000 1.04 181 18:36 05.01.2020
5188 Clouds 26 1013 74 10000 1.04 181 18:18 05.01.2020
5189 Clouds 26 1013 69 10000 2.1 150 17:55 05.01.2020
5190 Clouds 26 1013 69 10000 2.1 150 17:55 05.01.2020
5191 Clouds 26 1013 69 10000 2.1 150 17:55 05.01.2020
5192 Clouds 26 1013 69 10000 2.1 150 17:55 05.01.2020
5193 Clouds 27 1013 65 10000 1 0 17:37 05.01.2020
5194 Clouds 27 1013 65 10000 1 0 17:18 05.01.2020
5195 Clouds 27 1013 58 10000 1.5 330 16:54 05.01.2020
5196 Clouds 28 1013 61 10000 1.5 50 16:36 05.01.2020
5197 Clouds 27 1013 61 10000 1.5 50 16:18 05.01.2020
5198 Clouds 28 1013 55 10000 1.5 360 15:36 05.01.2020
5199 Clouds 29 1013 55 10000 1.5 360 15:18 05.01.2020
5200 Clouds 28 1013 54 10000 1.5 360 14:54 05.01.2020
5201 Clouds 28 1013 51 10000 1 0 14:36 05.01.2020
5202 Clouds 30 1013 51 10000 1 0 14:18 05.01.2020
5203 Clouds 30 1012 51 10000 1 0 13:39 05.01.2020
5204 Clouds 30 1012 51 10000 0.5 0 13:21 05.01.2020
5205 Clouds 30 1012 48 10000 2.1 80 12:57 05.01.2020
5206 Clouds 30 1012 48 10000 2.1 80 12:57 05.01.2020
5207 Clouds 31 1012 46 10000 2.1 120 12:39 05.01.2020
5208 Clouds 31 1012 46 10000 2.1 120 12:21 05.01.2020
5209 Clouds 31 1012 46 10000 2.1 120 12:21 05.01.2020
5210 Clouds 31 1011 46 10000 2.1 100 11:55 05.01.2020
5211 Clouds 32 1011 46 10000 2.1 90 11:37 05.01.2020
5212 Clouds 32 1011 46 10000 2.1 90 11:19 05.01.2020
5213 Clouds 32 1011 46 10000 2.1 90 11:19 05.01.2020
5214 Clouds 32 1011 46 10000 2.1 90 11:19 05.01.2020
5215 Clouds 33 1011 43 10000 2.6 70 10:42 05.01.2020
5216 Clouds 33 1011 43 10000 1.5 0 10:20 05.01.2020
5217 Clouds 34 1011 43 10000 3.1 70 09:59 05.01.2020
5218 Clouds 34 1011 43 10000 3.1 70 09:41 05.01.2020
5219 Clouds 34 1011 43 10000 3.1 70 09:41 05.01.2020
5220 Clouds 33 1011 43 10000 3.6 100 09:21 05.01.2020
5221 Clouds 34 1011 43 10000 4.1 90 08:45 05.01.2020
5222 Clouds 33 1012 43 10000 3.6 100 08:25 05.01.2020
5223 Clouds 33 1012 43 10000 4.6 90 07:50 05.01.2020
5224 Clear 32 1013 46 10000 5.1 110 07:29 05.01.2020
5225 Clear 32 1014 46 10000 5.1 80 06:57 05.01.2020
5226 Clear 32 1015 48 10000 4.6 120 05:53 05.01.2020
5227 Clear 31 1015 51 10000 5.7 100 05:28 05.01.2020
5228 Clear 30 1015 54 10000 6.7 110 04:24 05.01.2020
5229 Clear 31 1015 54 10000 5.7 100 03:45 05.01.2020
5230 Clouds 30 1014 58 8000 3.6 110 02:41 05.01.2020
5231 Clouds 28 1014 65 8000 3.1 120 02:19 05.01.2020
5232 Clouds 26 1014 73 8000 2.6 110 01:39 05.01.2020
5233 Clouds 26 1013 73 7000 4.1 110 01:18 05.01.2020
5234 Clouds 26 1013 73 9000 3.1 110 00:40 05.01.2020
5235 Clouds 25 1012 73 9000 2.6 110 00:21 05.01.2020
5236 Clouds 25 1012 73 9000 2.6 110 00:21 05.01.2020
5237 Clouds 25 1012 73 9000 2.6 120 23:59 04.01.2020
5238 Clouds 25 1012 73 9000 2.1 120 23:39 04.01.2020
5239 Clouds 25 1012 73 9000 2.1 120 23:18 04.01.2020
5240 Clouds 25 1012 73 9000 1.5 100 22:39 04.01.2020
5241 Clouds 25 1012 73 9000 1.5 100 22:39 04.01.2020
5242 Clouds 25 1012 73 10000 1.5 80 22:21 04.01.2020
5243 Clouds 26 1012 74 10000 2.1 70 21:57 04.01.2020
5244 Clear 26 1012 69 10000 1 120 21:38 04.01.2020
5245 Clear 26 1012 69 10000 1 120 21:19 04.01.2020
5246 Clear 26 1012 69 10000 1 120 21:19 04.01.2020
5247 Clouds 26 1012 74 10000 1 0 20:56 04.01.2020
5248 Clouds 26 1012 74 10000 2.1 80 20:37 04.01.2020
5249 Clouds 26 1012 74 10000 2.1 80 20:19 04.01.2020
5250 Clouds 26 1012 74 10000 2.6 90 19:42 04.01.2020
5251 Clouds 27 1013 65 10000 1.5 130 19:23 04.01.2020
5252 Clouds 27 1013 65 10000 1.5 140 18:58 04.01.2020
5253 Clouds 27 1013 61 10000 1.5 90 18:39 04.01.2020
5254 Clouds 27 1013 61 10000 1.5 90 18:20 04.01.2020
5255 Clouds 27 1013 65 10000 1 60 17:57 04.01.2020
5256 Clouds 27 1013 65 10000 1 60 17:57 04.01.2020
5257 Clouds 27 1013 61 10000 1.5 60 17:39 04.01.2020
5258 Clouds 28 1013 61 10000 1.5 60 17:21 04.01.2020
5259 Clouds 28 1013 62 10000 1.5 60 16:42 04.01.2020
5260 Clouds 28 1013 58 10000 1 0 16:24 04.01.2020
5261 Clear 28 1013 51 10000 2.1 340 15:57 04.01.2020
5262 Clear 28 1013 51 10000 2.1 340 15:57 04.01.2020
5263 Clear 28 1013 51 10000 1.5 340 15:39 04.01.2020
5264 Clear 28 1013 51 10000 1.5 340 15:19 04.01.2020
5265 Clear 29 1012 51 10000 1.5 350 14:57 04.01.2020
5266 Clear 28 1012 51 10000 1.5 350 14:39 04.01.2020
5267 Clear 30 1012 55 10000 1 40 14:19 04.01.2020
5268 Clear 30 1012 55 10000 1 40 14:19 04.01.2020
5269 Clear 30 1011 51 10000 1.5 60 13:55 04.01.2020
5270 Clear 30 1011 48 10000 2.1 70 13:36 04.01.2020
5271 Clear 31 1011 48 10000 2.1 70 13:18 04.01.2020
5272 Clear 30 1011 48 10000 2.1 110 12:41 04.01.2020
5273 Clear 31 1010 43 10000 3.1 110 12:20 04.01.2020
5274 Clear 32 1010 43 10000 3.1 90 11:58 04.01.2020
5275 Clear 32 1010 43 10000 3.1 90 11:39 04.01.2020
5276 Clear 32 1010 43 10000 3.1 90 11:39 04.01.2020
5277 Clouds 32 1010 46 10000 2.6 110 11:19 04.01.2020
5278 Clouds 33 1010 41 10000 4.1 80 10:42 04.01.2020
5279 Clouds 33 1010 43 10000 3.6 80 10:23 04.01.2020
5280 Clouds 34 1010 46 10000 3.6 120 09:59 04.01.2020
5281 Clouds 33 1010 46 10000 3.6 120 09:41 04.01.2020
5282 Clouds 33 1010 46 10000 4.1 80 09:21 04.01.2020
5283 Clouds 33 1011 46 10000 4.6 80 08:41 04.01.2020
5284 Clouds 32 1011 46 10000 4.1 100 08:21 04.01.2020
5285 Clouds 33 1012 46 10000 4.6 110 07:44 04.01.2020
5286 Clouds 32 1013 49 10000 4.6 110 07:20 04.01.2020
5287 Clouds 32 1014 49 10000 4.6 80 06:33 04.01.2020
5288 Clouds 31 1015 52 10000 5.1 70 05:22 04.01.2020
5289 Clouds 31 1015 52 10000 4.6 90 04:42 04.01.2020
5290 Clouds 31 1015 55 10000 4.6 100 04:24 04.01.2020
5291 Clouds 30 1015 61 10000 4.1 90 03:18 04.01.2020
5292 Clouds 27 1014 74 9000 1.84 29 02:21 04.01.2020
5293 Clouds 26 1014 73 9000 1.84 29 01:55 04.01.2020
5294 Clouds 25 1014 78 9000 1.84 29 01:32 04.01.2020
5295 Clouds 25 1013 73 10000 1.86 43 00:46 04.01.2020
5296 Clouds 24 1013 78 10000 1 80 00:26 04.01.2020
5297 Clouds 24 1013 83 10000 1.5 50 23:48 03.01.2020
5298 Clouds 25 1013 78 10000 1.86 43 23:25 03.01.2020
5299 Clouds 24 1013 78 10000 1.55 130 22:54 03.01.2020
5300 Clouds 25 1013 78 10000 1.55 130 22:36 03.01.2020
5301 Clouds 25 1013 78 10000 1.55 130 22:18 03.01.2020
5302 Clouds 25 1013 74 10000 1.55 130 21:54 03.01.2020
5303 Clouds 25 1013 78 10000 1.55 130 21:36 03.01.2020
5304 Clouds 25 1013 78 10000 1.55 130 21:18 03.01.2020
5305 Clouds 25 1013 78 10000 1.55 130 20:41 03.01.2020
5306 Clouds 26 1013 78 10000 1.96 122 20:19 03.01.2020
5307 Clouds 26 1014 74 10000 2.06 165 19:57 03.01.2020
5308 Clouds 26 1014 69 10000 0.5 150 19:39 03.01.2020
5309 Clouds 26 1014 69 10000 0.5 150 19:21 03.01.2020
5310 Clouds 26 1014 74 10000 2.06 165 18:44 03.01.2020
5311 Clouds 26 1014 74 10000 2.06 165 18:44 03.01.2020
5312 Clouds 26 1014 69 10000 1.5 50 18:26 03.01.2020
5313 Clouds 26 1014 69 10000 1.5 80 17:56 03.01.2020
5314 Clouds 27 1014 69 10000 1.5 60 17:38 03.01.2020
5315 Clouds 27 1014 69 10000 1.5 60 17:19 03.01.2020
5316 Clouds 28 1014 65 10000 2.1 70 16:42 03.01.2020
5317 Clouds 29 1014 58 10000 2.6 60 16:24 03.01.2020
5318 Clouds 28 1014 58 10000 1.5 50 15:57 03.01.2020
5319 Clouds 29 1014 58 10000 2.1 50 15:39 03.01.2020
5320 Clouds 29 1014 58 10000 2.1 50 15:18 03.01.2020
5321 Clouds 29 1013 62 10000 1.5 60 14:38 03.01.2020
5322 Clouds 30 1013 62 10000 1.5 60 14:19 03.01.2020
5323 Clouds 30 1013 55 10000 2.1 40 13:44 03.01.2020
5324 Clouds 31 1013 55 10000 2.1 50 13:24 03.01.2020
5325 Clouds 31 1013 52 10000 2.6 80 13:00 03.01.2020
5326 Clouds 31 1012 46 10000 3.1 100 12:39 03.01.2020
5327 Clouds 31 1012 46 10000 3.1 100 12:21 03.01.2020
5328 Clouds 31 1012 46 10000 4.1 100 11:47 03.01.2020
5329 Clouds 32 1012 43 10000 4.6 110 11:23 03.01.2020
5330 Clouds 33 1012 43 10000 4.1 100 10:46 03.01.2020
5331 Clouds 33 1012 43 10000 4.6 100 10:27 03.01.2020
5332 Clouds 33 1013 43 10000 4.6 80 09:58 03.01.2020
5333 Clouds 33 1013 43 10000 4.6 80 09:40 03.01.2020
5334 Clouds 34 1013 43 10000 4.6 110 09:22 03.01.2020
5335 Clouds 35 1013 43 10000 3.6 110 08:57 03.01.2020
5336 Clouds 34 1014 46 10000 5.1 70 08:38 03.01.2020
5337 Clouds 33 1014 46 10000 5.1 70 08:19 03.01.2020
5338 Clouds 34 1014 43 10000 4.1 90 07:40 03.01.2020
5339 Clouds 34 1014 43 10000 4.1 90 07:40 03.01.2020
5340 Clouds 33 1015 46 10000 5.1 100 07:18 03.01.2020
5341 Clouds 33 1016 49 10000 4.6 120 06:50 03.01.2020
5342 Clouds 32 1016 52 10000 3.6 110 06:32 03.01.2020
5343 Clouds 32 1017 49 10000 3.6 90 05:46 03.01.2020
5344 Clouds 29 1017 58 10000 1.5 100 04:23 03.01.2020
5345 Clouds 27 1017 69 8000 1.5 330 02:57 03.01.2020
5346 Clouds 27 1017 65 8000 1 0 02:33 03.01.2020
5347 Clouds 26 1016 65 8000 1.5 330 01:44 03.01.2020
5348 Clouds 25 1015 78 10000 1 0 00:50 03.01.2020
5349 Clouds 24 1015 78 10000 1.52 2 00:31 03.01.2020
5350 Clouds 24 1015 78 10000 1.52 2 23:56 02.01.2020
5351 Clouds 25 1015 73 10000 1 0 23:38 02.01.2020
5352 Clouds 25 1015 73 10000 1 0 23:19 02.01.2020
5353 Clouds 25 1015 73 10000 2.35 45 22:45 02.01.2020
5354 Clouds 25 1015 73 10000 2.1 30 22:22 02.01.2020
5355 Clouds 25 1015 73 10000 1.5 50 22:00 02.01.2020
5356 Clouds 25 1015 73 10000 1.5 50 21:41 02.01.2020
5357 Clouds 25 1015 83 10000 2.35 45 21:23 02.01.2020
5358 Clouds 25 1015 83 10000 2.1 360 20:59 02.01.2020
5359 Clouds 25 1015 83 10000 2.1 360 20:39 02.01.2020
5360 Clouds 25 1015 74 10000 1.5 350 20:21 02.01.2020
5361 Clouds 25 1016 74 10000 2.1 340 19:55 02.01.2020
5362 Clouds 26 1016 74 10000 1.5 340 19:37 02.01.2020
5363 Clouds 26 1016 74 10000 1.5 340 19:19 02.01.2020
5364 Clouds 26 1016 69 10000 1 0 18:57 02.01.2020
5365 Clouds 26 1016 69 10000 1 0 18:38 02.01.2020
5366 Clouds 26 1016 69 10000 1 0 18:20 02.01.2020
5367 Clouds 26 1016 65 10000 2.1 350 17:56 02.01.2020
5368 Clouds 27 1017 65 10000 1.5 340 17:36 02.01.2020
5369 Clouds 27 1017 65 10000 1.5 340 17:18 02.01.2020
5370 Clouds 27 1017 65 10000 1 0 16:56 02.01.2020
5371 Clouds 27 1017 65 10000 1.5 350 16:38 02.01.2020
5372 Clouds 28 1017 65 10000 1.5 350 16:19 02.01.2020
5373 Clouds 29 1016 62 10000 2.1 350 15:44 02.01.2020
5374 Clouds 29 1016 62 10000 2.1 350 15:24 02.01.2020
5375 Clouds 29 1016 62 10000 2.1 350 14:58 02.01.2020
5376 Clouds 28 1016 58 10000 1.5 340 14:37 02.01.2020
5377 Clouds 30 1015 62 10000 1.5 340 14:19 02.01.2020
5378 Clouds 30 1015 62 10000 1.5 340 13:58 02.01.2020
5379 Clouds 31 1015 51 10000 1.5 80 13:38 02.01.2020
5380 Clouds 31 1015 48 10000 1 0 12:59 02.01.2020
5381 Clouds 31 1014 46 10000 2.1 70 12:40 02.01.2020
5382 Clouds 31 1014 46 10000 2.1 70 12:20 02.01.2020
5383 Clouds 32 1014 46 10000 3.1 70 11:41 02.01.2020
5384 Clouds 33 1014 46 10000 3.1 70 11:21 02.01.2020
5385 Clouds 32 1014 46 10000 3.6 50 10:45 02.01.2020
5386 Clouds 32 1014 46 10000 3.6 40 10:27 02.01.2020
5387 Clouds 32 1014 46 10000 3.6 70 09:56 02.01.2020
5388 Clouds 32 1014 46 10000 4.6 80 09:35 02.01.2020
5389 Clouds 32 1015 46 10000 4.1 90 08:53 02.01.2020
5390 Clouds 33 1015 46 10000 6.7 100 08:32 02.01.2020
5391 Clouds 32 1016 48 10000 5.7 90 07:58 02.01.2020
5392 Clouds 33 1016 46 10000 6.7 80 07:31 02.01.2020
5393 Clouds 32 1017 49 10000 4.6 100 06:57 02.01.2020
5394 Clouds 32 1018 48 10000 7.2 110 06:39 02.01.2020
5395 Clouds 31 1019 51 10000 6.2 90 05:38 02.01.2020
5396 Clouds 30 1020 58 10000 3.6 60 04:34 02.01.2020
5397 Clouds 29 1020 69 10000 2.6 80 03:23 02.01.2020
5398 Clouds 27 1019 73 10000 3.1 60 02:20 02.01.2020
5399 Clouds 26 1018 73 10000 3.1 30 01:48 02.01.2020
5400 Clouds 25 1018 73 10000 2.1 350 01:19 02.01.2020
5401 Clouds 25 1017 73 10000 2.1 10 00:36 02.01.2020
5402 Clouds 25 1017 73 10000 2.1 10 00:18 02.01.2020
5403 Clouds 25 1017 78 10000 2.1 20 23:40 01.01.2020
5404 Clouds 25 1017 78 10000 2.6 30 23:20 01.01.2020
5405 Clouds 25 1016 78 10000 3.1 30 22:38 01.01.2020
5406 Clouds 25 1016 78 10000 3.1 30 22:20 01.01.2020
5407 Clouds 25 1016 73 10000 1.5 40 21:57 01.01.2020
5408 Clouds 26 1016 69 10000 2.1 100 21:38 01.01.2020
5409 Clouds 26 1016 69 10000 2.1 100 21:20 01.01.2020
5410 Clouds 26 1016 69 10000 2.6 40 20:56 01.01.2020
5411 Clouds 26 1016 69 10000 2.6 40 20:56 01.01.2020
5412 -273 0 0 0 0 0 20:38 01.01.2020
5413 Clouds 26 1016 69 10000 3.1 30 20:38 01.01.2020
5414 Clouds 26 1016 69 10000 3.1 30 20:19 01.01.2020
5415 Clouds 26 1016 69 10000 3.1 30 20:19 01.01.2020
5416 Clouds 26 1017 65 10000 4.1 20 19:55 01.01.2020
5417 Clouds 26 1017 65 10000 4.1 20 19:55 01.01.2020
5418 Clouds 26 1017 65 10000 4.1 20 19:55 01.01.2020
5419 Clouds 26 1017 65 10000 4.1 20 19:55 01.01.2020
5420 Clouds 26 1016 65 10000 3.1 10 19:37 01.01.2020
5421 Clouds 26 1016 65 10000 3.1 10 19:19 01.01.2020
5422 Clouds 27 1017 61 10000 4.1 20 18:55 01.01.2020
5423 Clouds 27 1017 61 10000 3.6 20 18:36 01.01.2020
5424 Clouds 27 1017 61 10000 3.6 20 18:18 01.01.2020
5425 Clouds 27 1017 58 10000 4.6 20 17:56 01.01.2020
5426 Clouds 28 1017 58 10000 4.6 20 17:38 01.01.2020
5427 Clouds 28 1017 58 10000 4.6 20 17:18 01.01.2020
5428 Clouds 28 1017 58 10000 4.6 20 16:41 01.01.2020
5429 Clouds 28 1017 61 10000 2.6 350 16:22 01.01.2020
5430 Clouds 29 1017 61 10000 2.6 360 15:58 01.01.2020
5431 Clouds 28 1017 61 10000 2.6 360 15:40 01.01.2020
5432 Clouds 28 1017 54 10000 2.1 360 15:21 01.01.2020
5433 Clouds 28 1017 51 10000 2.1 10 14:58 01.01.2020
5434 Clouds 28 1017 51 10000 2.1 10 14:40 01.01.2020
5435 Clouds 28 1016 48 10000 2.1 360 14:21 01.01.2020
5436 Clouds 29 1016 48 10000 2.1 360 14:21 01.01.2020
5437 Clouds 29 1016 51 10000 1 30 13:56 01.01.2020
5438 Clouds 29 1015 48 10000 1.5 20 13:37 01.01.2020
5439 Clouds 29 1015 48 10000 1.5 20 13:37 01.01.2020
5440 Clouds 29 1015 48 10000 1.5 20 13:37 01.01.2020
5441 Clouds 29 1015 48 10000 1.5 20 13:18 01.01.2020
5442 Clouds 29 1015 48 10000 2.1 20 12:55 01.01.2020
5443 Clouds 30 1014 48 10000 1.5 50 12:37 01.01.2020
5444 Clouds 31 1014 48 10000 1.5 50 12:18 01.01.2020
5445 Clouds 31 1014 45 10000 2.1 70 11:43 01.01.2020
5446 Clouds 31 1014 45 10000 2.1 70 11:22 01.01.2020
5447 Clouds 31 1014 43 10000 2.6 80 10:58 01.01.2020
5448 Clouds 32 1014 43 10000 4.1 80 10:40 01.01.2020
5449 Clouds 32 1014 43 10000 4.1 80 10:20 01.01.2020
5450 Clouds 32 1014 43 10000 4.6 90 09:55 01.01.2020
5451 Clouds 33 1014 43 10000 5.7 70 09:36 01.01.2020
5452 Clouds 33 1014 43 10000 5.7 70 09:18 01.01.2020
5453 Clouds 33 1014 43 10000 5.7 90 08:54 01.01.2020
5454 Clouds 33 1015 46 10000 5.1 110 08:36 01.01.2020
5455 Clouds 33 1015 46 10000 5.1 110 08:18 01.01.2020
5456 Clouds 32 1015 46 10000 5.7 80 07:45 01.01.2020
5457 Clouds 31 1016 45 10000 5.7 100 07:26 01.01.2020
5458 Clouds 33 1017 48 10000 5.1 100 06:44 01.01.2020
5459 Clouds 32 1017 48 10000 6.2 90 06:19 01.01.2020
5460 Clouds 29 1018 55 10000 6.7 100 04:38 01.01.2020
5461 Clouds 29 1018 62 10000 5.7 100 03:41 01.01.2020
5462 Clouds 29 1018 65 10000 4.6 90 03:22 01.01.2020
5463 Clouds 29 1018 65 10000 4.6 90 03:22 01.01.2020
5464 Clouds 29 1018 69 10000 4.6 100 02:55 01.01.2020
5465 Clouds 28 1017 69 10000 4.6 100 02:32 01.01.2020
5466 Clouds 26 1017 69 10000 3.6 100 01:45 01.01.2020
5467 Clouds 25 1016 73 10000 2.6 110 01:24 01.01.2020
5468 Clouds 25 1016 73 10000 3.6 110 00:56 01.01.2020
5469 Clouds 25 1015 73 10000 3.1 110 00:37 01.01.2020
5470 Clouds 25 1015 73 10000 3.1 110 00:18 01.01.2020
5471 Clouds 25 1015 78 10000 2.1 110 23:39 31.12.2019
5472 Clouds 25 1015 78 10000 2.1 110 23:19 31.12.2019
5473 Clouds 25 1015 74 10000 2.1 100 22:57 31.12.2019
5474 Clouds 25 1015 74 10000 1.5 80 22:38 31.12.2019
5475 Clouds 25 1015 74 10000 1.5 80 22:18 31.12.2019
5476 Clouds 25 1015 74 10000 2.1 50 21:54 31.12.2019
5477 Clouds 26 1015 74 10000 2.1 50 21:36 31.12.2019
5478 Clouds 26 1015 74 10000 2.1 50 21:18 31.12.2019
5479 Clouds 26 1016 74 10000 2.1 60 20:40 31.12.2019
5480 Clouds 27 1016 74 10000 2.1 60 20:21 31.12.2019
5481 Clouds 27 1016 69 10000 2.6 70 19:58 31.12.2019
5482 Clouds 27 1016 69 10000 2.6 70 19:40 31.12.2019
5483 Clouds 27 1016 69 10000 2.6 70 19:22 31.12.2019
5484 Clouds 27 1016 65 10000 2.6 60 18:57 31.12.2019
5485 Clouds 28 1016 62 10000 2.6 70 18:38 31.12.2019
5486 Clouds 28 1016 62 10000 2.6 70 18:19 31.12.2019
5487 Clouds 28 1016 62 10000 2.1 50 17:56 31.12.2019
5488 Clouds 28 1016 62 10000 2.1 50 17:56 31.12.2019
5489 Clouds 28 1016 62 10000 2.1 360 17:36 31.12.2019
5490 Clouds 28 1016 62 10000 2.1 360 17:18 31.12.2019
5491 Clouds 28 1016 62 10000 2.1 360 17:18 31.12.2019
5492 Clouds 28 1016 62 10000 2.1 350 16:56 31.12.2019
5493 Clouds 28 1016 58 10000 2.1 350 16:37 31.12.2019
5494 Clouds 28 1016 58 10000 2.1 350 16:18 31.12.2019
5495 Clouds 28 1016 62 10000 2.1 30 15:56 31.12.2019
5496 Clouds 29 1015 58 10000 2.1 30 15:38 31.12.2019
5497 Clouds 29 1015 58 10000 2.1 30 15:19 31.12.2019
5498 Clouds 29 1015 58 10000 1.5 40 14:55 31.12.2019
5499 Clouds 29 1015 58 10000 1.5 40 14:37 31.12.2019
5500 Clouds 29 1015 58 10000 1.5 40 14:18 31.12.2019
5501 Clouds 29 1014 58 10000 1.5 50 13:56 31.12.2019
5502 Clouds 30 1014 52 10000 1.5 50 13:38 31.12.2019
5503 Clouds 30 1014 52 10000 1.5 50 13:19 31.12.2019
5504 Clouds 30 1013 52 10000 1.5 60 12:55 31.12.2019
5505 Clouds 30 1013 52 10000 2.6 70 12:37 31.12.2019
5506 Clouds 30 1013 52 10000 2.6 70 12:18 31.12.2019
5507 Clouds 31 1013 49 10000 3.6 70 11:55 31.12.2019
5508 Clouds 31 1013 49 10000 4.1 60 11:36 31.12.2019
5509 Clouds 32 1013 49 10000 4.1 60 11:18 31.12.2019
5510 Clouds 33 1013 46 10000 4.1 80 10:55 31.12.2019
5511 Clouds 33 1013 46 10000 4.1 80 10:37 31.12.2019
5512 Clouds 33 1013 46 10000 4.1 80 10:19 31.12.2019
5513 Clouds 33 1013 49 10000 4.6 70 09:56 31.12.2019
5514 Clouds 34 1013 46 10000 3.6 80 09:38 31.12.2019
5515 Clouds 33 1013 46 10000 3.6 80 09:18 31.12.2019
5516 Clouds 33 1013 46 10000 3.6 80 09:18 31.12.2019
5517 Clouds 34 1013 46 10000 5.1 50 08:42 31.12.2019
5518 Clouds 33 1014 46 10000 5.1 70 08:22 31.12.2019
5519 Clouds 33 1014 46 10000 4.6 80 07:56 31.12.2019
5520 Clouds 32 1015 46 10000 5.7 60 07:37 31.12.2019
5521 Clouds 32 1015 46 10000 5.7 60 07:18 31.12.2019
5522 Clouds 32 1016 49 10000 5.7 90 06:29 31.12.2019
5523 Clouds 31 1017 51 9000 3.6 120 04:55 31.12.2019
5524 Clouds 29 1017 54 8000 3.1 100 04:25 31.12.2019
5525 Clouds 28 1017 57 7000 1.5 30 02:58 31.12.2019
5526 Mist 27 1016 69 5000 2.1 350 02:21 31.12.2019
5527 Mist 27 1016 69 5000 2.1 350 02:21 31.12.2019
5528 Mist 26 1016 69 4000 1 360 01:50 31.12.2019
5529 Mist 25 1015 78 3000 1.5 340 01:31 31.12.2019
5530 Mist 24 1015 73 3000 2.1 330 00:49 31.12.2019
5531 Clouds 24 1014 73 7000 1.5 350 00:26 31.12.2019
5532 Clouds 24 1014 83 7000 3.56 48 23:59 30.12.2019
5533 Clouds 24 1014 83 7000 3.56 48 23:41 30.12.2019
5534 Clouds 24 1014 88 8000 3.56 48 23:23 30.12.2019
5535 Clouds 24 1014 78 8000 2.53 53 22:59 30.12.2019
5536 Clouds 24 1014 78 8000 2.53 53 22:41 30.12.2019
5537 Clouds 24 1014 78 8000 2.53 53 22:22 30.12.2019
5538 Clouds 24 1013 78 8000 2.53 53 21:57 30.12.2019
5539 Clouds 24 1013 78 8000 2.53 53 21:57 30.12.2019
5540 Clouds 24 1013 78 8000 2.53 53 21:39 30.12.2019
5541 Clouds 25 1014 78 8000 2.53 53 21:20 30.12.2019
5542 Clouds 25 1014 73 8000 1.5 150 20:59 30.12.2019
5543 Clouds 25 1014 73 8000 1.5 150 20:41 30.12.2019
5544 Clouds 25 1014 73 8000 1.31 105 20:20 30.12.2019
5545 Clouds 25 1014 73 9000 1.31 105 19:59 30.12.2019
5546 Clouds 25 1014 73 10000 2.1 60 19:39 30.12.2019
5547 Clouds 26 1014 73 10000 2.1 60 19:19 30.12.2019
5548 Clouds 26 1014 69 10000 2.1 60 18:59 30.12.2019
5549 Clouds 26 1014 69 10000 2.1 60 18:40 30.12.2019
5550 Clouds 26 1014 61 10000 2.1 60 18:20 30.12.2019
5551 Clouds 26 1014 61 10000 2.1 60 18:20 30.12.2019
5552 Clouds 27 1014 58 10000 2.6 360 17:57 30.12.2019
5553 Clouds 27 1014 58 10000 2.6 360 17:39 30.12.2019
5554 Clear 27 1014 58 10000 2.6 360 17:19 30.12.2019
5555 Clear 27 1014 58 10000 2.6 360 16:58 30.12.2019
5556 Clear 27 1014 54 10000 2.1 340 16:37 30.12.2019
5557 Clear 28 1014 54 10000 2.1 340 16:19 30.12.2019
5558 Clear 28 1014 54 10000 2.6 320 15:56 30.12.2019
5559 Clear 28 1014 48 10000 2.1 330 15:37 30.12.2019
5560 Clear 28 1014 48 10000 2.1 330 15:18 30.12.2019
5561 Clear 29 1013 54 10000 0.87 71 14:43 30.12.2019
5562 Clear 29 1013 51 10000 2.6 320 14:20 30.12.2019
5563 Clear 29 1013 48 10000 2.6 330 13:58 30.12.2019
5564 Clear 29 1012 51 10000 3.1 330 13:40 30.12.2019
5565 Clear 30 1012 51 10000 3.1 330 13:21 30.12.2019
5566 Clear 30 1012 48 10000 2.6 300 12:56 30.12.2019
5567 Clear 30 1012 48 10000 2.6 290 12:37 30.12.2019
5568 Clear 31 1012 48 10000 2.6 290 12:18 30.12.2019
5569 Clear 31 1012 48 10000 2.6 320 11:42 30.12.2019
5570 Clear 32 1011 46 10000 2.6 320 11:20 30.12.2019
5571 Clear 33 1011 46 10000 3.1 320 10:58 30.12.2019
5572 Clear 32 1011 46 10000 3.1 320 10:40 30.12.2019
5573 Clear 32 1011 46 10000 3.1 320 10:40 30.12.2019
5574 Clear 33 1011 46 10000 3.1 320 10:18 30.12.2019
5575 Clear 33 1011 43 10000 3.6 300 09:42 30.12.2019
5576 Clear 34 1012 41 10000 3.1 320 09:20 30.12.2019
5577 Clear 34 1012 41 10000 1.5 0 08:56 30.12.2019
5578 Clear 34 1012 41 10000 2.6 90 08:37 30.12.2019
5579 Clear 33 1012 41 10000 2.6 90 08:18 30.12.2019
5580 Clear 33 1014 38 10000 2.6 50 07:41 30.12.2019
5581 Clear 33 1014 43 10000 2.1 40 06:58 30.12.2019
5582 Clear 32 1015 43 10000 3.1 70 06:23 30.12.2019
5583 Clear 31 1016 48 9000 3.1 120 04:23 30.12.2019
5584 Clear 30 1015 51 8000 3.1 110 03:39 30.12.2019
5585 Clear 28 1015 57 8000 1.5 80 02:41 30.12.2019
5586 Clear 26 1015 61 8000 2.78 78 02:20 30.12.2019
5587 Clear 25 1014 69 8000 2.78 78 01:25 30.12.2019
5588 Clear 25 1013 65 8000 2.1 120 00:46 30.12.2019
5589 Clear 24 1013 65 8000 3.1 110 00:23 30.12.2019
5590 Clear 25 1012 65 8000 2.6 110 23:40 29.12.2019
5591 Clear 25 1012 65 8000 2.6 110 23:22 29.12.2019
5592 Clear 25 1012 65 8000 2.1 110 22:56 29.12.2019
5593 Clear 25 1012 65 8000 2.1 110 22:38 29.12.2019
5594 Clear 25 1012 65 8000 2.1 110 22:19 29.12.2019
5595 Clear 25 1012 65 8000 1.5 120 21:45 29.12.2019
5596 Clear 25 1012 73 8000 1.5 130 21:21 29.12.2019
5597 Clear 25 1012 73 8000 1.5 130 21:21 29.12.2019
5598 Clear 26 1012 69 8000 1.5 110 20:59 29.12.2019
5599 Clear 26 1012 69 8000 1.5 110 20:39 29.12.2019
5600 Clear 26 1013 69 8000 1.5 110 20:21 29.12.2019
5601 Clear 26 1013 69 9000 1.5 110 19:59 29.12.2019
5602 Clear 26 1013 69 9000 1.5 110 19:40 29.12.2019
5603 Clear 26 1013 69 9000 2.1 130 19:21 29.12.2019
5604 Clear 26 1013 69 9000 2.1 130 19:21 29.12.2019
5605 Clear 27 1013 65 9000 3.1 140 18:58 29.12.2019
5606 Clear 27 1013 58 9000 1.5 10 18:39 29.12.2019
5607 Clear 27 1013 58 9000 1.5 10 18:20 29.12.2019
5608 Clear 27 1013 54 9000 1.5 340 17:58 29.12.2019
5609 Clear 28 1013 61 9000 1 340 17:39 29.12.2019
5610 Clear 27 1013 61 9000 1 340 17:20 29.12.2019
5611 Clear 28 1013 54 9000 2.1 330 16:57 29.12.2019
5612 Clear 28 1013 54 9000 2.6 320 16:38 29.12.2019
5613 Clear 28 1013 54 9000 2.6 320 16:20 29.12.2019
5614 Clear 28 1013 58 9000 1.8 205 15:58 29.12.2019
5615 Clear 28 1013 58 9000 1.8 205 15:39 29.12.2019
5616 Clear 28 1013 54 9000 1.8 205 15:20 29.12.2019
5617 Clear 28 1012 54 9000 1.5 10 14:58 29.12.2019
5618 Clear 28 1012 51 9000 1.5 360 14:39 29.12.2019
5619 Clear 29 1012 51 9000 1.5 360 14:18 29.12.2019
5620 Clear 29 1012 51 9000 1.5 360 14:18 29.12.2019
5621 Clear 29 1012 51 9000 2.1 340 13:58 29.12.2019
5622 Clear 29 1011 55 9000 2.1 330 13:39 29.12.2019
5623 Clear 30 1011 55 9000 2.1 330 13:21 29.12.2019
5624 Clear 30 1011 51 9000 2.6 330 12:46 29.12.2019
5625 Clear 30 1011 48 9000 2.6 340 12:27 29.12.2019
5626 Clear 31 1010 48 9000 3.1 340 11:59 29.12.2019
5627 Clouds 32 1010 46 10000 3.1 320 11:40 29.12.2019
5628 Clouds 32 1010 46 10000 3.1 320 11:20 29.12.2019
5629 Clouds 32 1010 46 10000 3.1 320 11:20 29.12.2019
5630 Clouds 32 1010 40 10000 2.6 90 10:55 29.12.2019
5631 Clouds 33 1010 40 10000 2.6 30 10:37 29.12.2019
5632 Clouds 33 1010 40 10000 2.6 30 10:18 29.12.2019
5633 Clouds 33 1010 40 10000 2.6 30 10:18 29.12.2019
5634 Clouds 32 1010 43 10000 3.1 30 09:41 29.12.2019
5635 Clouds 32 1010 43 10000 1.5 0 09:22 29.12.2019
5636 Clouds 32 1010 41 10000 2.1 60 08:48 29.12.2019
5637 Clouds 32 1011 43 10000 1.5 0 08:28 29.12.2019
5638 Clouds 33 1011 43 10000 2.6 90 07:58 29.12.2019
5639 Clouds 33 1012 45 10000 2.6 120 07:31 29.12.2019
5640 Clouds 33 1012 45 10000 2.6 120 07:31 29.12.2019
5641 Clouds 32 1013 45 10000 3.6 80 06:57 29.12.2019
5642 Clouds 31 1013 48 10000 3.6 50 06:27 29.12.2019
5643 Clouds 31 1014 48 10000 3.6 60 05:54 29.12.2019
5644 Clear 30 1015 54 9000 3.6 100 04:37 29.12.2019
5645 Clear 29 1015 58 9000 2.6 110 03:59 29.12.2019
5646 Clear 29 1014 61 8000 4.1 110 03:21 29.12.2019
5647 Clouds 27 1014 65 8000 2.1 120 02:21 29.12.2019
5648 Clouds 26 1013 73 7000 2.1 100 01:40 29.12.2019
5649 Rain 25 1013 78 7000 1.5 90 01:21 29.12.2019
5650 Rain 24 1012 78 8000 2.1 120 00:42 29.12.2019
5651 Clouds 24 1012 78 9000 2.1 110 00:23 29.12.2019
5652 Clouds 24 1012 78 9000 2.1 110 00:23 29.12.2019
5653 Clouds 24 1012 78 9000 1.5 110 23:44 28.12.2019
5654 Clouds 24 1012 73 9000 2.1 110 23:18 28.12.2019
5655 Clear 25 1011 73 7000 2.6 50 22:39 28.12.2019
5656 Clouds 25 1012 73 10000 1.5 110 22:21 28.12.2019
5657 Clouds 25 1012 73 10000 1.5 130 21:58 28.12.2019
5658 Clouds 25 1012 73 10000 1.5 130 21:39 28.12.2019
5659 Clouds 25 1012 73 10000 0.48 11 21:21 28.12.2019
5660 Clouds 26 1012 73 10000 0.48 11 20:57 28.12.2019
5661 Clouds 26 1012 74 10000 1.5 120 20:38 28.12.2019
5662 Clouds 26 1012 74 10000 1.5 120 20:20 28.12.2019
5663 Clouds 26 1013 69 10000 0.5 0 19:58 28.12.2019
5664 Clouds 26 1013 74 10000 2.1 110 19:39 28.12.2019
5665 Clouds 26 1013 74 10000 2.1 110 19:20 28.12.2019
5666 Clouds 27 1013 65 10000 2.6 100 18:57 28.12.2019
5667 Clouds 28 1013 61 10000 2.6 90 18:39 28.12.2019
5668 Clouds 28 1013 61 10000 2.6 90 18:18 28.12.2019
5669 Clouds 28 1013 61 10000 2.1 120 17:54 28.12.2019
5670 Clouds 28 1013 61 10000 2.1 70 17:36 28.12.2019
5671 Clouds 28 1013 61 10000 2.1 70 17:18 28.12.2019
5672 Clouds 27 1013 58 10000 1 0 16:46 28.12.2019
5673 Clouds 28 1014 58 10000 1.5 20 16:25 28.12.2019
5674 Clouds 29 1013 61 10000 1.5 10 15:44 28.12.2019
5675 Clouds 28 1013 54 10000 1.5 40 15:24 28.12.2019
5676 Clouds 29 1013 58 9000 1.5 20 14:58 28.12.2019
5677 Rain 29 1013 65 9000 1 0 14:38 28.12.2019
5678 Rain 29 1013 65 9000 1 0 14:20 28.12.2019
5679 Rain 29 1012 58 9000 1.5 60 13:43 28.12.2019
5680 Clouds 29 1012 51 9000 1.5 100 13:23 28.12.2019
5681 Clouds 29 1011 51 9000 1 90 12:59 28.12.2019
5682 Clouds 29 1011 51 9000 1 90 12:41 28.12.2019
5683 Clouds 29 1011 51 10000 2.1 110 12:22 28.12.2019
5684 Clouds 30 1011 51 10000 2.6 120 11:55 28.12.2019
5685 Clouds 30 1011 45 10000 3.6 110 11:37 28.12.2019
5686 Clouds 31 1011 45 10000 3.6 110 11:18 28.12.2019
5687 Clouds 31 1011 45 10000 3.6 110 11:18 28.12.2019
5688 Clouds 31 1011 48 10000 3.1 110 10:43 28.12.2019
5689 Clouds 31 1011 46 10000 3.6 120 10:20 28.12.2019
5690 Clouds 31 1011 48 10000 4.1 110 09:56 28.12.2019
5691 Clouds 31 1011 51 10000 4.1 120 09:38 28.12.2019
5692 Clouds 31 1011 51 10000 4.1 120 09:19 28.12.2019
5693 Clouds 31 1011 48 10000 4.1 80 08:43 28.12.2019
5694 Clouds 31 1012 51 10000 4.1 80 08:25 28.12.2019
5695 Clouds 31 1012 51 10000 4.1 100 07:49 28.12.2019
5696 Clouds 31 1012 51 10000 6.2 80 07:27 28.12.2019
5697 Clouds 30 1013 48 10000 5.7 90 06:21 28.12.2019
5698 Clouds 28 1014 61 9000 3.1 110 03:59 28.12.2019
5699 Clouds 29 1014 61 9000 3.1 110 03:38 28.12.2019
5700 Clouds 28 1014 65 8000 3.6 110 02:48 28.12.2019
5701 Clouds 26 1013 69 8000 2.1 110 01:59 28.12.2019
5702 Clouds 26 1013 73 8000 2.1 90 01:29 28.12.2019
5703 Clouds 27 1012 69 8000 3.6 120 00:54 28.12.2019
5704 Clouds 26 1011 69 8000 3.6 120 00:36 28.12.2019
5705 Clouds 26 1011 69 8000 3.6 120 00:18 28.12.2019
5706 Clouds 27 1012 69 8000 4.1 100 23:42 27.12.2019
5707 Clouds 27 1012 74 8000 4.6 100 23:19 27.12.2019
5708 Clouds 27 1011 74 8000 4.1 90 22:57 27.12.2019
5709 Clouds 27 1011 74 7000 3.1 80 22:38 27.12.2019
5710 Clouds 27 1011 74 7000 3.1 80 22:38 27.12.2019
5711 Clouds 27 1011 74 7000 3.1 80 22:20 27.12.2019
5712 Mist 27 1011 94 5000 2.1 70 21:54 27.12.2019
5713 Mist 27 1011 94 5000 1.5 110 21:36 27.12.2019
5714 Mist 27 1011 94 5000 1.5 110 21:18 27.12.2019
5715 Clouds 28 1011 88 6000 1 100 20:40 27.12.2019
5716 Clouds 28 1012 88 7000 1.86 215 20:21 27.12.2019
5717 Clouds 28 1012 88 7000 1.5 40 19:42 27.12.2019
5718 Clouds 28 1012 88 7000 2.1 40 19:20 27.12.2019
5719 Clouds 27 1012 88 8000 2.1 50 18:59 27.12.2019
5720 Clouds 28 1012 78 8000 1.5 60 18:38 27.12.2019
5721 Clouds 28 1012 78 8000 1.5 60 18:20 27.12.2019
5722 Clouds 27 1012 78 8000 1 80 17:57 27.12.2019
5723 Clouds 28 1012 78 8000 1.86 215 17:38 27.12.2019
5724 Clouds 27 1012 78 8000 3.21 208 17:19 27.12.2019
5725 Clouds 27 1012 69 8000 2.1 150 16:56 27.12.2019
5726 Clouds 27 1012 65 8000 1.5 160 16:37 27.12.2019
5727 Clouds 28 1012 65 8000 1.5 160 16:19 27.12.2019
5728 Clouds 28 1012 65 8000 2.1 140 15:43 27.12.2019
5729 Clouds 28 1011 58 8000 2.1 120 15:20 27.12.2019
5730 Clouds 28 1011 58 8000 2.6 110 14:57 27.12.2019
5731 Clouds 30 1011 55 9000 2.6 100 14:38 27.12.2019
5732 Clouds 30 1011 55 9000 2.6 100 14:20 27.12.2019
5733 Clouds 30 1011 51 9000 2.1 100 13:48 27.12.2019
5734 Clouds 30 1010 51 9000 2.1 130 13:25 27.12.2019
5735 Clouds 30 1010 52 9000 2.1 110 12:58 27.12.2019
5736 Clouds 31 1009 48 9000 2.6 100 12:39 27.12.2019
5737 Clouds 31 1009 48 9000 2.6 100 12:21 27.12.2019
5738 Clouds 31 1009 46 9000 4.1 110 11:43 27.12.2019
5739 Clouds 31 1009 46 9000 4.1 110 11:43 27.12.2019
5740 Clouds 32 1009 41 9000 4.1 100 11:23 27.12.2019
5741 Clouds 33 1009 41 9000 4.6 100 10:55 27.12.2019
5742 Clouds 34 1009 43 9000 5.1 110 10:36 27.12.2019
5743 Clouds 34 1009 43 9000 5.1 110 10:18 27.12.2019
5744 Clouds 33 1009 43 9000 4.1 100 09:42 27.12.2019
5745 Clouds 34 1009 49 9000 4.6 90 09:21 27.12.2019
5746 Clouds 33 1010 46 9000 4.6 90 08:55 27.12.2019
5747 Clouds 34 1010 49 9000 4.6 120 08:35 27.12.2019
5748 Clouds 33 1010 49 9000 4.1 100 07:50 27.12.2019
5749 Clouds 33 1011 55 9000 5.1 110 07:31 27.12.2019
5750 Clouds 32 1012 62 9000 3.6 60 06:36 27.12.2019
5751 Clouds 30 1014 74 7000 3.6 60 04:59 27.12.2019
5752 Mist 28 1014 83 4000 1.5 140 03:26 27.12.2019
5753 Mist 27 1013 88 3000 2.1 70 01:59 27.12.2019
5754 Mist 27 1012 94 3000 0.5 70 01:24 27.12.2019
5755 Mist 26 1012 94 5000 1.24 243 00:58 27.12.2019
5756 Mist 26 1012 94 5000 1.24 243 00:40 27.12.2019
5757 Clouds 25 1012 88 8000 1.5 90 00:21 27.12.2019
5758 Clouds 26 1011 88 8000 1 120 23:41 26.12.2019
5759 Clouds 26 1011 88 8000 1 120 23:22 26.12.2019
5760 Clouds 27 1011 88 8000 1 150 22:45 26.12.2019
5761 Clouds 26 1011 83 8000 1.5 140 22:23 26.12.2019
5762 Clouds 27 1011 83 8000 1.5 140 21:59 26.12.2019
5763 Clouds 27 1011 83 8000 2.6 236 21:38 26.12.2019
5764 Clouds 27 1011 83 8000 2.6 236 21:20 26.12.2019
5765 Clouds 27 1011 83 8000 1.5 160 20:46 26.12.2019
5766 Clouds 27 1011 83 8000 1 180 20:23 26.12.2019
5767 Clouds 27 1011 83 8000 1 180 20:23 26.12.2019
5768 Clouds 26 1011 78 8000 4.16 213 19:59 26.12.2019
5769 Clouds 27 1011 78 8000 1.5 180 19:39 26.12.2019
5770 Clouds 27 1011 78 8000 1.5 180 19:21 26.12.2019
5771 Clouds 27 1011 78 8000 1.5 150 18:57 26.12.2019
5772 Clouds 26 1012 78 8000 4.16 213 18:38 26.12.2019
5773 Clouds 26 1012 78 8000 4.16 213 18:19 26.12.2019
5774 Clouds 26 1012 74 9000 4.16 213 17:43 26.12.2019
5775 Clouds 27 1012 62 9000 1.5 310 17:22 26.12.2019
5776 Clouds 28 1012 62 10000 1.5 300 16:58 26.12.2019
5777 Clouds 28 1012 62 10000 1.5 300 16:40 26.12.2019
5778 Clouds 27 1012 62 10000 2.1 300 16:21 26.12.2019
5779 Clouds 28 1012 74 10000 5.58 195 15:41 26.12.2019
5780 -273 0 0 0 0 0 15:22 26.12.2019
5781 Clouds 28 1012 70 10000 5.58 195 14:59 26.12.2019
5782 Clouds 28 1012 70 10000 5.58 195 14:39 26.12.2019
5783 Clouds 30 1011 66 10000 1.5 110 14:20 26.12.2019
5784 Clouds 30 1011 62 10000 1.5 20 13:43 26.12.2019
5785 Clouds 30 1011 55 10000 1.5 360 13:21 26.12.2019
5786 Clouds 30 1010 66 10000 1 0 12:58 26.12.2019
5787 Clouds 30 1010 62 10000 2.1 50 12:37 26.12.2019
5788 Clouds 31 1010 62 10000 2.1 50 12:19 26.12.2019
5789 Clouds 31 1010 55 10000 2.6 50 11:56 26.12.2019
5790 Clouds 31 1010 52 10000 1 0 11:37 26.12.2019
5791 Clouds 32 1010 52 10000 1 0 11:19 26.12.2019
5792 Clouds 33 1010 55 10000 1.5 300 10:41 26.12.2019
5793 Clouds 33 1010 55 10000 1.5 300 10:18 26.12.2019
5794 Clouds 33 1010 55 10000 2.1 340 09:45 26.12.2019
5795 Clouds 32 1010 55 10000 3.1 320 09:26 26.12.2019
5796 Clouds 32 1010 58 10000 3.1 310 08:42 26.12.2019
5797 Clouds 32 1010 55 10000 2.6 0 08:24 26.12.2019
5798 Clouds 32 1011 55 9000 3.1 130 07:52 26.12.2019
5799 Clouds 32 1011 59 9000 2.6 140 07:26 26.12.2019
5800 Clouds 32 1012 62 9000 2.1 120 06:52 26.12.2019
5801 Clouds 31 1012 62 9000 2.6 120 06:31 26.12.2019
5802 Clouds 32 1013 62 9000 2.1 160 05:45 26.12.2019
5803 Clouds 31 1013 66 9000 1.5 0 04:48 26.12.2019
5804 Clouds 31 1013 74 9000 2.1 180 04:29 26.12.2019
5805 Mist 29 1013 88 4000 1.5 110 02:54 26.12.2019
5806 Mist 29 1012 88 3800 1 0 02:32 26.12.2019
5807 Mist 27 1012 94 4000 1 80 01:46 26.12.2019
5808 Clouds 26 1012 94 8000 1.5 110 01:26 26.12.2019
5809 Clouds 26 1011 88 8000 1.5 160 00:48 26.12.2019
5810 Clouds 26 1011 88 8000 2.65 192 00:24 26.12.2019
5811 Clouds 26 1011 88 8000 2.65 192 00:24 26.12.2019
5812 Clouds 26 1011 94 8000 2.65 192 23:58 25.12.2019
5813 Clouds 26 1011 94 8000 2.65 192 23:38 25.12.2019
5814 Clouds 26 1011 94 8000 3.37 205 23:20 25.12.2019
5815 Clouds 26 1011 94 8000 3.37 205 22:57 25.12.2019
5816 Clouds 26 1010 94 8000 3.37 205 22:38 25.12.2019
5817 Clouds 26 1010 94 8000 3.37 205 22:19 25.12.2019
5818 Clouds 26 1010 94 9000 3.37 205 21:57 25.12.2019
5819 Clouds 26 1010 88 9000 3.37 205 21:39 25.12.2019
5820 Clouds 26 1010 88 9000 3.37 205 21:19 25.12.2019
5821 Clouds 26 1010 94 9000 1.5 210 20:41 25.12.2019
5822 Clouds 26 1010 94 9000 1.5 210 20:41 25.12.2019
5823 Clouds 27 1010 88 9000 2.1 190 20:21 25.12.2019
5824 Clouds 27 1011 88 9000 2.1 190 19:59 25.12.2019
5825 Clouds 27 1011 88 9000 2.1 190 19:41 25.12.2019
5826 Clouds 27 1011 88 9000 2.6 190 19:21 25.12.2019
5827 Clouds 27 1011 83 9000 3.1 190 18:40 25.12.2019
5828 Clouds 27 1011 88 9000 2.6 180 18:21 25.12.2019
5829 Clouds 28 1011 83 9000 2.6 170 17:58 25.12.2019
5830 Clouds 27 1011 83 9000 2.6 210 17:39 25.12.2019
5831 Clouds 27 1011 83 9000 2.6 210 17:18 25.12.2019
5832 Clouds 27 1011 78 9000 2.6 200 16:54 25.12.2019
5833 Clouds 28 1011 74 9000 2.6 170 16:36 25.12.2019
5834 Clouds 28 1011 74 9000 2.6 170 16:18 25.12.2019
5835 Clouds 28 1011 74 9000 2.6 140 15:41 25.12.2019
5836 Clouds 28 1011 70 9000 1.5 130 15:23 25.12.2019
5837 Clouds 28 1011 62 9000 5.09 197 14:59 25.12.2019
5838 Clouds 28 1011 62 9000 5.09 197 14:41 25.12.2019
5839 Clouds 28 1010 66 9000 1.5 170 14:23 25.12.2019
5840 Clouds 29 1010 66 9000 2.1 210 13:58 25.12.2019
5841 Clouds 29 1010 58 9000 1.5 200 13:39 25.12.2019
5842 Clouds 29 1010 58 9000 1.5 200 13:19 25.12.2019
5843 Clouds 30 1010 55 9000 1.5 140 12:43 25.12.2019
5844 Clouds 31 1009 52 9000 2.1 120 12:22 25.12.2019
5845 Clouds 31 1009 52 9000 2.1 120 11:58 25.12.2019
5846 Clouds 32 1009 55 9000 1.5 120 11:39 25.12.2019
5847 Clouds 32 1009 55 9000 1.5 120 11:20 25.12.2019
5848 Clouds 32 1009 49 9000 3.5 196 10:39 25.12.2019
5849 Clouds 32 1009 49 9000 3.5 196 10:39 25.12.2019
5850 Clouds 32 1009 49 9000 3.5 196 10:21 25.12.2019
5851 Clouds 33 1009 55 9000 3.5 196 09:51 25.12.2019
5852 Clouds 33 1009 55 9000 1.5 310 09:33 25.12.2019
5853 Clouds 33 1009 55 9000 1.5 200 08:52 25.12.2019
5854 Clouds 33 1010 55 9000 2.1 330 08:32 25.12.2019
5855 Clouds 33 1010 52 9000 1 300 07:59 25.12.2019
5856 Clouds 33 1011 55 9000 2.6 350 07:40 25.12.2019
5857 Clouds 33 1011 55 9000 2.6 350 07:21 25.12.2019
5858 Clouds 32 1012 59 9000 2.1 340 06:24 25.12.2019
5859 Clouds 32 1013 62 9000 4.03 195 05:44 25.12.2019
5860 Clouds 31 1014 70 8000 2.1 230 04:40 25.12.2019
5861 Clouds 31 1014 70 8000 1.5 200 04:20 25.12.2019
5862 Clouds 30 1014 79 8000 1.5 150 03:43 25.12.2019
5863 Mist 29 1013 100 2000 2.4 251 02:57 25.12.2019
5864 Mist 27 1013 100 2000 1.5 120 02:28 25.12.2019
5865 Mist 26 1012 100 5000 2.1 110 01:36 25.12.2019
5866 Mist 26 1012 100 5000 2.1 110 01:18 25.12.2019
5867 Clouds 26 1012 100 6000 1.5 120 00:40 25.12.2019
5868 Clouds 26 1011 100 8000 1.5 90 00:22 25.12.2019
5869 Clouds 26 1011 94 10000 2.86 231 23:39 24.12.2019
5870 Clouds 26 1011 94 10000 3.22 200 23:20 24.12.2019
5871 Clouds 26 1011 94 10000 1 110 22:42 24.12.2019
5872 Clouds 26 1010 94 10000 1.5 150 22:23 24.12.2019
5873 Clouds 26 1011 88 10000 1.5 130 21:57 24.12.2019
5874 Clouds 25 1011 88 10000 1.5 120 21:37 24.12.2019
5875 Clouds 26 1011 88 10000 1.5 120 21:19 24.12.2019
5876 Clouds 26 1011 83 10000 2.1 130 20:41 24.12.2019
5877 Clouds 26 1011 88 10000 2.1 150 20:20 24.12.2019
5878 Clouds 26 1012 83 10000 1.5 130 19:47 24.12.2019
5879 Clouds 26 1012 88 10000 2.1 200 19:22 24.12.2019
5880 Clouds 26 1012 88 10000 2.1 200 19:22 24.12.2019
5881 Clouds 26 1012 83 10000 2.6 210 18:59 24.12.2019
5882 Clouds 26 1012 83 10000 2.6 210 18:40 24.12.2019
5883 Clouds 26 1012 83 10000 2.1 210 18:18 24.12.2019
5884 Clouds 26 1012 78 10000 1.5 210 17:43 24.12.2019
5885 Clouds 27 1012 78 10000 1.5 190 17:22 24.12.2019
5886 Clouds 27 1012 78 10000 3.1 200 16:58 24.12.2019
5887 Clouds 27 1012 83 10000 3.1 210 16:39 24.12.2019
5888 Clouds 27 1012 83 10000 3.1 210 16:20 24.12.2019
5889 Clouds 27 1012 83 10000 3.6 210 15:57 24.12.2019
5890 Clouds 27 1012 83 10000 3.1 210 15:37 24.12.2019
5891 Clouds 28 1012 83 10000 3.1 210 15:19 24.12.2019
5892 Clouds 28 1012 78 10000 3.6 210 14:57 24.12.2019
5893 Clouds 28 1012 78 10000 3.6 210 14:39 24.12.2019
5894 Clouds 29 1012 70 10000 3.6 210 14:21 24.12.2019
5895 Clouds 29 1011 62 10000 3.6 230 13:56 24.12.2019
5896 Clouds 30 1010 51 10000 4.75 190 13:37 24.12.2019
5897 Clouds 30 1010 51 10000 4.75 190 13:37 24.12.2019
5898 Clouds 29 1010 51 10000 4.74 193 13:19 24.12.2019
5899 Clouds 29 1010 46 10000 1.5 120 12:55 24.12.2019
5900 Clouds 30 1010 41 10000 1.5 120 12:36 24.12.2019
5901 Clouds 30 1010 41 10000 1.5 120 12:18 24.12.2019
5902 Clouds 31 1010 43 10000 2.1 150 11:55 24.12.2019
5903 Clouds 31 1010 43 10000 2.1 150 11:55 24.12.2019
5904 Clouds 32 1010 41 10000 2.6 130 11:37 24.12.2019
5905 Clouds 32 1010 41 10000 2.6 130 11:37 24.12.2019
5906 Clouds 32 1010 41 10000 2.6 130 11:37 24.12.2019
5907 Clouds 32 1010 41 10000 2.6 130 11:18 24.12.2019
5908 Clouds 33 1009 41 10000 3.1 110 10:56 24.12.2019
5909 Clouds 33 1009 38 10000 3.6 130 10:37 24.12.2019
5910 Clouds 34 1009 38 10000 3.6 130 10:19 24.12.2019
5911 Clouds 34 1009 41 10000 3.6 80 09:55 24.12.2019
5912 Clouds 34 1009 44 10000 1.5 140 09:36 24.12.2019
5913 Clouds 34 1009 44 10000 1.5 140 09:18 24.12.2019
5914 Clouds 34 1010 44 10000 3.6 130 08:44 24.12.2019
5915 Clouds 33 1010 46 10000 3.6 130 08:20 24.12.2019
5916 Clouds 33 1011 49 9000 3.6 130 07:45 24.12.2019
5917 Clouds 34 1011 52 9000 3.1 90 07:25 24.12.2019
5918 Clouds 34 1011 52 9000 3.1 90 07:25 24.12.2019
5919 Clouds 33 1012 55 9000 3.1 120 06:58 24.12.2019
5920 Clouds 33 1012 52 9000 3.1 90 06:38 24.12.2019
5921 Clouds 33 1012 52 9000 3.1 90 06:18 24.12.2019
5922 Clouds 32 1013 59 9000 2.1 140 05:20 24.12.2019
5923 Clouds 33 1014 66 9000 2.6 170 04:44 24.12.2019
5924 Clouds 31 1014 79 7000 0.5 0 03:50 24.12.2019
5925 Mist 30 1014 83 5000 1 0 03:18 24.12.2019
5926 Mist 27 1014 88 4000 1.5 100 02:21 24.12.2019
5927 Mist 26 1013 94 3000 1.5 80 01:50 24.12.2019
5928 Mist 25 1013 94 3000 2.1 60 01:20 24.12.2019
5929 Mist 25 1013 94 4000 1.01 203 00:43 24.12.2019
5930 Mist 25 1012 94 4000 1 50 00:23 24.12.2019
5931 Mist 25 1012 100 4000 1.01 203 23:56 23.12.2019
5932 Mist 25 1012 94 5000 1.01 203 23:37 23.12.2019
5933 Mist 25 1012 94 5000 1.86 211 23:19 23.12.2019
5934 Clouds 26 1011 88 9000 2.1 100 22:55 23.12.2019
5935 Clouds 26 1011 88 9000 2.1 100 22:55 23.12.2019
5936 Clouds 26 1011 94 10000 1.86 211 22:36 23.12.2019
5937 Clouds 26 1011 94 10000 1.86 211 22:36 23.12.2019
5938 Clouds 26 1011 94 10000 1.86 211 22:36 23.12.2019
5939 Clouds 26 1011 94 10000 1.86 211 22:18 23.12.2019
5940 Clouds 26 1011 88 10000 1.86 211 21:55 23.12.2019
5941 Clouds 25 1011 88 10000 1.86 211 21:36 23.12.2019
5942 Clouds 25 1011 88 10000 1.86 211 21:36 23.12.2019
5943 Clouds 25 1011 88 10000 1.86 211 21:18 23.12.2019
5944 Clouds 25 1011 88 10000 1 190 20:56 23.12.2019
5945 Clouds 25 1011 88 10000 1 190 20:56 23.12.2019
5946 Clouds 25 1011 88 10000 0.5 180 20:38 23.12.2019
5947 Clouds 25 1011 88 10000 0.5 180 20:18 23.12.2019
5948 Clouds 25 1012 83 10000 3.47 229 19:55 23.12.2019
5949 Clouds 25 1012 83 10000 3.47 229 19:55 23.12.2019
5950 Clouds 26 1012 83 10000 3.47 229 19:37 23.12.2019
5951 Clouds 25 1012 83 10000 3.47 229 19:18 23.12.2019
5952 Clouds 26 1012 78 10000 1 170 18:55 23.12.2019
5953 Clouds 26 1012 78 10000 1 170 18:37 23.12.2019
5954 Clouds 26 1012 78 10000 1 170 18:18 23.12.2019
5955 Clouds 26 1012 78 10000 2.1 200 17:55 23.12.2019
5956 Clouds 26 1012 78 10000 2.1 200 17:37 23.12.2019
5957 Clouds 26 1012 78 10000 2.1 200 17:18 23.12.2019
5958 Clouds 27 1012 74 10000 2.1 190 16:42 23.12.2019
5959 Clouds 27 1012 69 10000 2.1 180 16:19 23.12.2019
5960 Clouds 27 1012 65 10000 1 0 15:58 23.12.2019
5961 Clouds 27 1012 62 10000 2.1 190 15:38 23.12.2019
5962 Clouds 27 1012 62 10000 2.1 190 15:20 23.12.2019
5963 Clouds 28 1012 58 10000 1.5 240 14:58 23.12.2019
5964 Clouds 28 1011 52 10000 2.1 260 14:39 23.12.2019
5965 Clouds 29 1011 52 10000 2.1 260 14:21 23.12.2019
5966 Clouds 29 1011 48 10000 1 0 13:58 23.12.2019
5967 Clouds 29 1011 48 10000 1 0 13:40 23.12.2019
5968 Clouds 29 1010 48 10000 1 130 13:21 23.12.2019
5969 Clouds 28 1010 51 10000 3.71 187 12:55 23.12.2019
5970 Clouds 29 1010 52 10000 1.5 170 12:37 23.12.2019
5971 Clouds 30 1010 52 10000 1.5 170 12:19 23.12.2019
5972 Clouds 30 1010 43 10000 2.1 130 11:44 23.12.2019
5973 Clouds 31 1009 43 10000 1.5 80 11:25 23.12.2019
5974 Clouds 32 1009 43 10000 2.6 100 10:57 23.12.2019
5975 Clouds 33 1009 41 10000 3.1 130 10:39 23.12.2019
5976 Clouds 33 1009 41 10000 3.1 130 10:20 23.12.2019
5977 Clouds 33 1009 41 10000 3.1 130 10:20 23.12.2019
5978 Clouds 33 1009 44 10000 1 0 09:59 23.12.2019
5979 Clouds 34 1009 44 10000 1 0 09:39 23.12.2019
5980 Clouds 34 1009 44 10000 1 0 09:20 23.12.2019
5981 Clouds 34 1010 46 9000 1.5 0 08:55 23.12.2019
5982 Clouds 33 1010 46 9000 2.1 70 08:37 23.12.2019
5983 Clouds 34 1010 46 9000 2.1 70 08:19 23.12.2019
5984 Clouds 34 1010 49 9000 1.5 0 07:43 23.12.2019
5985 Clouds 33 1011 49 9000 2.1 80 07:20 23.12.2019
5986 Clouds 33 1012 52 9000 1 0 06:51 23.12.2019
5987 Clouds 33 1012 52 9000 2.6 130 06:24 23.12.2019
5988 Clouds 34 1013 59 8000 1.5 180 05:49 23.12.2019
5989 Clouds 32 1013 62 8000 1.5 0 05:22 23.12.2019
5990 Clouds 31 1014 70 8000 2.1 160 04:20 23.12.2019
5991 Mist 29 1014 83 4000 2.1 120 02:55 23.12.2019
5992 Mist 28 1013 88 3000 1.17 241 02:28 23.12.2019
5993 Mist 25 1013 94 3000 2.1 130 01:55 23.12.2019
5994 Mist 25 1012 94 3000 1.5 100 01:36 23.12.2019
5995 Mist 26 1012 94 3000 1.5 100 01:18 23.12.2019
5996 Clear 25 1011 100 8000 1.5 50 00:35 23.12.2019
5997 Clear 25 1011 94 8000 1 50 23:57 22.12.2019
5998 Clear 25 1011 94 8000 0.5 60 23:39 22.12.2019
5999 Clear 25 1011 94 8000 0.5 60 23:20 22.12.2019
6000 Clear 25 1011 88 8000 3.78 237 22:57 22.12.2019
6001 Clear 25 1010 88 8000 3.78 237 22:38 22.12.2019
6002 Clear 26 1010 88 8000 3.78 237 22:19 22.12.2019
6003 Clear 25 1010 88 8000 3.78 237 21:56 22.12.2019
6004 Clear 25 1010 88 8000 3.78 237 21:56 22.12.2019
6005 Clear 26 1010 88 8000 1.5 180 21:38 22.12.2019
6006 Clear 25 1010 88 8000 1.5 180 21:38 22.12.2019
6007 Clear 26 1010 88 8000 1.5 180 21:20 22.12.2019
6008 Clear 26 1011 83 8000 2.1 170 20:55 22.12.2019
6009 Clear 26 1011 88 8000 1.5 170 20:37 22.12.2019
6010 Clear 26 1011 88 8000 1.5 170 20:37 22.12.2019
6011 Clear 26 1011 88 8000 1.5 170 20:18 22.12.2019
6012 Clear 26 1011 88 8000 1.5 180 19:40 22.12.2019
6013 Clear 26 1011 83 8000 2.6 210 19:21 22.12.2019
6014 Clear 26 1011 83 8000 2.6 200 18:58 22.12.2019
6015 Clear 27 1012 78 8000 3.1 190 18:38 22.12.2019
6016 Clear 27 1012 78 8000 3.1 190 18:19 22.12.2019
6017 Clear 26 1012 78 8000 3.1 180 17:55 22.12.2019
6018 Clear 26 1011 83 8000 2.1 190 17:37 22.12.2019
6019 Clouds 26 1011 83 8000 2.1 190 17:18 22.12.2019
6020 Clouds 27 1011 69 9000 2.1 160 16:42 22.12.2019
6021 Clouds 27 1011 69 9000 1.5 170 16:23 22.12.2019
6022 Clouds 29 1011 62 9000 2.6 240 15:58 22.12.2019
6023 Clouds 29 1011 62 9000 2.6 240 15:39 22.12.2019
6024 Clouds 29 1011 62 9000 2.6 280 15:21 22.12.2019
6025 Clouds 29 1011 66 9000 2.1 200 14:59 22.12.2019
6026 Clouds 29 1011 66 9000 2.1 210 14:38 22.12.2019
6027 Clouds 29 1011 66 9000 2.1 210 14:19 22.12.2019
6028 Clouds 30 1010 62 9000 3.1 240 13:56 22.12.2019
6029 Clouds 30 1010 58 9000 3.1 240 13:38 22.12.2019
6030 Clouds 30 1010 58 9000 3.1 240 13:19 22.12.2019
6031 Clouds 29 1010 55 9000 3.1 250 12:57 22.12.2019
6032 Clouds 30 1010 49 9000 1.5 340 12:38 22.12.2019
6033 Clouds 31 1010 49 9000 1.5 340 12:19 22.12.2019
6034 Clouds 31 1009 43 10000 0.5 220 11:57 22.12.2019
6035 Clouds 32 1009 38 10000 3.03 240 11:38 22.12.2019
6036 Clouds 33 1009 38 10000 5.07 213 11:19 22.12.2019
6037 Clouds 33 1009 41 10000 1.5 360 10:57 22.12.2019
6038 Clouds 33 1009 41 10000 1.5 360 10:57 22.12.2019
6039 Clouds 34 1009 41 10000 3.1 10 10:38 22.12.2019
6040 Clouds 33 1009 41 10000 3.1 10 10:19 22.12.2019
6041 Clouds 34 1009 41 10000 2.6 170 09:57 22.12.2019
6042 Clouds 35 1009 41 10000 2.1 60 09:39 22.12.2019
6043 Clouds 35 1009 41 10000 2.1 60 09:39 22.12.2019
6044 Clouds 35 1009 41 10000 2.1 60 09:20 22.12.2019
6045 Clouds 35 1010 38 10000 2.6 100 08:42 22.12.2019
6046 Clouds 34 1010 43 10000 2.6 100 08:22 22.12.2019
6047 Clouds 34 1010 49 10000 2.6 80 07:43 22.12.2019
6048 Clouds 34 1011 49 10000 2.6 80 07:21 22.12.2019
6049 Clouds 34 1012 52 10000 2.6 80 06:52 22.12.2019
6050 Clouds 34 1012 58 10000 2.6 80 06:25 22.12.2019
6051 Clouds 33 1014 62 10000 4.43 187 05:32 22.12.2019
6052 Clouds 32 1014 66 10000 0.39 7 04:46 22.12.2019
6053 Clouds 31 1014 66 10000 0.39 7 04:25 22.12.2019
6054 Mist 28 1014 88 3000 2.1 120 02:45 22.12.2019
6055 Mist 27 1013 94 2500 2.1 120 02:20 22.12.2019
6056 Mist 26 1012 94 3500 1.5 70 01:31 22.12.2019
6057 Clouds 25 1012 94 7000 1.5 40 00:54 22.12.2019
6058 Clouds 25 1012 88 8000 2.1 110 00:36 22.12.2019
6059 Clouds 25 1012 88 8000 2.1 110 00:18 22.12.2019
6060 Clouds 25 1011 88 8000 1.5 120 23:40 21.12.2019
6061 Clouds 25 1011 94 8000 2.74 232 23:21 21.12.2019
6062 Clouds 25 1011 88 8000 2.74 232 22:47 21.12.2019
6063 Clouds 25 1011 88 8000 2.74 232 22:20 21.12.2019
6064 Clouds 25 1011 83 8000 1.5 190 21:58 21.12.2019
6065 Clouds 25 1011 83 8000 1.5 190 21:40 21.12.2019
6066 Clouds 26 1011 83 8000 2.1 200 21:21 21.12.2019
6067 Clouds 26 1011 88 8000 1.5 200 20:59 21.12.2019
6068 Clouds 26 1011 88 8000 1.5 200 20:41 21.12.2019
6069 Clouds 26 1011 83 8000 1.5 180 20:22 21.12.2019
6070 Clouds 27 1012 83 9000 2.1 170 19:59 21.12.2019
6071 Clouds 27 1012 83 9000 2.6 170 19:41 21.12.2019
6072 Clouds 27 1012 83 9000 2.6 170 19:20 21.12.2019
6073 Clouds 27 1012 78 9000 2.1 180 18:56 21.12.2019
6074 Clouds 27 1012 78 9000 2.6 190 18:38 21.12.2019
6075 Clouds 27 1012 78 9000 2.6 190 18:20 21.12.2019
6076 Clouds 27 1012 83 9000 1.5 180 17:55 21.12.2019
6077 Clouds 27 1012 83 9000 2.6 160 17:37 21.12.2019
6078 Clouds 28 1012 83 9000 2.6 160 17:18 21.12.2019
6079 Clouds 28 1012 74 9000 2.65 184 16:41 21.12.2019
6080 Clouds 28 1012 74 9000 2.65 184 16:19 21.12.2019
6081 Clouds 29 1012 70 10000 2.65 184 15:58 21.12.2019
6082 Clouds 28 1012 66 10000 2.1 270 15:39 21.12.2019
6083 Clouds 28 1012 66 10000 2.1 270 15:20 21.12.2019
6084 Clouds 29 1012 66 10000 2.1 270 14:59 21.12.2019
6085 Clouds 29 1012 66 10000 2.1 270 14:40 21.12.2019
6086 Clouds 30 1011 62 10000 2.1 260 14:22 21.12.2019
6087 Clouds 30 1011 66 10000 2.1 240 13:57 21.12.2019
6088 Clouds 29 1011 52 10000 1 220 13:38 21.12.2019
6089 Clouds 29 1011 52 10000 1 220 13:18 21.12.2019
6090 Clouds 30 1010 49 10000 2.1 120 12:56 21.12.2019
6091 Clouds 30 1010 46 10000 2.6 130 12:37 21.12.2019
6092 Clouds 31 1010 46 10000 2.6 130 12:19 21.12.2019
6093 Clouds 32 1010 43 10000 2.6 140 11:45 21.12.2019
6094 Clouds 32 1010 43 10000 1.5 100 11:26 21.12.2019
6095 Clouds 33 1009 46 10000 2.1 100 10:57 21.12.2019
6096 Clouds 33 1009 43 10000 1.5 20 10:39 21.12.2019
6097 Clouds 33 1009 43 10000 1.5 20 10:21 21.12.2019
6098 Clouds 34 1009 41 10000 3.6 50 09:56 21.12.2019
6099 Clouds 34 1009 41 10000 3.6 50 09:56 21.12.2019
6100 Clouds 34 1009 43 10000 3.6 130 09:38 21.12.2019
6101 Clouds 34 1009 43 10000 3.6 130 09:19 21.12.2019
6102 Clouds 34 1010 46 10000 2.6 50 08:46 21.12.2019
6103 Clouds 35 1010 49 10000 2.6 100 08:26 21.12.2019
6104 Clouds 33 1010 49 10000 2.6 110 07:46 21.12.2019
6105 Clouds 34 1011 55 10000 3.1 110 07:23 21.12.2019
6106 Clouds 33 1011 55 10000 3.1 110 07:23 21.12.2019
6107 Clouds 33 1011 52 10000 3.1 110 06:46 21.12.2019
6108 Clouds 34 1012 55 9000 4.1 100 06:28 21.12.2019
6109 Clouds 34 1012 55 9000 3.6 100 05:55 21.12.2019
6110 Clouds 33 1013 62 9000 1.5 0 04:58 21.12.2019
6111 Clouds 32 1014 70 6000 1 0 03:59 21.12.2019
6112 Mist 31 1014 79 4500 0.5 0 03:37 21.12.2019
6113 Mist 28 1013 83 4500 1.5 90 02:19 21.12.2019
6114 Mist 27 1013 88 4500 1 0 01:41 21.12.2019
6115 Mist 26 1012 88 5000 2.1 70 01:22 21.12.2019
6116 Clouds 25 1012 88 7000 1.5 11 00:37 21.12.2019
6117 Clouds 25 1012 88 7000 1.5 11 00:18 21.12.2019
6118 Clouds 26 1011 88 7000 1.5 11 23:38 20.12.2019
6119 Clouds 26 1011 88 7000 0.43 24 23:19 20.12.2019
6120 Clouds 26 1011 88 7000 0.43 24 22:43 20.12.2019
6121 Clouds 25 1011 88 7000 0.43 24 22:22 20.12.2019
6122 Clouds 26 1010 78 7000 1 80 21:59 20.12.2019
6123 Clouds 26 1010 78 7000 1 80 21:40 20.12.2019
6124 Clouds 26 1011 83 7000 0.5 50 21:20 20.12.2019
6125 Clouds 26 1011 83 7000 0.43 24 20:56 20.12.2019
6126 Clouds 26 1011 83 7000 0.5 0 20:36 20.12.2019
6127 Clouds 26 1011 83 7000 0.5 0 20:18 20.12.2019
6128 Clouds 26 1011 78 7000 1.39 216 19:42 20.12.2019
6129 Clouds 27 1012 74 7000 1.39 216 19:20 20.12.2019
6130 Clouds 27 1012 74 7000 0.5 0 18:58 20.12.2019
6131 Clouds 27 1012 74 8000 1.39 216 18:39 20.12.2019
6132 Clouds 28 1012 74 8000 1.39 216 18:21 20.12.2019
6133 Clouds 27 1012 69 9000 1.39 216 17:54 20.12.2019
6134 Clouds 27 1012 69 9000 1.39 216 17:36 20.12.2019
6135 Clouds 28 1012 69 9000 3.36 186 17:18 20.12.2019
6136 Clouds 28 1012 69 9000 3.36 186 17:18 20.12.2019
6137 Clouds 28 1012 62 9000 3.36 186 16:40 20.12.2019
6138 Clouds 28 1012 62 9000 3.36 186 16:20 20.12.2019
6139 Clouds 28 1012 66 9000 3.36 186 15:57 20.12.2019
6140 Clouds 28 1012 62 9000 3.36 186 15:39 20.12.2019
6141 Clouds 28 1012 62 9000 3.36 186 15:20 20.12.2019
6142 Clouds 28 1012 66 9000 3.36 186 14:59 20.12.2019
6143 Clouds 29 1011 66 9000 3.36 186 14:40 20.12.2019
6144 Clouds 30 1011 66 9000 2.67 193 14:22 20.12.2019
6145 Clouds 30 1011 62 9000 2.67 193 13:55 20.12.2019
6146 Clouds 31 1011 55 9000 1 0 13:36 20.12.2019
6147 Clouds 31 1011 55 9000 1 0 13:18 20.12.2019
6148 Clouds 30 1010 55 9000 3.6 80 12:41 20.12.2019
6149 Clouds 31 1010 55 9000 3.6 80 12:19 20.12.2019
6150 Clouds 32 1010 52 9000 3.6 90 11:59 20.12.2019
6151 Clouds 31 1009 52 9000 3.6 110 11:40 20.12.2019
6152 Clouds 31 1009 52 9000 3.6 110 11:40 20.12.2019
6153 Clouds 32 1009 52 9000 3.6 110 11:21 20.12.2019
6154 Clouds 32 1009 49 10000 4.1 120 10:59 20.12.2019
6155 Clouds 32 1009 49 10000 3.6 100 10:41 20.12.2019
6156 Clouds 33 1009 49 10000 3.6 100 10:20 20.12.2019
6157 Clouds 33 1009 49 10000 4.1 110 09:56 20.12.2019
6158 Clouds 34 1009 49 10000 3.6 120 09:38 20.12.2019
6159 Clouds 34 1009 49 10000 3.6 120 09:19 20.12.2019
6160 Clouds 34 1009 49 10000 4.6 80 08:43 20.12.2019
6161 Clouds 34 1009 49 10000 4.6 80 08:24 20.12.2019
6162 Clouds 33 1010 46 10000 5.1 80 07:59 20.12.2019
6163 Clouds 34 1010 46 10000 4.6 80 07:40 20.12.2019
6164 Clouds 34 1010 46 10000 4.6 80 07:19 20.12.2019
6165 Clouds 34 1011 49 10000 5.1 80 06:51 20.12.2019
6166 Clouds 34 1012 52 10000 4.1 90 06:31 20.12.2019
6167 Clouds 34 1012 55 9000 3.1 70 05:53 20.12.2019
6168 Clouds 33 1013 58 8000 2.6 70 05:34 20.12.2019
6169 Clouds 32 1013 70 8000 1 0 04:33 20.12.2019
6170 Mist 31 1013 78 3000 2.6 80 03:30 20.12.2019
6171 Mist 31 1013 88 3000 1 0 02:42 20.12.2019
6172 Mist 27 1012 88 3000 1.5 100 01:47 20.12.2019
6173 Mist 26 1012 94 3000 2.1 110 01:29 20.12.2019
6174 Rain 25 1011 94 9000 2.1 100 00:42 20.12.2019
6175 Rain 25 1011 94 9000 2.1 100 00:20 20.12.2019
6176 Rain 25 1011 94 9000 1.5 100 23:43 19.12.2019
6177 Rain 26 1010 88 9000 1 0 23:24 19.12.2019
6178 Rain 26 1010 88 9000 2.75 199 22:59 19.12.2019
6179 Rain 26 1010 88 9000 2.75 199 22:59 19.12.2019
6180 Rain 26 1010 88 9000 2.75 199 22:36 19.12.2019
6181 Rain 26 1010 88 9000 2.75 199 22:18 19.12.2019
6182 Clouds 26 1010 88 10000 1.5 120 21:55 19.12.2019
6183 Clouds 26 1010 78 10000 2.1 120 21:37 19.12.2019
6184 Clouds 27 1010 78 10000 2.1 120 21:18 19.12.2019
6185 Clouds 27 1010 83 10000 2.6 120 20:55 19.12.2019
6186 Clouds 26 1010 83 10000 2.1 120 20:36 19.12.2019
6187 Clouds 26 1010 83 10000 2.1 120 20:18 19.12.2019
6188 Clouds 27 1011 83 10000 3.34 190 19:54 19.12.2019
6189 Clouds 27 1011 78 10000 3.34 190 19:36 19.12.2019
6190 Clouds 27 1011 78 10000 3.34 190 19:18 19.12.2019
6191 Clouds 27 1011 78 10000 2.1 130 18:41 19.12.2019
6192 Clouds 28 1011 78 10000 2.1 130 18:21 19.12.2019
6193 Clouds 27 1011 74 10000 2.1 140 17:57 19.12.2019
6194 Clouds 27 1012 66 10000 2.1 140 17:38 19.12.2019
6195 Clouds 27 1012 66 10000 2.1 140 17:38 19.12.2019
6196 Clouds 28 1012 66 10000 2.1 140 17:19 19.12.2019
6197 Clouds 28 1012 66 10000 2.1 120 16:57 19.12.2019
6198 Clouds 28 1012 62 10000 2.1 340 16:38 19.12.2019
6199 Clouds 28 1012 62 10000 2.1 340 16:20 19.12.2019
6200 Clouds 28 1012 62 10000 2.1 340 16:20 19.12.2019
6201 Clouds 29 1011 58 10000 1.5 350 15:58 19.12.2019
6202 Clouds 29 1011 58 10000 3.15 186 15:39 19.12.2019
6203 Clouds 29 1011 58 10000 3.15 186 15:19 19.12.2019
6204 Clouds 30 1011 58 10000 3.15 186 14:57 19.12.2019
6205 Clouds 29 1011 55 10000 3.15 186 14:39 19.12.2019
6206 Clouds 30 1011 55 10000 3.76 154 14:18 19.12.2019
6207 Clouds 30 1010 58 10000 3.76 154 13:54 19.12.2019
6208 Clouds 30 1010 52 10000 3.76 154 13:36 19.12.2019
6209 Clouds 30 1010 52 10000 4.85 165 13:18 19.12.2019
6210 Clouds 30 1010 55 10000 4.85 165 12:54 19.12.2019
6211 Clouds 31 1010 52 10000 1.5 130 12:36 19.12.2019
6212 Clouds 31 1010 52 10000 1.5 130 12:18 19.12.2019
6213 Clouds 31 1010 52 10000 1.5 130 12:18 19.12.2019
6214 Clouds 32 1009 49 10000 3.6 90 11:42 19.12.2019
6215 Clouds 33 1009 49 10000 3.6 90 11:20 19.12.2019
6216 Clouds 33 1009 49 10000 3.6 90 11:20 19.12.2019
6217 Clouds 33 1009 49 10000 3.6 90 11:20 19.12.2019
6218 Clouds 33 1009 49 10000 3.6 90 10:59 19.12.2019
6219 Clouds 33 1009 46 10000 3.1 100 10:38 19.12.2019
6220 Clouds 33 1009 46 10000 3.1 100 10:20 19.12.2019
6221 Clouds 33 1009 46 10000 3.1 100 10:20 19.12.2019
6222 Clouds 34 1009 44 10000 3.1 120 09:57 19.12.2019
6223 Clouds 34 1009 44 10000 2.6 0 09:38 19.12.2019
6224 Clouds 34 1009 44 10000 2.6 0 09:19 19.12.2019
6225 Clouds 34 1009 44 10000 2.6 0 09:19 19.12.2019
6226 Clouds 34 1010 44 10000 2.6 110 08:55 19.12.2019
6227 Clouds 34 1010 44 10000 2.6 110 08:55 19.12.2019
6228 Clouds 35 1010 46 10000 2.6 0 08:37 19.12.2019
6229 Clouds 34 1010 46 10000 2.6 0 08:18 19.12.2019
6230 Clouds 34 1011 44 10000 3.1 120 07:54 19.12.2019
6231 Clouds 34 1011 46 10000 2.6 70 07:36 19.12.2019
6232 Clouds 34 1011 46 10000 2.6 70 07:18 19.12.2019
6233 Clouds 34 1013 49 10000 2.6 70 06:42 19.12.2019
6234 Clouds 34 1013 49 10000 2.6 70 06:23 19.12.2019
6235 Clouds 34 1013 52 10000 2.1 80 05:45 19.12.2019
6236 Clouds 33 1014 55 10000 2.6 0 05:20 19.12.2019
6237 Clear 31 1015 70 7000 1.5 80 03:54 19.12.2019
6238 Clear 29 1014 83 6000 2.1 120 02:29 19.12.2019
6239 Mist 26 1013 88 4000 2.1 120 01:26 19.12.2019
6240 Clear 25 1012 88 6000 3.1 110 00:59 19.12.2019
6241 Clouds 25 1012 88 10000 1 100 00:39 19.12.2019
6242 Clouds 25 1012 88 10000 1 100 00:19 19.12.2019
6243 Clouds 25 1012 88 10000 1.5 60 23:45 18.12.2019
6244 Clouds 25 1012 83 10000 1.95 245 23:19 18.12.2019
6245 Clouds 25 1012 78 10000 2.1 120 22:58 18.12.2019
6246 Clouds 26 1012 78 10000 1.5 100 22:39 18.12.2019
6247 Clouds 26 1012 78 10000 1.5 100 22:39 18.12.2019
6248 Clouds 26 1012 78 10000 1.5 100 22:21 18.12.2019
6249 Clouds 26 1012 74 10000 1.5 120 21:58 18.12.2019
6250 Clouds 26 1012 74 10000 1.95 245 21:40 18.12.2019
6251 Clouds 26 1012 74 10000 1.95 245 21:20 18.12.2019
6252 Clouds 26 1012 74 10000 1.95 245 21:20 18.12.2019
6253 Clouds 26 1012 74 10000 1.5 20 20:57 18.12.2019
6254 Clouds 26 1012 69 10000 2.1 350 20:38 18.12.2019
6255 Clouds 27 1012 69 10000 2.1 350 20:20 18.12.2019
6256 Clouds 26 1013 69 10000 3.18 199 19:56 18.12.2019
6257 Clouds 26 1013 69 10000 2.1 190 19:38 18.12.2019
6258 Clouds 26 1013 69 10000 2.1 190 19:18 18.12.2019
6259 Clouds 27 1013 69 10000 2.1 190 18:54 18.12.2019
6260 Clouds 27 1013 74 10000 1.5 160 18:36 18.12.2019
6261 Clouds 27 1013 74 10000 1.5 160 18:18 18.12.2019
6262 Clouds 27 1013 65 10000 1.5 160 17:55 18.12.2019
6263 Clouds 27 1013 69 10000 2.1 150 17:37 18.12.2019
6264 Clouds 28 1013 69 10000 2.1 150 17:18 18.12.2019
6265 Clouds 29 1013 65 10000 1 180 16:42 18.12.2019
6266 Clouds 29 1013 65 10000 1 180 16:42 18.12.2019
6267 Clouds 28 1013 62 10000 1.5 150 16:23 18.12.2019
6268 Clouds 28 1013 62 10000 3.14 164 15:57 18.12.2019
6269 Clouds 28 1013 62 10000 3.14 164 15:39 18.12.2019
6270 Clouds 28 1013 62 10000 3.14 164 15:21 18.12.2019
6271 Clouds 29 1013 58 10000 3.14 164 14:56 18.12.2019
6272 Clouds 29 1012 58 10000 0.5 0 14:36 18.12.2019
6273 Clouds 30 1012 58 10000 0.5 0 14:18 18.12.2019
6274 Clouds 30 1012 55 10000 2.6 130 13:54 18.12.2019
6275 Clouds 30 1012 55 10000 2.1 80 13:36 18.12.2019
6276 Clouds 30 1012 55 10000 2.1 80 13:18 18.12.2019
6277 Clouds 30 1012 55 10000 2.1 80 13:18 18.12.2019
6278 Clouds 31 1011 49 10000 2.1 120 12:40 18.12.2019
6279 Clouds 31 1011 49 10000 2.1 120 12:40 18.12.2019
6280 Clouds 31 1011 49 10000 2.1 120 12:21 18.12.2019
6281 Clouds 31 1011 49 10000 1.5 100 11:57 18.12.2019
6282 Clouds 32 1010 52 10000 2.1 120 11:39 18.12.2019
6283 Clouds 32 1010 52 10000 2.1 120 11:20 18.12.2019
6284 Clouds 33 1010 46 10000 2.6 140 10:57 18.12.2019
6285 Clouds 34 1010 46 10000 2.1 110 10:39 18.12.2019
6286 Clouds 33 1010 46 10000 2.1 110 10:20 18.12.2019
6287 Clouds 33 1010 46 10000 2.1 110 10:20 18.12.2019
6288 Clouds 34 1010 49 10000 4.6 100 09:57 18.12.2019
6289 Clouds 34 1010 46 10000 4.1 90 09:20 18.12.2019
6290 Clouds 34 1011 46 10000 5.1 70 08:42 18.12.2019
6291 Clouds 34 1011 49 10000 4.1 80 08:24 18.12.2019
6292 Clouds 34 1011 52 10000 5.7 80 07:57 18.12.2019
6293 Clouds 34 1012 52 10000 5.7 80 07:39 18.12.2019
6294 Clouds 34 1012 52 10000 5.7 80 07:19 18.12.2019
6295 Clear 33 1012 52 10000 5.1 80 06:51 18.12.2019
6296 Clear 33 1013 52 10000 5.1 100 06:23 18.12.2019
6297 Clear 33 1014 52 10000 5.1 90 05:34 18.12.2019
6298 Clouds 32 1014 52 10000 3.6 120 03:46 18.12.2019
6299 Clouds 30 1014 62 9000 3.1 90 02:44 18.12.2019
6300 Clouds 27 1014 69 9000 2.6 120 02:26 18.12.2019
6301 Clouds 26 1013 74 9000 2.1 120 01:43 18.12.2019
6302 Clouds 25 1013 78 9000 2.6 120 01:25 18.12.2019
6303 Clouds 25 1012 83 9000 1.63 31 00:42 18.12.2019
6304 Clouds 25 1012 83 9000 1.63 31 00:24 18.12.2019
6305 Clouds 25 1011 83 9000 1.63 31 23:58 17.12.2019
6306 Clouds 25 1011 74 9000 1.5 70 23:39 17.12.2019
6307 Clear 25 1011 74 9000 1.5 70 23:21 17.12.2019
6308 Clear 25 1011 78 9000 2.1 50 22:57 17.12.2019
6309 Clear 26 1011 83 9000 2.33 306 22:38 17.12.2019
6310 Clear 26 1011 83 9000 2.33 306 22:19 17.12.2019
6311 Clear 26 1011 78 9000 2.33 306 21:57 17.12.2019
6312 Clear 26 1011 78 9000 1.5 100 21:38 17.12.2019
6313 Clear 26 1011 78 9000 1.5 100 21:38 17.12.2019
6314 Clear 26 1011 78 9000 1.5 100 21:20 17.12.2019
6315 Clear 26 1011 78 9000 2.1 120 20:58 17.12.2019
6316 Clear 26 1011 65 9000 1 110 20:39 17.12.2019
6317 Clouds 26 1011 65 9000 1 110 20:18 17.12.2019
6318 Clouds 27 1012 61 9000 1 0 19:56 17.12.2019
6319 Clouds 27 1012 69 9000 0.6 270 19:38 17.12.2019
6320 Clouds 27 1012 69 9000 0.6 270 19:19 17.12.2019
6321 Clouds 27 1012 69 9000 1.5 20 18:55 17.12.2019
6322 Clouds 27 1012 65 9000 3.6 350 18:37 17.12.2019
6323 Clouds 27 1012 65 9000 3.6 350 18:19 17.12.2019
6324 Clouds 27 1012 58 9000 2.1 350 17:42 17.12.2019
6325 Clouds 27 1012 58 9000 2.1 350 17:42 17.12.2019
6326 Clouds 27 1012 58 9000 2.1 350 17:21 17.12.2019
6327 Clouds 28 1012 55 9000 3.1 360 16:57 17.12.2019
6328 Clouds 28 1012 58 10000 2.1 10 16:38 17.12.2019
6329 Clouds 28 1012 58 10000 2.1 10 16:19 17.12.2019
6330 Clouds 28 1012 55 10000 2.6 350 15:59 17.12.2019
6331 Clouds 29 1012 52 10000 2.6 320 15:37 17.12.2019
6332 Clouds 29 1012 52 10000 2.6 320 15:19 17.12.2019
6333 Clouds 29 1012 52 10000 3.1 330 14:56 17.12.2019
6334 Clouds 29 1012 55 10000 3.1 330 14:37 17.12.2019
6335 Clouds 30 1012 55 10000 3.1 330 14:18 17.12.2019
6336 Clouds 30 1012 55 10000 3.1 330 14:18 17.12.2019
6337 Clouds 30 1012 55 10000 3.1 350 13:56 17.12.2019
6338 Clouds 30 1011 52 10000 1.5 70 13:38 17.12.2019
6339 Clouds 30 1011 52 10000 1.5 70 13:18 17.12.2019
6340 Clouds 29 1011 52 10000 2.1 80 12:55 17.12.2019
6341 Clouds 29 1010 49 10000 2.6 80 12:37 17.12.2019
6342 Clouds 29 1010 49 10000 2.6 80 12:18 17.12.2019
6343 Clouds 30 1010 49 10000 3.1 70 11:54 17.12.2019
6344 Clouds 32 1010 46 10000 3.1 80 11:36 17.12.2019
6345 Clouds 34 1010 46 10000 3.6 80 11:18 17.12.2019
6346 Clouds 33 1010 46 10000 3.6 80 10:54 17.12.2019
6347 Clouds 32 1010 44 10000 3.1 90 10:36 17.12.2019
6348 Clouds 33 1010 44 10000 3.1 90 10:18 17.12.2019
6349 Clouds 35 1010 44 10000 4.1 60 09:42 17.12.2019
6350 Clouds 35 1010 44 10000 4.1 60 09:21 17.12.2019
6351 Clouds 35 1010 44 10000 4.1 60 09:21 17.12.2019
6352 Clouds 33 1011 46 10000 4.6 60 08:56 17.12.2019
6353 Clouds 34 1011 44 10000 4.6 120 08:38 17.12.2019
6354 Clouds 34 1011 44 10000 4.6 120 08:38 17.12.2019
6355 Clouds 34 1011 44 10000 4.6 120 08:38 17.12.2019
6356 Clouds 33 1011 44 10000 4.6 120 08:20 17.12.2019
6357 Clouds 33 1011 44 10000 5.1 120 07:55 17.12.2019
6358 Clouds 33 1012 44 10000 4.6 80 07:36 17.12.2019
6359 Clouds 32 1012 44 10000 4.6 80 07:18 17.12.2019
6360 Clouds 34 1013 43 10000 2.1 40 06:35 17.12.2019
6361 Clouds 34 1013 41 9000 4.1 60 05:56 17.12.2019
6362 Clouds 34 1014 43 9000 2.6 70 05:36 17.12.2019
6363 Clouds 31 1014 55 9000 2.1 360 04:33 17.12.2019
6364 Clouds 30 1014 69 6000 3.1 360 02:45 17.12.2019
6365 Clouds 26 1013 78 6000 2.6 350 01:56 17.12.2019
6366 Clouds 25 1013 74 6000 2.1 340 01:18 17.12.2019
6367 Clouds 25 1012 78 7000 1 0 00:38 17.12.2019
6368 Clouds 25 1012 78 7000 1 0 00:38 17.12.2019
6369 Clouds 25 1012 78 7000 1 0 00:38 17.12.2019
6370 Clouds 25 1012 78 7000 1 0 00:38 17.12.2019
6371 Clouds 25 1012 78 7000 1 0 00:38 17.12.2019
6372 Clouds 25 1012 78 7000 1 0 00:20 17.12.2019
6373 Clouds 25 1012 83 8000 1.85 349 23:42 16.12.2019
6374 Clouds 25 1012 83 8000 0.41 82 23:19 16.12.2019
6375 Clouds 25 1011 78 8000 0.41 82 22:58 16.12.2019
6376 Clouds 25 1011 83 9000 1 30 22:37 16.12.2019
6377 Clouds 25 1011 83 9000 1 30 22:19 16.12.2019
6378 Clouds 25 1011 83 9000 1 30 22:19 16.12.2019
6379 Clouds 25 1011 83 9000 2.1 350 21:56 16.12.2019
6380 Clouds 25 1011 78 9000 1.5 350 21:37 16.12.2019
6381 Clouds 25 1011 78 9000 1.5 350 21:19 16.12.2019
6382 Clouds 25 1012 78 9000 1.5 20 20:57 16.12.2019
6383 Clouds 26 1012 74 9000 0.41 82 20:38 16.12.2019
6384 Clouds 26 1012 74 9000 0.41 82 20:38 16.12.2019
6385 Clouds 26 1012 74 9000 0.58 261 20:19 16.12.2019
6386 Clouds 26 1012 74 10000 0.58 261 19:56 16.12.2019
6387 Clouds 26 1013 74 10000 1.5 70 19:37 16.12.2019
6388 Clouds 27 1013 74 10000 1.5 70 19:19 16.12.2019
6389 Clouds 27 1013 69 10000 1 0 18:56 16.12.2019
6390 Clouds 27 1013 69 10000 1 0 18:56 16.12.2019
6391 Clouds 27 1013 69 10000 2.1 40 18:38 16.12.2019
6392 Clouds 27 1013 69 10000 2.1 40 18:19 16.12.2019
6393 Clouds 27 1013 69 10000 1.5 40 17:57 16.12.2019
6394 Clouds 27 1013 65 10000 2.1 30 17:38 16.12.2019
6395 Clouds 28 1013 65 10000 2.1 30 17:20 16.12.2019
6396 Clouds 28 1013 65 10000 1.5 40 16:56 16.12.2019
6397 Clouds 28 1013 65 10000 0.93 335 16:38 16.12.2019
6398 Clouds 28 1013 65 10000 0.93 335 16:19 16.12.2019
6399 Clouds 28 1013 65 10000 1 0 15:57 16.12.2019
6400 Clouds 27 1013 62 10000 1.5 50 15:38 16.12.2019
6401 Clouds 28 1013 62 10000 1.5 50 15:20 16.12.2019
6402 Clouds 29 1013 62 10000 2.1 50 14:55 16.12.2019
6403 Clouds 28 1012 62 10000 2.1 40 14:37 16.12.2019
6404 Clouds 28 1012 62 10000 2.1 40 14:37 16.12.2019
6405 Clouds 29 1012 62 10000 2.1 40 14:18 16.12.2019
6406 Clouds 31 1012 58 10000 2.1 30 13:56 16.12.2019
6407 Clouds 31 1012 55 10000 1.5 80 13:37 16.12.2019
6408 Clouds 31 1012 55 10000 1.5 80 13:19 16.12.2019
6409 Clouds 29 1011 55 10000 2.1 110 12:56 16.12.2019
6410 Clouds 29 1011 52 10000 2.6 120 12:38 16.12.2019
6411 Clouds 30 1011 52 10000 2.6 120 12:18 16.12.2019
6412 Clouds 30 1011 49 10000 3.6 90 11:55 16.12.2019
6413 Clouds 31 1010 49 10000 3.6 90 11:37 16.12.2019
6414 Clouds 33 1010 49 10000 3.6 90 11:19 16.12.2019
6415 Clouds 32 1010 52 10000 4.1 90 10:40 16.12.2019
6416 Clouds 32 1010 52 10000 4.1 90 10:40 16.12.2019
6417 Clouds 32 1010 52 10000 4.1 90 10:22 16.12.2019
6418 Clouds 33 1010 46 10000 3.1 100 09:59 16.12.2019
6419 Clouds 33 1010 46 10000 4.1 120 09:41 16.12.2019
6420 Clouds 33 1010 46 10000 4.1 120 09:23 16.12.2019
6421 Clouds 33 1011 49 10000 3.6 90 08:40 16.12.2019
6422 Clouds 33 1011 49 10000 3.6 90 08:20 16.12.2019
6423 Clouds 33 1011 49 10000 4.6 90 07:53 16.12.2019
6424 Clouds 32 1012 49 10000 5.1 90 07:31 16.12.2019
6425 Clouds 32 1012 49 10000 5.7 90 06:57 16.12.2019
6426 Clouds 32 1013 49 10000 5.1 90 06:39 16.12.2019
6427 Clouds 32 1013 49 10000 5.1 80 06:18 16.12.2019
6428 Clear 32 1014 55 9000 4.1 110 05:41 16.12.2019
6429 Clear 31 1014 55 9000 4.1 110 05:22 16.12.2019
6430 Clear 29 1013 61 7000 3.1 360 03:28 16.12.2019
6431 Clouds 26 1012 69 7000 2.1 340 01:46 16.12.2019
6432 Clouds 24 1011 78 8000 2.6 330 00:57 16.12.2019
6433 Clouds 24 1011 73 8000 2.1 340 00:38 16.12.2019
6434 Clouds 24 1011 73 8000 2.1 340 00:19 16.12.2019
6435 Clouds 24 1011 78 9000 2.6 350 23:44 15.12.2019
6436 Clouds 24 1011 78 9000 2.6 350 23:25 15.12.2019
6437 Clouds 24 1011 78 10000 2.6 340 22:57 15.12.2019
6438 Clouds 24 1011 73 10000 2.1 330 22:38 15.12.2019
6439 Clouds 24 1011 73 10000 2.1 330 22:38 15.12.2019
6440 Clouds 24 1011 73 10000 2.1 330 22:19 15.12.2019
6441 Clouds 25 1011 69 10000 2.1 340 21:58 15.12.2019
6442 Clouds 25 1011 73 10000 2.1 340 21:38 15.12.2019
6443 Clouds 25 1011 73 10000 2.1 340 21:20 15.12.2019
6444 Clouds 25 1011 69 10000 1.5 330 20:58 15.12.2019
6445 Clouds 26 1012 69 10000 2.1 340 20:39 15.12.2019
6446 Clouds 26 1012 69 10000 2.1 340 20:39 15.12.2019
6447 Clouds 26 1012 69 10000 2.1 340 20:21 15.12.2019
6448 Clouds 26 1012 65 10000 1.5 360 19:58 15.12.2019
6449 Clouds 26 1012 69 10000 2.1 340 19:40 15.12.2019
6450 Clouds 26 1012 69 10000 2.1 340 19:20 15.12.2019
6451 Clouds 26 1012 74 10000 2.54 63 18:57 15.12.2019
6452 Clouds 26 1013 65 10000 2.54 63 18:39 15.12.2019
6453 Clouds 26 1013 65 10000 2.54 63 18:19 15.12.2019
6454 Clouds 26 1013 65 10000 2.54 63 18:19 15.12.2019
6455 Clouds 27 1013 69 10000 2.67 72 17:56 15.12.2019
6456 Clouds 27 1013 61 10000 2.67 72 17:37 15.12.2019
6457 Clouds 27 1013 61 10000 2.97 64 17:19 15.12.2019
6458 Clouds 27 1013 61 10000 2.97 64 16:57 15.12.2019
6459 Clouds 27 1013 61 10000 3.12 66 16:39 15.12.2019
6460 Clouds 27 1013 61 10000 3.12 66 16:20 15.12.2019
6461 Clouds 28 1013 61 10000 3.12 66 15:55 15.12.2019
6462 Clouds 28 1013 61 10000 3.12 66 15:55 15.12.2019
6463 Clouds 28 1012 58 10000 1.5 120 15:37 15.12.2019
6464 Clouds 28 1012 58 10000 1.5 120 15:18 15.12.2019
6465 Clouds 28 1012 62 10000 1.5 120 14:55 15.12.2019
6466 Clouds 28 1012 62 10000 1.5 120 14:55 15.12.2019
6467 Clouds 27 1012 58 10000 2.1 120 14:36 15.12.2019
6468 Clouds 28 1012 58 10000 2.1 120 14:18 15.12.2019
6469 Clouds 29 1012 55 10000 2.1 120 13:55 15.12.2019
6470 Clouds 29 1011 55 10000 2.6 110 13:37 15.12.2019
6471 Clouds 29 1011 55 10000 2.6 110 13:18 15.12.2019
6472 Clouds 29 1011 55 10000 2.6 110 13:18 15.12.2019
6473 Clouds 30 1011 55 10000 2.6 110 12:56 15.12.2019
6474 Clouds 30 1011 52 10000 3.1 110 12:38 15.12.2019
6475 Clouds 30 1011 52 10000 3.1 110 12:19 15.12.2019
6476 Clouds 30 1011 46 10000 1.5 0 11:38 15.12.2019
6477 Clouds 33 1011 46 10000 1.5 0 11:20 15.12.2019
6478 Clouds 32 1011 46 10000 2.6 70 10:58 15.12.2019
6479 Clouds 34 1011 46 10000 3.6 70 10:40 15.12.2019
6480 Clouds 34 1011 46 10000 3.6 70 10:20 15.12.2019
6481 Clouds 34 1011 43 10000 2.1 80 09:59 15.12.2019
6482 Clouds 34 1011 46 10000 3.6 50 09:38 15.12.2019
6483 Clouds 34 1011 46 10000 3.6 50 09:20 15.12.2019
6484 Clouds 33 1011 46 10000 3.1 360 08:55 15.12.2019
6485 Clouds 33 1012 43 10000 2.1 0 08:37 15.12.2019
6486 Clouds 32 1012 43 10000 2.1 0 08:19 15.12.2019
6487 Clouds 32 1012 43 10000 2.1 0 07:53 15.12.2019
6488 Clouds 32 1013 41 9000 4.6 50 07:31 15.12.2019
6489 Clear 32 1014 43 9000 3.1 50 06:30 15.12.2019
6490 Clear 32 1015 45 9000 3.6 20 05:49 15.12.2019
6491 Clear 31 1015 45 9000 3.6 20 05:22 15.12.2019
6492 Clear 30 1015 48 9000 3.1 10 04:22 15.12.2019
6493 Clear 28 1015 57 7000 2.1 340 02:55 15.12.2019
6494 Clouds 27 1015 64 6000 2.6 340 02:32 15.12.2019
6495 Clouds 24 1014 69 6000 2.6 340 01:41 15.12.2019
6496 Clouds 23 1014 69 6000 2.6 340 01:19 15.12.2019
6497 Clouds 23 1013 69 7000 2.6 330 00:51 15.12.2019
6498 Clouds 23 1013 69 9000 1.5 330 00:32 15.12.2019
6499 Clouds 23 1013 73 9000 2.1 340 23:54 14.12.2019
6500 Clouds 23 1013 73 9000 2.1 340 23:36 14.12.2019
6501 Clouds 23 1013 69 9000 1.5 340 23:18 14.12.2019
6502 Clouds 24 1013 69 9000 1 20 22:42 14.12.2019
6503 Clouds 24 1013 69 9000 1 20 22:42 14.12.2019
6504 Clouds 24 1013 69 9000 1 20 22:23 14.12.2019
6505 Clouds 24 1013 73 9000 1 330 21:58 14.12.2019
6506 Clouds 24 1013 73 9000 1.5 340 21:40 14.12.2019
6507 Clouds 24 1013 73 9000 1.5 340 21:20 14.12.2019
6508 Clouds 24 1013 73 9000 2.1 350 20:59 14.12.2019
6509 Clouds 24 1013 73 9000 2.1 340 20:41 14.12.2019
6510 Clouds 24 1013 73 9000 2.1 340 20:20 14.12.2019
6511 Clouds 24 1014 69 9000 2.6 360 19:57 14.12.2019
6512 Clouds 25 1014 65 10000 3.1 340 19:39 14.12.2019
6513 Clouds 24 1014 65 10000 3.1 340 19:20 14.12.2019
6514 Clouds 25 1014 61 10000 2.6 340 18:56 14.12.2019
6515 Clouds 25 1014 57 10000 2.6 330 18:38 14.12.2019
6516 Clouds 26 1014 57 10000 2.6 330 18:19 14.12.2019
6517 Clouds 25 1014 57 10000 2.6 320 17:44 14.12.2019
6518 Clouds 26 1014 57 10000 2.6 320 17:24 14.12.2019
6519 Clouds 26 1014 61 10000 2.1 330 16:59 14.12.2019
6520 Clouds 26 1014 54 10000 1.5 340 16:40 14.12.2019
6521 Clouds 27 1014 54 10000 1.5 340 16:19 14.12.2019
6522 Clouds 27 1014 54 10000 2.1 320 15:43 14.12.2019
6523 Clouds 27 1014 54 10000 2.1 330 15:25 14.12.2019
6524 Clouds 27 1014 51 10000 2.6 350 14:59 14.12.2019
6525 Clouds 28 1013 51 10000 2.6 340 14:39 14.12.2019
6526 Clouds 28 1013 51 10000 2.6 340 14:20 14.12.2019
6527 Clouds 28 1013 54 10000 1.5 330 13:57 14.12.2019
6528 Clouds 28 1013 58 10000 0.53 323 13:39 14.12.2019
6529 Clouds 28 1013 58 10000 0.73 6 13:19 14.12.2019
6530 Clouds 28 1012 51 10000 1.5 130 12:55 14.12.2019
6531 Clouds 29 1012 51 10000 2.6 130 12:37 14.12.2019
6532 Clouds 29 1012 51 10000 2.6 130 12:18 14.12.2019
6533 Clouds 30 1012 48 10000 3.1 120 11:55 14.12.2019
6534 Clouds 30 1012 48 10000 3.1 110 11:37 14.12.2019
6535 Clouds 32 1012 46 10000 2.6 90 11:18 14.12.2019
6536 Clouds 31 1012 46 10000 2.6 90 10:55 14.12.2019
6537 Clouds 32 1012 43 10000 5.1 100 10:37 14.12.2019
6538 Clouds 32 1012 43 10000 5.1 100 10:18 14.12.2019
6539 Clouds 32 1012 43 10000 4.6 70 09:40 14.12.2019
6540 Clouds 32 1012 43 10000 4.6 70 09:40 14.12.2019
6541 Clouds 33 1012 43 10000 4.6 70 09:20 14.12.2019
6542 Clouds 33 1012 43 10000 4.6 70 09:20 14.12.2019
6543 Clouds 32 1013 43 10000 6.2 70 08:44 14.12.2019
6544 Clouds 31 1013 45 10000 4.6 70 08:20 14.12.2019
6545 Clouds 32 1014 43 10000 4.1 50 07:57 14.12.2019
6546 Clouds 31 1015 45 10000 3.1 80 07:38 14.12.2019
6547 Clouds 32 1015 45 10000 3.1 80 07:19 14.12.2019
6548 Clouds 32 1015 45 10000 3.1 80 07:19 14.12.2019
6549 Clouds 32 1016 48 10000 2.6 70 06:39 14.12.2019
6550 Clouds 31 1017 48 10000 3.1 100 06:20 14.12.2019
6551 Clouds 30 1017 51 10000 2.6 50 05:22 14.12.2019
6552 Clouds 27 1017 64 8000 2.6 80 02:49 14.12.2019
6553 Clouds 25 1017 69 8000 2.6 30 02:22 14.12.2019
6554 Clouds 24 1016 73 7000 1.5 350 01:43 14.12.2019
6555 Clouds 23 1015 77 7000 3.1 350 00:50 14.12.2019
6556 Clouds 23 1015 73 8000 2.6 340 00:29 14.12.2019
6557 Clouds 23 1015 73 9000 2.6 330 23:58 13.12.2019
6558 Clouds 22 1014 78 9000 2.6 330 23:39 13.12.2019
6559 Clouds 22 1014 78 9000 2.6 330 23:19 13.12.2019
6560 Clouds 22 1014 78 9000 2.6 340 22:55 13.12.2019
6561 Clouds 23 1014 73 9000 3.6 340 22:36 13.12.2019
6562 Clouds 23 1014 73 9000 3.6 340 22:36 13.12.2019
6563 Clouds 23 1014 73 9000 3.6 340 22:18 13.12.2019
6564 Clouds 23 1014 78 9000 2.6 350 21:39 13.12.2019
6565 Clouds 23 1014 78 9000 2.6 350 21:21 13.12.2019
6566 Clouds 23 1015 69 9000 2.1 360 20:54 13.12.2019
6567 Clouds 24 1015 73 9000 1.5 360 20:36 13.12.2019
6568 Clear 24 1015 73 9000 1.5 360 20:18 13.12.2019
6569 Clear 24 1015 73 9000 1.5 360 19:56 13.12.2019
6570 Clear 24 1015 73 9000 2.1 30 19:36 13.12.2019
6571 Clear 24 1016 78 9000 2.1 60 19:18 13.12.2019
6572 Clear 25 1016 69 9000 2.1 60 18:41 13.12.2019
6573 Clear 25 1016 69 9000 2.1 60 18:19 13.12.2019
6574 Clear 25 1016 65 9000 2.1 70 17:57 13.12.2019
6575 Clear 25 1016 61 9000 2.1 80 17:39 13.12.2019
6576 Clear 25 1016 61 9000 2.1 80 17:18 13.12.2019
6577 Clouds 26 1016 57 10000 1.5 110 16:54 13.12.2019
6578 Clouds 26 1016 57 10000 2.1 110 16:36 13.12.2019
6579 Clouds 26 1016 57 10000 2.1 110 16:18 13.12.2019
6580 Clouds 25 1016 57 10000 2.12 57 15:40 13.12.2019
6581 Clouds 25 1016 57 10000 2.12 57 15:20 13.12.2019
6582 Clouds 25 1015 61 10000 2.12 57 14:55 13.12.2019
6583 Clouds 25 1015 58 10000 1.5 130 14:36 13.12.2019
6584 Clouds 26 1015 58 10000 1.5 130 14:18 13.12.2019
6585 Clouds 28 1014 51 10000 1.5 120 13:41 13.12.2019
6586 Clouds 28 1014 51 10000 1.5 120 13:21 13.12.2019
6587 Clouds 29 1013 45 10000 2.1 70 12:44 13.12.2019
6588 Clouds 29 1013 45 10000 2.1 70 12:23 13.12.2019
6589 Clouds 29 1013 45 10000 3.1 40 11:58 13.12.2019
6590 Clouds 30 1013 40 10000 3.6 50 11:40 13.12.2019
6591 Clouds 31 1013 40 10000 3.6 50 11:22 13.12.2019
6592 Clouds 31 1013 40 10000 3.6 20 10:55 13.12.2019
6593 Clouds 31 1013 40 10000 3.6 40 10:37 13.12.2019
6594 Clouds 31 1013 40 10000 3.6 40 10:19 13.12.2019
6595 Clouds 31 1013 40 9000 2.6 360 09:39 13.12.2019
6596 Clouds 31 1013 40 9000 2.6 360 09:20 13.12.2019
6597 Clouds 32 1014 40 9000 2.6 90 08:42 13.12.2019
6598 Clouds 32 1014 40 9000 2.6 90 08:24 13.12.2019
6599 Clouds 31 1014 40 9000 1.56 81 07:46 13.12.2019
6600 Clouds 32 1015 40 9000 3.6 100 07:23 13.12.2019
6601 Clouds 31 1015 40 9000 2.1 60 06:55 13.12.2019
6602 Clouds 31 1016 40 9000 3.1 30 06:29 13.12.2019
6603 Clouds 31 1016 45 9000 2.1 40 05:47 13.12.2019
6604 Clouds 31 1017 48 9000 2.1 20 05:28 13.12.2019
6605 Clouds 28 1017 48 9000 2.6 10 04:46 13.12.2019
6606 Clouds 28 1017 54 7000 1.5 120 03:47 13.12.2019
6607 Mist 26 1016 69 5000 2.6 340 02:34 13.12.2019
6608 Mist 24 1015 69 5000 1.5 330 01:47 13.12.2019
6609 Mist 21 1014 88 5000 2.91 349 00:57 13.12.2019
6610 Clear 21 1014 77 7000 2.91 349 00:37 13.12.2019
6611 Clear 21 1013 73 7000 2.6 50 23:59 12.12.2019
6612 Clear 21 1013 73 7000 2.6 50 23:59 12.12.2019
6613 Clear 21 1013 82 8000 2.91 349 23:39 12.12.2019
6614 Clear 21 1013 82 8000 3 10 23:21 12.12.2019
6615 Clear 21 1013 82 8000 3 10 22:56 12.12.2019
6616 Clear 21 1013 82 8000 3 10 22:56 12.12.2019
6617 Clear 22 1013 77 8000 3 10 22:37 12.12.2019
6618 Clear 22 1013 77 8000 3 10 22:19 12.12.2019
6619 Clear 22 1013 77 8000 3 10 21:55 12.12.2019
6620 Clear 22 1013 77 8000 3 10 21:36 12.12.2019
6621 Clear 22 1013 77 8000 3 10 21:36 12.12.2019
6622 Clear 22 1013 77 8000 3 10 21:18 12.12.2019
6623 Clear 23 1013 73 8000 3 10 20:55 12.12.2019
6624 Clear 23 1014 73 8000 1 0 20:37 12.12.2019
6625 Clouds 23 1014 73 8000 1 0 20:19 12.12.2019
6626 Clouds 23 1014 69 9000 1.5 40 19:42 12.12.2019
6627 Clouds 23 1014 69 9000 1.5 40 19:23 12.12.2019
6628 Clouds 23 1014 69 9000 2.1 40 18:58 12.12.2019
6629 Clouds 23 1015 69 9000 2.1 50 18:40 12.12.2019
6630 Clouds 23 1015 69 9000 2.1 50 18:40 12.12.2019
6631 Clouds 23 1015 69 9000 2.1 50 18:21 12.12.2019
6632 Clouds 24 1015 64 9000 2.1 50 17:58 12.12.2019
6633 Clouds 24 1015 64 9000 2.1 70 17:40 12.12.2019
6634 Clouds 24 1015 64 9000 2.1 70 17:21 12.12.2019
6635 Clouds 25 1015 57 9000 2.1 60 16:58 12.12.2019
6636 Clouds 25 1015 54 9000 2.6 70 16:40 12.12.2019
6637 Clouds 25 1015 54 9000 2.6 70 16:21 12.12.2019
6638 Clouds 25 1015 54 9000 1.5 80 15:57 12.12.2019
6639 Clouds 26 1014 54 9000 1.5 100 15:39 12.12.2019
6640 Clouds 26 1014 54 9000 1.5 100 15:18 12.12.2019
6641 Clouds 26 1014 51 9000 1 0 14:38 12.12.2019
6642 Clouds 26 1014 51 9000 1 0 14:38 12.12.2019
6643 Clouds 27 1014 51 9000 1 0 14:20 12.12.2019
6644 Clouds 27 1013 48 9000 2.6 110 13:58 12.12.2019
6645 Clouds 27 1013 48 9000 2.6 110 13:40 12.12.2019
6646 Clouds 27 1013 48 9000 2.6 110 13:21 12.12.2019
6647 Clouds 28 1012 48 9000 3.1 110 12:59 12.12.2019
6648 Clouds 29 1012 45 9000 3.1 110 12:40 12.12.2019
6649 Clouds 29 1012 45 9000 3.1 110 12:22 12.12.2019
6650 Clouds 30 1011 42 9000 3.1 110 11:57 12.12.2019
6651 Clouds 30 1011 42 9000 3.6 100 11:38 12.12.2019
6652 Clear 29 1011 42 9000 3.6 100 11:19 12.12.2019
6653 Clear 30 1011 42 9000 3.1 120 10:56 12.12.2019
6654 Clear 30 1011 38 9000 4.1 80 10:38 12.12.2019
6655 Clear 30 1011 38 9000 4.1 80 10:20 12.12.2019
6656 Clear 31 1011 38 9000 3.1 130 09:55 12.12.2019
6657 Clear 32 1011 38 9000 3.1 100 09:37 12.12.2019
6658 Clear 32 1011 38 9000 2.6 130 09:18 12.12.2019
6659 Clear 32 1011 38 9000 2.6 130 08:43 12.12.2019
6660 Clear 31 1012 38 9000 4.1 110 08:25 12.12.2019
6661 Clouds 31 1012 37 9000 3.1 110 07:49 12.12.2019
6662 Clouds 31 1013 40 9000 3.6 80 07:26 12.12.2019
6663 Clouds 31 1014 40 9000 4.1 80 06:55 12.12.2019
6664 Clouds 30 1015 40 9000 3.1 0 06:35 12.12.2019
6665 Clouds 31 1016 42 7000 2.1 360 05:42 12.12.2019
6666 Clouds 29 1016 42 7000 2.1 10 04:54 12.12.2019
6667 Clouds 28 1016 54 7000 1 0 03:50 12.12.2019
6668 Clouds 26 1015 69 7000 2.1 350 02:40 12.12.2019
6669 Clear 24 1015 69 7000 2.1 350 02:21 12.12.2019
6670 Clear 22 1015 77 7000 3.1 340 01:46 12.12.2019
6671 Clear 22 1014 77 8000 2.1 350 01:28 12.12.2019
6672 Clouds 21 1013 73 9000 2.1 350 00:47 12.12.2019
6673 Clouds 21 1013 77 10000 2.1 20 00:20 12.12.2019
6674 Clouds 21 1013 68 10000 1.5 100</